<?xml version='1.0' encoding='UTF-8'?><gpx version="1.1" creator="JPX - https://github.com/jenetics/jpx" xmlns="http://www.topografix.com/GPX/1/1"><trk><trkseg><trkpt lat="44.7698187" lon="10.7694048"><ele>29.8</ele><time>2026-04-07T15:29:42.983Z</time></trkpt><trkpt lat="44.7697033" lon="10.7693409"><ele>29.6</ele><time>2026-04-07T15:29:43.983Z</time></trkpt><trkpt lat="44.7696206" lon="10.7692964"><ele>29.4</ele><time>2026-04-07T15:29:44.982Z</time></trkpt><trkpt lat="44.7695466" lon="10.7692452"><ele>29.2</ele><time>2026-04-07T15:29:45.982Z</time></trkpt><trkpt lat="44.7694799" lon="10.7692053"><ele>29.0</ele><time>2026-04-07T15:29:46.983Z</time></trkpt><trkpt lat="44.7694001" lon="10.7691755"><ele>29.333333333333332</ele><time>2026-04-07T15:29:47.983Z</time></trkpt><trkpt lat="44.7693271" lon="10.7691395"><ele>29.666666666666664</ele><time>2026-04-07T15:29:48.983Z</time></trkpt><trkpt lat="44.769257" lon="10.7691029"><ele>30.0</ele><time>2026-04-07T15:29:49.982Z</time></trkpt><trkpt lat="44.7691916" lon="10.7690591"><ele>30.333333333333336</ele><time>2026-04-07T15:29:50.982Z</time></trkpt><trkpt lat="44.7691366" lon="10.769014"><ele>30.666666666666668</ele><time>2026-04-07T15:29:51.983Z</time></trkpt><trkpt lat="44.769026" lon="10.768947"><ele>31.0</ele><time>2026-04-07T15:29:53.983Z</time></trkpt><trkpt lat="44.7689679" lon="10.7689068"><ele>31.0</ele><time>2026-04-07T15:29:54.983Z</time></trkpt><trkpt lat="44.7689056" lon="10.7688756"><ele>31.0</ele><time>2026-04-07T15:29:55.983Z</time></trkpt><trkpt lat="44.7687977" lon="10.7688172"><ele>31.0</ele><time>2026-04-07T15:29:57.983Z</time></trkpt><trkpt lat="44.7687005" lon="10.7687755"><ele>31.0</ele><time>2026-04-07T15:29:59.983Z</time></trkpt><trkpt lat="44.7686173" lon="10.7687074"><ele>31.0</ele><time>2026-04-07T15:30:03.983Z</time></trkpt><trkpt lat="44.7686144" lon="10.7686005"><ele>31.166666666666668</ele><time>2026-04-07T15:30:06.029Z</time></trkpt><trkpt lat="44.7686319" lon="10.7684981"><ele>31.333333333333336</ele><time>2026-04-07T15:30:06.983Z</time></trkpt><trkpt lat="44.7686474" lon="10.768371"><ele>31.5</ele><time>2026-04-07T15:30:07.983Z</time></trkpt><trkpt lat="44.7686688" lon="10.7682574"><ele>31.666666666666664</ele><time>2026-04-07T15:30:08.983Z</time></trkpt><trkpt lat="44.7686898" lon="10.7681474"><ele>31.833333333333332</ele><time>2026-04-07T15:30:09.982Z</time></trkpt><trkpt lat="44.7687116" lon="10.7680305"><ele>32.0</ele><time>2026-04-07T15:30:10.983Z</time></trkpt><trkpt lat="44.7687361" lon="10.7679069"><ele>31.999999999999996</ele><time>2026-04-07T15:30:11.983Z</time></trkpt><trkpt lat="44.7687582" lon="10.7677736"><ele>32.0</ele><time>2026-04-07T15:30:12.983Z</time></trkpt><trkpt lat="44.7687741" lon="10.7676529"><ele>32.0</ele><time>2026-04-07T15:30:13.983Z</time></trkpt><trkpt lat="44.7687929" lon="10.7675522"><ele>32.0</ele><time>2026-04-07T15:30:14.983Z</time></trkpt><trkpt lat="44.7688286" lon="10.7674545"><ele>31.999999999999996</ele><time>2026-04-07T15:30:15.983Z</time></trkpt><trkpt lat="44.7688713" lon="10.7673788"><ele>32.0</ele><time>2026-04-07T15:30:16.983Z</time></trkpt><trkpt lat="44.7689335" lon="10.7673369"><ele>31.999999999999996</ele><time>2026-04-07T15:30:17.983Z</time></trkpt><trkpt lat="44.7689989" lon="10.7673465"><ele>32.0</ele><time>2026-04-07T15:30:18.983Z</time></trkpt><trkpt lat="44.7690768" lon="10.7673915"><ele>32.0</ele><time>2026-04-07T15:30:19.983Z</time></trkpt><trkpt lat="44.7691592" lon="10.7674496"><ele>32.0</ele><time>2026-04-07T15:30:20.982Z</time></trkpt><trkpt lat="44.769235" lon="10.7675083"><ele>31.999999999999996</ele><time>2026-04-07T15:30:21.983Z</time></trkpt><trkpt lat="44.76931" lon="10.7675067"><ele>32.0</ele><time>2026-04-07T15:30:22.983Z</time></trkpt><trkpt lat="44.7693667" lon="10.7674667"><ele>31.999999999999996</ele><time>2026-04-07T15:30:23.983Z</time></trkpt><trkpt lat="44.7694133" lon="10.767385"><ele>32.0</ele><time>2026-04-07T15:30:24.983Z</time></trkpt><trkpt lat="44.7694533" lon="10.767275"><ele>32.0</ele><time>2026-04-07T15:30:25.983Z</time></trkpt><trkpt lat="44.7694817" lon="10.7671633"><ele>32.0</ele><time>2026-04-07T15:30:26.983Z</time></trkpt><trkpt lat="44.7695183" lon="10.7670817"><ele>31.999999999999996</ele><time>2026-04-07T15:30:27.983Z</time></trkpt><trkpt lat="44.7695867" lon="10.7669767"><ele>32.0</ele><time>2026-04-07T15:30:29.983Z</time></trkpt><trkpt lat="44.7696567" lon="10.7669983"><ele>31.999999999999996</ele><time>2026-04-07T15:30:30.983Z</time></trkpt><trkpt lat="44.7697367" lon="10.7670383"><ele>32.0</ele><time>2026-04-07T15:30:31.983Z</time></trkpt><trkpt lat="44.76982" lon="10.7670867"><ele>32.0</ele><time>2026-04-07T15:30:32.983Z</time></trkpt><trkpt lat="44.7698933" lon="10.7671317"><ele>32.0</ele><time>2026-04-07T15:30:33.982Z</time></trkpt><trkpt lat="44.769965" lon="10.7671717"><ele>31.999999999999996</ele><time>2026-04-07T15:30:34.983Z</time></trkpt><trkpt lat="44.7700283" lon="10.7671733"><ele>32.0</ele><time>2026-04-07T15:30:35.983Z</time></trkpt><trkpt lat="44.7701217" lon="10.7670783"><ele>32.0</ele><time>2026-04-07T15:30:37.983Z</time></trkpt><trkpt lat="44.77017" lon="10.76686"><ele>32.0</ele><time>2026-04-07T15:30:40.983Z</time></trkpt><trkpt lat="44.7702017" lon="10.76671"><ele>32.0</ele><time>2026-04-07T15:30:42.983Z</time></trkpt><trkpt lat="44.770225" lon="10.7666133"><ele>32.0</ele><time>2026-04-07T15:30:44.983Z</time></trkpt><trkpt lat="44.7702233" lon="10.7664467"><ele>32.0</ele><time>2026-04-07T15:31:15.983Z</time></trkpt><trkpt lat="44.7701817" lon="10.7663367"><ele>32.0</ele><time>2026-04-07T15:31:16.982Z</time></trkpt><trkpt lat="44.77012" lon="10.7662217"><ele>32.0</ele><time>2026-04-07T15:31:17.983Z</time></trkpt><trkpt lat="44.7700367" lon="10.7660867"><ele>32.0</ele><time>2026-04-07T15:31:18.983Z</time></trkpt><trkpt lat="44.7699383" lon="10.7659383"><ele>32.0</ele><time>2026-04-07T15:31:19.983Z</time></trkpt><trkpt lat="44.7698233" lon="10.765765"><ele>32.0</ele><time>2026-04-07T15:31:20.983Z</time></trkpt><trkpt lat="44.7697" lon="10.7655783"><ele>32.0</ele><time>2026-04-07T15:31:21.982Z</time></trkpt><trkpt lat="44.7695667" lon="10.7653783"><ele>31.666666666666664</ele><time>2026-04-07T15:31:22.983Z</time></trkpt><trkpt lat="44.7694267" lon="10.7651667"><ele>31.333333333333336</ele><time>2026-04-07T15:31:23.983Z</time></trkpt><trkpt lat="44.7692717" lon="10.7649517"><ele>31.0</ele><time>2026-04-07T15:31:24.982Z</time></trkpt><trkpt lat="44.76911" lon="10.7647517"><ele>32.0</ele><time>2026-04-07T15:31:25.983Z</time></trkpt><trkpt lat="44.7689283" lon="10.7645633"><ele>33.0</ele><time>2026-04-07T15:31:26.983Z</time></trkpt><trkpt lat="44.76874" lon="10.7643833"><ele>33.0</ele><time>2026-04-07T15:31:27.982Z</time></trkpt><trkpt lat="44.76855" lon="10.7642267"><ele>33.0</ele><time>2026-04-07T15:31:28.982Z</time></trkpt><trkpt lat="44.768355" lon="10.7640867"><ele>33.0</ele><time>2026-04-07T15:31:29.983Z</time></trkpt><trkpt lat="44.768165" lon="10.7639633"><ele>33.0</ele><time>2026-04-07T15:31:30.982Z</time></trkpt><trkpt lat="44.7679817" lon="10.7638417"><ele>33.0</ele><time>2026-04-07T15:31:31.983Z</time></trkpt><trkpt lat="44.76779" lon="10.7637233"><ele>33.0</ele><time>2026-04-07T15:31:32.983Z</time></trkpt><trkpt lat="44.7675967" lon="10.7636067"><ele>32.0</ele><time>2026-04-07T15:31:33.982Z</time></trkpt><trkpt lat="44.7674033" lon="10.7634733"><ele>31.0</ele><time>2026-04-07T15:31:34.983Z</time></trkpt><trkpt lat="44.7672033" lon="10.7633283"><ele>30.0</ele><time>2026-04-07T15:31:35.982Z</time></trkpt><trkpt lat="44.767005" lon="10.763175"><ele>31.0</ele><time>2026-04-07T15:31:36.983Z</time></trkpt><trkpt lat="44.7668067" lon="10.76301"><ele>32.0</ele><time>2026-04-07T15:31:37.983Z</time></trkpt><trkpt lat="44.766615" lon="10.7628367"><ele>32.0</ele><time>2026-04-07T15:31:38.983Z</time></trkpt><trkpt lat="44.7664333" lon="10.7626617"><ele>32.0</ele><time>2026-04-07T15:31:39.982Z</time></trkpt><trkpt lat="44.766255" lon="10.7624967"><ele>32.0</ele><time>2026-04-07T15:31:40.982Z</time></trkpt><trkpt lat="44.7660767" lon="10.7623333"><ele>32.0</ele><time>2026-04-07T15:31:41.981Z</time></trkpt><trkpt lat="44.76589" lon="10.76217"><ele>32.0</ele><time>2026-04-07T15:31:42.982Z</time></trkpt><trkpt lat="44.76571" lon="10.7620033"><ele>32.0</ele><time>2026-04-07T15:31:43.982Z</time></trkpt><trkpt lat="44.7655383" lon="10.7618433"><ele>32.0</ele><time>2026-04-07T15:31:44.982Z</time></trkpt><trkpt lat="44.76537" lon="10.76169"><ele>32.0</ele><time>2026-04-07T15:31:45.982Z</time></trkpt><trkpt lat="44.7651983" lon="10.7615417"><ele>32.0</ele><time>2026-04-07T15:31:46.982Z</time></trkpt><trkpt lat="44.7650383" lon="10.7613917"><ele>33.0</ele><time>2026-04-07T15:31:47.982Z</time></trkpt><trkpt lat="44.7648967" lon="10.7612533"><ele>34.0</ele><time>2026-04-07T15:31:48.981Z</time></trkpt><trkpt lat="44.76476" lon="10.76113"><ele>35.0</ele><time>2026-04-07T15:31:49.982Z</time></trkpt><trkpt lat="44.7646333" lon="10.7610167"><ele>34.75</ele><time>2026-04-07T15:31:50.982Z</time></trkpt><trkpt lat="44.7645183" lon="10.7609"><ele>34.5</ele><time>2026-04-07T15:31:51.982Z</time></trkpt><trkpt lat="44.7644117" lon="10.7607967"><ele>34.25</ele><time>2026-04-07T15:31:52.981Z</time></trkpt><trkpt lat="44.7643117" lon="10.7606983"><ele>34.0</ele><time>2026-04-07T15:31:53.981Z</time></trkpt><trkpt lat="44.7642133" lon="10.760605"><ele>34.0</ele><time>2026-04-07T15:31:54.982Z</time></trkpt><trkpt lat="44.7641317" lon="10.760525"><ele>34.0</ele><time>2026-04-07T15:31:55.981Z</time></trkpt><trkpt lat="44.7640633" lon="10.76045"><ele>34.0</ele><time>2026-04-07T15:31:56.982Z</time></trkpt><trkpt lat="44.7640133" lon="10.7603817"><ele>34.0</ele><time>2026-04-07T15:31:57.981Z</time></trkpt><trkpt lat="44.7639667" lon="10.76027"><ele>34.0</ele><time>2026-04-07T15:31:59.982Z</time></trkpt><trkpt lat="44.7639683" lon="10.7601333"><ele>34.0</ele><time>2026-04-07T15:32:02.981Z</time></trkpt><trkpt lat="44.76397" lon="10.7600067"><ele>33.8</ele><time>2026-04-07T15:32:04.982Z</time></trkpt><trkpt lat="44.763955" lon="10.7599117"><ele>33.599999999999994</ele><time>2026-04-07T15:32:05.982Z</time></trkpt><trkpt lat="44.763935" lon="10.7597983"><ele>33.4</ele><time>2026-04-07T15:32:06.982Z</time></trkpt><trkpt lat="44.76393" lon="10.759665"><ele>33.199999999999996</ele><time>2026-04-07T15:32:07.982Z</time></trkpt><trkpt lat="44.763965" lon="10.7595133"><ele>33.0</ele><time>2026-04-07T15:32:08.982Z</time></trkpt><trkpt lat="44.764035" lon="10.759365"><ele>33.0</ele><time>2026-04-07T15:32:09.982Z</time></trkpt><trkpt lat="44.7641217" lon="10.7592133"><ele>33.0</ele><time>2026-04-07T15:32:10.982Z</time></trkpt><trkpt lat="44.7642167" lon="10.75906"><ele>33.0</ele><time>2026-04-07T15:32:11.982Z</time></trkpt><trkpt lat="44.7643083" lon="10.7589217"><ele>33.0</ele><time>2026-04-07T15:32:12.982Z</time></trkpt><trkpt lat="44.7643883" lon="10.7587917"><ele>33.4</ele><time>2026-04-07T15:32:13.982Z</time></trkpt><trkpt lat="44.7644667" lon="10.7586683"><ele>33.8</ele><time>2026-04-07T15:32:14.981Z</time></trkpt><trkpt lat="44.76453" lon="10.75855"><ele>34.2</ele><time>2026-04-07T15:32:15.982Z</time></trkpt><trkpt lat="44.7645667" lon="10.7584233"><ele>34.6</ele><time>2026-04-07T15:32:16.982Z</time></trkpt><trkpt lat="44.7645683" lon="10.7582817"><ele>35.0</ele><time>2026-04-07T15:32:17.981Z</time></trkpt><trkpt lat="44.7645433" lon="10.7581267"><ele>35.0</ele><time>2026-04-07T15:32:18.982Z</time></trkpt><trkpt lat="44.764485" lon="10.7579467"><ele>35.0</ele><time>2026-04-07T15:32:19.981Z</time></trkpt><trkpt lat="44.7644217" lon="10.7577583"><ele>35.0</ele><time>2026-04-07T15:32:20.981Z</time></trkpt><trkpt lat="44.7643533" lon="10.7575633"><ele>35.0</ele><time>2026-04-07T15:32:21.981Z</time></trkpt><trkpt lat="44.7642867" lon="10.757355"><ele>34.0</ele><time>2026-04-07T15:32:22.981Z</time></trkpt><trkpt lat="44.7642117" lon="10.7571383"><ele>33.0</ele><time>2026-04-07T15:32:23.982Z</time></trkpt><trkpt lat="44.7641383" lon="10.756915"><ele>32.0</ele><time>2026-04-07T15:32:24.981Z</time></trkpt><trkpt lat="44.7640617" lon="10.7566767"><ele>32.0</ele><time>2026-04-07T15:32:25.981Z</time></trkpt><trkpt lat="44.7639783" lon="10.7564367"><ele>32.0</ele><time>2026-04-07T15:32:26.982Z</time></trkpt><trkpt lat="44.76389" lon="10.7561783"><ele>32.0</ele><time>2026-04-07T15:32:27.982Z</time></trkpt><trkpt lat="44.7638083" lon="10.7559117"><ele>32.0</ele><time>2026-04-07T15:32:28.982Z</time></trkpt><trkpt lat="44.76372" lon="10.75564"><ele>32.0</ele><time>2026-04-07T15:32:29.982Z</time></trkpt><trkpt lat="44.7636317" lon="10.75535"><ele>32.0</ele><time>2026-04-07T15:32:30.982Z</time></trkpt><trkpt lat="44.7635433" lon="10.7550533"><ele>31.5</ele><time>2026-04-07T15:32:31.982Z</time></trkpt><trkpt lat="44.7634567" lon="10.7547517"><ele>31.0</ele><time>2026-04-07T15:32:32.982Z</time></trkpt><trkpt lat="44.76337" lon="10.754445"><ele>31.0</ele><time>2026-04-07T15:32:33.981Z</time></trkpt><trkpt lat="44.7632717" lon="10.7541433"><ele>31.0</ele><time>2026-04-07T15:32:34.982Z</time></trkpt><trkpt lat="44.7631583" lon="10.7538433"><ele>31.0</ele><time>2026-04-07T15:32:35.982Z</time></trkpt><trkpt lat="44.7630467" lon="10.753565"><ele>31.0</ele><time>2026-04-07T15:32:36.982Z</time></trkpt><trkpt lat="44.762935" lon="10.7532967"><ele>31.0</ele><time>2026-04-07T15:32:37.982Z</time></trkpt><trkpt lat="44.7628217" lon="10.7530433"><ele>31.0</ele><time>2026-04-07T15:32:38.981Z</time></trkpt><trkpt lat="44.762715" lon="10.7528"><ele>31.0</ele><time>2026-04-07T15:32:39.982Z</time></trkpt><trkpt lat="44.7626033" lon="10.752565"><ele>31.0</ele><time>2026-04-07T15:32:40.981Z</time></trkpt><trkpt lat="44.7624883" lon="10.752325"><ele>31.333333333333336</ele><time>2026-04-07T15:32:41.982Z</time></trkpt><trkpt lat="44.7623833" lon="10.7520967"><ele>31.666666666666664</ele><time>2026-04-07T15:32:42.981Z</time></trkpt><trkpt lat="44.7622883" lon="10.7518767"><ele>32.0</ele><time>2026-04-07T15:32:43.981Z</time></trkpt><trkpt lat="44.7622033" lon="10.7516683"><ele>32.0</ele><time>2026-04-07T15:32:44.982Z</time></trkpt><trkpt lat="44.7621217" lon="10.7514783"><ele>32.0</ele><time>2026-04-07T15:32:45.982Z</time></trkpt><trkpt lat="44.762035" lon="10.7512983"><ele>32.0</ele><time>2026-04-07T15:32:46.982Z</time></trkpt><trkpt lat="44.7619383" lon="10.75112"><ele>31.666666666666664</ele><time>2026-04-07T15:32:47.982Z</time></trkpt><trkpt lat="44.7618417" lon="10.750945"><ele>31.333333333333336</ele><time>2026-04-07T15:32:48.981Z</time></trkpt><trkpt lat="44.76175" lon="10.75077"><ele>31.0</ele><time>2026-04-07T15:32:49.982Z</time></trkpt><trkpt lat="44.7616533" lon="10.7505933"><ele>31.0</ele><time>2026-04-07T15:32:50.982Z</time></trkpt><trkpt lat="44.7615583" lon="10.7504183"><ele>31.0</ele><time>2026-04-07T15:32:51.982Z</time></trkpt><trkpt lat="44.7614633" lon="10.75025"><ele>31.0</ele><time>2026-04-07T15:32:52.982Z</time></trkpt><trkpt lat="44.76137" lon="10.7500817"><ele>31.0</ele><time>2026-04-07T15:32:53.982Z</time></trkpt><trkpt lat="44.761285" lon="10.7499133"><ele>31.0</ele><time>2026-04-07T15:32:54.982Z</time></trkpt><trkpt lat="44.761195" lon="10.7497433"><ele>31.0</ele><time>2026-04-07T15:32:55.982Z</time></trkpt><trkpt lat="44.761105" lon="10.7495767"><ele>31.0</ele><time>2026-04-07T15:32:56.982Z</time></trkpt><trkpt lat="44.76101" lon="10.749415"><ele>31.333333333333336</ele><time>2026-04-07T15:32:57.982Z</time></trkpt><trkpt lat="44.7609083" lon="10.7492533"><ele>31.666666666666664</ele><time>2026-04-07T15:32:58.982Z</time></trkpt><trkpt lat="44.7608083" lon="10.74909"><ele>32.0</ele><time>2026-04-07T15:32:59.982Z</time></trkpt><trkpt lat="44.7607117" lon="10.74893"><ele>32.0</ele><time>2026-04-07T15:33:00.982Z</time></trkpt><trkpt lat="44.760605" lon="10.7487767"><ele>32.0</ele><time>2026-04-07T15:33:01.981Z</time></trkpt><trkpt lat="44.7604883" lon="10.7486183"><ele>32.0</ele><time>2026-04-07T15:33:02.981Z</time></trkpt><trkpt lat="44.7603667" lon="10.748455"><ele>32.0</ele><time>2026-04-07T15:33:03.982Z</time></trkpt><trkpt lat="44.7602183" lon="10.748275"><ele>32.0</ele><time>2026-04-07T15:33:04.981Z</time></trkpt><trkpt lat="44.7600617" lon="10.7480617"><ele>32.0</ele><time>2026-04-07T15:33:05.981Z</time></trkpt><trkpt lat="44.7599067" lon="10.747835"><ele>32.0</ele><time>2026-04-07T15:33:06.982Z</time></trkpt><trkpt lat="44.759755" lon="10.7476017"><ele>32.0</ele><time>2026-04-07T15:33:07.981Z</time></trkpt><trkpt lat="44.75959" lon="10.747375"><ele>32.0</ele><time>2026-04-07T15:33:08.981Z</time></trkpt><trkpt lat="44.759415" lon="10.747155"><ele>32.0</ele><time>2026-04-07T15:33:09.982Z</time></trkpt><trkpt lat="44.7592317" lon="10.7469433"><ele>31.5</ele><time>2026-04-07T15:33:10.982Z</time></trkpt><trkpt lat="44.7590433" lon="10.7467433"><ele>31.0</ele><time>2026-04-07T15:33:11.982Z</time></trkpt><trkpt lat="44.7588467" lon="10.746565"><ele>31.0</ele><time>2026-04-07T15:33:12.981Z</time></trkpt><trkpt lat="44.7586383" lon="10.7464033"><ele>31.0</ele><time>2026-04-07T15:33:13.981Z</time></trkpt><trkpt lat="44.7584233" lon="10.7462667"><ele>32.0</ele><time>2026-04-07T15:33:14.982Z</time></trkpt><trkpt lat="44.7582017" lon="10.7461417"><ele>33.0</ele><time>2026-04-07T15:33:15.982Z</time></trkpt><trkpt lat="44.75799" lon="10.7460267"><ele>33.0</ele><time>2026-04-07T15:33:16.982Z</time></trkpt><trkpt lat="44.757785" lon="10.7459167"><ele>33.0</ele><time>2026-04-07T15:33:17.982Z</time></trkpt><trkpt lat="44.75759" lon="10.7458183"><ele>33.0</ele><time>2026-04-07T15:33:18.981Z</time></trkpt><trkpt lat="44.7574117" lon="10.7457183"><ele>32.666666666666664</ele><time>2026-04-07T15:33:19.982Z</time></trkpt><trkpt lat="44.7572383" lon="10.74562"><ele>32.33333333333333</ele><time>2026-04-07T15:33:20.982Z</time></trkpt><trkpt lat="44.7570733" lon="10.74553"><ele>32.0</ele><time>2026-04-07T15:33:21.982Z</time></trkpt><trkpt lat="44.756905" lon="10.74544"><ele>31.666666666666664</ele><time>2026-04-07T15:33:22.982Z</time></trkpt><trkpt lat="44.7567383" lon="10.7453517"><ele>31.333333333333336</ele><time>2026-04-07T15:33:23.982Z</time></trkpt><trkpt lat="44.7565717" lon="10.7452567"><ele>31.0</ele><time>2026-04-07T15:33:24.981Z</time></trkpt><trkpt lat="44.7564017" lon="10.7451633"><ele>30.666666666666668</ele><time>2026-04-07T15:33:25.982Z</time></trkpt><trkpt lat="44.7562367" lon="10.7450767"><ele>30.333333333333336</ele><time>2026-04-07T15:33:26.982Z</time></trkpt><trkpt lat="44.7560717" lon="10.7449933"><ele>30.0</ele><time>2026-04-07T15:33:27.981Z</time></trkpt><trkpt lat="44.7559167" lon="10.74491"><ele>30.5</ele><time>2026-04-07T15:33:28.982Z</time></trkpt><trkpt lat="44.7557683" lon="10.74483"><ele>31.0</ele><time>2026-04-07T15:33:29.982Z</time></trkpt><trkpt lat="44.755635" lon="10.7447633"><ele>31.5</ele><time>2026-04-07T15:33:30.982Z</time></trkpt><trkpt lat="44.7555" lon="10.7447017"><ele>32.0</ele><time>2026-04-07T15:33:31.982Z</time></trkpt><trkpt lat="44.755365" lon="10.744635"><ele>32.0</ele><time>2026-04-07T15:33:32.982Z</time></trkpt><trkpt lat="44.755235" lon="10.7445783"><ele>32.0</ele><time>2026-04-07T15:33:33.981Z</time></trkpt><trkpt lat="44.755105" lon="10.74452"><ele>32.0</ele><time>2026-04-07T15:33:34.982Z</time></trkpt><trkpt lat="44.7549817" lon="10.74447"><ele>32.0</ele><time>2026-04-07T15:33:35.982Z</time></trkpt><trkpt lat="44.7548667" lon="10.7444233"><ele>32.2</ele><time>2026-04-07T15:33:36.981Z</time></trkpt><trkpt lat="44.7547583" lon="10.744385"><ele>32.400000000000006</ele><time>2026-04-07T15:33:37.982Z</time></trkpt><trkpt lat="44.7546583" lon="10.7443533"><ele>32.599999999999994</ele><time>2026-04-07T15:33:38.982Z</time></trkpt><trkpt lat="44.7545683" lon="10.7443217"><ele>32.8</ele><time>2026-04-07T15:33:39.982Z</time></trkpt><trkpt lat="44.75448" lon="10.7442867"><ele>33.0</ele><time>2026-04-07T15:33:40.982Z</time></trkpt><trkpt lat="44.754395" lon="10.7442667"><ele>33.0</ele><time>2026-04-07T15:33:41.982Z</time></trkpt><trkpt lat="44.754315" lon="10.744245"><ele>33.0</ele><time>2026-04-07T15:33:42.982Z</time></trkpt><trkpt lat="44.7542383" lon="10.7442233"><ele>33.0</ele><time>2026-04-07T15:33:43.982Z</time></trkpt><trkpt lat="44.754165" lon="10.744195"><ele>33.0</ele><time>2026-04-07T15:33:44.982Z</time></trkpt><trkpt lat="44.754095" lon="10.74417"><ele>33.0</ele><time>2026-04-07T15:33:45.982Z</time></trkpt><trkpt lat="44.754025" lon="10.74415"><ele>33.0</ele><time>2026-04-07T15:33:46.982Z</time></trkpt><trkpt lat="44.7539517" lon="10.7441283"><ele>33.0</ele><time>2026-04-07T15:33:47.981Z</time></trkpt><trkpt lat="44.75388" lon="10.7441083"><ele>33.0</ele><time>2026-04-07T15:33:48.982Z</time></trkpt><trkpt lat="44.7538117" lon="10.744085"><ele>33.0</ele><time>2026-04-07T15:33:49.982Z</time></trkpt><trkpt lat="44.7537383" lon="10.744065"><ele>33.0</ele><time>2026-04-07T15:33:50.982Z</time></trkpt><trkpt lat="44.753665" lon="10.7440517"><ele>33.0</ele><time>2026-04-07T15:33:51.982Z</time></trkpt><trkpt lat="44.7535933" lon="10.74403"><ele>33.0</ele><time>2026-04-07T15:33:52.982Z</time></trkpt><trkpt lat="44.753525" lon="10.7440067"><ele>33.0</ele><time>2026-04-07T15:33:53.982Z</time></trkpt><trkpt lat="44.7534133" lon="10.7439717"><ele>33.0</ele><time>2026-04-07T15:33:55.982Z</time></trkpt><trkpt lat="44.7533" lon="10.7439333"><ele>33.0</ele><time>2026-04-07T15:33:57.981Z</time></trkpt><trkpt lat="44.7532333" lon="10.743915"><ele>33.0</ele><time>2026-04-07T15:33:58.981Z</time></trkpt><trkpt lat="44.7531567" lon="10.743895"><ele>33.0</ele><time>2026-04-07T15:33:59.981Z</time></trkpt><trkpt lat="44.7530717" lon="10.7438683"><ele>33.0</ele><time>2026-04-07T15:34:00.981Z</time></trkpt><trkpt lat="44.7529833" lon="10.7438367"><ele>33.0</ele><time>2026-04-07T15:34:01.982Z</time></trkpt><trkpt lat="44.7528883" lon="10.7438067"><ele>33.0</ele><time>2026-04-07T15:34:02.982Z</time></trkpt><trkpt lat="44.7528017" lon="10.7437733"><ele>33.0</ele><time>2026-04-07T15:34:03.982Z</time></trkpt><trkpt lat="44.7527167" lon="10.74375"><ele>33.0</ele><time>2026-04-07T15:34:04.982Z</time></trkpt><trkpt lat="44.7526183" lon="10.7437333"><ele>33.0</ele><time>2026-04-07T15:34:05.982Z</time></trkpt><trkpt lat="44.7525183" lon="10.7437033"><ele>33.0</ele><time>2026-04-07T15:34:06.982Z</time></trkpt><trkpt lat="44.75243" lon="10.7436733"><ele>33.333333333333336</ele><time>2026-04-07T15:34:07.982Z</time></trkpt><trkpt lat="44.7523433" lon="10.743655"><ele>33.666666666666664</ele><time>2026-04-07T15:34:08.982Z</time></trkpt><trkpt lat="44.7522483" lon="10.7436283"><ele>34.0</ele><time>2026-04-07T15:34:09.982Z</time></trkpt><trkpt lat="44.75216" lon="10.7435967"><ele>34.33333333333333</ele><time>2026-04-07T15:34:10.982Z</time></trkpt><trkpt lat="44.7520817" lon="10.7435717"><ele>34.666666666666664</ele><time>2026-04-07T15:34:11.982Z</time></trkpt><trkpt lat="44.752005" lon="10.74355"><ele>35.0</ele><time>2026-04-07T15:34:12.982Z</time></trkpt><trkpt lat="44.751935" lon="10.7435233"><ele>35.166666666666664</ele><time>2026-04-07T15:34:13.982Z</time></trkpt><trkpt lat="44.75187" lon="10.7434983"><ele>35.33333333333333</ele><time>2026-04-07T15:34:14.982Z</time></trkpt><trkpt lat="44.7517967" lon="10.74347"><ele>35.5</ele><time>2026-04-07T15:34:15.981Z</time></trkpt><trkpt lat="44.75171" lon="10.743445"><ele>35.666666666666664</ele><time>2026-04-07T15:34:16.982Z</time></trkpt><trkpt lat="44.75162" lon="10.743425"><ele>35.833333333333336</ele><time>2026-04-07T15:34:17.982Z</time></trkpt><trkpt lat="44.751525" lon="10.7433833"><ele>36.0</ele><time>2026-04-07T15:34:18.981Z</time></trkpt><trkpt lat="44.7514217" lon="10.74334"><ele>36.0</ele><time>2026-04-07T15:34:19.982Z</time></trkpt><trkpt lat="44.75131" lon="10.7432917"><ele>36.0</ele><time>2026-04-07T15:34:20.982Z</time></trkpt><trkpt lat="44.75121" lon="10.7432433"><ele>36.0</ele><time>2026-04-07T15:34:21.982Z</time></trkpt><trkpt lat="44.7511167" lon="10.7431933"><ele>36.0</ele><time>2026-04-07T15:34:22.982Z</time></trkpt><trkpt lat="44.7510367" lon="10.7431567"><ele>36.0</ele><time>2026-04-07T15:34:23.982Z</time></trkpt><trkpt lat="44.7509617" lon="10.7431317"><ele>35.714285714285715</ele><time>2026-04-07T15:34:24.982Z</time></trkpt><trkpt lat="44.750895" lon="10.7430983"><ele>35.42857142857143</ele><time>2026-04-07T15:34:25.982Z</time></trkpt><trkpt lat="44.7508333" lon="10.743065"><ele>35.14285714285714</ele><time>2026-04-07T15:34:26.982Z</time></trkpt><trkpt lat="44.7507633" lon="10.7430167"><ele>34.85714285714286</ele><time>2026-04-07T15:34:28.982Z</time></trkpt><trkpt lat="44.7506833" lon="10.74297"><ele>34.57142857142857</ele><time>2026-04-07T15:34:31.982Z</time></trkpt><trkpt lat="44.7506233" lon="10.7429167"><ele>34.285714285714285</ele><time>2026-04-07T15:34:33.981Z</time></trkpt><trkpt lat="44.7505617" lon="10.7428767"><ele>34.0</ele><time>2026-04-07T15:34:34.982Z</time></trkpt><trkpt lat="44.7504883" lon="10.7428383"><ele>34.0</ele><time>2026-04-07T15:34:35.982Z</time></trkpt><trkpt lat="44.7503917" lon="10.742795"><ele>34.0</ele><time>2026-04-07T15:34:36.982Z</time></trkpt><trkpt lat="44.7502833" lon="10.7427433"><ele>34.0</ele><time>2026-04-07T15:34:37.982Z</time></trkpt><trkpt lat="44.7501617" lon="10.7426867"><ele>34.0</ele><time>2026-04-07T15:34:38.982Z</time></trkpt><trkpt lat="44.750035" lon="10.742615"><ele>34.0</ele><time>2026-04-07T15:34:39.982Z</time></trkpt><trkpt lat="44.7499033" lon="10.742545"><ele>34.0</ele><time>2026-04-07T15:34:40.982Z</time></trkpt><trkpt lat="44.7497683" lon="10.7424767"><ele>34.0</ele><time>2026-04-07T15:34:41.982Z</time></trkpt><trkpt lat="44.74963" lon="10.7424083"><ele>34.0</ele><time>2026-04-07T15:34:42.982Z</time></trkpt><trkpt lat="44.7495017" lon="10.7423267"><ele>34.25</ele><time>2026-04-07T15:34:43.982Z</time></trkpt><trkpt lat="44.7493733" lon="10.742245"><ele>34.5</ele><time>2026-04-07T15:34:44.982Z</time></trkpt><trkpt lat="44.7492467" lon="10.7421383"><ele>34.75</ele><time>2026-04-07T15:34:45.982Z</time></trkpt><trkpt lat="44.7491167" lon="10.7420167"><ele>35.0</ele><time>2026-04-07T15:34:46.982Z</time></trkpt><trkpt lat="44.7489817" lon="10.7418917"><ele>34.666666666666664</ele><time>2026-04-07T15:34:47.981Z</time></trkpt><trkpt lat="44.74884" lon="10.7417583"><ele>34.333333333333336</ele><time>2026-04-07T15:34:48.982Z</time></trkpt><trkpt lat="44.7486983" lon="10.7416267"><ele>34.0</ele><time>2026-04-07T15:34:49.982Z</time></trkpt><trkpt lat="44.74855" lon="10.7414933"><ele>34.0</ele><time>2026-04-07T15:34:50.982Z</time></trkpt><trkpt lat="44.7484033" lon="10.7413633"><ele>34.0</ele><time>2026-04-07T15:34:51.981Z</time></trkpt><trkpt lat="44.748265" lon="10.7412367"><ele>34.0</ele><time>2026-04-07T15:34:52.982Z</time></trkpt><trkpt lat="44.7481217" lon="10.7411033"><ele>34.0</ele><time>2026-04-07T15:34:53.982Z</time></trkpt><trkpt lat="44.7479717" lon="10.7409717"><ele>34.0</ele><time>2026-04-07T15:34:54.981Z</time></trkpt><trkpt lat="44.7478167" lon="10.7408383"><ele>34.0</ele><time>2026-04-07T15:34:55.982Z</time></trkpt><trkpt lat="44.7476633" lon="10.7407083"><ele>33.66666666666667</ele><time>2026-04-07T15:34:56.982Z</time></trkpt><trkpt lat="44.7474967" lon="10.7405883"><ele>33.333333333333336</ele><time>2026-04-07T15:34:57.982Z</time></trkpt><trkpt lat="44.74733" lon="10.7404817"><ele>33.0</ele><time>2026-04-07T15:34:58.982Z</time></trkpt><trkpt lat="44.7471617" lon="10.7403817"><ele>33.0</ele><time>2026-04-07T15:34:59.981Z</time></trkpt><trkpt lat="44.7469933" lon="10.7402783"><ele>33.0</ele><time>2026-04-07T15:35:00.982Z</time></trkpt><trkpt lat="44.746815" lon="10.74018"><ele>33.0</ele><time>2026-04-07T15:35:01.982Z</time></trkpt><trkpt lat="44.7466433" lon="10.7400883"><ele>33.666666666666664</ele><time>2026-04-07T15:35:02.982Z</time></trkpt><trkpt lat="44.7464833" lon="10.7399917"><ele>34.33333333333333</ele><time>2026-04-07T15:35:03.982Z</time></trkpt><trkpt lat="44.7463217" lon="10.739905"><ele>35.0</ele><time>2026-04-07T15:35:04.982Z</time></trkpt><trkpt lat="44.7461567" lon="10.7398283"><ele>35.0</ele><time>2026-04-07T15:35:05.982Z</time></trkpt><trkpt lat="44.7459967" lon="10.739745"><ele>35.0</ele><time>2026-04-07T15:35:06.982Z</time></trkpt><trkpt lat="44.7458367" lon="10.7396583"><ele>35.0</ele><time>2026-04-07T15:35:07.982Z</time></trkpt><trkpt lat="44.7456783" lon="10.739555"><ele>35.0</ele><time>2026-04-07T15:35:08.982Z</time></trkpt><trkpt lat="44.7455117" lon="10.7394483"><ele>35.0</ele><time>2026-04-07T15:35:09.982Z</time></trkpt><trkpt lat="44.74535" lon="10.7393317"><ele>35.0</ele><time>2026-04-07T15:35:10.982Z</time></trkpt><trkpt lat="44.7451883" lon="10.7392167"><ele>34.33333333333333</ele><time>2026-04-07T15:35:11.982Z</time></trkpt><trkpt lat="44.7450217" lon="10.7391033"><ele>33.666666666666664</ele><time>2026-04-07T15:35:12.982Z</time></trkpt><trkpt lat="44.7448667" lon="10.7389917"><ele>33.0</ele><time>2026-04-07T15:35:13.982Z</time></trkpt><trkpt lat="44.7447133" lon="10.7388867"><ele>33.0</ele><time>2026-04-07T15:35:14.981Z</time></trkpt><trkpt lat="44.7445617" lon="10.73878"><ele>33.0</ele><time>2026-04-07T15:35:15.982Z</time></trkpt><trkpt lat="44.74442" lon="10.7386567"><ele>33.0</ele><time>2026-04-07T15:35:16.981Z</time></trkpt><trkpt lat="44.7442933" lon="10.73851"><ele>32.666666666666664</ele><time>2026-04-07T15:35:17.982Z</time></trkpt><trkpt lat="44.7441917" lon="10.73834"><ele>32.33333333333333</ele><time>2026-04-07T15:35:18.982Z</time></trkpt><trkpt lat="44.74411" lon="10.7381633"><ele>32.0</ele><time>2026-04-07T15:35:19.982Z</time></trkpt><trkpt lat="44.7440367" lon="10.7379783"><ele>32.0</ele><time>2026-04-07T15:35:20.982Z</time></trkpt><trkpt lat="44.7439583" lon="10.737785"><ele>32.0</ele><time>2026-04-07T15:35:21.982Z</time></trkpt><trkpt lat="44.74388" lon="10.7375867"><ele>32.0</ele><time>2026-04-07T15:35:22.982Z</time></trkpt><trkpt lat="44.7437967" lon="10.7373917"><ele>32.0</ele><time>2026-04-07T15:35:23.982Z</time></trkpt><trkpt lat="44.743715" lon="10.7372133"><ele>32.0</ele><time>2026-04-07T15:35:24.982Z</time></trkpt><trkpt lat="44.7436217" lon="10.737045"><ele>32.0</ele><time>2026-04-07T15:35:25.982Z</time></trkpt><trkpt lat="44.74352" lon="10.736885"><ele>32.0</ele><time>2026-04-07T15:35:26.982Z</time></trkpt><trkpt lat="44.7434083" lon="10.7367433"><ele>32.0</ele><time>2026-04-07T15:35:27.981Z</time></trkpt><trkpt lat="44.7432817" lon="10.73661"><ele>32.0</ele><time>2026-04-07T15:35:28.981Z</time></trkpt><trkpt lat="44.7431433" lon="10.7364933"><ele>32.0</ele><time>2026-04-07T15:35:29.982Z</time></trkpt><trkpt lat="44.7430117" lon="10.73638"><ele>32.0</ele><time>2026-04-07T15:35:30.982Z</time></trkpt><trkpt lat="44.7428967" lon="10.73628"><ele>32.0</ele><time>2026-04-07T15:35:31.982Z</time></trkpt><trkpt lat="44.7427933" lon="10.7361883"><ele>32.0</ele><time>2026-04-07T15:35:32.982Z</time></trkpt><trkpt lat="44.7426967" lon="10.7361067"><ele>32.2</ele><time>2026-04-07T15:35:33.981Z</time></trkpt><trkpt lat="44.7426033" lon="10.7360367"><ele>32.400000000000006</ele><time>2026-04-07T15:35:34.982Z</time></trkpt><trkpt lat="44.7425133" lon="10.7359683"><ele>32.599999999999994</ele><time>2026-04-07T15:35:35.982Z</time></trkpt><trkpt lat="44.742415" lon="10.73589"><ele>32.8</ele><time>2026-04-07T15:35:36.982Z</time></trkpt><trkpt lat="44.742305" lon="10.735805"><ele>33.0</ele><time>2026-04-07T15:35:37.981Z</time></trkpt><trkpt lat="44.7421817" lon="10.7357117"><ele>33.0</ele><time>2026-04-07T15:35:38.982Z</time></trkpt><trkpt lat="44.7420383" lon="10.7356133"><ele>33.0</ele><time>2026-04-07T15:35:39.982Z</time></trkpt><trkpt lat="44.74188" lon="10.7355183"><ele>33.0</ele><time>2026-04-07T15:35:40.982Z</time></trkpt><trkpt lat="44.7417117" lon="10.7354217"><ele>33.0</ele><time>2026-04-07T15:35:41.982Z</time></trkpt><trkpt lat="44.7415333" lon="10.73533"><ele>33.0</ele><time>2026-04-07T15:35:42.982Z</time></trkpt><trkpt lat="44.7413533" lon="10.735235"><ele>33.0</ele><time>2026-04-07T15:35:43.982Z</time></trkpt><trkpt lat="44.7411733" lon="10.7351067"><ele>33.0</ele><time>2026-04-07T15:35:44.981Z</time></trkpt><trkpt lat="44.7410083" lon="10.7349433"><ele>33.0</ele><time>2026-04-07T15:35:45.982Z</time></trkpt><trkpt lat="44.7408533" lon="10.7347767"><ele>33.0</ele><time>2026-04-07T15:35:46.982Z</time></trkpt><trkpt lat="44.7407083" lon="10.7346167"><ele>33.0</ele><time>2026-04-07T15:35:47.982Z</time></trkpt><trkpt lat="44.7405733" lon="10.7344617"><ele>33.0</ele><time>2026-04-07T15:35:48.982Z</time></trkpt><trkpt lat="44.74045" lon="10.7343183"><ele>33.0</ele><time>2026-04-07T15:35:49.982Z</time></trkpt><trkpt lat="44.7403433" lon="10.73418"><ele>32.75</ele><time>2026-04-07T15:35:50.982Z</time></trkpt><trkpt lat="44.74024" lon="10.734045"><ele>32.5</ele><time>2026-04-07T15:35:51.982Z</time></trkpt><trkpt lat="44.7401383" lon="10.733905"><ele>32.25</ele><time>2026-04-07T15:35:52.981Z</time></trkpt><trkpt lat="44.74004" lon="10.7337717"><ele>32.0</ele><time>2026-04-07T15:35:53.982Z</time></trkpt><trkpt lat="44.7399433" lon="10.733635"><ele>32.5</ele><time>2026-04-07T15:35:54.982Z</time></trkpt><trkpt lat="44.7398517" lon="10.73349"><ele>33.0</ele><time>2026-04-07T15:35:55.982Z</time></trkpt><trkpt lat="44.739765" lon="10.7333433"><ele>33.5</ele><time>2026-04-07T15:35:56.982Z</time></trkpt><trkpt lat="44.7396817" lon="10.733185"><ele>34.0</ele><time>2026-04-07T15:35:57.982Z</time></trkpt><trkpt lat="44.7396067" lon="10.7330233"><ele>34.0</ele><time>2026-04-07T15:35:58.982Z</time></trkpt><trkpt lat="44.7395367" lon="10.7328533"><ele>34.0</ele><time>2026-04-07T15:35:59.982Z</time></trkpt><trkpt lat="44.739475" lon="10.73268"><ele>34.0</ele><time>2026-04-07T15:36:00.982Z</time></trkpt><trkpt lat="44.7394167" lon="10.7325083"><ele>34.0</ele><time>2026-04-07T15:36:01.982Z</time></trkpt><trkpt lat="44.7393517" lon="10.73235"><ele>34.0</ele><time>2026-04-07T15:36:02.982Z</time></trkpt><trkpt lat="44.7392867" lon="10.7321917"><ele>34.0</ele><time>2026-04-07T15:36:03.982Z</time></trkpt><trkpt lat="44.739215" lon="10.7320283"><ele>34.0</ele><time>2026-04-07T15:36:04.982Z</time></trkpt><trkpt lat="44.739145" lon="10.7318733"><ele>34.0</ele><time>2026-04-07T15:36:05.982Z</time></trkpt><trkpt lat="44.7390717" lon="10.73171"><ele>34.0</ele><time>2026-04-07T15:36:06.982Z</time></trkpt><trkpt lat="44.7389933" lon="10.731545"><ele>34.0</ele><time>2026-04-07T15:36:07.982Z</time></trkpt><trkpt lat="44.7389167" lon="10.7313817"><ele>34.0</ele><time>2026-04-07T15:36:08.982Z</time></trkpt><trkpt lat="44.7388367" lon="10.7312167"><ele>34.0</ele><time>2026-04-07T15:36:09.982Z</time></trkpt><trkpt lat="44.73876" lon="10.73106"><ele>34.0</ele><time>2026-04-07T15:36:10.981Z</time></trkpt><trkpt lat="44.738685" lon="10.73091"><ele>34.0</ele><time>2026-04-07T15:36:11.981Z</time></trkpt><trkpt lat="44.73861" lon="10.7307583"><ele>34.0</ele><time>2026-04-07T15:36:12.982Z</time></trkpt><trkpt lat="44.7385317" lon="10.73061"><ele>34.0</ele><time>2026-04-07T15:36:13.982Z</time></trkpt><trkpt lat="44.7384567" lon="10.7304583"><ele>33.75</ele><time>2026-04-07T15:36:14.982Z</time></trkpt><trkpt lat="44.7383833" lon="10.730315"><ele>33.5</ele><time>2026-04-07T15:36:15.982Z</time></trkpt><trkpt lat="44.7383033" lon="10.730165"><ele>33.25</ele><time>2026-04-07T15:36:16.982Z</time></trkpt><trkpt lat="44.7382333" lon="10.730015"><ele>33.0</ele><time>2026-04-07T15:36:17.982Z</time></trkpt><trkpt lat="44.7381633" lon="10.729855"><ele>33.5</ele><time>2026-04-07T15:36:18.981Z</time></trkpt><trkpt lat="44.7380933" lon="10.729695"><ele>34.0</ele><time>2026-04-07T15:36:19.982Z</time></trkpt><trkpt lat="44.7380067" lon="10.7295283"><ele>34.5</ele><time>2026-04-07T15:36:20.982Z</time></trkpt><trkpt lat="44.7379267" lon="10.72935"><ele>35.0</ele><time>2026-04-07T15:36:21.982Z</time></trkpt><trkpt lat="44.7378383" lon="10.7291733"><ele>35.0</ele><time>2026-04-07T15:36:22.982Z</time></trkpt><trkpt lat="44.737745" lon="10.72899"><ele>35.0</ele><time>2026-04-07T15:36:23.982Z</time></trkpt><trkpt lat="44.73765" lon="10.728805"><ele>35.0</ele><time>2026-04-07T15:36:24.981Z</time></trkpt><trkpt lat="44.7375517" lon="10.72861"><ele>34.666666666666664</ele><time>2026-04-07T15:36:25.982Z</time></trkpt><trkpt lat="44.73745" lon="10.7284033"><ele>34.333333333333336</ele><time>2026-04-07T15:36:26.982Z</time></trkpt><trkpt lat="44.7373467" lon="10.7281883"><ele>34.0</ele><time>2026-04-07T15:36:27.982Z</time></trkpt><trkpt lat="44.73724" lon="10.7279683"><ele>34.0</ele><time>2026-04-07T15:36:28.982Z</time></trkpt><trkpt lat="44.7371283" lon="10.7277317"><ele>34.0</ele><time>2026-04-07T15:36:29.982Z</time></trkpt><trkpt lat="44.7370133" lon="10.727495"><ele>34.0</ele><time>2026-04-07T15:36:30.981Z</time></trkpt><trkpt lat="44.7369067" lon="10.7272783"><ele>34.0</ele><time>2026-04-07T15:36:31.981Z</time></trkpt><trkpt lat="44.7368017" lon="10.7270667"><ele>34.0</ele><time>2026-04-07T15:36:32.982Z</time></trkpt><trkpt lat="44.7367" lon="10.7268617"><ele>34.0</ele><time>2026-04-07T15:36:33.981Z</time></trkpt><trkpt lat="44.7366033" lon="10.7266683"><ele>34.0</ele><time>2026-04-07T15:36:34.982Z</time></trkpt><trkpt lat="44.7365117" lon="10.7264717"><ele>34.0</ele><time>2026-04-07T15:36:35.982Z</time></trkpt><trkpt lat="44.73642" lon="10.7262733"><ele>34.0</ele><time>2026-04-07T15:36:36.981Z</time></trkpt><trkpt lat="44.7363333" lon="10.7261017"><ele>34.333333333333336</ele><time>2026-04-07T15:36:37.981Z</time></trkpt><trkpt lat="44.7362483" lon="10.7259217"><ele>34.666666666666664</ele><time>2026-04-07T15:36:38.982Z</time></trkpt><trkpt lat="44.7361667" lon="10.7257433"><ele>35.0</ele><time>2026-04-07T15:36:39.981Z</time></trkpt><trkpt lat="44.7360833" lon="10.7255667"><ele>34.75</ele><time>2026-04-07T15:36:40.981Z</time></trkpt><trkpt lat="44.736" lon="10.7253983"><ele>34.5</ele><time>2026-04-07T15:36:41.982Z</time></trkpt><trkpt lat="44.73592" lon="10.72524"><ele>34.25</ele><time>2026-04-07T15:36:42.982Z</time></trkpt><trkpt lat="44.7358267" lon="10.7250933"><ele>34.0</ele><time>2026-04-07T15:36:43.982Z</time></trkpt><trkpt lat="44.735715" lon="10.7249733"><ele>33.66666666666667</ele><time>2026-04-07T15:36:44.982Z</time></trkpt><trkpt lat="44.73558" lon="10.7248783"><ele>33.333333333333336</ele><time>2026-04-07T15:36:45.982Z</time></trkpt><trkpt lat="44.7354233" lon="10.7247983"><ele>33.0</ele><time>2026-04-07T15:36:46.982Z</time></trkpt><trkpt lat="44.7352567" lon="10.72473"><ele>33.333333333333336</ele><time>2026-04-07T15:36:47.982Z</time></trkpt><trkpt lat="44.7350833" lon="10.7246767"><ele>33.66666666666667</ele><time>2026-04-07T15:36:48.982Z</time></trkpt><trkpt lat="44.7348967" lon="10.7246317"><ele>34.0</ele><time>2026-04-07T15:36:49.982Z</time></trkpt><trkpt lat="44.7347067" lon="10.7245867"><ele>34.0</ele><time>2026-04-07T15:36:50.982Z</time></trkpt><trkpt lat="44.7345333" lon="10.724545"><ele>34.0</ele><time>2026-04-07T15:36:51.982Z</time></trkpt><trkpt lat="44.7343717" lon="10.724515"><ele>34.0</ele><time>2026-04-07T15:36:52.982Z</time></trkpt><trkpt lat="44.7342217" lon="10.7244817"><ele>34.25</ele><time>2026-04-07T15:36:53.982Z</time></trkpt><trkpt lat="44.7340833" lon="10.72445"><ele>34.5</ele><time>2026-04-07T15:36:54.982Z</time></trkpt><trkpt lat="44.73395" lon="10.7244183"><ele>34.75</ele><time>2026-04-07T15:36:55.981Z</time></trkpt><trkpt lat="44.7338333" lon="10.7243917"><ele>35.0</ele><time>2026-04-07T15:36:56.982Z</time></trkpt><trkpt lat="44.7337233" lon="10.72437"><ele>35.166666666666664</ele><time>2026-04-07T15:36:57.982Z</time></trkpt><trkpt lat="44.7336183" lon="10.72435"><ele>35.33333333333333</ele><time>2026-04-07T15:36:58.982Z</time></trkpt><trkpt lat="44.73353" lon="10.724325"><ele>35.5</ele><time>2026-04-07T15:36:59.981Z</time></trkpt><trkpt lat="44.73346" lon="10.7243117"><ele>35.666666666666664</ele><time>2026-04-07T15:37:00.982Z</time></trkpt><trkpt lat="44.7333733" lon="10.724285"><ele>35.833333333333336</ele><time>2026-04-07T15:37:02.982Z</time></trkpt><trkpt lat="44.7333067" lon="10.7242417"><ele>36.0</ele><time>2026-04-07T15:37:05.982Z</time></trkpt><trkpt lat="44.7331933" lon="10.724235"><ele>36.0</ele><time>2026-04-07T15:37:52.982Z</time></trkpt><trkpt lat="44.7331167" lon="10.7242267"><ele>36.0</ele><time>2026-04-07T15:37:53.981Z</time></trkpt><trkpt lat="44.73302" lon="10.72421"><ele>36.0</ele><time>2026-04-07T15:37:54.982Z</time></trkpt><trkpt lat="44.732905" lon="10.7241883"><ele>36.0</ele><time>2026-04-07T15:37:55.982Z</time></trkpt><trkpt lat="44.7327817" lon="10.724165"><ele>36.0</ele><time>2026-04-07T15:37:56.982Z</time></trkpt><trkpt lat="44.73265" lon="10.7241367"><ele>36.0</ele><time>2026-04-07T15:37:57.982Z</time></trkpt><trkpt lat="44.7325067" lon="10.7240983"><ele>36.0</ele><time>2026-04-07T15:37:58.982Z</time></trkpt><trkpt lat="44.7323567" lon="10.724035"><ele>36.0</ele><time>2026-04-07T15:37:59.982Z</time></trkpt><trkpt lat="44.7322117" lon="10.7239517"><ele>36.0</ele><time>2026-04-07T15:38:00.982Z</time></trkpt><trkpt lat="44.7320667" lon="10.72385"><ele>36.0</ele><time>2026-04-07T15:38:01.982Z</time></trkpt><trkpt lat="44.73192" lon="10.7237367"><ele>36.0</ele><time>2026-04-07T15:38:02.982Z</time></trkpt><trkpt lat="44.7317767" lon="10.7236133"><ele>36.333333333333336</ele><time>2026-04-07T15:38:03.982Z</time></trkpt><trkpt lat="44.7316317" lon="10.7234867"><ele>36.66666666666667</ele><time>2026-04-07T15:38:04.981Z</time></trkpt><trkpt lat="44.7314917" lon="10.72334"><ele>37.0</ele><time>2026-04-07T15:38:05.982Z</time></trkpt><trkpt lat="44.731365" lon="10.7231733"><ele>37.0</ele><time>2026-04-07T15:38:06.981Z</time></trkpt><trkpt lat="44.7312433" lon="10.722995"><ele>37.0</ele><time>2026-04-07T15:38:07.982Z</time></trkpt><trkpt lat="44.7311183" lon="10.7228117"><ele>37.0</ele><time>2026-04-07T15:38:08.981Z</time></trkpt><trkpt lat="44.7309983" lon="10.7226217"><ele>36.333333333333336</ele><time>2026-04-07T15:38:09.982Z</time></trkpt><trkpt lat="44.73088" lon="10.72243"><ele>35.666666666666664</ele><time>2026-04-07T15:38:10.981Z</time></trkpt><trkpt lat="44.7307567" lon="10.7222383"><ele>35.0</ele><time>2026-04-07T15:38:11.982Z</time></trkpt><trkpt lat="44.730635" lon="10.72204"><ele>35.0</ele><time>2026-04-07T15:38:12.981Z</time></trkpt><trkpt lat="44.7305083" lon="10.721845"><ele>35.0</ele><time>2026-04-07T15:38:13.982Z</time></trkpt><trkpt lat="44.730375" lon="10.72166"><ele>35.0</ele><time>2026-04-07T15:38:14.982Z</time></trkpt><trkpt lat="44.7302233" lon="10.72149"><ele>35.0</ele><time>2026-04-07T15:38:15.982Z</time></trkpt><trkpt lat="44.7300617" lon="10.7213333"><ele>35.0</ele><time>2026-04-07T15:38:16.982Z</time></trkpt><trkpt lat="44.729895" lon="10.7211783"><ele>35.0</ele><time>2026-04-07T15:38:17.982Z</time></trkpt><trkpt lat="44.729725" lon="10.72102"><ele>36.33333333333333</ele><time>2026-04-07T15:38:18.982Z</time></trkpt><trkpt lat="44.72955" lon="10.7208633"><ele>37.666666666666664</ele><time>2026-04-07T15:38:19.982Z</time></trkpt><trkpt lat="44.729375" lon="10.7206967"><ele>39.0</ele><time>2026-04-07T15:38:20.981Z</time></trkpt><trkpt lat="44.7291967" lon="10.7205433"><ele>39.0</ele><time>2026-04-07T15:38:21.982Z</time></trkpt><trkpt lat="44.7290183" lon="10.72041"><ele>39.0</ele><time>2026-04-07T15:38:22.982Z</time></trkpt><trkpt lat="44.72883" lon="10.72029"><ele>39.0</ele><time>2026-04-07T15:38:23.981Z</time></trkpt><trkpt lat="44.7286467" lon="10.72015"><ele>38.333333333333336</ele><time>2026-04-07T15:38:24.982Z</time></trkpt><trkpt lat="44.7284767" lon="10.7200233"><ele>37.66666666666667</ele><time>2026-04-07T15:38:25.982Z</time></trkpt><trkpt lat="44.7283217" lon="10.71989"><ele>37.0</ele><time>2026-04-07T15:38:26.982Z</time></trkpt><trkpt lat="44.7281733" lon="10.7197533"><ele>37.0</ele><time>2026-04-07T15:38:27.982Z</time></trkpt><trkpt lat="44.7280283" lon="10.7196167"><ele>37.0</ele><time>2026-04-07T15:38:28.982Z</time></trkpt><trkpt lat="44.7278733" lon="10.7194817"><ele>37.0</ele><time>2026-04-07T15:38:29.982Z</time></trkpt><trkpt lat="44.7277217" lon="10.71935"><ele>36.66666666666667</ele><time>2026-04-07T15:38:30.981Z</time></trkpt><trkpt lat="44.7275717" lon="10.719215"><ele>36.333333333333336</ele><time>2026-04-07T15:38:31.982Z</time></trkpt><trkpt lat="44.7274283" lon="10.7190717"><ele>36.0</ele><time>2026-04-07T15:38:32.982Z</time></trkpt><trkpt lat="44.72729" lon="10.718905"><ele>36.0</ele><time>2026-04-07T15:38:33.982Z</time></trkpt><trkpt lat="44.7271633" lon="10.718725"><ele>36.0</ele><time>2026-04-07T15:38:34.982Z</time></trkpt><trkpt lat="44.72704" lon="10.718535"><ele>36.0</ele><time>2026-04-07T15:38:35.982Z</time></trkpt><trkpt lat="44.7269" lon="10.7183617"><ele>36.0</ele><time>2026-04-07T15:38:36.982Z</time></trkpt><trkpt lat="44.7267517" lon="10.7182333"><ele>36.0</ele><time>2026-04-07T15:38:37.981Z</time></trkpt><trkpt lat="44.7265883" lon="10.7181433"><ele>36.0</ele><time>2026-04-07T15:38:38.981Z</time></trkpt><trkpt lat="44.7264083" lon="10.71808"><ele>36.0</ele><time>2026-04-07T15:38:39.982Z</time></trkpt><trkpt lat="44.726225" lon="10.718025"><ele>36.0</ele><time>2026-04-07T15:38:40.982Z</time></trkpt><trkpt lat="44.7260383" lon="10.717975"><ele>36.0</ele><time>2026-04-07T15:38:41.982Z</time></trkpt><trkpt lat="44.7258467" lon="10.717925"><ele>36.333333333333336</ele><time>2026-04-07T15:38:42.982Z</time></trkpt><trkpt lat="44.7256633" lon="10.7178667"><ele>36.66666666666667</ele><time>2026-04-07T15:38:43.982Z</time></trkpt><trkpt lat="44.7254717" lon="10.71781"><ele>37.0</ele><time>2026-04-07T15:38:44.982Z</time></trkpt><trkpt lat="44.725285" lon="10.7177633"><ele>37.0</ele><time>2026-04-07T15:38:45.982Z</time></trkpt><trkpt lat="44.7251" lon="10.71772"><ele>37.0</ele><time>2026-04-07T15:38:46.982Z</time></trkpt><trkpt lat="44.7249183" lon="10.7176717"><ele>37.0</ele><time>2026-04-07T15:38:47.982Z</time></trkpt><trkpt lat="44.7247417" lon="10.7176317"><ele>37.0</ele><time>2026-04-07T15:38:48.982Z</time></trkpt><trkpt lat="44.7245633" lon="10.7175833"><ele>37.0</ele><time>2026-04-07T15:38:49.982Z</time></trkpt><trkpt lat="44.7243867" lon="10.717545"><ele>37.0</ele><time>2026-04-07T15:38:50.982Z</time></trkpt><trkpt lat="44.7242117" lon="10.717505"><ele>37.66666666666667</ele><time>2026-04-07T15:38:51.981Z</time></trkpt><trkpt lat="44.7240367" lon="10.7174683"><ele>38.333333333333336</ele><time>2026-04-07T15:38:52.982Z</time></trkpt><trkpt lat="44.7238633" lon="10.71743"><ele>39.0</ele><time>2026-04-07T15:38:53.982Z</time></trkpt><trkpt lat="44.723705" lon="10.717395"><ele>38.0</ele><time>2026-04-07T15:38:54.982Z</time></trkpt><trkpt lat="44.7235467" lon="10.71736"><ele>37.0</ele><time>2026-04-07T15:38:55.981Z</time></trkpt><trkpt lat="44.7233933" lon="10.7173117"><ele>36.0</ele><time>2026-04-07T15:38:56.982Z</time></trkpt><trkpt lat="44.7232433" lon="10.7172417"><ele>36.0</ele><time>2026-04-07T15:38:57.982Z</time></trkpt><trkpt lat="44.7231133" lon="10.71712"><ele>36.0</ele><time>2026-04-07T15:38:58.982Z</time></trkpt><trkpt lat="44.7230083" lon="10.7169583"><ele>36.0</ele><time>2026-04-07T15:38:59.982Z</time></trkpt><trkpt lat="44.7229067" lon="10.7167733"><ele>36.0</ele><time>2026-04-07T15:39:00.981Z</time></trkpt><trkpt lat="44.7228117" lon="10.7165867"><ele>36.0</ele><time>2026-04-07T15:39:01.982Z</time></trkpt><trkpt lat="44.72271" lon="10.7164017"><ele>36.0</ele><time>2026-04-07T15:39:02.982Z</time></trkpt><trkpt lat="44.7226033" lon="10.7162233"><ele>36.0</ele><time>2026-04-07T15:39:03.982Z</time></trkpt><trkpt lat="44.7224967" lon="10.7160383"><ele>36.0</ele><time>2026-04-07T15:39:04.982Z</time></trkpt><trkpt lat="44.7223833" lon="10.7158533"><ele>36.0</ele><time>2026-04-07T15:39:05.982Z</time></trkpt><trkpt lat="44.7222633" lon="10.715675"><ele>36.0</ele><time>2026-04-07T15:39:06.982Z</time></trkpt><trkpt lat="44.7221433" lon="10.71549"><ele>36.0</ele><time>2026-04-07T15:39:07.982Z</time></trkpt><trkpt lat="44.72203" lon="10.7153167"><ele>36.0</ele><time>2026-04-07T15:39:08.981Z</time></trkpt><trkpt lat="44.721915" lon="10.715145"><ele>36.333333333333336</ele><time>2026-04-07T15:39:09.982Z</time></trkpt><trkpt lat="44.7217983" lon="10.7149733"><ele>36.66666666666667</ele><time>2026-04-07T15:39:10.982Z</time></trkpt><trkpt lat="44.721685" lon="10.7148033"><ele>37.0</ele><time>2026-04-07T15:39:11.982Z</time></trkpt><trkpt lat="44.7215783" lon="10.7146317"><ele>37.0</ele><time>2026-04-07T15:39:12.982Z</time></trkpt><trkpt lat="44.7214717" lon="10.714455"><ele>37.0</ele><time>2026-04-07T15:39:13.982Z</time></trkpt><trkpt lat="44.7213567" lon="10.7142883"><ele>37.0</ele><time>2026-04-07T15:39:14.982Z</time></trkpt><trkpt lat="44.72124" lon="10.7141133"><ele>37.333333333333336</ele><time>2026-04-07T15:39:15.982Z</time></trkpt><trkpt lat="44.7211217" lon="10.7139333"><ele>37.666666666666664</ele><time>2026-04-07T15:39:16.982Z</time></trkpt><trkpt lat="44.7210017" lon="10.71375"><ele>38.0</ele><time>2026-04-07T15:39:17.982Z</time></trkpt><trkpt lat="44.720885" lon="10.7135683"><ele>38.33333333333333</ele><time>2026-04-07T15:39:18.981Z</time></trkpt><trkpt lat="44.7207633" lon="10.7133767"><ele>38.666666666666664</ele><time>2026-04-07T15:39:19.981Z</time></trkpt><trkpt lat="44.72064" lon="10.7131833"><ele>39.0</ele><time>2026-04-07T15:39:20.982Z</time></trkpt><trkpt lat="44.720515" lon="10.7129917"><ele>39.0</ele><time>2026-04-07T15:39:21.982Z</time></trkpt><trkpt lat="44.720385" lon="10.7128017"><ele>39.0</ele><time>2026-04-07T15:39:22.982Z</time></trkpt><trkpt lat="44.72025" lon="10.7126183"><ele>39.0</ele><time>2026-04-07T15:39:23.982Z</time></trkpt><trkpt lat="44.7201117" lon="10.712435"><ele>38.666666666666664</ele><time>2026-04-07T15:39:24.982Z</time></trkpt><trkpt lat="44.7199683" lon="10.7122533"><ele>38.33333333333333</ele><time>2026-04-07T15:39:25.982Z</time></trkpt><trkpt lat="44.7198167" lon="10.7120817"><ele>38.0</ele><time>2026-04-07T15:39:26.982Z</time></trkpt><trkpt lat="44.7196583" lon="10.71193"><ele>37.666666666666664</ele><time>2026-04-07T15:39:27.982Z</time></trkpt><trkpt lat="44.719495" lon="10.71178"><ele>37.333333333333336</ele><time>2026-04-07T15:39:28.981Z</time></trkpt><trkpt lat="44.7193383" lon="10.711635"><ele>37.0</ele><time>2026-04-07T15:39:29.982Z</time></trkpt><trkpt lat="44.7191933" lon="10.7114833"><ele>36.66666666666667</ele><time>2026-04-07T15:39:30.982Z</time></trkpt><trkpt lat="44.7190533" lon="10.711335"><ele>36.333333333333336</ele><time>2026-04-07T15:39:31.982Z</time></trkpt><trkpt lat="44.7189217" lon="10.7111817"><ele>36.0</ele><time>2026-04-07T15:39:32.982Z</time></trkpt><trkpt lat="44.7187933" lon="10.7110217"><ele>36.333333333333336</ele><time>2026-04-07T15:39:33.981Z</time></trkpt><trkpt lat="44.7186667" lon="10.7108633"><ele>36.66666666666667</ele><time>2026-04-07T15:39:34.982Z</time></trkpt><trkpt lat="44.71854" lon="10.7107017"><ele>37.0</ele><time>2026-04-07T15:39:35.981Z</time></trkpt><trkpt lat="44.7184083" lon="10.71054"><ele>37.0</ele><time>2026-04-07T15:39:36.982Z</time></trkpt><trkpt lat="44.718275" lon="10.71038"><ele>37.0</ele><time>2026-04-07T15:39:37.982Z</time></trkpt><trkpt lat="44.7181383" lon="10.7102217"><ele>37.0</ele><time>2026-04-07T15:39:38.982Z</time></trkpt><trkpt lat="44.7180017" lon="10.71006"><ele>37.0</ele><time>2026-04-07T15:39:39.982Z</time></trkpt><trkpt lat="44.7178667" lon="10.7099017"><ele>37.0</ele><time>2026-04-07T15:39:40.981Z</time></trkpt><trkpt lat="44.71773" lon="10.7097483"><ele>37.0</ele><time>2026-04-07T15:39:41.982Z</time></trkpt><trkpt lat="44.7176033" lon="10.7096067"><ele>37.0</ele><time>2026-04-07T15:39:42.982Z</time></trkpt><trkpt lat="44.7174783" lon="10.7094633"><ele>37.0</ele><time>2026-04-07T15:39:43.982Z</time></trkpt><trkpt lat="44.7173633" lon="10.7093"><ele>37.0</ele><time>2026-04-07T15:39:44.982Z</time></trkpt><trkpt lat="44.7172667" lon="10.7091283"><ele>37.333333333333336</ele><time>2026-04-07T15:39:45.982Z</time></trkpt><trkpt lat="44.7171817" lon="10.708945"><ele>37.666666666666664</ele><time>2026-04-07T15:39:46.982Z</time></trkpt><trkpt lat="44.71709" lon="10.7087683"><ele>38.0</ele><time>2026-04-07T15:39:47.982Z</time></trkpt><trkpt lat="44.7169933" lon="10.7086117"><ele>38.25</ele><time>2026-04-07T15:39:48.982Z</time></trkpt><trkpt lat="44.7168917" lon="10.7084767"><ele>38.5</ele><time>2026-04-07T15:39:49.982Z</time></trkpt><trkpt lat="44.7167883" lon="10.7083533"><ele>38.75</ele><time>2026-04-07T15:39:50.982Z</time></trkpt><trkpt lat="44.7166833" lon="10.7082567"><ele>39.0</ele><time>2026-04-07T15:39:51.982Z</time></trkpt><trkpt lat="44.7165667" lon="10.7081667"><ele>39.0</ele><time>2026-04-07T15:39:52.982Z</time></trkpt><trkpt lat="44.7164617" lon="10.70809"><ele>39.0</ele><time>2026-04-07T15:39:53.982Z</time></trkpt><trkpt lat="44.716355" lon="10.7080117"><ele>39.0</ele><time>2026-04-07T15:39:54.981Z</time></trkpt><trkpt lat="44.7162583" lon="10.70794"><ele>39.0</ele><time>2026-04-07T15:39:55.982Z</time></trkpt><trkpt lat="44.7161667" lon="10.7078767"><ele>39.0</ele><time>2026-04-07T15:39:56.982Z</time></trkpt><trkpt lat="44.7160783" lon="10.7078367"><ele>39.0</ele><time>2026-04-07T15:39:57.981Z</time></trkpt><trkpt lat="44.71598" lon="10.7078283"><ele>39.0</ele><time>2026-04-07T15:39:58.982Z</time></trkpt><trkpt lat="44.7158817" lon="10.70783"><ele>39.0</ele><time>2026-04-07T15:39:59.982Z</time></trkpt><trkpt lat="44.7157867" lon="10.7078333"><ele>39.0</ele><time>2026-04-07T15:40:00.982Z</time></trkpt><trkpt lat="44.7157017" lon="10.70782"><ele>39.0</ele><time>2026-04-07T15:40:01.981Z</time></trkpt><trkpt lat="44.7156167" lon="10.7077883"><ele>39.0</ele><time>2026-04-07T15:40:02.981Z</time></trkpt><trkpt lat="44.7155367" lon="10.707735"><ele>39.0</ele><time>2026-04-07T15:40:03.981Z</time></trkpt><trkpt lat="44.7154517" lon="10.70767"><ele>39.0</ele><time>2026-04-07T15:40:04.982Z</time></trkpt><trkpt lat="44.7153483" lon="10.70759"><ele>39.0</ele><time>2026-04-07T15:40:05.982Z</time></trkpt><trkpt lat="44.715235" lon="10.7075133"><ele>39.0</ele><time>2026-04-07T15:40:06.982Z</time></trkpt><trkpt lat="44.7151217" lon="10.7074217"><ele>39.0</ele><time>2026-04-07T15:40:07.982Z</time></trkpt><trkpt lat="44.7150317" lon="10.707315"><ele>39.0</ele><time>2026-04-07T15:40:08.982Z</time></trkpt><trkpt lat="44.71497" lon="10.707175"><ele>39.0</ele><time>2026-04-07T15:40:09.982Z</time></trkpt><trkpt lat="44.7149417" lon="10.7070017"><ele>38.75</ele><time>2026-04-07T15:40:10.982Z</time></trkpt><trkpt lat="44.714925" lon="10.70682"><ele>38.5</ele><time>2026-04-07T15:40:11.982Z</time></trkpt><trkpt lat="44.7149133" lon="10.7066317"><ele>38.25</ele><time>2026-04-07T15:40:12.982Z</time></trkpt><trkpt lat="44.7149" lon="10.706435"><ele>38.0</ele><time>2026-04-07T15:40:13.981Z</time></trkpt><trkpt lat="44.7148867" lon="10.7062333"><ele>38.0</ele><time>2026-04-07T15:40:14.982Z</time></trkpt><trkpt lat="44.714865" lon="10.70603"><ele>38.0</ele><time>2026-04-07T15:40:15.981Z</time></trkpt><trkpt lat="44.714835" lon="10.7058283"><ele>38.0</ele><time>2026-04-07T15:40:16.982Z</time></trkpt><trkpt lat="44.7147967" lon="10.7056367"><ele>38.0</ele><time>2026-04-07T15:40:17.982Z</time></trkpt><trkpt lat="44.71475" lon="10.70544"><ele>38.0</ele><time>2026-04-07T15:40:18.981Z</time></trkpt><trkpt lat="44.7146967" lon="10.7052483"><ele>38.0</ele><time>2026-04-07T15:40:19.982Z</time></trkpt><trkpt lat="44.7146283" lon="10.7050583"><ele>38.0</ele><time>2026-04-07T15:40:20.982Z</time></trkpt><trkpt lat="44.7145533" lon="10.7048783"><ele>38.0</ele><time>2026-04-07T15:40:21.982Z</time></trkpt><trkpt lat="44.7144567" lon="10.704705"><ele>38.0</ele><time>2026-04-07T15:40:22.982Z</time></trkpt><trkpt lat="44.714345" lon="10.704535"><ele>38.0</ele><time>2026-04-07T15:40:23.981Z</time></trkpt><trkpt lat="44.71422" lon="10.704375"><ele>38.0</ele><time>2026-04-07T15:40:24.981Z</time></trkpt><trkpt lat="44.714085" lon="10.7042317"><ele>38.0</ele><time>2026-04-07T15:40:25.981Z</time></trkpt><trkpt lat="44.7139433" lon="10.7041033"><ele>38.0</ele><time>2026-04-07T15:40:26.982Z</time></trkpt><trkpt lat="44.7137867" lon="10.7040033"><ele>38.0</ele><time>2026-04-07T15:40:27.982Z</time></trkpt><trkpt lat="44.7136233" lon="10.70392"><ele>38.33333333333333</ele><time>2026-04-07T15:40:28.982Z</time></trkpt><trkpt lat="44.7134617" lon="10.70385"><ele>38.666666666666664</ele><time>2026-04-07T15:40:29.982Z</time></trkpt><trkpt lat="44.7132983" lon="10.7037883"><ele>39.0</ele><time>2026-04-07T15:40:30.982Z</time></trkpt><trkpt lat="44.71314" lon="10.7037267"><ele>39.0</ele><time>2026-04-07T15:40:31.982Z</time></trkpt><trkpt lat="44.7129767" lon="10.7036683"><ele>39.0</ele><time>2026-04-07T15:40:32.982Z</time></trkpt><trkpt lat="44.7128083" lon="10.7036017"><ele>39.0</ele><time>2026-04-07T15:40:33.981Z</time></trkpt><trkpt lat="44.7126367" lon="10.70354"><ele>39.0</ele><time>2026-04-07T15:40:34.982Z</time></trkpt><trkpt lat="44.7124683" lon="10.7034767"><ele>39.0</ele><time>2026-04-07T15:40:35.982Z</time></trkpt><trkpt lat="44.7122933" lon="10.7034133"><ele>39.0</ele><time>2026-04-07T15:40:36.982Z</time></trkpt><trkpt lat="44.712115" lon="10.7033483"><ele>39.0</ele><time>2026-04-07T15:40:37.982Z</time></trkpt><trkpt lat="44.7119383" lon="10.703285"><ele>39.0</ele><time>2026-04-07T15:40:38.982Z</time></trkpt><trkpt lat="44.7117767" lon="10.70322"><ele>39.0</ele><time>2026-04-07T15:40:39.982Z</time></trkpt><trkpt lat="44.7116133" lon="10.70316"><ele>39.333333333333336</ele><time>2026-04-07T15:40:40.981Z</time></trkpt><trkpt lat="44.7114483" lon="10.703095"><ele>39.66666666666667</ele><time>2026-04-07T15:40:41.982Z</time></trkpt><trkpt lat="44.7112867" lon="10.7030417"><ele>40.0</ele><time>2026-04-07T15:40:42.982Z</time></trkpt><trkpt lat="44.7111183" lon="10.7029767"><ele>39.66666666666667</ele><time>2026-04-07T15:40:43.982Z</time></trkpt><trkpt lat="44.7109517" lon="10.7029167"><ele>39.333333333333336</ele><time>2026-04-07T15:40:44.982Z</time></trkpt><trkpt lat="44.7107833" lon="10.7028567"><ele>39.0</ele><time>2026-04-07T15:40:45.982Z</time></trkpt><trkpt lat="44.7106167" lon="10.7027917"><ele>39.0</ele><time>2026-04-07T15:40:46.982Z</time></trkpt><trkpt lat="44.7104583" lon="10.7027367"><ele>39.0</ele><time>2026-04-07T15:40:47.981Z</time></trkpt><trkpt lat="44.710305" lon="10.7026733"><ele>39.0</ele><time>2026-04-07T15:40:48.982Z</time></trkpt><trkpt lat="44.7101517" lon="10.7026117"><ele>38.666666666666664</ele><time>2026-04-07T15:40:49.981Z</time></trkpt><trkpt lat="44.7100017" lon="10.7025517"><ele>38.33333333333333</ele><time>2026-04-07T15:40:50.982Z</time></trkpt><trkpt lat="44.7098567" lon="10.7025017"><ele>38.0</ele><time>2026-04-07T15:40:51.981Z</time></trkpt><trkpt lat="44.7097083" lon="10.7024533"><ele>38.0</ele><time>2026-04-07T15:40:52.981Z</time></trkpt><trkpt lat="44.7095633" lon="10.70241"><ele>38.0</ele><time>2026-04-07T15:40:53.981Z</time></trkpt><trkpt lat="44.709415" lon="10.7023533"><ele>38.0</ele><time>2026-04-07T15:40:54.982Z</time></trkpt><trkpt lat="44.7092667" lon="10.7023033"><ele>38.0</ele><time>2026-04-07T15:40:55.981Z</time></trkpt><trkpt lat="44.70912" lon="10.702245"><ele>38.0</ele><time>2026-04-07T15:40:56.982Z</time></trkpt><trkpt lat="44.7089717" lon="10.7021883"><ele>38.0</ele><time>2026-04-07T15:40:57.982Z</time></trkpt><trkpt lat="44.7088233" lon="10.7021283"><ele>38.0</ele><time>2026-04-07T15:40:58.982Z</time></trkpt><trkpt lat="44.7086667" lon="10.702065"><ele>38.0</ele><time>2026-04-07T15:40:59.982Z</time></trkpt><trkpt lat="44.70851" lon="10.7019983"><ele>38.0</ele><time>2026-04-07T15:41:00.982Z</time></trkpt><trkpt lat="44.70835" lon="10.7019217"><ele>38.0</ele><time>2026-04-07T15:41:01.982Z</time></trkpt><trkpt lat="44.708205" lon="10.7018417"><ele>38.0</ele><time>2026-04-07T15:41:02.982Z</time></trkpt><trkpt lat="44.7080667" lon="10.70176"><ele>38.0</ele><time>2026-04-07T15:41:03.982Z</time></trkpt><trkpt lat="44.7079267" lon="10.7016767"><ele>38.0</ele><time>2026-04-07T15:41:04.982Z</time></trkpt><trkpt lat="44.7077917" lon="10.701575"><ele>38.0</ele><time>2026-04-07T15:41:05.981Z</time></trkpt><trkpt lat="44.707655" lon="10.7014683"><ele>38.0</ele><time>2026-04-07T15:41:06.982Z</time></trkpt><trkpt lat="44.7075183" lon="10.7013533"><ele>38.33333333333333</ele><time>2026-04-07T15:41:07.982Z</time></trkpt><trkpt lat="44.7073767" lon="10.7012267"><ele>38.666666666666664</ele><time>2026-04-07T15:41:08.981Z</time></trkpt><trkpt lat="44.7072367" lon="10.7011"><ele>39.0</ele><time>2026-04-07T15:41:09.981Z</time></trkpt><trkpt lat="44.7071117" lon="10.700965"><ele>39.0</ele><time>2026-04-07T15:41:10.982Z</time></trkpt><trkpt lat="44.7069817" lon="10.70082"><ele>39.0</ele><time>2026-04-07T15:41:11.982Z</time></trkpt><trkpt lat="44.7068583" lon="10.7006667"><ele>39.0</ele><time>2026-04-07T15:41:12.982Z</time></trkpt><trkpt lat="44.7067483" lon="10.7005117"><ele>39.333333333333336</ele><time>2026-04-07T15:41:13.982Z</time></trkpt><trkpt lat="44.70664" lon="10.700355"><ele>39.66666666666667</ele><time>2026-04-07T15:41:14.982Z</time></trkpt><trkpt lat="44.7065233" lon="10.700185"><ele>40.0</ele><time>2026-04-07T15:41:15.982Z</time></trkpt><trkpt lat="44.7064033" lon="10.7000083"><ele>40.333333333333336</ele><time>2026-04-07T15:41:16.981Z</time></trkpt><trkpt lat="44.7062833" lon="10.6998183"><ele>40.666666666666664</ele><time>2026-04-07T15:41:17.982Z</time></trkpt><trkpt lat="44.706175" lon="10.69963"><ele>41.0</ele><time>2026-04-07T15:41:18.982Z</time></trkpt><trkpt lat="44.7060683" lon="10.6994483"><ele>40.0</ele><time>2026-04-07T15:41:19.982Z</time></trkpt><trkpt lat="44.705965" lon="10.6992733"><ele>39.0</ele><time>2026-04-07T15:41:20.981Z</time></trkpt><trkpt lat="44.705865" lon="10.6991033"><ele>38.0</ele><time>2026-04-07T15:41:21.982Z</time></trkpt><trkpt lat="44.7057617" lon="10.6989317"><ele>38.0</ele><time>2026-04-07T15:41:22.982Z</time></trkpt><trkpt lat="44.7056633" lon="10.6987567"><ele>38.0</ele><time>2026-04-07T15:41:23.982Z</time></trkpt><trkpt lat="44.7055617" lon="10.6985817"><ele>38.0</ele><time>2026-04-07T15:41:24.981Z</time></trkpt><trkpt lat="44.7054567" lon="10.698405"><ele>38.33333333333333</ele><time>2026-04-07T15:41:25.982Z</time></trkpt><trkpt lat="44.7053417" lon="10.69822"><ele>38.666666666666664</ele><time>2026-04-07T15:41:26.982Z</time></trkpt><trkpt lat="44.70522" lon="10.6980217"><ele>39.0</ele><time>2026-04-07T15:41:27.981Z</time></trkpt><trkpt lat="44.70509" lon="10.69779"><ele>39.0</ele><time>2026-04-07T15:41:28.982Z</time></trkpt><trkpt lat="44.7049483" lon="10.6975417"><ele>39.0</ele><time>2026-04-07T15:41:29.982Z</time></trkpt><trkpt lat="44.7048117" lon="10.697295"><ele>39.0</ele><time>2026-04-07T15:41:30.981Z</time></trkpt><trkpt lat="44.704675" lon="10.6970567"><ele>39.333333333333336</ele><time>2026-04-07T15:41:31.982Z</time></trkpt><trkpt lat="44.70455" lon="10.6968283"><ele>39.66666666666667</ele><time>2026-04-07T15:41:32.982Z</time></trkpt><trkpt lat="44.7044167" lon="10.6966033"><ele>40.0</ele><time>2026-04-07T15:41:33.981Z</time></trkpt><trkpt lat="44.7042883" lon="10.6963833"><ele>40.0</ele><time>2026-04-07T15:41:34.982Z</time></trkpt><trkpt lat="44.7041633" lon="10.6961567"><ele>40.0</ele><time>2026-04-07T15:41:35.981Z</time></trkpt><trkpt lat="44.7040383" lon="10.6959383"><ele>40.0</ele><time>2026-04-07T15:41:36.982Z</time></trkpt><trkpt lat="44.7039183" lon="10.6957383"><ele>40.0</ele><time>2026-04-07T15:41:37.982Z</time></trkpt><trkpt lat="44.7038" lon="10.6955367"><ele>40.0</ele><time>2026-04-07T15:41:38.982Z</time></trkpt><trkpt lat="44.7036833" lon="10.695345"><ele>40.0</ele><time>2026-04-07T15:41:39.982Z</time></trkpt><trkpt lat="44.703565" lon="10.695155"><ele>40.66666666666667</ele><time>2026-04-07T15:41:40.982Z</time></trkpt><trkpt lat="44.703445" lon="10.6949683"><ele>41.333333333333336</ele><time>2026-04-07T15:41:41.982Z</time></trkpt><trkpt lat="44.703315" lon="10.69478"><ele>42.0</ele><time>2026-04-07T15:41:42.982Z</time></trkpt><trkpt lat="44.7031767" lon="10.6946033"><ele>42.0</ele><time>2026-04-07T15:41:43.982Z</time></trkpt><trkpt lat="44.70304" lon="10.6944417"><ele>42.0</ele><time>2026-04-07T15:41:44.982Z</time></trkpt><trkpt lat="44.7029083" lon="10.694295"><ele>42.0</ele><time>2026-04-07T15:41:45.982Z</time></trkpt><trkpt lat="44.7027767" lon="10.6941367"><ele>42.333333333333336</ele><time>2026-04-07T15:41:46.982Z</time></trkpt><trkpt lat="44.7026383" lon="10.693985"><ele>42.66666666666667</ele><time>2026-04-07T15:41:47.982Z</time></trkpt><trkpt lat="44.7025033" lon="10.69384"><ele>43.0</ele><time>2026-04-07T15:41:48.982Z</time></trkpt><trkpt lat="44.7023583" lon="10.6937017"><ele>42.66666666666667</ele><time>2026-04-07T15:41:49.982Z</time></trkpt><trkpt lat="44.7022" lon="10.6935567"><ele>42.333333333333336</ele><time>2026-04-07T15:41:50.982Z</time></trkpt><trkpt lat="44.7020417" lon="10.69341"><ele>42.0</ele><time>2026-04-07T15:41:51.982Z</time></trkpt><trkpt lat="44.7018917" lon="10.6932683"><ele>42.0</ele><time>2026-04-07T15:41:52.982Z</time></trkpt><trkpt lat="44.7017467" lon="10.693135"><ele>42.0</ele><time>2026-04-07T15:41:53.982Z</time></trkpt><trkpt lat="44.7016117" lon="10.69301"><ele>42.0</ele><time>2026-04-07T15:41:54.982Z</time></trkpt><trkpt lat="44.701475" lon="10.6928833"><ele>42.0</ele><time>2026-04-07T15:41:55.982Z</time></trkpt><trkpt lat="44.7013317" lon="10.6927533"><ele>42.0</ele><time>2026-04-07T15:41:56.981Z</time></trkpt><trkpt lat="44.7011733" lon="10.6926167"><ele>42.0</ele><time>2026-04-07T15:41:57.982Z</time></trkpt><trkpt lat="44.7010067" lon="10.692465"><ele>42.0</ele><time>2026-04-07T15:41:58.982Z</time></trkpt><trkpt lat="44.70084" lon="10.6923033"><ele>42.0</ele><time>2026-04-07T15:41:59.982Z</time></trkpt><trkpt lat="44.70068" lon="10.6921467"><ele>42.0</ele><time>2026-04-07T15:42:00.982Z</time></trkpt><trkpt lat="44.7005233" lon="10.6919967"><ele>42.0</ele><time>2026-04-07T15:42:01.982Z</time></trkpt><trkpt lat="44.7003733" lon="10.691845"><ele>42.0</ele><time>2026-04-07T15:42:02.981Z</time></trkpt><trkpt lat="44.700225" lon="10.6916967"><ele>42.0</ele><time>2026-04-07T15:42:03.981Z</time></trkpt><trkpt lat="44.7000633" lon="10.691535"><ele>42.0</ele><time>2026-04-07T15:42:04.981Z</time></trkpt><trkpt lat="44.6998833" lon="10.6913433"><ele>42.0</ele><time>2026-04-07T15:42:05.981Z</time></trkpt><trkpt lat="44.69969" lon="10.6911233"><ele>42.0</ele><time>2026-04-07T15:42:06.982Z</time></trkpt><trkpt lat="44.6994967" lon="10.6908683"><ele>42.0</ele><time>2026-04-07T15:42:07.982Z</time></trkpt><trkpt lat="44.6993083" lon="10.6906117"><ele>42.0</ele><time>2026-04-07T15:42:08.982Z</time></trkpt><trkpt lat="44.6991333" lon="10.690365"><ele>42.0</ele><time>2026-04-07T15:42:09.982Z</time></trkpt><trkpt lat="44.6989617" lon="10.6901117"><ele>43.0</ele><time>2026-04-07T15:42:10.982Z</time></trkpt><trkpt lat="44.6987967" lon="10.6898567"><ele>44.0</ele><time>2026-04-07T15:42:11.981Z</time></trkpt><trkpt lat="44.698625" lon="10.6895967"><ele>43.5</ele><time>2026-04-07T15:42:12.982Z</time></trkpt><trkpt lat="44.6984567" lon="10.689335"><ele>43.0</ele><time>2026-04-07T15:42:13.982Z</time></trkpt><trkpt lat="44.6982967" lon="10.68908"><ele>43.0</ele><time>2026-04-07T15:42:14.982Z</time></trkpt><trkpt lat="44.6981483" lon="10.688845"><ele>43.0</ele><time>2026-04-07T15:42:15.981Z</time></trkpt><trkpt lat="44.6980133" lon="10.68863"><ele>43.0</ele><time>2026-04-07T15:42:16.981Z</time></trkpt><trkpt lat="44.6978867" lon="10.6884267"><ele>43.0</ele><time>2026-04-07T15:42:17.982Z</time></trkpt><trkpt lat="44.69778" lon="10.6882433"><ele>43.0</ele><time>2026-04-07T15:42:18.982Z</time></trkpt><trkpt lat="44.6976967" lon="10.6880717"><ele>43.0</ele><time>2026-04-07T15:42:19.982Z</time></trkpt><trkpt lat="44.6976217" lon="10.6878817"><ele>43.0</ele><time>2026-04-07T15:42:20.981Z</time></trkpt><trkpt lat="44.69757" lon="10.6876783"><ele>43.0</ele><time>2026-04-07T15:42:21.981Z</time></trkpt><trkpt lat="44.6975383" lon="10.6874567"><ele>43.0</ele><time>2026-04-07T15:42:22.982Z</time></trkpt><trkpt lat="44.6975217" lon="10.68723"><ele>43.0</ele><time>2026-04-07T15:42:23.981Z</time></trkpt><trkpt lat="44.6975333" lon="10.6870167"><ele>43.0</ele><time>2026-04-07T15:42:24.982Z</time></trkpt><trkpt lat="44.6975617" lon="10.6868"><ele>43.0</ele><time>2026-04-07T15:42:25.981Z</time></trkpt><trkpt lat="44.6975967" lon="10.6865867"><ele>43.0</ele><time>2026-04-07T15:42:26.982Z</time></trkpt><trkpt lat="44.6976583" lon="10.68638"><ele>43.0</ele><time>2026-04-07T15:42:27.982Z</time></trkpt><trkpt lat="44.6977717" lon="10.6861783"><ele>43.0</ele><time>2026-04-07T15:42:28.981Z</time></trkpt><trkpt lat="44.697905" lon="10.6859983"><ele>43.0</ele><time>2026-04-07T15:42:29.981Z</time></trkpt><trkpt lat="44.6980567" lon="10.6858217"><ele>43.0</ele><time>2026-04-07T15:42:30.982Z</time></trkpt><trkpt lat="44.6982017" lon="10.68564"><ele>43.0</ele><time>2026-04-07T15:42:31.982Z</time></trkpt><trkpt lat="44.69835" lon="10.685445"><ele>42.66666666666667</ele><time>2026-04-07T15:42:32.981Z</time></trkpt><trkpt lat="44.6985017" lon="10.6852283"><ele>42.333333333333336</ele><time>2026-04-07T15:42:33.982Z</time></trkpt><trkpt lat="44.6986483" lon="10.684995"><ele>42.0</ele><time>2026-04-07T15:42:34.981Z</time></trkpt><trkpt lat="44.6987917" lon="10.6847517"><ele>42.0</ele><time>2026-04-07T15:42:35.982Z</time></trkpt><trkpt lat="44.6989317" lon="10.68449"><ele>42.0</ele><time>2026-04-07T15:42:36.981Z</time></trkpt><trkpt lat="44.6990633" lon="10.6842133"><ele>42.0</ele><time>2026-04-07T15:42:37.982Z</time></trkpt><trkpt lat="44.6991817" lon="10.6839233"><ele>42.0</ele><time>2026-04-07T15:42:38.981Z</time></trkpt><trkpt lat="44.6992983" lon="10.6836183"><ele>42.5</ele><time>2026-04-07T15:42:39.982Z</time></trkpt><trkpt lat="44.6994033" lon="10.6833117"><ele>43.0</ele><time>2026-04-07T15:42:40.982Z</time></trkpt><trkpt lat="44.6995033" lon="10.68299"><ele>41.0</ele><time>2026-04-07T15:42:41.982Z</time></trkpt><trkpt lat="44.69958" lon="10.6826567"><ele>39.0</ele><time>2026-04-07T15:42:42.982Z</time></trkpt><trkpt lat="44.6996417" lon="10.68232"><ele>39.0</ele><time>2026-04-07T15:42:43.981Z</time></trkpt><trkpt lat="44.6996967" lon="10.6819717"><ele>39.0</ele><time>2026-04-07T15:42:44.982Z</time></trkpt><trkpt lat="44.6997417" lon="10.6816167"><ele>40.0</ele><time>2026-04-07T15:42:45.982Z</time></trkpt><trkpt lat="44.6997833" lon="10.6812583"><ele>41.0</ele><time>2026-04-07T15:42:46.982Z</time></trkpt><trkpt lat="44.6998233" lon="10.6809017"><ele>41.0</ele><time>2026-04-07T15:42:47.982Z</time></trkpt><trkpt lat="44.699865" lon="10.6805433"><ele>41.0</ele><time>2026-04-07T15:42:48.982Z</time></trkpt><trkpt lat="44.6999083" lon="10.6801883"><ele>42.0</ele><time>2026-04-07T15:42:49.982Z</time></trkpt><trkpt lat="44.6999533" lon="10.6798333"><ele>43.0</ele><time>2026-04-07T15:42:50.982Z</time></trkpt><trkpt lat="44.6999917" lon="10.6794633"><ele>43.0</ele><time>2026-04-07T15:42:51.982Z</time></trkpt><trkpt lat="44.7000333" lon="10.6791067"><ele>43.0</ele><time>2026-04-07T15:42:52.982Z</time></trkpt><trkpt lat="44.700075" lon="10.6787483"><ele>43.0</ele><time>2026-04-07T15:42:53.982Z</time></trkpt><trkpt lat="44.700115" lon="10.678395"><ele>43.0</ele><time>2026-04-07T15:42:54.982Z</time></trkpt><trkpt lat="44.7001567" lon="10.6780433"><ele>43.0</ele><time>2026-04-07T15:42:55.981Z</time></trkpt><trkpt lat="44.7002" lon="10.6776833"><ele>43.0</ele><time>2026-04-07T15:42:56.982Z</time></trkpt><trkpt lat="44.700245" lon="10.6773167"><ele>43.0</ele><time>2026-04-07T15:42:57.981Z</time></trkpt><trkpt lat="44.7003033" lon="10.67695"><ele>43.0</ele><time>2026-04-07T15:42:58.981Z</time></trkpt><trkpt lat="44.7003717" lon="10.676585"><ele>43.0</ele><time>2026-04-07T15:42:59.982Z</time></trkpt><trkpt lat="44.7004633" lon="10.6762417"><ele>43.0</ele><time>2026-04-07T15:43:00.981Z</time></trkpt><trkpt lat="44.7005583" lon="10.6759183"><ele>41.5</ele><time>2026-04-07T15:43:01.982Z</time></trkpt><trkpt lat="44.7006517" lon="10.67562"><ele>40.0</ele><time>2026-04-07T15:43:02.982Z</time></trkpt><trkpt lat="44.7007533" lon="10.6753167"><ele>40.5</ele><time>2026-04-07T15:43:03.982Z</time></trkpt><trkpt lat="44.7008617" lon="10.6750183"><ele>41.0</ele><time>2026-04-07T15:43:04.982Z</time></trkpt><trkpt lat="44.700975" lon="10.6747167"><ele>41.5</ele><time>2026-04-07T15:43:05.982Z</time></trkpt><trkpt lat="44.7010917" lon="10.6744283"><ele>42.0</ele><time>2026-04-07T15:43:06.982Z</time></trkpt><trkpt lat="44.7012117" lon="10.6741383"><ele>42.0</ele><time>2026-04-07T15:43:07.981Z</time></trkpt><trkpt lat="44.70133" lon="10.6738583"><ele>42.0</ele><time>2026-04-07T15:43:08.982Z</time></trkpt><trkpt lat="44.701445" lon="10.6735917"><ele>42.0</ele><time>2026-04-07T15:43:09.982Z</time></trkpt><trkpt lat="44.701555" lon="10.67334"><ele>42.0</ele><time>2026-04-07T15:43:10.982Z</time></trkpt><trkpt lat="44.7016633" lon="10.6730917"><ele>42.0</ele><time>2026-04-07T15:43:11.981Z</time></trkpt><trkpt lat="44.7017717" lon="10.6728417"><ele>42.333333333333336</ele><time>2026-04-07T15:43:12.982Z</time></trkpt><trkpt lat="44.70188" lon="10.67258"><ele>42.66666666666667</ele><time>2026-04-07T15:43:13.982Z</time></trkpt><trkpt lat="44.7019917" lon="10.6723267"><ele>43.0</ele><time>2026-04-07T15:43:14.981Z</time></trkpt><trkpt lat="44.7020983" lon="10.6720667"><ele>42.333333333333336</ele><time>2026-04-07T15:43:15.982Z</time></trkpt><trkpt lat="44.7022083" lon="10.67181"><ele>41.666666666666664</ele><time>2026-04-07T15:43:16.982Z</time></trkpt><trkpt lat="44.7023133" lon="10.671555"><ele>41.0</ele><time>2026-04-07T15:43:17.982Z</time></trkpt><trkpt lat="44.7024267" lon="10.6713017"><ele>41.0</ele><time>2026-04-07T15:43:18.982Z</time></trkpt><trkpt lat="44.702535" lon="10.671045"><ele>41.0</ele><time>2026-04-07T15:43:19.982Z</time></trkpt><trkpt lat="44.7026467" lon="10.6707767"><ele>41.0</ele><time>2026-04-07T15:43:20.982Z</time></trkpt><trkpt lat="44.7027633" lon="10.670505"><ele>41.0</ele><time>2026-04-07T15:43:21.982Z</time></trkpt><trkpt lat="44.70288" lon="10.67022"><ele>41.0</ele><time>2026-04-07T15:43:22.981Z</time></trkpt><trkpt lat="44.7029983" lon="10.66994"><ele>41.0</ele><time>2026-04-07T15:43:23.982Z</time></trkpt><trkpt lat="44.7031133" lon="10.6696583"><ele>41.0</ele><time>2026-04-07T15:43:24.982Z</time></trkpt><trkpt lat="44.7032317" lon="10.669375"><ele>40.5</ele><time>2026-04-07T15:43:25.982Z</time></trkpt><trkpt lat="44.7033467" lon="10.6690917"><ele>40.0</ele><time>2026-04-07T15:43:26.982Z</time></trkpt><trkpt lat="44.70346" lon="10.66881"><ele>40.5</ele><time>2026-04-07T15:43:27.982Z</time></trkpt><trkpt lat="44.703575" lon="10.6685267"><ele>41.0</ele><time>2026-04-07T15:43:28.982Z</time></trkpt><trkpt lat="44.7036933" lon="10.6682483"><ele>41.5</ele><time>2026-04-07T15:43:29.982Z</time></trkpt><trkpt lat="44.7038067" lon="10.6679667"><ele>42.0</ele><time>2026-04-07T15:43:30.982Z</time></trkpt><trkpt lat="44.70392" lon="10.6676717"><ele>42.0</ele><time>2026-04-07T15:43:31.982Z</time></trkpt><trkpt lat="44.704045" lon="10.6673667"><ele>42.0</ele><time>2026-04-07T15:43:32.982Z</time></trkpt><trkpt lat="44.7041717" lon="10.667055"><ele>42.0</ele><time>2026-04-07T15:43:33.982Z</time></trkpt><trkpt lat="44.7042983" lon="10.6667483"><ele>42.0</ele><time>2026-04-07T15:43:34.982Z</time></trkpt><trkpt lat="44.70444" lon="10.66644"><ele>40.5</ele><time>2026-04-07T15:43:35.981Z</time></trkpt><trkpt lat="44.70457" lon="10.666135"><ele>39.0</ele><time>2026-04-07T15:43:36.981Z</time></trkpt><trkpt lat="44.7047067" lon="10.66582"><ele>39.0</ele><time>2026-04-07T15:43:37.982Z</time></trkpt><trkpt lat="44.7048433" lon="10.6654933"><ele>39.0</ele><time>2026-04-07T15:43:38.982Z</time></trkpt><trkpt lat="44.70498" lon="10.6651633"><ele>39.5</ele><time>2026-04-07T15:43:39.982Z</time></trkpt><trkpt lat="44.7051183" lon="10.6648233"><ele>40.0</ele><time>2026-04-07T15:43:40.982Z</time></trkpt><trkpt lat="44.7052617" lon="10.6644883"><ele>40.0</ele><time>2026-04-07T15:43:41.982Z</time></trkpt><trkpt lat="44.7054" lon="10.6641583"><ele>40.0</ele><time>2026-04-07T15:43:42.982Z</time></trkpt><trkpt lat="44.7055217" lon="10.66384"><ele>40.5</ele><time>2026-04-07T15:43:43.982Z</time></trkpt><trkpt lat="44.7056317" lon="10.6635117"><ele>41.0</ele><time>2026-04-07T15:43:44.982Z</time></trkpt><trkpt lat="44.7057217" lon="10.6631833"><ele>41.0</ele><time>2026-04-07T15:43:45.982Z</time></trkpt><trkpt lat="44.7057933" lon="10.66285"><ele>41.0</ele><time>2026-04-07T15:43:46.982Z</time></trkpt><trkpt lat="44.705855" lon="10.6625133"><ele>40.5</ele><time>2026-04-07T15:43:47.982Z</time></trkpt><trkpt lat="44.705905" lon="10.66219"><ele>40.0</ele><time>2026-04-07T15:43:48.982Z</time></trkpt><trkpt lat="44.7059433" lon="10.6618717"><ele>41.0</ele><time>2026-04-07T15:43:49.981Z</time></trkpt><trkpt lat="44.7059683" lon="10.6615517"><ele>42.0</ele><time>2026-04-07T15:43:50.982Z</time></trkpt><trkpt lat="44.7059967" lon="10.6612283"><ele>42.5</ele><time>2026-04-07T15:43:51.982Z</time></trkpt><trkpt lat="44.706015" lon="10.660905"><ele>43.0</ele><time>2026-04-07T15:43:52.982Z</time></trkpt><trkpt lat="44.7060317" lon="10.6605783"><ele>42.5</ele><time>2026-04-07T15:43:53.981Z</time></trkpt><trkpt lat="44.7060417" lon="10.6602517"><ele>42.0</ele><time>2026-04-07T15:43:54.982Z</time></trkpt><trkpt lat="44.7060567" lon="10.6599217"><ele>42.0</ele><time>2026-04-07T15:43:55.982Z</time></trkpt><trkpt lat="44.706075" lon="10.65959"><ele>42.0</ele><time>2026-04-07T15:43:56.982Z</time></trkpt><trkpt lat="44.7060967" lon="10.6592617"><ele>43.0</ele><time>2026-04-07T15:43:57.982Z</time></trkpt><trkpt lat="44.7061367" lon="10.658935"><ele>44.0</ele><time>2026-04-07T15:43:58.981Z</time></trkpt><trkpt lat="44.7061817" lon="10.6586083"><ele>42.0</ele><time>2026-04-07T15:43:59.982Z</time></trkpt><trkpt lat="44.706235" lon="10.6582783"><ele>40.0</ele><time>2026-04-07T15:44:00.982Z</time></trkpt><trkpt lat="44.7062967" lon="10.6579517"><ele>40.5</ele><time>2026-04-07T15:44:01.982Z</time></trkpt><trkpt lat="44.706365" lon="10.6576283"><ele>41.0</ele><time>2026-04-07T15:44:02.982Z</time></trkpt><trkpt lat="44.7064417" lon="10.6572967"><ele>41.0</ele><time>2026-04-07T15:44:03.982Z</time></trkpt><trkpt lat="44.7065267" lon="10.65697"><ele>41.0</ele><time>2026-04-07T15:44:04.982Z</time></trkpt><trkpt lat="44.7066217" lon="10.6566467"><ele>41.0</ele><time>2026-04-07T15:44:05.982Z</time></trkpt><trkpt lat="44.706725" lon="10.65633"><ele>41.0</ele><time>2026-04-07T15:44:06.982Z</time></trkpt><trkpt lat="44.7068467" lon="10.656025"><ele>42.0</ele><time>2026-04-07T15:44:07.982Z</time></trkpt><trkpt lat="44.7069717" lon="10.655715"><ele>43.0</ele><time>2026-04-07T15:44:08.982Z</time></trkpt><trkpt lat="44.7071083" lon="10.6554033"><ele>44.0</ele><time>2026-04-07T15:44:09.981Z</time></trkpt><trkpt lat="44.7072517" lon="10.65508"><ele>45.0</ele><time>2026-04-07T15:44:10.982Z</time></trkpt><trkpt lat="44.7074067" lon="10.6547533"><ele>44.5</ele><time>2026-04-07T15:44:11.982Z</time></trkpt><trkpt lat="44.70756" lon="10.6544367"><ele>44.0</ele><time>2026-04-07T15:44:12.982Z</time></trkpt><trkpt lat="44.7077183" lon="10.6541267"><ele>44.0</ele><time>2026-04-07T15:44:13.982Z</time></trkpt><trkpt lat="44.70787" lon="10.6538167"><ele>44.0</ele><time>2026-04-07T15:44:14.982Z</time></trkpt><trkpt lat="44.7080217" lon="10.653505"><ele>43.0</ele><time>2026-04-07T15:44:15.981Z</time></trkpt><trkpt lat="44.70817" lon="10.6532"><ele>42.0</ele><time>2026-04-07T15:44:16.982Z</time></trkpt><trkpt lat="44.7083183" lon="10.65289"><ele>42.0</ele><time>2026-04-07T15:44:17.982Z</time></trkpt><trkpt lat="44.7084683" lon="10.65258"><ele>42.0</ele><time>2026-04-07T15:44:18.982Z</time></trkpt><trkpt lat="44.7086167" lon="10.6522683"><ele>42.0</ele><time>2026-04-07T15:44:19.982Z</time></trkpt><trkpt lat="44.7087667" lon="10.6519617"><ele>42.0</ele><time>2026-04-07T15:44:20.982Z</time></trkpt><trkpt lat="44.7089133" lon="10.651655"><ele>42.5</ele><time>2026-04-07T15:44:21.982Z</time></trkpt><trkpt lat="44.7090617" lon="10.65135"><ele>43.0</ele><time>2026-04-07T15:44:22.981Z</time></trkpt><trkpt lat="44.7092117" lon="10.6510433"><ele>43.5</ele><time>2026-04-07T15:44:23.982Z</time></trkpt><trkpt lat="44.70936" lon="10.6507383"><ele>44.0</ele><time>2026-04-07T15:44:24.981Z</time></trkpt><trkpt lat="44.7095083" lon="10.6504317"><ele>44.0</ele><time>2026-04-07T15:44:25.981Z</time></trkpt><trkpt lat="44.7096583" lon="10.6501167"><ele>44.0</ele><time>2026-04-07T15:44:26.982Z</time></trkpt><trkpt lat="44.7098017" lon="10.6498083"><ele>44.0</ele><time>2026-04-07T15:44:27.982Z</time></trkpt><trkpt lat="44.7099433" lon="10.6495017"><ele>44.0</ele><time>2026-04-07T15:44:28.982Z</time></trkpt><trkpt lat="44.7100783" lon="10.6491983"><ele>43.5</ele><time>2026-04-07T15:44:29.982Z</time></trkpt><trkpt lat="44.7102083" lon="10.6488883"><ele>43.0</ele><time>2026-04-07T15:44:30.982Z</time></trkpt><trkpt lat="44.710325" lon="10.6485767"><ele>42.5</ele><time>2026-04-07T15:44:31.982Z</time></trkpt><trkpt lat="44.7104383" lon="10.6482633"><ele>42.0</ele><time>2026-04-07T15:44:32.982Z</time></trkpt><trkpt lat="44.7105433" lon="10.6479483"><ele>43.0</ele><time>2026-04-07T15:44:33.982Z</time></trkpt><trkpt lat="44.710645" lon="10.6476283"><ele>44.0</ele><time>2026-04-07T15:44:34.981Z</time></trkpt><trkpt lat="44.7107383" lon="10.64731"><ele>44.0</ele><time>2026-04-07T15:44:35.981Z</time></trkpt><trkpt lat="44.71083" lon="10.6469917"><ele>44.0</ele><time>2026-04-07T15:44:36.982Z</time></trkpt><trkpt lat="44.7109117" lon="10.646665"><ele>43.5</ele><time>2026-04-07T15:44:37.982Z</time></trkpt><trkpt lat="44.710985" lon="10.6463433"><ele>43.0</ele><time>2026-04-07T15:44:38.982Z</time></trkpt><trkpt lat="44.711055" lon="10.64601"><ele>41.5</ele><time>2026-04-07T15:44:39.981Z</time></trkpt><trkpt lat="44.711115" lon="10.6456817"><ele>40.0</ele><time>2026-04-07T15:44:40.981Z</time></trkpt><trkpt lat="44.7111717" lon="10.6453483"><ele>40.5</ele><time>2026-04-07T15:44:41.982Z</time></trkpt><trkpt lat="44.7112233" lon="10.6450083"><ele>41.0</ele><time>2026-04-07T15:44:42.981Z</time></trkpt><trkpt lat="44.7112733" lon="10.644675"><ele>41.5</ele><time>2026-04-07T15:44:43.982Z</time></trkpt><trkpt lat="44.7113233" lon="10.6443367"><ele>42.0</ele><time>2026-04-07T15:44:44.982Z</time></trkpt><trkpt lat="44.7113767" lon="10.6439967"><ele>42.0</ele><time>2026-04-07T15:44:45.981Z</time></trkpt><trkpt lat="44.71143" lon="10.6436583"><ele>42.0</ele><time>2026-04-07T15:44:46.982Z</time></trkpt><trkpt lat="44.7114783" lon="10.6433233"><ele>42.0</ele><time>2026-04-07T15:44:47.982Z</time></trkpt><trkpt lat="44.7115267" lon="10.6429917"><ele>42.0</ele><time>2026-04-07T15:44:48.981Z</time></trkpt><trkpt lat="44.7115767" lon="10.6426617"><ele>42.0</ele><time>2026-04-07T15:44:49.981Z</time></trkpt><trkpt lat="44.7116267" lon="10.6423317"><ele>42.0</ele><time>2026-04-07T15:44:50.98Z</time></trkpt><trkpt lat="44.7116733" lon="10.6419983"><ele>42.5</ele><time>2026-04-07T15:44:51.98Z</time></trkpt><trkpt lat="44.7117217" lon="10.6416683"><ele>43.0</ele><time>2026-04-07T15:44:52.981Z</time></trkpt><trkpt lat="44.7117667" lon="10.6413517"><ele>44.0</ele><time>2026-04-07T15:44:53.981Z</time></trkpt><trkpt lat="44.7118133" lon="10.64104"><ele>45.0</ele><time>2026-04-07T15:44:54.981Z</time></trkpt><trkpt lat="44.71187" lon="10.6407267"><ele>45.5</ele><time>2026-04-07T15:44:55.98Z</time></trkpt><trkpt lat="44.711925" lon="10.6404067"><ele>46.0</ele><time>2026-04-07T15:44:56.981Z</time></trkpt><trkpt lat="44.7120017" lon="10.6400933"><ele>46.5</ele><time>2026-04-07T15:44:57.981Z</time></trkpt><trkpt lat="44.7120917" lon="10.6397833"><ele>47.0</ele><time>2026-04-07T15:44:58.98Z</time></trkpt><trkpt lat="44.7121917" lon="10.6394733"><ele>45.5</ele><time>2026-04-07T15:44:59.981Z</time></trkpt><trkpt lat="44.7123" lon="10.6391733"><ele>44.0</ele><time>2026-04-07T15:45:00.981Z</time></trkpt><trkpt lat="44.7124083" lon="10.6388667"><ele>44.0</ele><time>2026-04-07T15:45:01.981Z</time></trkpt><trkpt lat="44.712515" lon="10.6385617"><ele>44.0</ele><time>2026-04-07T15:45:02.981Z</time></trkpt><trkpt lat="44.712625" lon="10.6382667"><ele>44.0</ele><time>2026-04-07T15:45:03.981Z</time></trkpt><trkpt lat="44.7127317" lon="10.6379683"><ele>44.0</ele><time>2026-04-07T15:45:04.981Z</time></trkpt><trkpt lat="44.7128367" lon="10.6376717"><ele>43.0</ele><time>2026-04-07T15:45:05.981Z</time></trkpt><trkpt lat="44.7129433" lon="10.6373667"><ele>42.0</ele><time>2026-04-07T15:45:06.981Z</time></trkpt><trkpt lat="44.7130533" lon="10.6370633"><ele>43.0</ele><time>2026-04-07T15:45:07.981Z</time></trkpt><trkpt lat="44.7131633" lon="10.6367583"><ele>44.0</ele><time>2026-04-07T15:45:08.98Z</time></trkpt><trkpt lat="44.7132733" lon="10.63646"><ele>44.0</ele><time>2026-04-07T15:45:09.98Z</time></trkpt><trkpt lat="44.7133817" lon="10.6361617"><ele>44.0</ele><time>2026-04-07T15:45:10.981Z</time></trkpt><trkpt lat="44.7134933" lon="10.6358617"><ele>44.0</ele><time>2026-04-07T15:45:11.981Z</time></trkpt><trkpt lat="44.7136067" lon="10.6355533"><ele>44.0</ele><time>2026-04-07T15:45:12.981Z</time></trkpt><trkpt lat="44.7137233" lon="10.6352467"><ele>44.5</ele><time>2026-04-07T15:45:13.981Z</time></trkpt><trkpt lat="44.7138383" lon="10.6349417"><ele>45.0</ele><time>2026-04-07T15:45:14.98Z</time></trkpt><trkpt lat="44.713955" lon="10.6346167"><ele>47.0</ele><time>2026-04-07T15:45:15.981Z</time></trkpt><trkpt lat="44.7140767" lon="10.6342933"><ele>49.0</ele><time>2026-04-07T15:45:16.981Z</time></trkpt><trkpt lat="44.7141933" lon="10.6339533"><ele>48.5</ele><time>2026-04-07T15:45:17.98Z</time></trkpt><trkpt lat="44.7143233" lon="10.63361"><ele>48.0</ele><time>2026-04-07T15:45:18.981Z</time></trkpt><trkpt lat="44.7144533" lon="10.63326"><ele>47.0</ele><time>2026-04-07T15:45:19.98Z</time></trkpt><trkpt lat="44.71459" lon="10.6329083"><ele>46.0</ele><time>2026-04-07T15:45:20.981Z</time></trkpt><trkpt lat="44.714725" lon="10.632565"><ele>45.0</ele><time>2026-04-07T15:45:21.981Z</time></trkpt><trkpt lat="44.7148467" lon="10.63222"><ele>44.0</ele><time>2026-04-07T15:45:22.98Z</time></trkpt><trkpt lat="44.71497" lon="10.631875"><ele>44.0</ele><time>2026-04-07T15:45:23.981Z</time></trkpt><trkpt lat="44.7150933" lon="10.6315317"><ele>44.0</ele><time>2026-04-07T15:45:24.981Z</time></trkpt><trkpt lat="44.7152217" lon="10.6311967"><ele>45.5</ele><time>2026-04-07T15:45:25.981Z</time></trkpt><trkpt lat="44.71536" lon="10.63087"><ele>47.0</ele><time>2026-04-07T15:45:26.981Z</time></trkpt><trkpt lat="44.7155067" lon="10.6305517"><ele>45.5</ele><time>2026-04-07T15:45:27.981Z</time></trkpt><trkpt lat="44.7156683" lon="10.6302517"><ele>44.0</ele><time>2026-04-07T15:45:28.981Z</time></trkpt><trkpt lat="44.715835" lon="10.6299683"><ele>44.0</ele><time>2026-04-07T15:45:29.98Z</time></trkpt><trkpt lat="44.7160183" lon="10.6297017"><ele>44.0</ele><time>2026-04-07T15:45:30.981Z</time></trkpt><trkpt lat="44.7162133" lon="10.629445"><ele>43.5</ele><time>2026-04-07T15:45:31.981Z</time></trkpt><trkpt lat="44.716405" lon="10.6292"><ele>43.0</ele><time>2026-04-07T15:45:32.98Z</time></trkpt><trkpt lat="44.7165917" lon="10.6289717"><ele>43.0</ele><time>2026-04-07T15:45:33.98Z</time></trkpt><trkpt lat="44.71677" lon="10.628745"><ele>43.0</ele><time>2026-04-07T15:45:34.981Z</time></trkpt><trkpt lat="44.7169417" lon="10.6285267"><ele>44.0</ele><time>2026-04-07T15:45:35.981Z</time></trkpt><trkpt lat="44.7171067" lon="10.628315"><ele>45.0</ele><time>2026-04-07T15:45:36.981Z</time></trkpt><trkpt lat="44.7172683" lon="10.6281033"><ele>46.0</ele><time>2026-04-07T15:45:37.981Z</time></trkpt><trkpt lat="44.7174217" lon="10.6278883"><ele>46.333333333333336</ele><time>2026-04-07T15:45:38.981Z</time></trkpt><trkpt lat="44.7175617" lon="10.6276633"><ele>46.666666666666664</ele><time>2026-04-07T15:45:39.981Z</time></trkpt><trkpt lat="44.7176783" lon="10.62742"><ele>47.0</ele><time>2026-04-07T15:45:40.981Z</time></trkpt><trkpt lat="44.71778" lon="10.6271717"><ele>45.33333333333333</ele><time>2026-04-07T15:45:41.981Z</time></trkpt><trkpt lat="44.7178617" lon="10.626915"><ele>43.666666666666664</ele><time>2026-04-07T15:45:42.98Z</time></trkpt><trkpt lat="44.7179283" lon="10.62665"><ele>42.0</ele><time>2026-04-07T15:45:43.981Z</time></trkpt><trkpt lat="44.7179783" lon="10.6263783"><ele>43.333333333333336</ele><time>2026-04-07T15:45:44.981Z</time></trkpt><trkpt lat="44.7180117" lon="10.6260933"><ele>44.66666666666667</ele><time>2026-04-07T15:45:45.98Z</time></trkpt><trkpt lat="44.7180283" lon="10.6258283"><ele>46.0</ele><time>2026-04-07T15:45:46.981Z</time></trkpt><trkpt lat="44.7180283" lon="10.6256"><ele>46.0</ele><time>2026-04-07T15:45:47.981Z</time></trkpt><trkpt lat="44.718025" lon="10.6253917"><ele>46.0</ele><time>2026-04-07T15:45:48.981Z</time></trkpt><trkpt lat="44.7180083" lon="10.6252117"><ele>46.0</ele><time>2026-04-07T15:45:49.981Z</time></trkpt><trkpt lat="44.71799" lon="10.6250483"><ele>46.0</ele><time>2026-04-07T15:45:50.981Z</time></trkpt><trkpt lat="44.7179667" lon="10.6249067"><ele>46.0</ele><time>2026-04-07T15:45:51.98Z</time></trkpt><trkpt lat="44.7179467" lon="10.62478"><ele>46.0</ele><time>2026-04-07T15:45:52.98Z</time></trkpt><trkpt lat="44.717925" lon="10.6246683"><ele>46.0</ele><time>2026-04-07T15:45:53.981Z</time></trkpt><trkpt lat="44.7179067" lon="10.6245833"><ele>46.0</ele><time>2026-04-07T15:45:54.98Z</time></trkpt><trkpt lat="44.71788" lon="10.62446"><ele>46.0</ele><time>2026-04-07T15:45:56.98Z</time></trkpt><trkpt lat="44.7178483" lon="10.6243567"><ele>46.0</ele><time>2026-04-07T15:45:58.981Z</time></trkpt><trkpt lat="44.7178167" lon="10.6242683"><ele>46.0</ele><time>2026-04-07T15:46:00.981Z</time></trkpt><trkpt lat="44.7177833" lon="10.624175"><ele>46.0</ele><time>2026-04-07T15:46:02.981Z</time></trkpt><trkpt lat="44.717755" lon="10.62409"><ele>46.0</ele><time>2026-04-07T15:46:04.981Z</time></trkpt><trkpt lat="44.7177183" lon="10.6239933"><ele>46.0</ele><time>2026-04-07T15:46:07.981Z</time></trkpt><trkpt lat="44.7176717" lon="10.6238783"><ele>46.0</ele><time>2026-04-07T15:46:10.981Z</time></trkpt><trkpt lat="44.7176017" lon="10.6237867"><ele>46.0</ele><time>2026-04-07T15:46:13.981Z</time></trkpt><trkpt lat="44.7175467" lon="10.6237267"><ele>46.16666666666667</ele><time>2026-04-07T15:46:16.981Z</time></trkpt><trkpt lat="44.71748" lon="10.623625"><ele>46.333333333333336</ele><time>2026-04-07T15:46:19.981Z</time></trkpt><trkpt lat="44.71743" lon="10.6235333"><ele>46.5</ele><time>2026-04-07T15:46:21.981Z</time></trkpt><trkpt lat="44.7173767" lon="10.6234533"><ele>46.666666666666664</ele><time>2026-04-07T15:46:23.98Z</time></trkpt><trkpt lat="44.7173183" lon="10.62337"><ele>46.83333333333333</ele><time>2026-04-07T15:46:25.98Z</time></trkpt><trkpt lat="44.7172633" lon="10.6232917"><ele>47.0</ele><time>2026-04-07T15:46:27.98Z</time></trkpt><trkpt lat="44.7172083" lon="10.62319"><ele>47.0</ele><time>2026-04-07T15:46:30.981Z</time></trkpt><trkpt lat="44.7171583" lon="10.6230967"><ele>47.0</ele><time>2026-04-07T15:46:33.981Z</time></trkpt><trkpt lat="44.71709" lon="10.623015"><ele>47.0</ele><time>2026-04-07T15:46:36.981Z</time></trkpt><trkpt lat="44.7170183" lon="10.6229567"><ele>47.0</ele><time>2026-04-07T15:46:38.981Z</time></trkpt><trkpt lat="44.7169583" lon="10.62291"><ele>47.0</ele><time>2026-04-07T15:46:40.981Z</time></trkpt><trkpt lat="44.7169" lon="10.6228567"><ele>47.0</ele><time>2026-04-07T15:46:42.981Z</time></trkpt><trkpt lat="44.7168033" lon="10.6227467"><ele>47.6</ele><time>2026-04-07T15:46:44.981Z</time></trkpt><trkpt lat="44.7167367" lon="10.6226883"><ele>48.2</ele><time>2026-04-07T15:46:45.981Z</time></trkpt><trkpt lat="44.7166583" lon="10.6226267"><ele>48.8</ele><time>2026-04-07T15:46:46.98Z</time></trkpt><trkpt lat="44.71657" lon="10.6225633"><ele>49.4</ele><time>2026-04-07T15:46:47.981Z</time></trkpt><trkpt lat="44.716475" lon="10.6224967"><ele>50.0</ele><time>2026-04-07T15:46:48.981Z</time></trkpt><trkpt lat="44.7163817" lon="10.6224333"><ele>50.00000000000001</ele><time>2026-04-07T15:46:49.981Z</time></trkpt><trkpt lat="44.7162933" lon="10.6223767"><ele>50.0</ele><time>2026-04-07T15:46:50.981Z</time></trkpt><trkpt lat="44.7162233" lon="10.6223233"><ele>50.0</ele><time>2026-04-07T15:46:51.981Z</time></trkpt><trkpt lat="44.71616" lon="10.6222767"><ele>50.0</ele><time>2026-04-07T15:46:52.981Z</time></trkpt><trkpt lat="44.7161033" lon="10.6222333"><ele>50.00000000000001</ele><time>2026-04-07T15:46:53.981Z</time></trkpt><trkpt lat="44.7160117" lon="10.6221633"><ele>50.0</ele><time>2026-04-07T15:46:55.981Z</time></trkpt><trkpt lat="44.7159333" lon="10.6221167"><ele>49.8</ele><time>2026-04-07T15:46:57.981Z</time></trkpt><trkpt lat="44.7158533" lon="10.6220633"><ele>49.6</ele><time>2026-04-07T15:46:59.98Z</time></trkpt><trkpt lat="44.71576" lon="10.622"><ele>49.400000000000006</ele><time>2026-04-07T15:47:01.981Z</time></trkpt><trkpt lat="44.7156433" lon="10.621925"><ele>49.2</ele><time>2026-04-07T15:47:03.981Z</time></trkpt><trkpt lat="44.715585" lon="10.6218817"><ele>49.0</ele><time>2026-04-07T15:47:04.981Z</time></trkpt><trkpt lat="44.71552" lon="10.6218383"><ele>49.0</ele><time>2026-04-07T15:47:05.98Z</time></trkpt><trkpt lat="44.71545" lon="10.6217883"><ele>49.0</ele><time>2026-04-07T15:47:06.981Z</time></trkpt><trkpt lat="44.7153733" lon="10.6217367"><ele>49.0</ele><time>2026-04-07T15:47:07.981Z</time></trkpt><trkpt lat="44.7152867" lon="10.6216817"><ele>49.0</ele><time>2026-04-07T15:47:08.981Z</time></trkpt><trkpt lat="44.7151967" lon="10.621615"><ele>49.0</ele><time>2026-04-07T15:47:09.98Z</time></trkpt><trkpt lat="44.7151083" lon="10.62155"><ele>49.2</ele><time>2026-04-07T15:47:10.98Z</time></trkpt><trkpt lat="44.7150133" lon="10.6214883"><ele>49.400000000000006</ele><time>2026-04-07T15:47:11.981Z</time></trkpt><trkpt lat="44.7149183" lon="10.6214217"><ele>49.6</ele><time>2026-04-07T15:47:12.981Z</time></trkpt><trkpt lat="44.7148317" lon="10.6213583"><ele>49.8</ele><time>2026-04-07T15:47:13.981Z</time></trkpt><trkpt lat="44.7147517" lon="10.621295"><ele>50.0</ele><time>2026-04-07T15:47:14.981Z</time></trkpt><trkpt lat="44.7146767" lon="10.6212383"><ele>50.00000000000001</ele><time>2026-04-07T15:47:15.98Z</time></trkpt><trkpt lat="44.714605" lon="10.62119"><ele>50.0</ele><time>2026-04-07T15:47:16.98Z</time></trkpt><trkpt lat="44.7145367" lon="10.621145"><ele>50.0</ele><time>2026-04-07T15:47:17.981Z</time></trkpt><trkpt lat="44.714465" lon="10.62109"><ele>50.0</ele><time>2026-04-07T15:47:18.981Z</time></trkpt><trkpt lat="44.7143867" lon="10.6210317"><ele>50.00000000000001</ele><time>2026-04-07T15:47:19.981Z</time></trkpt><trkpt lat="44.7143183" lon="10.6209783"><ele>50.0</ele><time>2026-04-07T15:47:20.981Z</time></trkpt><trkpt lat="44.714245" lon="10.6209283"><ele>49.833333333333336</ele><time>2026-04-07T15:47:21.981Z</time></trkpt><trkpt lat="44.7141817" lon="10.6208833"><ele>49.66666666666667</ele><time>2026-04-07T15:47:22.98Z</time></trkpt><trkpt lat="44.7141083" lon="10.62083"><ele>49.5</ele><time>2026-04-07T15:47:24.98Z</time></trkpt><trkpt lat="44.7140483" lon="10.6207933"><ele>49.33333333333333</ele><time>2026-04-07T15:47:27.981Z</time></trkpt><trkpt lat="44.71397" lon="10.6207433"><ele>49.166666666666664</ele><time>2026-04-07T15:47:30.981Z</time></trkpt><trkpt lat="44.7138983" lon="10.62069"><ele>49.0</ele><time>2026-04-07T15:47:33.981Z</time></trkpt><trkpt lat="44.7138267" lon="10.6206417"><ele>49.0</ele><time>2026-04-07T15:47:38.981Z</time></trkpt><trkpt lat="44.7137533" lon="10.6205933"><ele>49.0</ele><time>2026-04-07T15:47:42.981Z</time></trkpt><trkpt lat="44.7136917" lon="10.62054"><ele>49.0</ele><time>2026-04-07T15:47:45.98Z</time></trkpt><trkpt lat="44.7135983" lon="10.6204667"><ele>49.0</ele><time>2026-04-07T15:47:48.98Z</time></trkpt><trkpt lat="44.713495" lon="10.6203983"><ele>49.0</ele><time>2026-04-07T15:47:50.981Z</time></trkpt><trkpt lat="44.71339" lon="10.6203267"><ele>49.2</ele><time>2026-04-07T15:47:52.981Z</time></trkpt><trkpt lat="44.713295" lon="10.6202533"><ele>49.400000000000006</ele><time>2026-04-07T15:47:54.981Z</time></trkpt><trkpt lat="44.7132217" lon="10.6201983"><ele>49.6</ele><time>2026-04-07T15:47:56.98Z</time></trkpt><trkpt lat="44.7131283" lon="10.6201417"><ele>49.8</ele><time>2026-04-07T15:47:58.981Z</time></trkpt><trkpt lat="44.7130533" lon="10.6200883"><ele>50.0</ele><time>2026-04-07T15:47:59.981Z</time></trkpt><trkpt lat="44.7129567" lon="10.62002"><ele>50.0</ele><time>2026-04-07T15:48:00.98Z</time></trkpt><trkpt lat="44.712845" lon="10.6199317"><ele>50.0</ele><time>2026-04-07T15:48:01.981Z</time></trkpt><trkpt lat="44.7127267" lon="10.619835"><ele>50.0</ele><time>2026-04-07T15:48:02.98Z</time></trkpt><trkpt lat="44.71261" lon="10.6197433"><ele>50.0</ele><time>2026-04-07T15:48:03.98Z</time></trkpt><trkpt lat="44.712495" lon="10.6196583"><ele>50.0</ele><time>2026-04-07T15:48:04.98Z</time></trkpt><trkpt lat="44.712385" lon="10.6195833"><ele>50.0</ele><time>2026-04-07T15:48:05.981Z</time></trkpt><trkpt lat="44.7122683" lon="10.619505"><ele>50.0</ele><time>2026-04-07T15:48:06.98Z</time></trkpt><trkpt lat="44.7121467" lon="10.619425"><ele>50.0</ele><time>2026-04-07T15:48:07.981Z</time></trkpt><trkpt lat="44.7120183" lon="10.6193467"><ele>49.75</ele><time>2026-04-07T15:48:08.981Z</time></trkpt><trkpt lat="44.7118833" lon="10.6192767"><ele>49.5</ele><time>2026-04-07T15:48:09.981Z</time></trkpt><trkpt lat="44.7117433" lon="10.619205"><ele>49.25</ele><time>2026-04-07T15:48:10.981Z</time></trkpt><trkpt lat="44.7116067" lon="10.6191383"><ele>49.0</ele><time>2026-04-07T15:48:11.981Z</time></trkpt><trkpt lat="44.711475" lon="10.61908"><ele>49.0</ele><time>2026-04-07T15:48:12.981Z</time></trkpt><trkpt lat="44.7113583" lon="10.6190333"><ele>49.0</ele><time>2026-04-07T15:48:13.981Z</time></trkpt><trkpt lat="44.71126" lon="10.6189917"><ele>49.0</ele><time>2026-04-07T15:48:14.98Z</time></trkpt><trkpt lat="44.7111767" lon="10.6189517"><ele>49.0</ele><time>2026-04-07T15:48:15.98Z</time></trkpt><trkpt lat="44.711095" lon="10.6189133"><ele>49.0</ele><time>2026-04-07T15:48:16.981Z</time></trkpt><trkpt lat="44.7110317" lon="10.6188733"><ele>49.142857142857146</ele><time>2026-04-07T15:48:17.981Z</time></trkpt><trkpt lat="44.710975" lon="10.6188067"><ele>49.285714285714285</ele><time>2026-04-07T15:48:20.981Z</time></trkpt><trkpt lat="44.71092" lon="10.61872"><ele>49.42857142857143</ele><time>2026-04-07T15:48:22.981Z</time></trkpt><trkpt lat="44.7108783" lon="10.6186417"><ele>49.57142857142857</ele><time>2026-04-07T15:48:23.981Z</time></trkpt><trkpt lat="44.710835" lon="10.6185533"><ele>49.714285714285715</ele><time>2026-04-07T15:48:24.981Z</time></trkpt><trkpt lat="44.7107833" lon="10.6184833"><ele>49.85714285714286</ele><time>2026-04-07T15:48:25.981Z</time></trkpt><trkpt lat="44.71073" lon="10.6184167"><ele>50.0</ele><time>2026-04-07T15:48:26.981Z</time></trkpt><trkpt lat="44.7106917" lon="10.6183417"><ele>50.0</ele><time>2026-04-07T15:48:27.981Z</time></trkpt><trkpt lat="44.710675" lon="10.61825"><ele>50.0</ele><time>2026-04-07T15:48:28.981Z</time></trkpt><trkpt lat="44.7106733" lon="10.6181067"><ele>50.0</ele><time>2026-04-07T15:48:30.981Z</time></trkpt><trkpt lat="44.71068" lon="10.61797"><ele>50.0</ele><time>2026-04-07T15:48:32.981Z</time></trkpt><trkpt lat="44.710685" lon="10.617825"><ele>50.0</ele><time>2026-04-07T15:48:34.98Z</time></trkpt><trkpt lat="44.7107033" lon="10.6176483"><ele>49.8</ele><time>2026-04-07T15:48:36.981Z</time></trkpt><trkpt lat="44.7107267" lon="10.6175317"><ele>49.6</ele><time>2026-04-07T15:48:37.981Z</time></trkpt><trkpt lat="44.710745" lon="10.61741"><ele>49.400000000000006</ele><time>2026-04-07T15:48:38.981Z</time></trkpt><trkpt lat="44.7107667" lon="10.6172833"><ele>49.2</ele><time>2026-04-07T15:48:39.981Z</time></trkpt><trkpt lat="44.7107817" lon="10.6171533"><ele>49.0</ele><time>2026-04-07T15:48:40.981Z</time></trkpt><trkpt lat="44.7107967" lon="10.617005"><ele>49.25</ele><time>2026-04-07T15:48:41.981Z</time></trkpt><trkpt lat="44.7108117" lon="10.6168417"><ele>49.5</ele><time>2026-04-07T15:48:42.981Z</time></trkpt><trkpt lat="44.71084" lon="10.6166533"><ele>49.75</ele><time>2026-04-07T15:48:43.981Z</time></trkpt><trkpt lat="44.71088" lon="10.616445"><ele>50.0</ele><time>2026-04-07T15:48:44.981Z</time></trkpt><trkpt lat="44.7109117" lon="10.61624"><ele>49.75</ele><time>2026-04-07T15:48:45.98Z</time></trkpt><trkpt lat="44.7109467" lon="10.6160267"><ele>49.5</ele><time>2026-04-07T15:48:46.98Z</time></trkpt><trkpt lat="44.710975" lon="10.6158267"><ele>49.25</ele><time>2026-04-07T15:48:47.981Z</time></trkpt><trkpt lat="44.7109967" lon="10.61564"><ele>49.0</ele><time>2026-04-07T15:48:48.981Z</time></trkpt><trkpt lat="44.7110183" lon="10.6154567"><ele>49.0</ele><time>2026-04-07T15:48:49.981Z</time></trkpt><trkpt lat="44.71104" lon="10.6152767"><ele>49.0</ele><time>2026-04-07T15:48:50.981Z</time></trkpt><trkpt lat="44.71106" lon="10.61511"><ele>49.0</ele><time>2026-04-07T15:48:51.981Z</time></trkpt><trkpt lat="44.71109" lon="10.6149417"><ele>49.0</ele><time>2026-04-07T15:48:52.98Z</time></trkpt><trkpt lat="44.7111117" lon="10.61478"><ele>49.0</ele><time>2026-04-07T15:48:53.981Z</time></trkpt><trkpt lat="44.7111367" lon="10.61463"><ele>49.0</ele><time>2026-04-07T15:48:54.981Z</time></trkpt><trkpt lat="44.71116" lon="10.6144883"><ele>49.0</ele><time>2026-04-07T15:48:55.981Z</time></trkpt><trkpt lat="44.7111817" lon="10.6143517"><ele>49.0</ele><time>2026-04-07T15:48:56.981Z</time></trkpt><trkpt lat="44.7111983" lon="10.6142183"><ele>49.0</ele><time>2026-04-07T15:48:57.981Z</time></trkpt><trkpt lat="44.7112117" lon="10.6140783"><ele>48.6</ele><time>2026-04-07T15:48:58.98Z</time></trkpt><trkpt lat="44.7112317" lon="10.6139333"><ele>48.2</ele><time>2026-04-07T15:48:59.981Z</time></trkpt><trkpt lat="44.711255" lon="10.6137867"><ele>47.800000000000004</ele><time>2026-04-07T15:49:00.981Z</time></trkpt><trkpt lat="44.711275" lon="10.613645"><ele>47.400000000000006</ele><time>2026-04-07T15:49:01.981Z</time></trkpt><trkpt lat="44.7112967" lon="10.613505"><ele>47.0</ele><time>2026-04-07T15:49:02.981Z</time></trkpt><trkpt lat="44.7113133" lon="10.6133783"><ele>47.0</ele><time>2026-04-07T15:49:03.981Z</time></trkpt><trkpt lat="44.7113283" lon="10.6132567"><ele>47.0</ele><time>2026-04-07T15:49:04.98Z</time></trkpt><trkpt lat="44.7113417" lon="10.6131483"><ele>47.0</ele><time>2026-04-07T15:49:05.98Z</time></trkpt><trkpt lat="44.711355" lon="10.613045"><ele>47.0</ele><time>2026-04-07T15:49:06.981Z</time></trkpt><trkpt lat="44.71137" lon="10.61294"><ele>47.0</ele><time>2026-04-07T15:49:07.98Z</time></trkpt><trkpt lat="44.7113833" lon="10.6128367"><ele>47.0</ele><time>2026-04-07T15:49:08.981Z</time></trkpt><trkpt lat="44.7113967" lon="10.6127417"><ele>47.166666666666664</ele><time>2026-04-07T15:49:09.981Z</time></trkpt><trkpt lat="44.711405" lon="10.6126417"><ele>47.33333333333333</ele><time>2026-04-07T15:49:10.981Z</time></trkpt><trkpt lat="44.7114233" lon="10.6125383"><ele>47.5</ele><time>2026-04-07T15:49:11.98Z</time></trkpt><trkpt lat="44.711435" lon="10.6124417"><ele>47.666666666666664</ele><time>2026-04-07T15:49:12.98Z</time></trkpt><trkpt lat="44.7114533" lon="10.612305"><ele>47.833333333333336</ele><time>2026-04-07T15:49:14.981Z</time></trkpt><trkpt lat="44.71145" lon="10.6121617"><ele>48.0</ele><time>2026-04-07T15:49:18.981Z</time></trkpt><trkpt lat="44.7114517" lon="10.6120717"><ele>47.8</ele><time>2026-04-07T15:49:19.981Z</time></trkpt><trkpt lat="44.71146" lon="10.6119667"><ele>47.599999999999994</ele><time>2026-04-07T15:49:20.98Z</time></trkpt><trkpt lat="44.711475" lon="10.6118317"><ele>47.400000000000006</ele><time>2026-04-07T15:49:21.981Z</time></trkpt><trkpt lat="44.7114967" lon="10.6116783"><ele>47.2</ele><time>2026-04-07T15:49:22.981Z</time></trkpt><trkpt lat="44.7115217" lon="10.61151"><ele>47.0</ele><time>2026-04-07T15:49:23.981Z</time></trkpt><trkpt lat="44.7115417" lon="10.6113367"><ele>47.0</ele><time>2026-04-07T15:49:24.98Z</time></trkpt><trkpt lat="44.7115517" lon="10.6111717"><ele>47.0</ele><time>2026-04-07T15:49:25.981Z</time></trkpt><trkpt lat="44.7115717" lon="10.61102"><ele>47.0</ele><time>2026-04-07T15:49:26.981Z</time></trkpt><trkpt lat="44.7115867" lon="10.6108883"><ele>47.0</ele><time>2026-04-07T15:49:27.98Z</time></trkpt><trkpt lat="44.711605" lon="10.61076"><ele>47.0</ele><time>2026-04-07T15:49:28.98Z</time></trkpt><trkpt lat="44.71162" lon="10.61063"><ele>46.75</ele><time>2026-04-07T15:49:29.98Z</time></trkpt><trkpt lat="44.711635" lon="10.6104983"><ele>46.5</ele><time>2026-04-07T15:49:30.98Z</time></trkpt><trkpt lat="44.7116483" lon="10.6103483"><ele>46.25</ele><time>2026-04-07T15:49:31.981Z</time></trkpt><trkpt lat="44.71166" lon="10.6101817"><ele>46.0</ele><time>2026-04-07T15:49:32.981Z</time></trkpt><trkpt lat="44.711675" lon="10.61"><ele>46.0</ele><time>2026-04-07T15:49:33.981Z</time></trkpt><trkpt lat="44.7116883" lon="10.6098183"><ele>46.0</ele><time>2026-04-07T15:49:34.98Z</time></trkpt><trkpt lat="44.711705" lon="10.60965"><ele>46.0</ele><time>2026-04-07T15:49:35.981Z</time></trkpt><trkpt lat="44.7117183" lon="10.6094967"><ele>46.0</ele><time>2026-04-07T15:49:36.981Z</time></trkpt><trkpt lat="44.7117367" lon="10.609355"><ele>46.0</ele><time>2026-04-07T15:49:37.98Z</time></trkpt><trkpt lat="44.71175" lon="10.6092267"><ele>46.0</ele><time>2026-04-07T15:49:38.981Z</time></trkpt><trkpt lat="44.7117633" lon="10.6091067"><ele>46.0</ele><time>2026-04-07T15:49:39.981Z</time></trkpt><trkpt lat="44.7117783" lon="10.60899"><ele>46.0</ele><time>2026-04-07T15:49:40.98Z</time></trkpt><trkpt lat="44.7117883" lon="10.6088783"><ele>46.0</ele><time>2026-04-07T15:49:41.981Z</time></trkpt><trkpt lat="44.711795" lon="10.6087567"><ele>46.0</ele><time>2026-04-07T15:49:42.981Z</time></trkpt><trkpt lat="44.7118033" lon="10.608615"><ele>46.25</ele><time>2026-04-07T15:49:43.981Z</time></trkpt><trkpt lat="44.711815" lon="10.6084617"><ele>46.5</ele><time>2026-04-07T15:49:44.981Z</time></trkpt><trkpt lat="44.711835" lon="10.6082917"><ele>46.75</ele><time>2026-04-07T15:49:45.981Z</time></trkpt><trkpt lat="44.71185" lon="10.6081233"><ele>47.0</ele><time>2026-04-07T15:49:46.981Z</time></trkpt><trkpt lat="44.7118583" lon="10.6079383"><ele>47.0</ele><time>2026-04-07T15:49:47.981Z</time></trkpt><trkpt lat="44.711875" lon="10.6077833"><ele>47.0</ele><time>2026-04-07T15:49:48.981Z</time></trkpt><trkpt lat="44.711895" lon="10.607635"><ele>47.0</ele><time>2026-04-07T15:49:49.981Z</time></trkpt><trkpt lat="44.7119183" lon="10.60749"><ele>47.0</ele><time>2026-04-07T15:49:50.981Z</time></trkpt><trkpt lat="44.7119417" lon="10.6073533"><ele>47.0</ele><time>2026-04-07T15:49:51.981Z</time></trkpt><trkpt lat="44.7119633" lon="10.6072117"><ele>47.0</ele><time>2026-04-07T15:49:52.981Z</time></trkpt><trkpt lat="44.7119767" lon="10.607075"><ele>47.0</ele><time>2026-04-07T15:49:53.981Z</time></trkpt><trkpt lat="44.7119917" lon="10.6069333"><ele>47.0</ele><time>2026-04-07T15:49:54.981Z</time></trkpt><trkpt lat="44.7120067" lon="10.606795"><ele>47.0</ele><time>2026-04-07T15:49:55.981Z</time></trkpt><trkpt lat="44.7120217" lon="10.60667"><ele>47.0</ele><time>2026-04-07T15:49:56.981Z</time></trkpt><trkpt lat="44.7120317" lon="10.6065633"><ele>47.166666666666664</ele><time>2026-04-07T15:49:57.981Z</time></trkpt><trkpt lat="44.7120417" lon="10.606475"><ele>47.33333333333333</ele><time>2026-04-07T15:49:58.98Z</time></trkpt><trkpt lat="44.71205" lon="10.606375"><ele>47.5</ele><time>2026-04-07T15:50:00.981Z</time></trkpt><trkpt lat="44.7121017" lon="10.6062683"><ele>47.666666666666664</ele><time>2026-04-07T15:50:03.981Z</time></trkpt><trkpt lat="44.712135" lon="10.6061017"><ele>47.833333333333336</ele><time>2026-04-07T15:50:05.98Z</time></trkpt><trkpt lat="44.7121683" lon="10.60599"><ele>48.0</ele><time>2026-04-07T15:50:07.98Z</time></trkpt><trkpt lat="44.7122167" lon="10.6059083"><ele>47.599999999999994</ele><time>2026-04-07T15:50:10.98Z</time></trkpt><trkpt lat="44.7122583" lon="10.6057317"><ele>47.199999999999996</ele><time>2026-04-07T15:50:12.981Z</time></trkpt><trkpt lat="44.7122533" lon="10.605615"><ele>46.8</ele><time>2026-04-07T15:50:13.98Z</time></trkpt><trkpt lat="44.7122317" lon="10.6054817"><ele>46.4</ele><time>2026-04-07T15:50:14.981Z</time></trkpt><trkpt lat="44.7122217" lon="10.6053267"><ele>46.0</ele><time>2026-04-07T15:50:15.98Z</time></trkpt><trkpt lat="44.7122133" lon="10.6051683"><ele>45.5</ele><time>2026-04-07T15:50:16.981Z</time></trkpt><trkpt lat="44.712225" lon="10.605005"><ele>45.0</ele><time>2026-04-07T15:50:17.981Z</time></trkpt><trkpt lat="44.712235" lon="10.6048267"><ele>44.5</ele><time>2026-04-07T15:50:18.981Z</time></trkpt><trkpt lat="44.7122467" lon="10.6046433"><ele>44.0</ele><time>2026-04-07T15:50:19.981Z</time></trkpt><trkpt lat="44.7122667" lon="10.604455"><ele>44.0</ele><time>2026-04-07T15:50:20.98Z</time></trkpt><trkpt lat="44.7122817" lon="10.6042733"><ele>44.0</ele><time>2026-04-07T15:50:21.981Z</time></trkpt><trkpt lat="44.7123017" lon="10.6040933"><ele>44.0</ele><time>2026-04-07T15:50:22.981Z</time></trkpt><trkpt lat="44.7123133" lon="10.6039267"><ele>44.0</ele><time>2026-04-07T15:50:23.981Z</time></trkpt><trkpt lat="44.7123317" lon="10.6037583"><ele>44.5</ele><time>2026-04-07T15:50:24.98Z</time></trkpt><trkpt lat="44.71235" lon="10.6035933"><ele>45.0</ele><time>2026-04-07T15:50:25.981Z</time></trkpt><trkpt lat="44.7123833" lon="10.60343"><ele>45.5</ele><time>2026-04-07T15:50:26.981Z</time></trkpt><trkpt lat="44.7124167" lon="10.6032733"><ele>46.0</ele><time>2026-04-07T15:50:27.98Z</time></trkpt><trkpt lat="44.7124483" lon="10.603125"><ele>46.0</ele><time>2026-04-07T15:50:28.98Z</time></trkpt><trkpt lat="44.7124867" lon="10.6029767"><ele>46.0</ele><time>2026-04-07T15:50:29.981Z</time></trkpt><trkpt lat="44.7125117" lon="10.6028317"><ele>46.0</ele><time>2026-04-07T15:50:30.981Z</time></trkpt><trkpt lat="44.712545" lon="10.602685"><ele>46.0</ele><time>2026-04-07T15:50:31.981Z</time></trkpt><trkpt lat="44.7125817" lon="10.6025433"><ele>46.0</ele><time>2026-04-07T15:50:32.981Z</time></trkpt><trkpt lat="44.7126167" lon="10.6024017"><ele>46.0</ele><time>2026-04-07T15:50:33.981Z</time></trkpt><trkpt lat="44.7126533" lon="10.6022483"><ele>46.0</ele><time>2026-04-07T15:50:34.981Z</time></trkpt><trkpt lat="44.712695" lon="10.602095"><ele>46.0</ele><time>2026-04-07T15:50:35.981Z</time></trkpt><trkpt lat="44.7127417" lon="10.6019317"><ele>46.0</ele><time>2026-04-07T15:50:36.98Z</time></trkpt><trkpt lat="44.712785" lon="10.60177"><ele>46.199999999999996</ele><time>2026-04-07T15:50:37.98Z</time></trkpt><trkpt lat="44.7128233" lon="10.6016117"><ele>46.4</ele><time>2026-04-07T15:50:38.981Z</time></trkpt><trkpt lat="44.7128583" lon="10.6014617"><ele>46.6</ele><time>2026-04-07T15:50:39.981Z</time></trkpt><trkpt lat="44.7128933" lon="10.6013283"><ele>46.8</ele><time>2026-04-07T15:50:40.981Z</time></trkpt><trkpt lat="44.7129317" lon="10.601205"><ele>47.0</ele><time>2026-04-07T15:50:41.981Z</time></trkpt><trkpt lat="44.71296" lon="10.6010783"><ele>47.0</ele><time>2026-04-07T15:50:42.981Z</time></trkpt><trkpt lat="44.7129833" lon="10.600955"><ele>47.0</ele><time>2026-04-07T15:50:43.981Z</time></trkpt><trkpt lat="44.7130033" lon="10.6008233"><ele>47.0</ele><time>2026-04-07T15:50:44.981Z</time></trkpt><trkpt lat="44.713025" lon="10.60069"><ele>47.0</ele><time>2026-04-07T15:50:45.98Z</time></trkpt><trkpt lat="44.7130467" lon="10.6005467"><ele>47.0</ele><time>2026-04-07T15:50:46.981Z</time></trkpt><trkpt lat="44.7130767" lon="10.6004183"><ele>47.0</ele><time>2026-04-07T15:50:47.98Z</time></trkpt><trkpt lat="44.7131083" lon="10.600305"><ele>47.0</ele><time>2026-04-07T15:50:48.981Z</time></trkpt><trkpt lat="44.7131367" lon="10.6001983"><ele>47.0</ele><time>2026-04-07T15:50:49.981Z</time></trkpt><trkpt lat="44.71316" lon="10.6001017"><ele>47.0</ele><time>2026-04-07T15:50:50.981Z</time></trkpt><trkpt lat="44.7131733" lon="10.6000117"><ele>47.0</ele><time>2026-04-07T15:50:51.981Z</time></trkpt><trkpt lat="44.7132033" lon="10.599865"><ele>47.0</ele><time>2026-04-07T15:50:53.981Z</time></trkpt><trkpt lat="44.7132383" lon="10.5997833"><ele>47.0</ele><time>2026-04-07T15:50:55.981Z</time></trkpt><trkpt lat="44.71327" lon="10.5997067"><ele>47.0</ele><time>2026-04-07T15:50:57.981Z</time></trkpt><trkpt lat="44.7133233" lon="10.59957"><ele>47.0</ele><time>2026-04-07T15:50:59.981Z</time></trkpt><trkpt lat="44.71335" lon="10.5994717"><ele>47.0</ele><time>2026-04-07T15:51:00.98Z</time></trkpt><trkpt lat="44.7133717" lon="10.5993533"><ele>47.0</ele><time>2026-04-07T15:51:01.98Z</time></trkpt><trkpt lat="44.7133983" lon="10.59922"><ele>47.0</ele><time>2026-04-07T15:51:02.981Z</time></trkpt><trkpt lat="44.713435" lon="10.5990483"><ele>46.75</ele><time>2026-04-07T15:51:03.981Z</time></trkpt><trkpt lat="44.7134867" lon="10.5988517"><ele>46.5</ele><time>2026-04-07T15:51:04.981Z</time></trkpt><trkpt lat="44.713545" lon="10.5986533"><ele>46.25</ele><time>2026-04-07T15:51:05.981Z</time></trkpt><trkpt lat="44.7136067" lon="10.5984667"><ele>46.0</ele><time>2026-04-07T15:51:06.981Z</time></trkpt><trkpt lat="44.7136683" lon="10.5982917"><ele>45.5</ele><time>2026-04-07T15:51:07.981Z</time></trkpt><trkpt lat="44.7137317" lon="10.5981183"><ele>45.0</ele><time>2026-04-07T15:51:08.98Z</time></trkpt><trkpt lat="44.7138017" lon="10.5979367"><ele>44.5</ele><time>2026-04-07T15:51:09.981Z</time></trkpt><trkpt lat="44.7138733" lon="10.5977383"><ele>44.0</ele><time>2026-04-07T15:51:10.981Z</time></trkpt><trkpt lat="44.713955" lon="10.5975083"><ele>44.0</ele><time>2026-04-07T15:51:11.98Z</time></trkpt><trkpt lat="44.7140433" lon="10.5972517"><ele>44.0</ele><time>2026-04-07T15:51:12.981Z</time></trkpt><trkpt lat="44.7141433" lon="10.5969883"><ele>44.0</ele><time>2026-04-07T15:51:13.981Z</time></trkpt><trkpt lat="44.7142467" lon="10.5967333"><ele>44.33333333333333</ele><time>2026-04-07T15:51:14.981Z</time></trkpt><trkpt lat="44.7143467" lon="10.5965017"><ele>44.666666666666664</ele><time>2026-04-07T15:51:15.98Z</time></trkpt><trkpt lat="44.7144417" lon="10.596265"><ele>45.0</ele><time>2026-04-07T15:51:16.981Z</time></trkpt><trkpt lat="44.7145367" lon="10.5960333"><ele>45.0</ele><time>2026-04-07T15:51:17.98Z</time></trkpt><trkpt lat="44.7146283" lon="10.5957967"><ele>45.0</ele><time>2026-04-07T15:51:18.981Z</time></trkpt><trkpt lat="44.714715" lon="10.5955533"><ele>45.0</ele><time>2026-04-07T15:51:19.981Z</time></trkpt><trkpt lat="44.7148117" lon="10.5952983"><ele>45.0</ele><time>2026-04-07T15:51:20.981Z</time></trkpt><trkpt lat="44.7149133" lon="10.5950367"><ele>45.0</ele><time>2026-04-07T15:51:21.981Z</time></trkpt><trkpt lat="44.7150183" lon="10.5947717"><ele>45.0</ele><time>2026-04-07T15:51:22.981Z</time></trkpt><trkpt lat="44.7151217" lon="10.5945133"><ele>45.0</ele><time>2026-04-07T15:51:23.98Z</time></trkpt><trkpt lat="44.7152167" lon="10.5942683"><ele>45.0</ele><time>2026-04-07T15:51:24.981Z</time></trkpt><trkpt lat="44.7153067" lon="10.5940367"><ele>45.0</ele><time>2026-04-07T15:51:25.981Z</time></trkpt><trkpt lat="44.71539" lon="10.5938183"><ele>44.0</ele><time>2026-04-07T15:51:26.981Z</time></trkpt><trkpt lat="44.7154717" lon="10.593605"><ele>43.0</ele><time>2026-04-07T15:51:27.981Z</time></trkpt><trkpt lat="44.71555" lon="10.5933917"><ele>42.0</ele><time>2026-04-07T15:51:28.981Z</time></trkpt><trkpt lat="44.7156283" lon="10.593185"><ele>42.0</ele><time>2026-04-07T15:51:29.981Z</time></trkpt><trkpt lat="44.7157" lon="10.5929833"><ele>42.0</ele><time>2026-04-07T15:51:30.981Z</time></trkpt><trkpt lat="44.7157733" lon="10.5927833"><ele>42.0</ele><time>2026-04-07T15:51:31.981Z</time></trkpt><trkpt lat="44.7158517" lon="10.5925883"><ele>42.666666666666664</ele><time>2026-04-07T15:51:32.981Z</time></trkpt><trkpt lat="44.7159317" lon="10.5923917"><ele>43.33333333333333</ele><time>2026-04-07T15:51:33.98Z</time></trkpt><trkpt lat="44.7160117" lon="10.59219"><ele>44.0</ele><time>2026-04-07T15:51:34.98Z</time></trkpt><trkpt lat="44.7160917" lon="10.5919883"><ele>44.0</ele><time>2026-04-07T15:51:35.981Z</time></trkpt><trkpt lat="44.71617" lon="10.59178"><ele>44.0</ele><time>2026-04-07T15:51:36.98Z</time></trkpt><trkpt lat="44.7162483" lon="10.5915683"><ele>44.0</ele><time>2026-04-07T15:51:37.98Z</time></trkpt><trkpt lat="44.7163267" lon="10.59136"><ele>44.33333333333333</ele><time>2026-04-07T15:51:38.981Z</time></trkpt><trkpt lat="44.716405" lon="10.5911533"><ele>44.666666666666664</ele><time>2026-04-07T15:51:39.98Z</time></trkpt><trkpt lat="44.716485" lon="10.5909433"><ele>45.0</ele><time>2026-04-07T15:51:40.981Z</time></trkpt><trkpt lat="44.7165633" lon="10.590735"><ele>45.0</ele><time>2026-04-07T15:51:41.981Z</time></trkpt><trkpt lat="44.7166383" lon="10.5905167"><ele>45.0</ele><time>2026-04-07T15:51:42.981Z</time></trkpt><trkpt lat="44.716715" lon="10.590305"><ele>45.0</ele><time>2026-04-07T15:51:43.981Z</time></trkpt><trkpt lat="44.7167817" lon="10.590095"><ele>45.0</ele><time>2026-04-07T15:51:44.981Z</time></trkpt><trkpt lat="44.71684" lon="10.5898967"><ele>45.0</ele><time>2026-04-07T15:51:45.981Z</time></trkpt><trkpt lat="44.7168917" lon="10.58971"><ele>45.0</ele><time>2026-04-07T15:51:46.981Z</time></trkpt><trkpt lat="44.7169317" lon="10.5895367"><ele>45.0</ele><time>2026-04-07T15:51:47.981Z</time></trkpt><trkpt lat="44.71697" lon="10.589375"><ele>45.0</ele><time>2026-04-07T15:51:48.981Z</time></trkpt><trkpt lat="44.7170033" lon="10.5892233"><ele>45.0</ele><time>2026-04-07T15:51:49.98Z</time></trkpt><trkpt lat="44.7170333" lon="10.5890883"><ele>45.0</ele><time>2026-04-07T15:51:50.98Z</time></trkpt><trkpt lat="44.7170533" lon="10.5889733"><ele>45.0</ele><time>2026-04-07T15:51:51.981Z</time></trkpt><trkpt lat="44.7170667" lon="10.5888683"><ele>45.0</ele><time>2026-04-07T15:51:52.981Z</time></trkpt><trkpt lat="44.7170833" lon="10.5887567"><ele>44.6</ele><time>2026-04-07T15:51:53.981Z</time></trkpt><trkpt lat="44.7171" lon="10.5886317"><ele>44.2</ele><time>2026-04-07T15:51:54.981Z</time></trkpt><trkpt lat="44.7171183" lon="10.5885033"><ele>43.8</ele><time>2026-04-07T15:51:55.981Z</time></trkpt><trkpt lat="44.7171317" lon="10.588375"><ele>43.4</ele><time>2026-04-07T15:51:56.981Z</time></trkpt><trkpt lat="44.7171467" lon="10.5882417"><ele>43.0</ele><time>2026-04-07T15:51:57.981Z</time></trkpt><trkpt lat="44.7171583" lon="10.5881133"><ele>43.0</ele><time>2026-04-07T15:51:58.98Z</time></trkpt><trkpt lat="44.7171683" lon="10.5879783"><ele>43.0</ele><time>2026-04-07T15:51:59.981Z</time></trkpt><trkpt lat="44.7171783" lon="10.5878433"><ele>43.0</ele><time>2026-04-07T15:52:00.981Z</time></trkpt><trkpt lat="44.7171883" lon="10.5877383"><ele>43.0</ele><time>2026-04-07T15:52:01.98Z</time></trkpt><trkpt lat="44.7172" lon="10.5875967"><ele>43.0</ele><time>2026-04-07T15:52:03.981Z</time></trkpt><trkpt lat="44.7172017" lon="10.5874267"><ele>43.0</ele><time>2026-04-07T15:52:05.981Z</time></trkpt><trkpt lat="44.7172017" lon="10.5873217"><ele>43.0</ele><time>2026-04-07T15:52:07.981Z</time></trkpt><trkpt lat="44.7171967" lon="10.5872117"><ele>43.0</ele><time>2026-04-07T15:52:10.981Z</time></trkpt><trkpt lat="44.717205" lon="10.587105"><ele>43.0</ele><time>2026-04-07T15:52:18.981Z</time></trkpt><trkpt lat="44.7171967" lon="10.5869317"><ele>43.0</ele><time>2026-04-07T15:52:20.981Z</time></trkpt><trkpt lat="44.7171933" lon="10.5868117"><ele>43.0</ele><time>2026-04-07T15:52:21.981Z</time></trkpt><trkpt lat="44.7171917" lon="10.5866783"><ele>42.66666666666667</ele><time>2026-04-07T15:52:22.98Z</time></trkpt><trkpt lat="44.7171833" lon="10.5865433"><ele>42.333333333333336</ele><time>2026-04-07T15:52:23.981Z</time></trkpt><trkpt lat="44.7171817" lon="10.5864183"><ele>42.0</ele><time>2026-04-07T15:52:24.981Z</time></trkpt><trkpt lat="44.7171817" lon="10.586305"><ele>41.666666666666664</ele><time>2026-04-07T15:52:25.981Z</time></trkpt><trkpt lat="44.7171783" lon="10.5861967"><ele>41.33333333333333</ele><time>2026-04-07T15:52:26.981Z</time></trkpt><trkpt lat="44.7171717" lon="10.5861017"><ele>41.0</ele><time>2026-04-07T15:52:27.981Z</time></trkpt><trkpt lat="44.7171633" lon="10.5860083"><ele>41.0</ele><time>2026-04-07T15:52:28.981Z</time></trkpt><trkpt lat="44.717155" lon="10.58591"><ele>41.0</ele><time>2026-04-07T15:52:29.98Z</time></trkpt><trkpt lat="44.7171433" lon="10.585805"><ele>41.0</ele><time>2026-04-07T15:52:30.98Z</time></trkpt><trkpt lat="44.71714" lon="10.5856833"><ele>41.0</ele><time>2026-04-07T15:52:31.981Z</time></trkpt><trkpt lat="44.71713" lon="10.585555"><ele>41.0</ele><time>2026-04-07T15:52:32.981Z</time></trkpt><trkpt lat="44.7171233" lon="10.585425"><ele>41.0</ele><time>2026-04-07T15:52:33.981Z</time></trkpt><trkpt lat="44.717115" lon="10.585295"><ele>41.4</ele><time>2026-04-07T15:52:34.981Z</time></trkpt><trkpt lat="44.717105" lon="10.5851667"><ele>41.8</ele><time>2026-04-07T15:52:35.981Z</time></trkpt><trkpt lat="44.7171033" lon="10.585035"><ele>42.199999999999996</ele><time>2026-04-07T15:52:36.981Z</time></trkpt><trkpt lat="44.7170933" lon="10.5849067"><ele>42.599999999999994</ele><time>2026-04-07T15:52:37.981Z</time></trkpt><trkpt lat="44.717095" lon="10.5847817"><ele>43.0</ele><time>2026-04-07T15:52:38.981Z</time></trkpt><trkpt lat="44.7170917" lon="10.5846617"><ele>43.0</ele><time>2026-04-07T15:52:39.981Z</time></trkpt><trkpt lat="44.7170833" lon="10.584555"><ele>43.0</ele><time>2026-04-07T15:52:40.981Z</time></trkpt><trkpt lat="44.7170783" lon="10.5844533"><ele>43.0</ele><time>2026-04-07T15:52:41.981Z</time></trkpt><trkpt lat="44.7170783" lon="10.5843633"><ele>43.0</ele><time>2026-04-07T15:52:42.981Z</time></trkpt><trkpt lat="44.71707" lon="10.5842033"><ele>43.0</ele><time>2026-04-07T15:52:44.981Z</time></trkpt><trkpt lat="44.7170683" lon="10.584045"><ele>43.0</ele><time>2026-04-07T15:52:46.981Z</time></trkpt><trkpt lat="44.7170617" lon="10.5839033"><ele>42.833333333333336</ele><time>2026-04-07T15:52:48.981Z</time></trkpt><trkpt lat="44.71705" lon="10.5837567"><ele>42.66666666666667</ele><time>2026-04-07T15:52:50.981Z</time></trkpt><trkpt lat="44.7170467" lon="10.5836233"><ele>42.5</ele><time>2026-04-07T15:52:52.98Z</time></trkpt><trkpt lat="44.7170583" lon="10.5835"><ele>42.333333333333336</ele><time>2026-04-07T15:52:54.981Z</time></trkpt><trkpt lat="44.717075" lon="10.5833917"><ele>42.166666666666664</ele><time>2026-04-07T15:52:56.981Z</time></trkpt><trkpt lat="44.7171017" lon="10.58331"><ele>42.0</ele><time>2026-04-07T15:52:58.981Z</time></trkpt><trkpt lat="44.7171467" lon="10.583225"><ele>42.285714285714285</ele><time>2026-04-07T15:53:01.98Z</time></trkpt><trkpt lat="44.7171967" lon="10.5831333"><ele>42.57142857142857</ele><time>2026-04-07T15:53:04.981Z</time></trkpt><trkpt lat="44.7171983" lon="10.5830217"><ele>42.85714285714286</ele><time>2026-04-07T15:53:08.981Z</time></trkpt><trkpt lat="44.7171767" lon="10.5829333"><ele>43.14285714285714</ele><time>2026-04-07T15:53:11.981Z</time></trkpt><trkpt lat="44.7171183" lon="10.582855"><ele>43.42857142857143</ele><time>2026-04-07T15:53:14.98Z</time></trkpt><trkpt lat="44.71707" lon="10.5827783"><ele>43.714285714285715</ele><time>2026-04-07T15:53:18.981Z</time></trkpt><trkpt lat="44.7170367" lon="10.5827"><ele>44.0</ele><time>2026-04-07T15:53:21.981Z</time></trkpt><trkpt lat="44.7169883" lon="10.58257"><ele>44.0</ele><time>2026-04-07T15:53:23.981Z</time></trkpt><trkpt lat="44.7169583" lon="10.582385"><ele>44.0</ele><time>2026-04-07T15:53:25.981Z</time></trkpt><trkpt lat="44.7169517" lon="10.58226"><ele>44.0</ele><time>2026-04-07T15:53:26.981Z</time></trkpt><trkpt lat="44.71695" lon="10.5821183"><ele>44.0</ele><time>2026-04-07T15:53:27.981Z</time></trkpt><trkpt lat="44.7169483" lon="10.5819767"><ele>44.0</ele><time>2026-04-07T15:53:28.98Z</time></trkpt><trkpt lat="44.7169433" lon="10.5818433"><ele>44.166666666666664</ele><time>2026-04-07T15:53:29.981Z</time></trkpt><trkpt lat="44.7169383" lon="10.581725"><ele>44.33333333333333</ele><time>2026-04-07T15:53:30.98Z</time></trkpt><trkpt lat="44.7169283" lon="10.5816133"><ele>44.5</ele><time>2026-04-07T15:53:31.981Z</time></trkpt><trkpt lat="44.7169233" lon="10.5815183"><ele>44.666666666666664</ele><time>2026-04-07T15:53:32.981Z</time></trkpt><trkpt lat="44.7169117" lon="10.5813717"><ele>44.833333333333336</ele><time>2026-04-07T15:53:34.98Z</time></trkpt><trkpt lat="44.71691" lon="10.5812633"><ele>45.0</ele><time>2026-04-07T15:53:36.981Z</time></trkpt><trkpt lat="44.716905" lon="10.5811733"><ele>45.0</ele><time>2026-04-07T15:53:38.98Z</time></trkpt><trkpt lat="44.7169017" lon="10.581065"><ele>45.0</ele><time>2026-04-07T15:53:41.981Z</time></trkpt><trkpt lat="44.7168933" lon="10.5809767"><ele>45.0</ele><time>2026-04-07T15:53:43.98Z</time></trkpt><trkpt lat="44.7168883" lon="10.580865"><ele>45.0</ele><time>2026-04-07T15:53:45.981Z</time></trkpt><trkpt lat="44.7168783" lon="10.5807467"><ele>45.0</ele><time>2026-04-07T15:53:47.981Z</time></trkpt><trkpt lat="44.7168767" lon="10.5806567"><ele>45.0</ele><time>2026-04-07T15:53:49.981Z</time></trkpt><trkpt lat="44.716855" lon="10.5805433"><ele>45.0</ele><time>2026-04-07T15:53:53.981Z</time></trkpt><trkpt lat="44.7168433" lon="10.5804217"><ele>45.0</ele><time>2026-04-07T15:53:56.98Z</time></trkpt><trkpt lat="44.7168517" lon="10.5803233"><ele>45.0</ele><time>2026-04-07T15:54:10.981Z</time></trkpt><trkpt lat="44.71685" lon="10.580225"><ele>45.0</ele><time>2026-04-07T15:54:13.981Z</time></trkpt><trkpt lat="44.716855" lon="10.5801283"><ele>45.0</ele><time>2026-04-07T15:54:16.981Z</time></trkpt><trkpt lat="44.7168417" lon="10.5800217"><ele>45.0</ele><time>2026-04-07T15:54:21.981Z</time></trkpt><trkpt lat="44.71684" lon="10.5799283"><ele>45.0</ele><time>2026-04-07T15:54:24.981Z</time></trkpt><trkpt lat="44.7168383" lon="10.5798267"><ele>45.0</ele><time>2026-04-07T15:54:29.981Z</time></trkpt><trkpt lat="44.716835" lon="10.579735"><ele>45.0</ele><time>2026-04-07T15:54:46.981Z</time></trkpt><trkpt lat="44.7168567" lon="10.5796317"><ele>45.0</ele><time>2026-04-07T15:54:50.981Z</time></trkpt><trkpt lat="44.7168917" lon="10.5795533"><ele>45.0</ele><time>2026-04-07T15:54:52.979Z</time></trkpt><trkpt lat="44.7169217" lon="10.5794567"><ele>45.0</ele><time>2026-04-07T15:54:55.98Z</time></trkpt><trkpt lat="44.7169283" lon="10.5793483"><ele>45.0</ele><time>2026-04-07T15:54:58.98Z</time></trkpt><trkpt lat="44.7169117" lon="10.5792483"><ele>45.0</ele><time>2026-04-07T15:55:01.979Z</time></trkpt><trkpt lat="44.7168917" lon="10.5791633"><ele>45.0</ele><time>2026-04-07T15:55:04.98Z</time></trkpt><trkpt lat="44.71689" lon="10.5790433"><ele>45.0</ele><time>2026-04-07T15:55:13.98Z</time></trkpt><trkpt lat="44.7168933" lon="10.5788633"><ele>45.0</ele><time>2026-04-07T15:55:25.979Z</time></trkpt><trkpt lat="44.716925" lon="10.578765"><ele>45.0</ele><time>2026-04-07T15:55:29.979Z</time></trkpt><trkpt lat="44.7169517" lon="10.5786583"><ele>45.0</ele><time>2026-04-07T15:55:33.979Z</time></trkpt><trkpt lat="44.7169783" lon="10.5785583"><ele>45.0</ele><time>2026-04-07T15:55:36.98Z</time></trkpt><trkpt lat="44.7170083" lon="10.5784767"><ele>45.0</ele><time>2026-04-07T15:55:38.98Z</time></trkpt><trkpt lat="44.7170383" lon="10.5783917"><ele>45.0</ele><time>2026-04-07T15:55:40.979Z</time></trkpt><trkpt lat="44.71707" lon="10.578305"><ele>45.0</ele><time>2026-04-07T15:55:42.979Z</time></trkpt><trkpt lat="44.717105" lon="10.5782133"><ele>45.0</ele><time>2026-04-07T15:55:44.98Z</time></trkpt><trkpt lat="44.7171367" lon="10.5781133"><ele>45.0</ele><time>2026-04-07T15:55:46.979Z</time></trkpt><trkpt lat="44.71717" lon="10.5780167"><ele>45.0</ele><time>2026-04-07T15:55:48.98Z</time></trkpt><trkpt lat="44.7172067" lon="10.57791"><ele>45.0</ele><time>2026-04-07T15:55:50.98Z</time></trkpt><trkpt lat="44.7172483" lon="10.57779"><ele>45.166666666666664</ele><time>2026-04-07T15:55:52.98Z</time></trkpt><trkpt lat="44.717285" lon="10.5776583"><ele>45.333333333333336</ele><time>2026-04-07T15:55:54.98Z</time></trkpt><trkpt lat="44.717325" lon="10.57753"><ele>45.5</ele><time>2026-04-07T15:55:56.98Z</time></trkpt><trkpt lat="44.717355" lon="10.5774267"><ele>45.66666666666667</ele><time>2026-04-07T15:55:58.979Z</time></trkpt><trkpt lat="44.7173833" lon="10.577335"><ele>45.833333333333336</ele><time>2026-04-07T15:56:00.98Z</time></trkpt><trkpt lat="44.717415" lon="10.577225"><ele>46.0</ele><time>2026-04-07T15:56:02.98Z</time></trkpt><trkpt lat="44.71746" lon="10.5770567"><ele>45.833333333333336</ele><time>2026-04-07T15:56:04.98Z</time></trkpt><trkpt lat="44.7174833" lon="10.5769717"><ele>45.66666666666667</ele><time>2026-04-07T15:56:05.979Z</time></trkpt><trkpt lat="44.71751" lon="10.5768867"><ele>45.5</ele><time>2026-04-07T15:56:06.98Z</time></trkpt><trkpt lat="44.7175583" lon="10.5767233"><ele>45.333333333333336</ele><time>2026-04-07T15:56:08.98Z</time></trkpt><trkpt lat="44.717605" lon="10.5765783"><ele>45.166666666666664</ele><time>2026-04-07T15:56:10.979Z</time></trkpt><trkpt lat="44.717635" lon="10.5765"><ele>45.0</ele><time>2026-04-07T15:56:11.98Z</time></trkpt><trkpt lat="44.7176817" lon="10.57635"><ele>45.0</ele><time>2026-04-07T15:56:13.979Z</time></trkpt><trkpt lat="44.7177033" lon="10.576265"><ele>45.0</ele><time>2026-04-07T15:56:14.98Z</time></trkpt><trkpt lat="44.7177317" lon="10.5761783"><ele>45.0</ele><time>2026-04-07T15:56:15.98Z</time></trkpt><trkpt lat="44.717765" lon="10.576095"><ele>45.0</ele><time>2026-04-07T15:56:16.98Z</time></trkpt><trkpt lat="44.7177917" lon="10.5760067"><ele>45.0</ele><time>2026-04-07T15:56:17.98Z</time></trkpt><trkpt lat="44.7178183" lon="10.5759183"><ele>45.0</ele><time>2026-04-07T15:56:18.98Z</time></trkpt><trkpt lat="44.7178517" lon="10.575825"><ele>45.0</ele><time>2026-04-07T15:56:19.979Z</time></trkpt><trkpt lat="44.7178817" lon="10.5757317"><ele>45.0</ele><time>2026-04-07T15:56:20.98Z</time></trkpt><trkpt lat="44.7179183" lon="10.57563"><ele>45.0</ele><time>2026-04-07T15:56:21.98Z</time></trkpt><trkpt lat="44.7179483" lon="10.5755267"><ele>45.0</ele><time>2026-04-07T15:56:22.98Z</time></trkpt><trkpt lat="44.7179817" lon="10.575425"><ele>45.0</ele><time>2026-04-07T15:56:23.98Z</time></trkpt><trkpt lat="44.7180133" lon="10.5753333"><ele>45.0</ele><time>2026-04-07T15:56:24.979Z</time></trkpt><trkpt lat="44.71804" lon="10.575245"><ele>45.0</ele><time>2026-04-07T15:56:25.98Z</time></trkpt><trkpt lat="44.718065" lon="10.575155"><ele>45.0</ele><time>2026-04-07T15:56:26.979Z</time></trkpt><trkpt lat="44.7180867" lon="10.575065"><ele>45.0</ele><time>2026-04-07T15:56:27.98Z</time></trkpt><trkpt lat="44.71811" lon="10.5749767"><ele>45.0</ele><time>2026-04-07T15:56:28.98Z</time></trkpt><trkpt lat="44.7181333" lon="10.57488"><ele>45.0</ele><time>2026-04-07T15:56:29.979Z</time></trkpt><trkpt lat="44.718155" lon="10.57478"><ele>45.0</ele><time>2026-04-07T15:56:30.98Z</time></trkpt><trkpt lat="44.7181817" lon="10.57468"><ele>45.0</ele><time>2026-04-07T15:56:31.98Z</time></trkpt><trkpt lat="44.7182117" lon="10.57458"><ele>45.0</ele><time>2026-04-07T15:56:32.98Z</time></trkpt><trkpt lat="44.71824" lon="10.5744783"><ele>45.0</ele><time>2026-04-07T15:56:33.98Z</time></trkpt><trkpt lat="44.71827" lon="10.57438"><ele>45.0</ele><time>2026-04-07T15:56:34.98Z</time></trkpt><trkpt lat="44.7182983" lon="10.5742783"><ele>45.0</ele><time>2026-04-07T15:56:35.98Z</time></trkpt><trkpt lat="44.7183283" lon="10.5741767"><ele>45.0</ele><time>2026-04-07T15:56:36.98Z</time></trkpt><trkpt lat="44.718355" lon="10.5740717"><ele>45.0</ele><time>2026-04-07T15:56:37.98Z</time></trkpt><trkpt lat="44.7183833" lon="10.5739767"><ele>45.0</ele><time>2026-04-07T15:56:38.98Z</time></trkpt><trkpt lat="44.71841" lon="10.57388"><ele>45.0</ele><time>2026-04-07T15:56:39.98Z</time></trkpt><trkpt lat="44.7184367" lon="10.5737767"><ele>45.0</ele><time>2026-04-07T15:56:40.98Z</time></trkpt><trkpt lat="44.71847" lon="10.573665"><ele>45.0</ele><time>2026-04-07T15:56:41.98Z</time></trkpt><trkpt lat="44.7185067" lon="10.5735517"><ele>45.0</ele><time>2026-04-07T15:56:42.98Z</time></trkpt><trkpt lat="44.7185483" lon="10.5734233"><ele>45.0</ele><time>2026-04-07T15:56:43.98Z</time></trkpt><trkpt lat="44.7185933" lon="10.5732833"><ele>45.0</ele><time>2026-04-07T15:56:44.979Z</time></trkpt><trkpt lat="44.7186417" lon="10.573145"><ele>45.0</ele><time>2026-04-07T15:56:45.98Z</time></trkpt><trkpt lat="44.7186917" lon="10.5730083"><ele>45.0</ele><time>2026-04-07T15:56:46.979Z</time></trkpt><trkpt lat="44.71874" lon="10.5728783"><ele>45.0</ele><time>2026-04-07T15:56:47.98Z</time></trkpt><trkpt lat="44.7187867" lon="10.572755"><ele>45.0</ele><time>2026-04-07T15:56:48.98Z</time></trkpt><trkpt lat="44.71883" lon="10.5726383"><ele>45.0</ele><time>2026-04-07T15:56:49.98Z</time></trkpt><trkpt lat="44.71887" lon="10.5725217"><ele>45.2</ele><time>2026-04-07T15:56:50.98Z</time></trkpt><trkpt lat="44.718915" lon="10.5724"><ele>45.4</ele><time>2026-04-07T15:56:51.98Z</time></trkpt><trkpt lat="44.7189667" lon="10.5722717"><ele>45.599999999999994</ele><time>2026-04-07T15:56:52.98Z</time></trkpt><trkpt lat="44.7190167" lon="10.5721383"><ele>45.8</ele><time>2026-04-07T15:56:53.98Z</time></trkpt><trkpt lat="44.7190683" lon="10.5720167"><ele>46.0</ele><time>2026-04-07T15:56:54.98Z</time></trkpt><trkpt lat="44.71911" lon="10.571905"><ele>46.0</ele><time>2026-04-07T15:56:55.979Z</time></trkpt><trkpt lat="44.7191517" lon="10.5718"><ele>46.0</ele><time>2026-04-07T15:56:56.979Z</time></trkpt><trkpt lat="44.7191867" lon="10.5717033"><ele>46.0</ele><time>2026-04-07T15:56:57.979Z</time></trkpt><trkpt lat="44.7192167" lon="10.5716167"><ele>46.0</ele><time>2026-04-07T15:56:58.979Z</time></trkpt><trkpt lat="44.7192533" lon="10.5715383"><ele>46.0</ele><time>2026-04-07T15:56:59.979Z</time></trkpt><trkpt lat="44.7193333" lon="10.5714583"><ele>46.0</ele><time>2026-04-07T15:57:01.98Z</time></trkpt><trkpt lat="44.7194383" lon="10.5714017"><ele>46.0</ele><time>2026-04-07T15:57:03.98Z</time></trkpt><trkpt lat="44.7194767" lon="10.5713217"><ele>46.0</ele><time>2026-04-07T15:57:04.98Z</time></trkpt><trkpt lat="44.719515" lon="10.571215"><ele>46.0</ele><time>2026-04-07T15:57:05.98Z</time></trkpt><trkpt lat="44.7195433" lon="10.57112"><ele>46.0</ele><time>2026-04-07T15:57:06.98Z</time></trkpt><trkpt lat="44.71959" lon="10.5710067"><ele>46.0</ele><time>2026-04-07T15:57:08.98Z</time></trkpt><trkpt lat="44.7196517" lon="10.5709667"><ele>46.0</ele><time>2026-04-07T15:57:11.98Z</time></trkpt><trkpt lat="44.7196233" lon="10.5708833"><ele>46.0</ele><time>2026-04-07T15:58:41.98Z</time></trkpt><trkpt lat="44.7196" lon="10.570775"><ele>46.0</ele><time>2026-04-07T15:58:43.979Z</time></trkpt><trkpt lat="44.719585" lon="10.570685"><ele>46.0</ele><time>2026-04-07T15:58:45.98Z</time></trkpt><trkpt lat="44.719565" lon="10.5705933"><ele>46.0</ele><time>2026-04-07T15:58:47.98Z</time></trkpt><trkpt lat="44.719515" lon="10.570515"><ele>46.0</ele><time>2026-04-07T15:58:49.979Z</time></trkpt><trkpt lat="44.71944" lon="10.5704883"><ele>46.0</ele><time>2026-04-07T15:58:51.98Z</time></trkpt><trkpt lat="44.7194167" lon="10.5706"><ele>46.0</ele><time>2026-04-07T15:58:54.98Z</time></trkpt><trkpt lat="44.7195083" lon="10.5706583"><ele>46.0</ele><time>2026-04-07T15:58:56.98Z</time></trkpt><trkpt lat="44.7195867" lon="10.5706733"><ele>46.0</ele><time>2026-04-07T15:58:57.98Z</time></trkpt><trkpt lat="44.7195367" lon="10.5707783"><ele>46.0</ele><time>2026-04-07T16:00:28.98Z</time></trkpt><trkpt lat="44.719615" lon="10.5708767"><ele>46.0</ele><time>2026-04-07T16:00:31.979Z</time></trkpt><trkpt lat="44.71969" lon="10.5709633"><ele>46.0</ele><time>2026-04-07T16:00:33.979Z</time></trkpt><trkpt lat="44.7196167" lon="10.571"><ele>46.0</ele><time>2026-04-07T16:02:48.979Z</time></trkpt><trkpt lat="44.7195417" lon="10.5709617"><ele>46.0</ele><time>2026-04-07T16:02:51.979Z</time></trkpt><trkpt lat="44.719485" lon="10.5709183"><ele>46.0</ele><time>2026-04-07T16:02:53.979Z</time></trkpt><trkpt lat="44.71942" lon="10.57088"><ele>46.0</ele><time>2026-04-07T16:02:55.979Z</time></trkpt><trkpt lat="44.71936" lon="10.5708033"><ele>46.0</ele><time>2026-04-07T16:03:01.978Z</time></trkpt><trkpt lat="44.71931" lon="10.5707417"><ele>46.0</ele><time>2026-04-07T16:03:09.979Z</time></trkpt><trkpt lat="44.71925" lon="10.570695"><ele>46.0</ele><time>2026-04-07T16:03:27.979Z</time></trkpt><trkpt lat="44.7192817" lon="10.57061"><ele>46.0</ele><time>2026-04-07T16:03:39.978Z</time></trkpt><trkpt lat="44.7193433" lon="10.5705783"><ele>46.0</ele><time>2026-04-07T16:11:17.978Z</time></trkpt><trkpt lat="44.7194217" lon="10.570505"><ele>46.0</ele><time>2026-04-07T16:11:18.978Z</time></trkpt><trkpt lat="44.7194617" lon="10.570595"><ele>46.0</ele><time>2026-04-07T16:11:54.978Z</time></trkpt><trkpt lat="44.7195267" lon="10.57068"><ele>46.0</ele><time>2026-04-07T16:12:02.977Z</time></trkpt><trkpt lat="44.7195867" lon="10.5708"><ele>46.0</ele><time>2026-04-07T16:12:48.978Z</time></trkpt><trkpt lat="44.7196267" lon="10.5709383"><ele>46.0</ele><time>2026-04-07T16:13:28.977Z</time></trkpt><trkpt lat="44.71958" lon="10.5710183"><ele>46.0</ele><time>2026-04-07T16:16:11.978Z</time></trkpt><trkpt lat="44.7195283" lon="10.5710783"><ele>46.0</ele><time>2026-04-07T16:16:27.977Z</time></trkpt><trkpt lat="44.7194767" lon="10.5712417"><ele>46.0</ele><time>2026-04-07T16:16:43.977Z</time></trkpt><trkpt lat="44.719435" lon="10.5713133"><ele>46.0</ele><time>2026-04-07T16:16:45.978Z</time></trkpt><trkpt lat="44.71937" lon="10.5712983"><ele>46.0</ele><time>2026-04-07T16:16:49.978Z</time></trkpt><trkpt lat="44.7194017" lon="10.5711733"><ele>46.0</ele><time>2026-04-07T16:17:01.978Z</time></trkpt><trkpt lat="44.719435" lon="10.5710867"><ele>46.0</ele><time>2026-04-07T16:17:02.978Z</time></trkpt><trkpt lat="44.719475" lon="10.5709767"><ele>46.0</ele><time>2026-04-07T16:17:03.978Z</time></trkpt><trkpt lat="44.719525" lon="10.5708483"><ele>46.0</ele><time>2026-04-07T16:17:04.978Z</time></trkpt><trkpt lat="44.7195783" lon="10.5707"><ele>46.0</ele><time>2026-04-07T16:17:05.978Z</time></trkpt><trkpt lat="44.7196333" lon="10.5705467"><ele>46.0</ele><time>2026-04-07T16:17:06.978Z</time></trkpt><trkpt lat="44.7196967" lon="10.57039"><ele>46.0</ele><time>2026-04-07T16:17:07.978Z</time></trkpt><trkpt lat="44.719755" lon="10.5702267"><ele>46.0</ele><time>2026-04-07T16:17:08.977Z</time></trkpt><trkpt lat="44.7198117" lon="10.5700617"><ele>46.0</ele><time>2026-04-07T16:17:09.977Z</time></trkpt><trkpt lat="44.7198717" lon="10.5698883"><ele>45.75</ele><time>2026-04-07T16:17:10.977Z</time></trkpt><trkpt lat="44.71993" lon="10.5697233"><ele>45.5</ele><time>2026-04-07T16:17:11.978Z</time></trkpt><trkpt lat="44.71999" lon="10.569565"><ele>45.25</ele><time>2026-04-07T16:17:12.978Z</time></trkpt><trkpt lat="44.72004" lon="10.5694167"><ele>45.0</ele><time>2026-04-07T16:17:13.978Z</time></trkpt><trkpt lat="44.7200917" lon="10.5692817"><ele>44.25</ele><time>2026-04-07T16:17:14.978Z</time></trkpt><trkpt lat="44.72014" lon="10.5691533"><ele>43.5</ele><time>2026-04-07T16:17:15.977Z</time></trkpt><trkpt lat="44.72019" lon="10.5690167"><ele>42.75</ele><time>2026-04-07T16:17:16.978Z</time></trkpt><trkpt lat="44.7202417" lon="10.56887"><ele>42.0</ele><time>2026-04-07T16:17:17.977Z</time></trkpt><trkpt lat="44.7203" lon="10.568715"><ele>41.75</ele><time>2026-04-07T16:17:18.978Z</time></trkpt><trkpt lat="44.72036" lon="10.5685517"><ele>41.5</ele><time>2026-04-07T16:17:19.978Z</time></trkpt><trkpt lat="44.72042" lon="10.56838"><ele>41.25</ele><time>2026-04-07T16:17:20.978Z</time></trkpt><trkpt lat="44.7204833" lon="10.5682"><ele>41.0</ele><time>2026-04-07T16:17:21.978Z</time></trkpt><trkpt lat="44.7205433" lon="10.5680233"><ele>41.25</ele><time>2026-04-07T16:17:22.977Z</time></trkpt><trkpt lat="44.7206" lon="10.56786"><ele>41.5</ele><time>2026-04-07T16:17:23.978Z</time></trkpt><trkpt lat="44.7206617" lon="10.567705"><ele>41.75</ele><time>2026-04-07T16:17:24.978Z</time></trkpt><trkpt lat="44.72072" lon="10.5675517"><ele>42.0</ele><time>2026-04-07T16:17:25.978Z</time></trkpt><trkpt lat="44.7207767" lon="10.5674083"><ele>42.0</ele><time>2026-04-07T16:17:26.978Z</time></trkpt><trkpt lat="44.7208267" lon="10.5672717"><ele>42.0</ele><time>2026-04-07T16:17:27.978Z</time></trkpt><trkpt lat="44.7208733" lon="10.5671433"><ele>42.0</ele><time>2026-04-07T16:17:28.978Z</time></trkpt><trkpt lat="44.7209233" lon="10.5670183"><ele>42.0</ele><time>2026-04-07T16:17:29.978Z</time></trkpt><trkpt lat="44.7209733" lon="10.5668833"><ele>42.0</ele><time>2026-04-07T16:17:30.978Z</time></trkpt><trkpt lat="44.7210233" lon="10.5667467"><ele>42.25</ele><time>2026-04-07T16:17:31.978Z</time></trkpt><trkpt lat="44.7210817" lon="10.5666"><ele>42.5</ele><time>2026-04-07T16:17:32.977Z</time></trkpt><trkpt lat="44.7211417" lon="10.5664483"><ele>42.75</ele><time>2026-04-07T16:17:33.978Z</time></trkpt><trkpt lat="44.7211983" lon="10.566295"><ele>43.0</ele><time>2026-04-07T16:17:34.977Z</time></trkpt><trkpt lat="44.7212567" lon="10.566145"><ele>43.25</ele><time>2026-04-07T16:17:35.978Z</time></trkpt><trkpt lat="44.72131" lon="10.5659883"><ele>43.5</ele><time>2026-04-07T16:17:36.977Z</time></trkpt><trkpt lat="44.7213683" lon="10.5658267"><ele>43.75</ele><time>2026-04-07T16:17:37.978Z</time></trkpt><trkpt lat="44.7214283" lon="10.5656667"><ele>44.0</ele><time>2026-04-07T16:17:38.978Z</time></trkpt><trkpt lat="44.7214867" lon="10.5655017"><ele>43.75</ele><time>2026-04-07T16:17:39.977Z</time></trkpt><trkpt lat="44.7215483" lon="10.5653383"><ele>43.5</ele><time>2026-04-07T16:17:40.978Z</time></trkpt><trkpt lat="44.72161" lon="10.5651583"><ele>43.25</ele><time>2026-04-07T16:17:41.978Z</time></trkpt><trkpt lat="44.7216783" lon="10.5649667"><ele>43.0</ele><time>2026-04-07T16:17:42.977Z</time></trkpt><trkpt lat="44.7217433" lon="10.56478"><ele>43.0</ele><time>2026-04-07T16:17:43.978Z</time></trkpt><trkpt lat="44.721805" lon="10.5646083"><ele>43.0</ele><time>2026-04-07T16:17:44.978Z</time></trkpt><trkpt lat="44.7218633" lon="10.5644367"><ele>43.0</ele><time>2026-04-07T16:17:45.977Z</time></trkpt><trkpt lat="44.7219267" lon="10.5642733"><ele>43.0</ele><time>2026-04-07T16:17:46.978Z</time></trkpt><trkpt lat="44.7219767" lon="10.5641083"><ele>43.0</ele><time>2026-04-07T16:17:47.978Z</time></trkpt><trkpt lat="44.7220317" lon="10.5639467"><ele>43.0</ele><time>2026-04-07T16:17:48.978Z</time></trkpt><trkpt lat="44.722085" lon="10.563785"><ele>43.0</ele><time>2026-04-07T16:17:49.978Z</time></trkpt><trkpt lat="44.7221383" lon="10.5636183"><ele>43.0</ele><time>2026-04-07T16:17:50.978Z</time></trkpt><trkpt lat="44.7221933" lon="10.56345"><ele>43.0</ele><time>2026-04-07T16:17:51.978Z</time></trkpt><trkpt lat="44.7222483" lon="10.5632867"><ele>43.0</ele><time>2026-04-07T16:17:52.978Z</time></trkpt><trkpt lat="44.7223" lon="10.5631333"><ele>43.0</ele><time>2026-04-07T16:17:53.978Z</time></trkpt><trkpt lat="44.7223483" lon="10.5629817"><ele>43.0</ele><time>2026-04-07T16:17:54.978Z</time></trkpt><trkpt lat="44.722395" lon="10.56283"><ele>43.0</ele><time>2026-04-07T16:17:55.978Z</time></trkpt><trkpt lat="44.72244" lon="10.5626717"><ele>43.0</ele><time>2026-04-07T16:17:56.978Z</time></trkpt><trkpt lat="44.7224883" lon="10.56251"><ele>43.0</ele><time>2026-04-07T16:17:57.978Z</time></trkpt><trkpt lat="44.72253" lon="10.562355"><ele>43.0</ele><time>2026-04-07T16:17:58.977Z</time></trkpt><trkpt lat="44.7225717" lon="10.5622133"><ele>43.0</ele><time>2026-04-07T16:17:59.977Z</time></trkpt><trkpt lat="44.72262" lon="10.562065"><ele>43.0</ele><time>2026-04-07T16:18:00.978Z</time></trkpt><trkpt lat="44.722675" lon="10.56192"><ele>43.0</ele><time>2026-04-07T16:18:01.978Z</time></trkpt><trkpt lat="44.7227233" lon="10.5617817"><ele>43.0</ele><time>2026-04-07T16:18:02.978Z</time></trkpt><trkpt lat="44.722765" lon="10.561655"><ele>43.0</ele><time>2026-04-07T16:18:03.978Z</time></trkpt><trkpt lat="44.7228067" lon="10.5615333"><ele>43.0</ele><time>2026-04-07T16:18:04.977Z</time></trkpt><trkpt lat="44.7228417" lon="10.5614233"><ele>43.0</ele><time>2026-04-07T16:18:05.978Z</time></trkpt><trkpt lat="44.7228717" lon="10.5613183"><ele>43.0</ele><time>2026-04-07T16:18:06.978Z</time></trkpt><trkpt lat="44.7229017" lon="10.5612183"><ele>43.0</ele><time>2026-04-07T16:18:07.978Z</time></trkpt><trkpt lat="44.7229317" lon="10.56112"><ele>43.0</ele><time>2026-04-07T16:18:08.978Z</time></trkpt><trkpt lat="44.7229633" lon="10.5610233"><ele>43.0</ele><time>2026-04-07T16:18:09.978Z</time></trkpt><trkpt lat="44.7230033" lon="10.5609217"><ele>42.8</ele><time>2026-04-07T16:18:10.977Z</time></trkpt><trkpt lat="44.7230483" lon="10.5608233"><ele>42.599999999999994</ele><time>2026-04-07T16:18:11.978Z</time></trkpt><trkpt lat="44.7230933" lon="10.56071"><ele>42.400000000000006</ele><time>2026-04-07T16:18:12.978Z</time></trkpt><trkpt lat="44.72313" lon="10.5605833"><ele>42.2</ele><time>2026-04-07T16:18:13.978Z</time></trkpt><trkpt lat="44.7231683" lon="10.5604483"><ele>42.0</ele><time>2026-04-07T16:18:14.977Z</time></trkpt><trkpt lat="44.7232067" lon="10.5603317"><ele>42.0</ele><time>2026-04-07T16:18:15.978Z</time></trkpt><trkpt lat="44.72324" lon="10.5602283"><ele>42.0</ele><time>2026-04-07T16:18:16.978Z</time></trkpt><trkpt lat="44.72327" lon="10.56014"><ele>42.0</ele><time>2026-04-07T16:18:17.978Z</time></trkpt><trkpt lat="44.72332" lon="10.5600083"><ele>42.0</ele><time>2026-04-07T16:18:19.978Z</time></trkpt><trkpt lat="44.723345" lon="10.5599117"><ele>42.0</ele><time>2026-04-07T16:18:21.977Z</time></trkpt><trkpt lat="44.7233683" lon="10.5598283"><ele>42.0</ele><time>2026-04-07T16:18:24.978Z</time></trkpt><trkpt lat="44.7234217" lon="10.5597317"><ele>42.0</ele><time>2026-04-07T16:18:28.978Z</time></trkpt><trkpt lat="44.7234483" lon="10.5596367"><ele>42.0</ele><time>2026-04-07T16:18:30.977Z</time></trkpt><trkpt lat="44.7234683" lon="10.5595417"><ele>42.0</ele><time>2026-04-07T16:18:32.978Z</time></trkpt><trkpt lat="44.7234833" lon="10.5594417"><ele>42.0</ele><time>2026-04-07T16:18:35.978Z</time></trkpt><trkpt lat="44.7235117" lon="10.5593367"><ele>42.0</ele><time>2026-04-07T16:18:37.978Z</time></trkpt><trkpt lat="44.7235533" lon="10.5592033"><ele>42.0</ele><time>2026-04-07T16:18:39.977Z</time></trkpt><trkpt lat="44.7236" lon="10.5590617"><ele>41.8</ele><time>2026-04-07T16:18:41.978Z</time></trkpt><trkpt lat="44.7236333" lon="10.5589683"><ele>41.6</ele><time>2026-04-07T16:18:43.978Z</time></trkpt><trkpt lat="44.723675" lon="10.5588567"><ele>41.4</ele><time>2026-04-07T16:18:46.978Z</time></trkpt><trkpt lat="44.7237117" lon="10.55873"><ele>41.199999999999996</ele><time>2026-04-07T16:18:48.978Z</time></trkpt><trkpt lat="44.723755" lon="10.5586067"><ele>41.0</ele><time>2026-04-07T16:18:50.978Z</time></trkpt><trkpt lat="44.72381" lon="10.5584633"><ele>41.0</ele><time>2026-04-07T16:18:52.978Z</time></trkpt><trkpt lat="44.723835" lon="10.5583817"><ele>41.0</ele><time>2026-04-07T16:18:53.978Z</time></trkpt><trkpt lat="44.7238883" lon="10.5582483"><ele>41.0</ele><time>2026-04-07T16:18:55.978Z</time></trkpt><trkpt lat="44.723925" lon="10.5581667"><ele>41.0</ele><time>2026-04-07T16:18:57.978Z</time></trkpt><trkpt lat="44.723955" lon="10.558045"><ele>41.0</ele><time>2026-04-07T16:19:00.978Z</time></trkpt><trkpt lat="44.7239983" lon="10.557885"><ele>41.0</ele><time>2026-04-07T16:19:02.978Z</time></trkpt><trkpt lat="44.7240283" lon="10.557775"><ele>41.0</ele><time>2026-04-07T16:19:03.977Z</time></trkpt><trkpt lat="44.7240667" lon="10.5576583"><ele>41.0</ele><time>2026-04-07T16:19:04.978Z</time></trkpt><trkpt lat="44.7241083" lon="10.5575383"><ele>41.0</ele><time>2026-04-07T16:19:05.977Z</time></trkpt><trkpt lat="44.7241433" lon="10.55743"><ele>41.0</ele><time>2026-04-07T16:19:06.978Z</time></trkpt><trkpt lat="44.7241667" lon="10.5573417"><ele>41.0</ele><time>2026-04-07T16:19:07.978Z</time></trkpt><trkpt lat="44.724205" lon="10.5572383"><ele>41.0</ele><time>2026-04-07T16:19:09.977Z</time></trkpt><trkpt lat="44.724245" lon="10.557145"><ele>41.0</ele><time>2026-04-07T16:19:12.978Z</time></trkpt><trkpt lat="44.7242767" lon="10.5570433"><ele>41.0</ele><time>2026-04-07T16:19:19.977Z</time></trkpt><trkpt lat="44.724325" lon="10.556885"><ele>41.0</ele><time>2026-04-07T16:19:21.978Z</time></trkpt><trkpt lat="44.7243617" lon="10.5567783"><ele>41.0</ele><time>2026-04-07T16:19:22.978Z</time></trkpt><trkpt lat="44.7244033" lon="10.5566567"><ele>41.0</ele><time>2026-04-07T16:19:23.978Z</time></trkpt><trkpt lat="44.7244433" lon="10.5565467"><ele>41.0</ele><time>2026-04-07T16:19:24.978Z</time></trkpt><trkpt lat="44.7244783" lon="10.55645"><ele>41.0</ele><time>2026-04-07T16:19:25.978Z</time></trkpt><trkpt lat="44.7245067" lon="10.5563667"><ele>41.0</ele><time>2026-04-07T16:19:26.978Z</time></trkpt><trkpt lat="44.7245333" lon="10.5562817"><ele>41.0</ele><time>2026-04-07T16:19:27.978Z</time></trkpt><trkpt lat="44.7245833" lon="10.5561367"><ele>41.0</ele><time>2026-04-07T16:19:29.978Z</time></trkpt><trkpt lat="44.724635" lon="10.5559883"><ele>41.199999999999996</ele><time>2026-04-07T16:19:31.978Z</time></trkpt><trkpt lat="44.72468" lon="10.5558467"><ele>41.4</ele><time>2026-04-07T16:19:33.978Z</time></trkpt><trkpt lat="44.724725" lon="10.5557117"><ele>41.6</ele><time>2026-04-07T16:19:35.978Z</time></trkpt><trkpt lat="44.7247667" lon="10.5555883"><ele>41.8</ele><time>2026-04-07T16:19:37.978Z</time></trkpt><trkpt lat="44.7248033" lon="10.555455"><ele>42.0</ele><time>2026-04-07T16:19:39.978Z</time></trkpt><trkpt lat="44.7248533" lon="10.5553033"><ele>42.166666666666664</ele><time>2026-04-07T16:19:41.978Z</time></trkpt><trkpt lat="44.7248817" lon="10.55522"><ele>42.333333333333336</ele><time>2026-04-07T16:19:42.978Z</time></trkpt><trkpt lat="44.7249333" lon="10.55509"><ele>42.5</ele><time>2026-04-07T16:19:44.978Z</time></trkpt><trkpt lat="44.7249833" lon="10.5549667"><ele>42.66666666666667</ele><time>2026-04-07T16:19:46.977Z</time></trkpt><trkpt lat="44.7250133" lon="10.554885"><ele>42.833333333333336</ele><time>2026-04-07T16:19:47.978Z</time></trkpt><trkpt lat="44.7250467" lon="10.5547883"><ele>43.0</ele><time>2026-04-07T16:19:48.978Z</time></trkpt><trkpt lat="44.72508" lon="10.5546833"><ele>43.0</ele><time>2026-04-07T16:19:49.978Z</time></trkpt><trkpt lat="44.7251133" lon="10.5545767"><ele>43.0</ele><time>2026-04-07T16:19:50.977Z</time></trkpt><trkpt lat="44.7251467" lon="10.5544783"><ele>43.0</ele><time>2026-04-07T16:19:51.978Z</time></trkpt><trkpt lat="44.72518" lon="10.5543783"><ele>43.0</ele><time>2026-04-07T16:19:52.978Z</time></trkpt><trkpt lat="44.7252117" lon="10.554285"><ele>43.0</ele><time>2026-04-07T16:19:53.977Z</time></trkpt><trkpt lat="44.7252667" lon="10.5541333"><ele>43.0</ele><time>2026-04-07T16:19:55.978Z</time></trkpt><trkpt lat="44.7253183" lon="10.5540017"><ele>42.66666666666667</ele><time>2026-04-07T16:19:57.978Z</time></trkpt><trkpt lat="44.7253583" lon="10.55389"><ele>42.333333333333336</ele><time>2026-04-07T16:19:59.977Z</time></trkpt><trkpt lat="44.7254033" lon="10.5537483"><ele>42.0</ele><time>2026-04-07T16:20:01.978Z</time></trkpt><trkpt lat="44.725435" lon="10.5536633"><ele>41.666666666666664</ele><time>2026-04-07T16:20:02.978Z</time></trkpt><trkpt lat="44.7254683" lon="10.5535733"><ele>41.33333333333333</ele><time>2026-04-07T16:20:03.978Z</time></trkpt><trkpt lat="44.7255033" lon="10.5534783"><ele>41.0</ele><time>2026-04-07T16:20:04.978Z</time></trkpt><trkpt lat="44.72554" lon="10.5533833"><ele>41.0</ele><time>2026-04-07T16:20:05.978Z</time></trkpt><trkpt lat="44.725575" lon="10.5532817"><ele>41.0</ele><time>2026-04-07T16:20:06.978Z</time></trkpt><trkpt lat="44.7256017" lon="10.553185"><ele>41.0</ele><time>2026-04-07T16:20:07.978Z</time></trkpt><trkpt lat="44.72563" lon="10.5530983"><ele>41.0</ele><time>2026-04-07T16:20:08.978Z</time></trkpt><trkpt lat="44.7256767" lon="10.5529583"><ele>41.0</ele><time>2026-04-07T16:20:10.978Z</time></trkpt><trkpt lat="44.7257233" lon="10.55284"><ele>41.0</ele><time>2026-04-07T16:20:12.978Z</time></trkpt><trkpt lat="44.72577" lon="10.552705"><ele>41.0</ele><time>2026-04-07T16:20:14.978Z</time></trkpt><trkpt lat="44.7258133" lon="10.5525667"><ele>41.0</ele><time>2026-04-07T16:20:16.978Z</time></trkpt><trkpt lat="44.7258633" lon="10.5524417"><ele>41.0</ele><time>2026-04-07T16:20:18.978Z</time></trkpt><trkpt lat="44.7259117" lon="10.5523183"><ele>41.0</ele><time>2026-04-07T16:20:20.978Z</time></trkpt><trkpt lat="44.7259617" lon="10.5521733"><ele>41.0</ele><time>2026-04-07T16:20:22.978Z</time></trkpt><trkpt lat="44.7259917" lon="10.5520817"><ele>41.166666666666664</ele><time>2026-04-07T16:20:23.978Z</time></trkpt><trkpt lat="44.726025" lon="10.551985"><ele>41.33333333333333</ele><time>2026-04-07T16:20:24.977Z</time></trkpt><trkpt lat="44.7260533" lon="10.5518883"><ele>41.5</ele><time>2026-04-07T16:20:25.978Z</time></trkpt><trkpt lat="44.7260917" lon="10.5517883"><ele>41.666666666666664</ele><time>2026-04-07T16:20:26.977Z</time></trkpt><trkpt lat="44.726125" lon="10.55168"><ele>41.833333333333336</ele><time>2026-04-07T16:20:27.978Z</time></trkpt><trkpt lat="44.7261617" lon="10.551565"><ele>42.0</ele><time>2026-04-07T16:20:28.977Z</time></trkpt><trkpt lat="44.7262" lon="10.5514567"><ele>42.0</ele><time>2026-04-07T16:20:29.977Z</time></trkpt><trkpt lat="44.72624" lon="10.55135"><ele>42.0</ele><time>2026-04-07T16:20:30.978Z</time></trkpt><trkpt lat="44.7262767" lon="10.5512433"><ele>42.0</ele><time>2026-04-07T16:20:31.977Z</time></trkpt><trkpt lat="44.7263133" lon="10.5511433"><ele>42.0</ele><time>2026-04-07T16:20:32.977Z</time></trkpt><trkpt lat="44.7263467" lon="10.5510433"><ele>42.0</ele><time>2026-04-07T16:20:33.976Z</time></trkpt><trkpt lat="44.726375" lon="10.5509583"><ele>42.0</ele><time>2026-04-07T16:20:34.977Z</time></trkpt><trkpt lat="44.7264283" lon="10.5508133"><ele>42.166666666666664</ele><time>2026-04-07T16:20:36.977Z</time></trkpt><trkpt lat="44.7264683" lon="10.5507"><ele>42.333333333333336</ele><time>2026-04-07T16:20:38.977Z</time></trkpt><trkpt lat="44.7265" lon="10.5506017"><ele>42.5</ele><time>2026-04-07T16:20:40.977Z</time></trkpt><trkpt lat="44.7265467" lon="10.5504533"><ele>42.66666666666667</ele><time>2026-04-07T16:20:42.977Z</time></trkpt><trkpt lat="44.7265833" lon="10.5503533"><ele>42.833333333333336</ele><time>2026-04-07T16:20:43.977Z</time></trkpt><trkpt lat="44.72662" lon="10.5502567"><ele>43.0</ele><time>2026-04-07T16:20:44.977Z</time></trkpt><trkpt lat="44.7266517" lon="10.550175"><ele>43.16666666666667</ele><time>2026-04-07T16:20:45.976Z</time></trkpt><trkpt lat="44.7266983" lon="10.5500483"><ele>43.333333333333336</ele><time>2026-04-07T16:20:47.976Z</time></trkpt><trkpt lat="44.726725" lon="10.5499583"><ele>43.5</ele><time>2026-04-07T16:20:49.977Z</time></trkpt><trkpt lat="44.7267633" lon="10.549865"><ele>43.666666666666664</ele><time>2026-04-07T16:20:51.977Z</time></trkpt><trkpt lat="44.726815" lon="10.5497483"><ele>43.83333333333333</ele><time>2026-04-07T16:20:53.977Z</time></trkpt><trkpt lat="44.72686" lon="10.54964"><ele>44.0</ele><time>2026-04-07T16:20:55.977Z</time></trkpt><trkpt lat="44.7269033" lon="10.54949"><ele>44.0</ele><time>2026-04-07T16:20:57.977Z</time></trkpt><trkpt lat="44.726935" lon="10.549385"><ele>44.0</ele><time>2026-04-07T16:20:58.977Z</time></trkpt><trkpt lat="44.7269683" lon="10.5492667"><ele>44.0</ele><time>2026-04-07T16:20:59.977Z</time></trkpt><trkpt lat="44.7270017" lon="10.54915"><ele>44.0</ele><time>2026-04-07T16:21:00.977Z</time></trkpt><trkpt lat="44.72704" lon="10.54904"><ele>44.0</ele><time>2026-04-07T16:21:01.977Z</time></trkpt><trkpt lat="44.7270767" lon="10.5489267"><ele>44.0</ele><time>2026-04-07T16:21:02.977Z</time></trkpt><trkpt lat="44.7271133" lon="10.5488233"><ele>44.0</ele><time>2026-04-07T16:21:03.976Z</time></trkpt><trkpt lat="44.72715" lon="10.5487233"><ele>44.0</ele><time>2026-04-07T16:21:04.977Z</time></trkpt><trkpt lat="44.727185" lon="10.54863"><ele>44.0</ele><time>2026-04-07T16:21:05.976Z</time></trkpt><trkpt lat="44.72722" lon="10.5485417"><ele>44.0</ele><time>2026-04-07T16:21:06.976Z</time></trkpt><trkpt lat="44.7272517" lon="10.54846"><ele>44.0</ele><time>2026-04-07T16:21:07.977Z</time></trkpt><trkpt lat="44.727305" lon="10.5482967"><ele>44.0</ele><time>2026-04-07T16:21:09.977Z</time></trkpt><trkpt lat="44.7273333" lon="10.5482133"><ele>44.0</ele><time>2026-04-07T16:21:10.977Z</time></trkpt><trkpt lat="44.727365" lon="10.548135"><ele>44.0</ele><time>2026-04-07T16:21:11.977Z</time></trkpt><trkpt lat="44.7274183" lon="10.5480067"><ele>44.0</ele><time>2026-04-07T16:21:13.977Z</time></trkpt><trkpt lat="44.7274633" lon="10.54791"><ele>44.0</ele><time>2026-04-07T16:21:15.977Z</time></trkpt><trkpt lat="44.7274933" lon="10.547815"><ele>44.0</ele><time>2026-04-07T16:21:18.977Z</time></trkpt><trkpt lat="44.7275483" lon="10.5476967"><ele>44.0</ele><time>2026-04-07T16:21:21.977Z</time></trkpt><trkpt lat="44.727595" lon="10.547555"><ele>44.2</ele><time>2026-04-07T16:21:23.977Z</time></trkpt><trkpt lat="44.7276333" lon="10.547405"><ele>44.400000000000006</ele><time>2026-04-07T16:21:25.977Z</time></trkpt><trkpt lat="44.7276867" lon="10.5472567"><ele>44.6</ele><time>2026-04-07T16:21:27.977Z</time></trkpt><trkpt lat="44.7277383" lon="10.5471133"><ele>44.8</ele><time>2026-04-07T16:21:29.977Z</time></trkpt><trkpt lat="44.72777" lon="10.5470017"><ele>45.0</ele><time>2026-04-07T16:21:31.977Z</time></trkpt><trkpt lat="44.72781" lon="10.54692"><ele>45.0</ele><time>2026-04-07T16:21:33.977Z</time></trkpt><trkpt lat="44.7278483" lon="10.5468167"><ele>45.0</ele><time>2026-04-07T16:21:36.977Z</time></trkpt><trkpt lat="44.7278917" lon="10.54672"><ele>45.0</ele><time>2026-04-07T16:21:39.977Z</time></trkpt><trkpt lat="44.7279333" lon="10.5466483"><ele>45.0</ele><time>2026-04-07T16:21:42.977Z</time></trkpt><trkpt lat="44.727975" lon="10.54658"><ele>45.0</ele><time>2026-04-07T16:21:45.977Z</time></trkpt><trkpt lat="44.7280417" lon="10.5465617"><ele>45.0</ele><time>2026-04-07T16:21:48.977Z</time></trkpt><trkpt lat="44.7281283" lon="10.5466133"><ele>45.0</ele><time>2026-04-07T16:21:50.976Z</time></trkpt><trkpt lat="44.7281867" lon="10.5466583"><ele>45.0</ele><time>2026-04-07T16:21:51.976Z</time></trkpt><trkpt lat="44.7282467" lon="10.5467067"><ele>45.0</ele><time>2026-04-07T16:21:52.977Z</time></trkpt><trkpt lat="44.72831" lon="10.5467583"><ele>45.0</ele><time>2026-04-07T16:21:53.977Z</time></trkpt><trkpt lat="44.72837" lon="10.54679"><ele>45.0</ele><time>2026-04-07T16:21:54.977Z</time></trkpt><trkpt lat="44.7284367" lon="10.54683"><ele>45.0</ele><time>2026-04-07T16:21:55.977Z</time></trkpt><trkpt lat="44.7285033" lon="10.5468617"><ele>45.0</ele><time>2026-04-07T16:21:56.976Z</time></trkpt><trkpt lat="44.7285717" lon="10.5468867"><ele>44.714285714285715</ele><time>2026-04-07T16:21:57.976Z</time></trkpt><trkpt lat="44.7286417" lon="10.5469233"><ele>44.42857142857143</ele><time>2026-04-07T16:21:58.977Z</time></trkpt><trkpt lat="44.728715" lon="10.546975"><ele>44.142857142857146</ele><time>2026-04-07T16:21:59.977Z</time></trkpt><trkpt lat="44.728785" lon="10.5470167"><ele>43.85714285714286</ele><time>2026-04-07T16:22:00.977Z</time></trkpt><trkpt lat="44.728855" lon="10.5470617"><ele>43.57142857142857</ele><time>2026-04-07T16:22:01.977Z</time></trkpt><trkpt lat="44.7289133" lon="10.547105"><ele>43.28571428571429</ele><time>2026-04-07T16:22:02.976Z</time></trkpt><trkpt lat="44.7289783" lon="10.5471467"><ele>43.0</ele><time>2026-04-07T16:22:03.977Z</time></trkpt><trkpt lat="44.72904" lon="10.5471817"><ele>43.0</ele><time>2026-04-07T16:22:04.977Z</time></trkpt><trkpt lat="44.7290983" lon="10.5472267"><ele>43.0</ele><time>2026-04-07T16:22:05.977Z</time></trkpt><trkpt lat="44.7292117" lon="10.547315"><ele>43.0</ele><time>2026-04-07T16:22:07.977Z</time></trkpt><trkpt lat="44.7292867" lon="10.547365"><ele>43.0</ele><time>2026-04-07T16:22:08.976Z</time></trkpt><trkpt lat="44.7293583" lon="10.547425"><ele>43.0</ele><time>2026-04-07T16:22:09.976Z</time></trkpt><trkpt lat="44.729435" lon="10.54746"><ele>43.0</ele><time>2026-04-07T16:22:10.977Z</time></trkpt><trkpt lat="44.7295117" lon="10.5475067"><ele>43.0</ele><time>2026-04-07T16:22:11.976Z</time></trkpt><trkpt lat="44.729585" lon="10.547555"><ele>43.0</ele><time>2026-04-07T16:22:12.977Z</time></trkpt><trkpt lat="44.7296683" lon="10.5476067"><ele>43.0</ele><time>2026-04-07T16:22:13.977Z</time></trkpt><trkpt lat="44.7297467" lon="10.547655"><ele>43.0</ele><time>2026-04-07T16:22:14.977Z</time></trkpt><trkpt lat="44.7298167" lon="10.5477"><ele>43.0</ele><time>2026-04-07T16:22:15.977Z</time></trkpt><trkpt lat="44.7298783" lon="10.54773"><ele>43.0</ele><time>2026-04-07T16:22:16.977Z</time></trkpt><trkpt lat="44.729975" lon="10.5477867"><ele>43.0</ele><time>2026-04-07T16:22:18.977Z</time></trkpt><trkpt lat="44.7300333" lon="10.547825"><ele>43.0</ele><time>2026-04-07T16:22:19.977Z</time></trkpt><trkpt lat="44.7300967" lon="10.5478733"><ele>43.0</ele><time>2026-04-07T16:22:20.977Z</time></trkpt><trkpt lat="44.730165" lon="10.547925"><ele>43.0</ele><time>2026-04-07T16:22:21.977Z</time></trkpt><trkpt lat="44.7302433" lon="10.5479783"><ele>43.0</ele><time>2026-04-07T16:22:22.976Z</time></trkpt><trkpt lat="44.7303233" lon="10.5480233"><ele>43.0</ele><time>2026-04-07T16:22:23.977Z</time></trkpt><trkpt lat="44.73039" lon="10.5480733"><ele>42.833333333333336</ele><time>2026-04-07T16:22:24.977Z</time></trkpt><trkpt lat="44.7304567" lon="10.5481167"><ele>42.66666666666667</ele><time>2026-04-07T16:22:25.977Z</time></trkpt><trkpt lat="44.7305267" lon="10.54815"><ele>42.5</ele><time>2026-04-07T16:22:26.977Z</time></trkpt><trkpt lat="44.7305917" lon="10.5481967"><ele>42.333333333333336</ele><time>2026-04-07T16:22:27.977Z</time></trkpt><trkpt lat="44.7306667" lon="10.5482467"><ele>42.166666666666664</ele><time>2026-04-07T16:22:28.977Z</time></trkpt><trkpt lat="44.73074" lon="10.548295"><ele>42.0</ele><time>2026-04-07T16:22:29.977Z</time></trkpt><trkpt lat="44.7308267" lon="10.5483533"><ele>42.0</ele><time>2026-04-07T16:22:30.977Z</time></trkpt><trkpt lat="44.7309133" lon="10.5483967"><ele>42.0</ele><time>2026-04-07T16:22:31.976Z</time></trkpt><trkpt lat="44.731" lon="10.54844"><ele>42.0</ele><time>2026-04-07T16:22:32.977Z</time></trkpt><trkpt lat="44.7310783" lon="10.548495"><ele>42.0</ele><time>2026-04-07T16:22:33.977Z</time></trkpt><trkpt lat="44.7311533" lon="10.5485417"><ele>42.0</ele><time>2026-04-07T16:22:34.977Z</time></trkpt><trkpt lat="44.7312267" lon="10.54859"><ele>42.0</ele><time>2026-04-07T16:22:35.977Z</time></trkpt><trkpt lat="44.7312983" lon="10.5486383"><ele>42.0</ele><time>2026-04-07T16:22:36.977Z</time></trkpt><trkpt lat="44.7313717" lon="10.5486883"><ele>42.0</ele><time>2026-04-07T16:22:37.977Z</time></trkpt><trkpt lat="44.731445" lon="10.5487267"><ele>42.0</ele><time>2026-04-07T16:22:38.977Z</time></trkpt><trkpt lat="44.7315133" lon="10.5487633"><ele>42.0</ele><time>2026-04-07T16:22:39.977Z</time></trkpt><trkpt lat="44.7315867" lon="10.548795"><ele>42.0</ele><time>2026-04-07T16:22:40.977Z</time></trkpt><trkpt lat="44.731695" lon="10.54886"><ele>42.0</ele><time>2026-04-07T16:22:42.977Z</time></trkpt><trkpt lat="44.7318117" lon="10.548925"><ele>42.0</ele><time>2026-04-07T16:22:44.977Z</time></trkpt><trkpt lat="44.7318733" lon="10.5489683"><ele>42.0</ele><time>2026-04-07T16:22:45.977Z</time></trkpt><trkpt lat="44.7319367" lon="10.5490217"><ele>42.0</ele><time>2026-04-07T16:22:46.977Z</time></trkpt><trkpt lat="44.7319917" lon="10.5490683"><ele>42.0</ele><time>2026-04-07T16:22:47.976Z</time></trkpt><trkpt lat="44.7320833" lon="10.54913"><ele>42.0</ele><time>2026-04-07T16:22:49.976Z</time></trkpt><trkpt lat="44.7321667" lon="10.5491817"><ele>42.0</ele><time>2026-04-07T16:22:51.976Z</time></trkpt><trkpt lat="44.7322567" lon="10.5492267"><ele>41.666666666666664</ele><time>2026-04-07T16:22:53.976Z</time></trkpt><trkpt lat="44.7323383" lon="10.5492717"><ele>41.333333333333336</ele><time>2026-04-07T16:22:55.976Z</time></trkpt><trkpt lat="44.7324033" lon="10.549335"><ele>41.0</ele><time>2026-04-07T16:22:57.977Z</time></trkpt><trkpt lat="44.732465" lon="10.549375"><ele>40.66666666666667</ele><time>2026-04-07T16:22:59.977Z</time></trkpt><trkpt lat="44.7325133" lon="10.5492933"><ele>40.333333333333336</ele><time>2026-04-07T16:23:02.977Z</time></trkpt><trkpt lat="44.7324383" lon="10.5492667"><ele>40.0</ele><time>2026-04-07T16:23:05.976Z</time></trkpt><trkpt lat="44.7323383" lon="10.5492433"><ele>40.0</ele><time>2026-04-07T16:23:07.977Z</time></trkpt><trkpt lat="44.7322217" lon="10.54918"><ele>40.0</ele><time>2026-04-07T16:23:09.977Z</time></trkpt><trkpt lat="44.7321583" lon="10.549135"><ele>40.0</ele><time>2026-04-07T16:23:10.977Z</time></trkpt><trkpt lat="44.7320983" lon="10.5491033"><ele>40.0</ele><time>2026-04-07T16:23:11.977Z</time></trkpt><trkpt lat="44.732" lon="10.5490383"><ele>40.0</ele><time>2026-04-07T16:23:13.977Z</time></trkpt><trkpt lat="44.7319283" lon="10.5489833"><ele>40.4</ele><time>2026-04-07T16:23:15.977Z</time></trkpt><trkpt lat="44.73185" lon="10.548935"><ele>40.8</ele><time>2026-04-07T16:23:17.977Z</time></trkpt><trkpt lat="44.73177" lon="10.5488867"><ele>41.2</ele><time>2026-04-07T16:23:19.977Z</time></trkpt><trkpt lat="44.7316967" lon="10.5488317"><ele>41.6</ele><time>2026-04-07T16:23:21.976Z</time></trkpt><trkpt lat="44.7316017" lon="10.5487717"><ele>42.0</ele><time>2026-04-07T16:23:23.977Z</time></trkpt><trkpt lat="44.731505" lon="10.5487083"><ele>42.0</ele><time>2026-04-07T16:23:25.977Z</time></trkpt><trkpt lat="44.731395" lon="10.5486467"><ele>42.0</ele><time>2026-04-07T16:23:27.976Z</time></trkpt><trkpt lat="44.7312867" lon="10.548575"><ele>42.0</ele><time>2026-04-07T16:23:29.977Z</time></trkpt><trkpt lat="44.7312283" lon="10.5485417"><ele>42.0</ele><time>2026-04-07T16:23:30.977Z</time></trkpt><trkpt lat="44.731115" lon="10.5484783"><ele>42.0</ele><time>2026-04-07T16:23:32.977Z</time></trkpt><trkpt lat="44.7310067" lon="10.548415"><ele>42.0</ele><time>2026-04-07T16:23:34.977Z</time></trkpt><trkpt lat="44.730945" lon="10.548375"><ele>42.0</ele><time>2026-04-07T16:23:35.977Z</time></trkpt><trkpt lat="44.7308833" lon="10.5483433"><ele>42.0</ele><time>2026-04-07T16:23:36.977Z</time></trkpt><trkpt lat="44.7307817" lon="10.54827"><ele>42.0</ele><time>2026-04-07T16:23:38.977Z</time></trkpt><trkpt lat="44.7306917" lon="10.5482133"><ele>42.0</ele><time>2026-04-07T16:23:40.976Z</time></trkpt><trkpt lat="44.730605" lon="10.54814"><ele>42.0</ele><time>2026-04-07T16:23:42.977Z</time></trkpt><trkpt lat="44.7305083" lon="10.5480767"><ele>42.0</ele><time>2026-04-07T16:23:44.976Z</time></trkpt><trkpt lat="44.73041" lon="10.5480167"><ele>42.0</ele><time>2026-04-07T16:23:46.977Z</time></trkpt><trkpt lat="44.7302917" lon="10.5479417"><ele>42.0</ele><time>2026-04-07T16:23:48.977Z</time></trkpt><trkpt lat="44.730225" lon="10.5479217"><ele>42.0</ele><time>2026-04-07T16:23:49.977Z</time></trkpt><trkpt lat="44.73016" lon="10.5478867"><ele>42.0</ele><time>2026-04-07T16:23:50.977Z</time></trkpt><trkpt lat="44.730045" lon="10.5478017"><ele>42.142857142857146</ele><time>2026-04-07T16:23:52.976Z</time></trkpt><trkpt lat="44.7299733" lon="10.54776"><ele>42.285714285714285</ele><time>2026-04-07T16:23:53.977Z</time></trkpt><trkpt lat="44.7299117" lon="10.5477217"><ele>42.42857142857143</ele><time>2026-04-07T16:23:54.976Z</time></trkpt><trkpt lat="44.729845" lon="10.5476917"><ele>42.57142857142857</ele><time>2026-04-07T16:23:55.977Z</time></trkpt><trkpt lat="44.72978" lon="10.54765"><ele>42.714285714285715</ele><time>2026-04-07T16:23:56.977Z</time></trkpt><trkpt lat="44.7297133" lon="10.5475983"><ele>42.85714285714286</ele><time>2026-04-07T16:23:57.976Z</time></trkpt><trkpt lat="44.729635" lon="10.5475533"><ele>43.0</ele><time>2026-04-07T16:23:58.977Z</time></trkpt><trkpt lat="44.7295633" lon="10.5474967"><ele>43.00000000000001</ele><time>2026-04-07T16:23:59.977Z</time></trkpt><trkpt lat="44.7294967" lon="10.547445"><ele>43.0</ele><time>2026-04-07T16:24:00.977Z</time></trkpt><trkpt lat="44.729425" lon="10.5474033"><ele>43.0</ele><time>2026-04-07T16:24:01.976Z</time></trkpt><trkpt lat="44.7293583" lon="10.54736"><ele>43.0</ele><time>2026-04-07T16:24:02.977Z</time></trkpt><trkpt lat="44.7292883" lon="10.547315"><ele>43.0</ele><time>2026-04-07T16:24:03.977Z</time></trkpt><trkpt lat="44.7292233" lon="10.5472733"><ele>43.00000000000001</ele><time>2026-04-07T16:24:04.977Z</time></trkpt><trkpt lat="44.7291617" lon="10.5472367"><ele>43.0</ele><time>2026-04-07T16:24:05.977Z</time></trkpt><trkpt lat="44.7291033" lon="10.547195"><ele>43.0</ele><time>2026-04-07T16:24:06.977Z</time></trkpt><trkpt lat="44.7289933" lon="10.54712"><ele>43.0</ele><time>2026-04-07T16:24:08.976Z</time></trkpt><trkpt lat="44.7288983" lon="10.5470433"><ele>43.0</ele><time>2026-04-07T16:24:10.977Z</time></trkpt><trkpt lat="44.7288017" lon="10.5469967"><ele>43.0</ele><time>2026-04-07T16:24:12.977Z</time></trkpt><trkpt lat="44.7287333" lon="10.5469633"><ele>43.0</ele><time>2026-04-07T16:24:13.977Z</time></trkpt><trkpt lat="44.7286467" lon="10.54691"><ele>43.0</ele><time>2026-04-07T16:24:14.977Z</time></trkpt><trkpt lat="44.72856" lon="10.546845"><ele>43.0</ele><time>2026-04-07T16:24:15.977Z</time></trkpt><trkpt lat="44.7284683" lon="10.5468067"><ele>43.0</ele><time>2026-04-07T16:24:16.977Z</time></trkpt><trkpt lat="44.7283717" lon="10.5467433"><ele>43.0</ele><time>2026-04-07T16:24:17.977Z</time></trkpt><trkpt lat="44.7282683" lon="10.5466817"><ele>43.0</ele><time>2026-04-07T16:24:18.977Z</time></trkpt><trkpt lat="44.72818" lon="10.5466317"><ele>43.333333333333336</ele><time>2026-04-07T16:24:19.977Z</time></trkpt><trkpt lat="44.728115" lon="10.5465983"><ele>43.66666666666667</ele><time>2026-04-07T16:24:20.977Z</time></trkpt><trkpt lat="44.728045" lon="10.5465317"><ele>44.0</ele><time>2026-04-07T16:24:22.977Z</time></trkpt><trkpt lat="44.7280217" lon="10.54641"><ele>44.333333333333336</ele><time>2026-04-07T16:24:30.977Z</time></trkpt><trkpt lat="44.7280583" lon="10.54633"><ele>44.666666666666664</ele><time>2026-04-07T16:24:33.977Z</time></trkpt><trkpt lat="44.7280933" lon="10.5462533"><ele>45.0</ele><time>2026-04-07T16:24:36.977Z</time></trkpt><trkpt lat="44.728145" lon="10.5461483"><ele>45.0</ele><time>2026-04-07T16:24:44.977Z</time></trkpt><trkpt lat="44.7281767" lon="10.546055"><ele>45.0</ele><time>2026-04-07T16:24:47.977Z</time></trkpt><trkpt lat="44.7282083" lon="10.5459667"><ele>45.0</ele><time>2026-04-07T16:24:49.977Z</time></trkpt><trkpt lat="44.728245" lon="10.545855"><ele>45.0</ele><time>2026-04-07T16:24:51.976Z</time></trkpt><trkpt lat="44.7282933" lon="10.545705"><ele>45.0</ele><time>2026-04-07T16:24:53.977Z</time></trkpt><trkpt lat="44.7283483" lon="10.5455617"><ele>45.0</ele><time>2026-04-07T16:24:55.977Z</time></trkpt><trkpt lat="44.7284033" lon="10.545455"><ele>45.0</ele><time>2026-04-07T16:24:57.977Z</time></trkpt><trkpt lat="44.72849" lon="10.5454617"><ele>45.0</ele><time>2026-04-07T16:24:59.977Z</time></trkpt><trkpt lat="44.72861" lon="10.5455267"><ele>45.0</ele><time>2026-04-07T16:25:01.977Z</time></trkpt><trkpt lat="44.7286867" lon="10.5455867"><ele>45.0</ele><time>2026-04-07T16:25:02.977Z</time></trkpt><trkpt lat="44.7287783" lon="10.54565"><ele>44.8</ele><time>2026-04-07T16:25:03.977Z</time></trkpt><trkpt lat="44.7288633" lon="10.5456983"><ele>44.6</ele><time>2026-04-07T16:25:04.977Z</time></trkpt><trkpt lat="44.728955" lon="10.5457583"><ele>44.400000000000006</ele><time>2026-04-07T16:25:05.977Z</time></trkpt><trkpt lat="44.7290467" lon="10.5458033"><ele>44.2</ele><time>2026-04-07T16:25:06.977Z</time></trkpt><trkpt lat="44.72913" lon="10.54585"><ele>44.0</ele><time>2026-04-07T16:25:07.977Z</time></trkpt><trkpt lat="44.72922" lon="10.5458883"><ele>44.0</ele><time>2026-04-07T16:25:08.976Z</time></trkpt><trkpt lat="44.7293017" lon="10.545925"><ele>44.0</ele><time>2026-04-07T16:25:09.977Z</time></trkpt><trkpt lat="44.7293833" lon="10.54597"><ele>44.0</ele><time>2026-04-07T16:25:10.977Z</time></trkpt><trkpt lat="44.7294683" lon="10.546005"><ele>44.0</ele><time>2026-04-07T16:25:11.976Z</time></trkpt><trkpt lat="44.7295583" lon="10.5460467"><ele>44.0</ele><time>2026-04-07T16:25:12.977Z</time></trkpt><trkpt lat="44.7296517" lon="10.5460833"><ele>43.6</ele><time>2026-04-07T16:25:13.977Z</time></trkpt><trkpt lat="44.7297417" lon="10.5461317"><ele>43.2</ele><time>2026-04-07T16:25:14.977Z</time></trkpt><trkpt lat="44.7298333" lon="10.54617"><ele>42.800000000000004</ele><time>2026-04-07T16:25:15.977Z</time></trkpt><trkpt lat="44.729925" lon="10.546205"><ele>42.400000000000006</ele><time>2026-04-07T16:25:16.977Z</time></trkpt><trkpt lat="44.73001" lon="10.5462367"><ele>42.0</ele><time>2026-04-07T16:25:17.977Z</time></trkpt><trkpt lat="44.73009" lon="10.546265"><ele>42.0</ele><time>2026-04-07T16:25:18.977Z</time></trkpt><trkpt lat="44.730165" lon="10.5462883"><ele>42.0</ele><time>2026-04-07T16:25:19.977Z</time></trkpt><trkpt lat="44.7302483" lon="10.5463117"><ele>42.0</ele><time>2026-04-07T16:25:20.976Z</time></trkpt><trkpt lat="44.7303333" lon="10.5463383"><ele>42.0</ele><time>2026-04-07T16:25:21.977Z</time></trkpt><trkpt lat="44.7304217" lon="10.5463683"><ele>42.0</ele><time>2026-04-07T16:25:22.977Z</time></trkpt><trkpt lat="44.7305133" lon="10.5464"><ele>42.0</ele><time>2026-04-07T16:25:23.977Z</time></trkpt><trkpt lat="44.7306083" lon="10.5464383"><ele>42.0</ele><time>2026-04-07T16:25:24.977Z</time></trkpt><trkpt lat="44.7307017" lon="10.5464833"><ele>42.0</ele><time>2026-04-07T16:25:25.977Z</time></trkpt><trkpt lat="44.7307967" lon="10.5465333"><ele>42.0</ele><time>2026-04-07T16:25:26.977Z</time></trkpt><trkpt lat="44.7308917" lon="10.5465867"><ele>42.0</ele><time>2026-04-07T16:25:27.977Z</time></trkpt><trkpt lat="44.7309867" lon="10.5466433"><ele>42.0</ele><time>2026-04-07T16:25:28.976Z</time></trkpt><trkpt lat="44.7310833" lon="10.5467067"><ele>42.25</ele><time>2026-04-07T16:25:29.977Z</time></trkpt><trkpt lat="44.7311867" lon="10.5467767"><ele>42.5</ele><time>2026-04-07T16:25:30.977Z</time></trkpt><trkpt lat="44.73129" lon="10.546845"><ele>42.75</ele><time>2026-04-07T16:25:31.977Z</time></trkpt><trkpt lat="44.7313933" lon="10.5469117"><ele>43.0</ele><time>2026-04-07T16:25:32.977Z</time></trkpt><trkpt lat="44.731495" lon="10.54697"><ele>43.0</ele><time>2026-04-07T16:25:33.977Z</time></trkpt><trkpt lat="44.7315917" lon="10.547015"><ele>43.0</ele><time>2026-04-07T16:25:34.977Z</time></trkpt><trkpt lat="44.7316933" lon="10.54705"><ele>43.0</ele><time>2026-04-07T16:25:35.977Z</time></trkpt><trkpt lat="44.7317967" lon="10.5470767"><ele>43.0</ele><time>2026-04-07T16:25:36.977Z</time></trkpt><trkpt lat="44.7318967" lon="10.5470633"><ele>43.0</ele><time>2026-04-07T16:25:37.976Z</time></trkpt><trkpt lat="44.731995" lon="10.5470383"><ele>42.75</ele><time>2026-04-07T16:25:38.977Z</time></trkpt><trkpt lat="44.7320983" lon="10.5469867"><ele>42.5</ele><time>2026-04-07T16:25:39.977Z</time></trkpt><trkpt lat="44.7321967" lon="10.5469183"><ele>42.25</ele><time>2026-04-07T16:25:40.977Z</time></trkpt><trkpt lat="44.732305" lon="10.5468383"><ele>42.0</ele><time>2026-04-07T16:25:41.977Z</time></trkpt><trkpt lat="44.7324117" lon="10.5467433"><ele>42.0</ele><time>2026-04-07T16:25:42.977Z</time></trkpt><trkpt lat="44.7325167" lon="10.546645"><ele>42.0</ele><time>2026-04-07T16:25:43.977Z</time></trkpt><trkpt lat="44.7326267" lon="10.546545"><ele>42.0</ele><time>2026-04-07T16:25:44.977Z</time></trkpt><trkpt lat="44.732735" lon="10.5464467"><ele>42.0</ele><time>2026-04-07T16:25:45.976Z</time></trkpt><trkpt lat="44.73284" lon="10.5463633"><ele>41.25</ele><time>2026-04-07T16:25:46.977Z</time></trkpt><trkpt lat="44.732955" lon="10.5463067"><ele>40.5</ele><time>2026-04-07T16:25:47.977Z</time></trkpt><trkpt lat="44.7330767" lon="10.546275"><ele>39.75</ele><time>2026-04-07T16:25:48.977Z</time></trkpt><trkpt lat="44.7332" lon="10.5462633"><ele>39.0</ele><time>2026-04-07T16:25:49.976Z</time></trkpt><trkpt lat="44.733325" lon="10.5462783"><ele>39.0</ele><time>2026-04-07T16:25:50.977Z</time></trkpt><trkpt lat="44.7334567" lon="10.54632"><ele>39.0</ele><time>2026-04-07T16:25:51.977Z</time></trkpt><trkpt lat="44.733585" lon="10.5463783"><ele>39.0</ele><time>2026-04-07T16:25:52.977Z</time></trkpt><trkpt lat="44.7337117" lon="10.546455"><ele>39.0</ele><time>2026-04-07T16:25:53.976Z</time></trkpt><trkpt lat="44.7338333" lon="10.5465333"><ele>39.25</ele><time>2026-04-07T16:25:54.977Z</time></trkpt><trkpt lat="44.7339467" lon="10.5466067"><ele>39.5</ele><time>2026-04-07T16:25:55.976Z</time></trkpt><trkpt lat="44.7340533" lon="10.5466833"><ele>39.75</ele><time>2026-04-07T16:25:56.976Z</time></trkpt><trkpt lat="44.7341633" lon="10.546745"><ele>40.0</ele><time>2026-04-07T16:25:57.977Z</time></trkpt><trkpt lat="44.73427" lon="10.5468183"><ele>40.0</ele><time>2026-04-07T16:25:58.976Z</time></trkpt><trkpt lat="44.7343767" lon="10.5468917"><ele>40.0</ele><time>2026-04-07T16:25:59.977Z</time></trkpt><trkpt lat="44.7344833" lon="10.546965"><ele>40.0</ele><time>2026-04-07T16:26:00.976Z</time></trkpt><trkpt lat="44.7346017" lon="10.5470383"><ele>40.0</ele><time>2026-04-07T16:26:01.977Z</time></trkpt><trkpt lat="44.7347283" lon="10.54712"><ele>39.333333333333336</ele><time>2026-04-07T16:26:02.977Z</time></trkpt><trkpt lat="44.7348667" lon="10.547215"><ele>38.666666666666664</ele><time>2026-04-07T16:26:03.977Z</time></trkpt><trkpt lat="44.7350083" lon="10.5473067"><ele>38.0</ele><time>2026-04-07T16:26:04.976Z</time></trkpt><trkpt lat="44.7351583" lon="10.5474033"><ele>37.666666666666664</ele><time>2026-04-07T16:26:05.976Z</time></trkpt><trkpt lat="44.7353133" lon="10.5475033"><ele>37.333333333333336</ele><time>2026-04-07T16:26:06.976Z</time></trkpt><trkpt lat="44.7354683" lon="10.547605"><ele>37.0</ele><time>2026-04-07T16:26:07.977Z</time></trkpt><trkpt lat="44.7356233" lon="10.547695"><ele>37.0</ele><time>2026-04-07T16:26:08.977Z</time></trkpt><trkpt lat="44.7357633" lon="10.5477883"><ele>37.0</ele><time>2026-04-07T16:26:09.976Z</time></trkpt><trkpt lat="44.735895" lon="10.5478883"><ele>37.0</ele><time>2026-04-07T16:26:10.977Z</time></trkpt><trkpt lat="44.7360217" lon="10.547965"><ele>37.0</ele><time>2026-04-07T16:26:11.977Z</time></trkpt><trkpt lat="44.7361417" lon="10.5480417"><ele>36.75</ele><time>2026-04-07T16:26:12.976Z</time></trkpt><trkpt lat="44.7362567" lon="10.5481167"><ele>36.5</ele><time>2026-04-07T16:26:13.977Z</time></trkpt><trkpt lat="44.736375" lon="10.5481967"><ele>36.25</ele><time>2026-04-07T16:26:14.977Z</time></trkpt><trkpt lat="44.7364983" lon="10.5482767"><ele>36.0</ele><time>2026-04-07T16:26:15.976Z</time></trkpt><trkpt lat="44.7366267" lon="10.5483533"><ele>36.0</ele><time>2026-04-07T16:26:16.977Z</time></trkpt><trkpt lat="44.736755" lon="10.5484283"><ele>36.0</ele><time>2026-04-07T16:26:17.977Z</time></trkpt><trkpt lat="44.736885" lon="10.5485133"><ele>36.0</ele><time>2026-04-07T16:26:18.977Z</time></trkpt><trkpt lat="44.7370183" lon="10.5486033"><ele>36.0</ele><time>2026-04-07T16:26:19.976Z</time></trkpt><trkpt lat="44.737155" lon="10.5486883"><ele>35.666666666666664</ele><time>2026-04-07T16:26:20.976Z</time></trkpt><trkpt lat="44.7372967" lon="10.5487817"><ele>35.33333333333333</ele><time>2026-04-07T16:26:21.977Z</time></trkpt><trkpt lat="44.7374367" lon="10.54887"><ele>35.0</ele><time>2026-04-07T16:26:22.977Z</time></trkpt><trkpt lat="44.737575" lon="10.5489583"><ele>35.0</ele><time>2026-04-07T16:26:23.977Z</time></trkpt><trkpt lat="44.7377183" lon="10.5490483"><ele>35.0</ele><time>2026-04-07T16:26:24.976Z</time></trkpt><trkpt lat="44.737855" lon="10.5491367"><ele>35.0</ele><time>2026-04-07T16:26:25.977Z</time></trkpt><trkpt lat="44.7379983" lon="10.5492267"><ele>35.33333333333333</ele><time>2026-04-07T16:26:26.976Z</time></trkpt><trkpt lat="44.7381433" lon="10.54933"><ele>35.666666666666664</ele><time>2026-04-07T16:26:27.977Z</time></trkpt><trkpt lat="44.738285" lon="10.5494217"><ele>36.0</ele><time>2026-04-07T16:26:28.977Z</time></trkpt><trkpt lat="44.7384283" lon="10.54951"><ele>36.5</ele><time>2026-04-07T16:26:29.977Z</time></trkpt><trkpt lat="44.7385667" lon="10.5495933"><ele>37.0</ele><time>2026-04-07T16:26:30.977Z</time></trkpt><trkpt lat="44.7387033" lon="10.54968"><ele>37.5</ele><time>2026-04-07T16:26:31.977Z</time></trkpt><trkpt lat="44.7388333" lon="10.549765"><ele>38.0</ele><time>2026-04-07T16:26:32.976Z</time></trkpt><trkpt lat="44.7389633" lon="10.5498483"><ele>38.0</ele><time>2026-04-07T16:26:33.977Z</time></trkpt><trkpt lat="44.7390933" lon="10.5499283"><ele>38.0</ele><time>2026-04-07T16:26:34.976Z</time></trkpt><trkpt lat="44.7392217" lon="10.5500133"><ele>38.0</ele><time>2026-04-07T16:26:35.976Z</time></trkpt><trkpt lat="44.7393517" lon="10.5501"><ele>38.0</ele><time>2026-04-07T16:26:36.977Z</time></trkpt><trkpt lat="44.7394867" lon="10.5501833"><ele>37.0</ele><time>2026-04-07T16:26:37.976Z</time></trkpt><trkpt lat="44.7396267" lon="10.5502667"><ele>36.0</ele><time>2026-04-07T16:26:38.976Z</time></trkpt><trkpt lat="44.7397733" lon="10.5503433"><ele>35.0</ele><time>2026-04-07T16:26:39.977Z</time></trkpt><trkpt lat="44.73992" lon="10.550415"><ele>35.0</ele><time>2026-04-07T16:26:40.976Z</time></trkpt><trkpt lat="44.7400767" lon="10.5504817"><ele>35.0</ele><time>2026-04-07T16:26:41.977Z</time></trkpt><trkpt lat="44.7402383" lon="10.55055"><ele>35.0</ele><time>2026-04-07T16:26:42.976Z</time></trkpt><trkpt lat="44.7404033" lon="10.5506133"><ele>34.0</ele><time>2026-04-07T16:26:43.977Z</time></trkpt><trkpt lat="44.740575" lon="10.55068"><ele>33.0</ele><time>2026-04-07T16:26:44.977Z</time></trkpt><trkpt lat="44.7407467" lon="10.5507433"><ele>32.0</ele><time>2026-04-07T16:26:45.977Z</time></trkpt><trkpt lat="44.74092" lon="10.550795"><ele>32.666666666666664</ele><time>2026-04-07T16:26:46.976Z</time></trkpt><trkpt lat="44.7410933" lon="10.550845"><ele>33.333333333333336</ele><time>2026-04-07T16:26:47.977Z</time></trkpt><trkpt lat="44.7412567" lon="10.5508967"><ele>34.0</ele><time>2026-04-07T16:26:48.976Z</time></trkpt><trkpt lat="44.7414183" lon="10.5509483"><ele>34.0</ele><time>2026-04-07T16:26:49.977Z</time></trkpt><trkpt lat="44.74158" lon="10.5509967"><ele>34.0</ele><time>2026-04-07T16:26:50.977Z</time></trkpt><trkpt lat="44.7417417" lon="10.55105"><ele>34.0</ele><time>2026-04-07T16:26:51.977Z</time></trkpt><trkpt lat="44.7419033" lon="10.5511"><ele>34.333333333333336</ele><time>2026-04-07T16:26:52.977Z</time></trkpt><trkpt lat="44.742065" lon="10.5511517"><ele>34.666666666666664</ele><time>2026-04-07T16:26:53.977Z</time></trkpt><trkpt lat="44.7422283" lon="10.5512017"><ele>35.0</ele><time>2026-04-07T16:26:54.977Z</time></trkpt><trkpt lat="44.7423933" lon="10.55126"><ele>35.0</ele><time>2026-04-07T16:26:55.977Z</time></trkpt><trkpt lat="44.7425567" lon="10.5513133"><ele>35.0</ele><time>2026-04-07T16:26:56.976Z</time></trkpt><trkpt lat="44.7427183" lon="10.5513617"><ele>35.0</ele><time>2026-04-07T16:26:57.976Z</time></trkpt><trkpt lat="44.7428767" lon="10.5514167"><ele>35.33333333333333</ele><time>2026-04-07T16:26:58.977Z</time></trkpt><trkpt lat="44.7430283" lon="10.5514733"><ele>35.666666666666664</ele><time>2026-04-07T16:26:59.977Z</time></trkpt><trkpt lat="44.7431733" lon="10.551525"><ele>36.0</ele><time>2026-04-07T16:27:00.977Z</time></trkpt><trkpt lat="44.7433233" lon="10.55158"><ele>36.0</ele><time>2026-04-07T16:27:01.977Z</time></trkpt><trkpt lat="44.74347" lon="10.5516467"><ele>36.0</ele><time>2026-04-07T16:27:02.977Z</time></trkpt><trkpt lat="44.7436167" lon="10.5517283"><ele>36.0</ele><time>2026-04-07T16:27:03.976Z</time></trkpt><trkpt lat="44.7437633" lon="10.5518117"><ele>36.333333333333336</ele><time>2026-04-07T16:27:04.977Z</time></trkpt><trkpt lat="44.74391" lon="10.5519083"><ele>36.66666666666667</ele><time>2026-04-07T16:27:05.977Z</time></trkpt><trkpt lat="44.7440583" lon="10.5520167"><ele>37.0</ele><time>2026-04-07T16:27:06.977Z</time></trkpt><trkpt lat="44.7442067" lon="10.55213"><ele>36.333333333333336</ele><time>2026-04-07T16:27:07.977Z</time></trkpt><trkpt lat="44.7443533" lon="10.5522533"><ele>35.666666666666664</ele><time>2026-04-07T16:27:08.977Z</time></trkpt><trkpt lat="44.7445033" lon="10.5523767"><ele>35.0</ele><time>2026-04-07T16:27:09.977Z</time></trkpt><trkpt lat="44.744655" lon="10.552495"><ele>35.0</ele><time>2026-04-07T16:27:10.977Z</time></trkpt><trkpt lat="44.744805" lon="10.5526217"><ele>35.0</ele><time>2026-04-07T16:27:11.977Z</time></trkpt><trkpt lat="44.74496" lon="10.5527517"><ele>35.0</ele><time>2026-04-07T16:27:12.977Z</time></trkpt><trkpt lat="44.7451083" lon="10.55288"><ele>35.0</ele><time>2026-04-07T16:27:13.976Z</time></trkpt><trkpt lat="44.7452533" lon="10.553"><ele>35.0</ele><time>2026-04-07T16:27:14.977Z</time></trkpt><trkpt lat="44.74539" lon="10.5531217"><ele>35.0</ele><time>2026-04-07T16:27:15.977Z</time></trkpt><trkpt lat="44.74552" lon="10.5532383"><ele>35.0</ele><time>2026-04-07T16:27:16.977Z</time></trkpt><trkpt lat="44.74565" lon="10.5533517"><ele>35.0</ele><time>2026-04-07T16:27:17.977Z</time></trkpt><trkpt lat="44.7457817" lon="10.553465"><ele>35.0</ele><time>2026-04-07T16:27:18.977Z</time></trkpt><trkpt lat="44.7459117" lon="10.5535817"><ele>35.0</ele><time>2026-04-07T16:27:19.977Z</time></trkpt><trkpt lat="44.746045" lon="10.5536933"><ele>35.0</ele><time>2026-04-07T16:27:20.977Z</time></trkpt><trkpt lat="44.7461817" lon="10.5538033"><ele>35.0</ele><time>2026-04-07T16:27:21.976Z</time></trkpt><trkpt lat="44.74632" lon="10.5539067"><ele>35.0</ele><time>2026-04-07T16:27:22.977Z</time></trkpt><trkpt lat="44.7464633" lon="10.5540117"><ele>35.0</ele><time>2026-04-07T16:27:23.976Z</time></trkpt><trkpt lat="44.7466017" lon="10.5541183"><ele>35.0</ele><time>2026-04-07T16:27:24.977Z</time></trkpt><trkpt lat="44.7467383" lon="10.55421"><ele>35.0</ele><time>2026-04-07T16:27:25.977Z</time></trkpt><trkpt lat="44.746875" lon="10.5543"><ele>35.0</ele><time>2026-04-07T16:27:26.976Z</time></trkpt><trkpt lat="44.7470067" lon="10.55439"><ele>35.0</ele><time>2026-04-07T16:27:27.976Z</time></trkpt><trkpt lat="44.7471317" lon="10.5544883"><ele>35.0</ele><time>2026-04-07T16:27:28.977Z</time></trkpt><trkpt lat="44.747255" lon="10.5545883"><ele>34.5</ele><time>2026-04-07T16:27:29.977Z</time></trkpt><trkpt lat="44.7473683" lon="10.5546767"><ele>34.0</ele><time>2026-04-07T16:27:30.977Z</time></trkpt><trkpt lat="44.7474683" lon="10.5547633"><ele>33.5</ele><time>2026-04-07T16:27:31.977Z</time></trkpt><trkpt lat="44.7475633" lon="10.5548417"><ele>33.0</ele><time>2026-04-07T16:27:32.976Z</time></trkpt><trkpt lat="44.7476467" lon="10.5549067"><ele>33.0</ele><time>2026-04-07T16:27:33.977Z</time></trkpt><trkpt lat="44.747725" lon="10.5549717"><ele>33.0</ele><time>2026-04-07T16:27:34.977Z</time></trkpt><trkpt lat="44.7477983" lon="10.5550267"><ele>33.0</ele><time>2026-04-07T16:27:35.976Z</time></trkpt><trkpt lat="44.74786" lon="10.5550767"><ele>33.0</ele><time>2026-04-07T16:27:36.976Z</time></trkpt><trkpt lat="44.7479083" lon="10.55514"><ele>33.0</ele><time>2026-04-07T16:27:37.976Z</time></trkpt><trkpt lat="44.74796" lon="10.5552983"><ele>33.0</ele><time>2026-04-07T16:27:39.976Z</time></trkpt><trkpt lat="44.7479483" lon="10.555395"><ele>33.0</ele><time>2026-04-07T16:27:40.976Z</time></trkpt><trkpt lat="44.747915" lon="10.555495"><ele>33.0</ele><time>2026-04-07T16:27:41.976Z</time></trkpt><trkpt lat="44.7478667" lon="10.555605"><ele>33.0</ele><time>2026-04-07T16:27:42.976Z</time></trkpt><trkpt lat="44.74781" lon="10.5557267"><ele>33.0</ele><time>2026-04-07T16:27:43.976Z</time></trkpt><trkpt lat="44.74775" lon="10.55586"><ele>33.0</ele><time>2026-04-07T16:27:44.975Z</time></trkpt><trkpt lat="44.7476883" lon="10.5559917"><ele>33.0</ele><time>2026-04-07T16:27:45.976Z</time></trkpt><trkpt lat="44.7476283" lon="10.5561233"><ele>33.0</ele><time>2026-04-07T16:27:46.976Z</time></trkpt><trkpt lat="44.7475767" lon="10.5562517"><ele>33.0</ele><time>2026-04-07T16:27:47.975Z</time></trkpt><trkpt lat="44.747525" lon="10.55637"><ele>33.0</ele><time>2026-04-07T16:27:48.976Z</time></trkpt><trkpt lat="44.74748" lon="10.5564733"><ele>33.0</ele><time>2026-04-07T16:27:49.976Z</time></trkpt><trkpt lat="44.7474367" lon="10.5565717"><ele>33.0</ele><time>2026-04-07T16:27:50.976Z</time></trkpt><trkpt lat="44.7474067" lon="10.55666"><ele>33.0</ele><time>2026-04-07T16:27:51.976Z</time></trkpt><trkpt lat="44.7473683" lon="10.5568017"><ele>33.0</ele><time>2026-04-07T16:27:53.976Z</time></trkpt><trkpt lat="44.7473267" lon="10.5569033"><ele>33.0</ele><time>2026-04-07T16:28:07.976Z</time></trkpt><trkpt lat="44.747305" lon="10.557035"><ele>33.0</ele><time>2026-04-07T16:28:09.976Z</time></trkpt><trkpt lat="44.7472917" lon="10.5571267"><ele>33.0</ele><time>2026-04-07T16:28:10.975Z</time></trkpt><trkpt lat="44.74728" lon="10.5572233"><ele>33.0</ele><time>2026-04-07T16:28:11.975Z</time></trkpt><trkpt lat="44.7472667" lon="10.5573283"><ele>33.0</ele><time>2026-04-07T16:28:12.976Z</time></trkpt><trkpt lat="44.7472567" lon="10.5574317"><ele>33.0</ele><time>2026-04-07T16:28:13.976Z</time></trkpt><trkpt lat="44.7472483" lon="10.5575367"><ele>33.0</ele><time>2026-04-07T16:28:14.975Z</time></trkpt><trkpt lat="44.7472383" lon="10.55764"><ele>33.0</ele><time>2026-04-07T16:28:15.976Z</time></trkpt><trkpt lat="44.747225" lon="10.557745"><ele>33.0</ele><time>2026-04-07T16:28:16.975Z</time></trkpt><trkpt lat="44.7472117" lon="10.5578467"><ele>33.0</ele><time>2026-04-07T16:28:17.976Z</time></trkpt><trkpt lat="44.7471983" lon="10.5579467"><ele>32.857142857142854</ele><time>2026-04-07T16:28:18.976Z</time></trkpt><trkpt lat="44.7471883" lon="10.55805"><ele>32.714285714285715</ele><time>2026-04-07T16:28:19.976Z</time></trkpt><trkpt lat="44.747175" lon="10.5581517"><ele>32.57142857142857</ele><time>2026-04-07T16:28:20.975Z</time></trkpt><trkpt lat="44.7471633" lon="10.5582533"><ele>32.42857142857143</ele><time>2026-04-07T16:28:21.976Z</time></trkpt><trkpt lat="44.7471483" lon="10.558355"><ele>32.285714285714285</ele><time>2026-04-07T16:28:22.976Z</time></trkpt><trkpt lat="44.7471367" lon="10.5584583"><ele>32.14285714285714</ele><time>2026-04-07T16:28:23.975Z</time></trkpt><trkpt lat="44.7471283" lon="10.5585617"><ele>32.0</ele><time>2026-04-07T16:28:24.976Z</time></trkpt><trkpt lat="44.7471167" lon="10.5586583"><ele>32.33333333333333</ele><time>2026-04-07T16:28:25.976Z</time></trkpt><trkpt lat="44.7471033" lon="10.5587517"><ele>32.666666666666664</ele><time>2026-04-07T16:28:26.976Z</time></trkpt><trkpt lat="44.7470883" lon="10.558845"><ele>33.0</ele><time>2026-04-07T16:28:27.976Z</time></trkpt><trkpt lat="44.7470783" lon="10.5589383"><ele>33.333333333333336</ele><time>2026-04-07T16:28:28.976Z</time></trkpt><trkpt lat="44.7470633" lon="10.559035"><ele>33.66666666666667</ele><time>2026-04-07T16:28:29.976Z</time></trkpt><trkpt lat="44.7470483" lon="10.5591267"><ele>34.0</ele><time>2026-04-07T16:28:30.976Z</time></trkpt><trkpt lat="44.7470267" lon="10.5592867"><ele>34.0</ele><time>2026-04-07T16:28:32.976Z</time></trkpt><trkpt lat="44.7470117" lon="10.5594067"><ele>34.0</ele><time>2026-04-07T16:28:34.976Z</time></trkpt><trkpt lat="44.747" lon="10.5595"><ele>34.0</ele><time>2026-04-07T16:28:36.976Z</time></trkpt><trkpt lat="44.74697" lon="10.5596033"><ele>34.0</ele><time>2026-04-07T16:28:40.976Z</time></trkpt><trkpt lat="44.7468883" lon="10.5595967"><ele>34.0</ele><time>2026-04-07T16:28:43.976Z</time></trkpt><trkpt lat="44.7468217" lon="10.5595583"><ele>34.0</ele><time>2026-04-07T16:28:45.976Z</time></trkpt><trkpt lat="44.7467533" lon="10.559535"><ele>34.0</ele><time>2026-04-07T16:28:53.976Z</time></trkpt><trkpt lat="44.746645" lon="10.5595017"><ele>34.0</ele><time>2026-04-07T16:28:55.975Z</time></trkpt><trkpt lat="44.7465633" lon="10.55947"><ele>34.0</ele><time>2026-04-07T16:28:56.976Z</time></trkpt><trkpt lat="44.7464733" lon="10.5594317"><ele>34.0</ele><time>2026-04-07T16:28:57.976Z</time></trkpt><trkpt lat="44.7463817" lon="10.559395"><ele>34.0</ele><time>2026-04-07T16:28:58.976Z</time></trkpt><trkpt lat="44.7462883" lon="10.5593583"><ele>34.0</ele><time>2026-04-07T16:28:59.975Z</time></trkpt><trkpt lat="44.74619" lon="10.5593183"><ele>34.0</ele><time>2026-04-07T16:29:00.976Z</time></trkpt><trkpt lat="44.7460967" lon="10.55928"><ele>34.0</ele><time>2026-04-07T16:29:01.976Z</time></trkpt><trkpt lat="44.74601" lon="10.5592417"><ele>34.0</ele><time>2026-04-07T16:29:02.975Z</time></trkpt><trkpt lat="44.74592" lon="10.5592033"><ele>34.0</ele><time>2026-04-07T16:29:03.976Z</time></trkpt><trkpt lat="44.7458283" lon="10.5591683"><ele>34.2</ele><time>2026-04-07T16:29:04.975Z</time></trkpt><trkpt lat="44.7457317" lon="10.5591367"><ele>34.4</ele><time>2026-04-07T16:29:05.976Z</time></trkpt><trkpt lat="44.745635" lon="10.55911"><ele>34.6</ele><time>2026-04-07T16:29:06.976Z</time></trkpt><trkpt lat="44.74553" lon="10.5590883"><ele>34.8</ele><time>2026-04-07T16:29:07.975Z</time></trkpt><trkpt lat="44.7454167" lon="10.5590683"><ele>35.0</ele><time>2026-04-07T16:29:08.976Z</time></trkpt><trkpt lat="44.7453017" lon="10.5590517"><ele>35.0</ele><time>2026-04-07T16:29:09.975Z</time></trkpt><trkpt lat="44.745185" lon="10.5590317"><ele>35.0</ele><time>2026-04-07T16:29:10.975Z</time></trkpt><trkpt lat="44.7450633" lon="10.5590183"><ele>35.0</ele><time>2026-04-07T16:29:11.976Z</time></trkpt><trkpt lat="44.7449417" lon="10.5590017"><ele>35.0</ele><time>2026-04-07T16:29:12.976Z</time></trkpt><trkpt lat="44.7448283" lon="10.5589833"><ele>35.0</ele><time>2026-04-07T16:29:13.976Z</time></trkpt><trkpt lat="44.7447133" lon="10.5589683"><ele>35.0</ele><time>2026-04-07T16:29:14.976Z</time></trkpt><trkpt lat="44.7446017" lon="10.5589467"><ele>35.0</ele><time>2026-04-07T16:29:15.976Z</time></trkpt><trkpt lat="44.7444933" lon="10.55893"><ele>35.0</ele><time>2026-04-07T16:29:16.976Z</time></trkpt><trkpt lat="44.744385" lon="10.558915"><ele>35.0</ele><time>2026-04-07T16:29:17.976Z</time></trkpt><trkpt lat="44.7442867" lon="10.558905"><ele>35.0</ele><time>2026-04-07T16:29:18.976Z</time></trkpt><trkpt lat="44.7442017" lon="10.5589017"><ele>35.0</ele><time>2026-04-07T16:29:19.975Z</time></trkpt><trkpt lat="44.7441217" lon="10.5589017"><ele>35.0</ele><time>2026-04-07T16:29:20.976Z</time></trkpt><trkpt lat="44.7440317" lon="10.5589217"><ele>35.0</ele><time>2026-04-07T16:29:22.976Z</time></trkpt><trkpt lat="44.7439533" lon="10.55898"><ele>35.0</ele><time>2026-04-07T16:29:35.975Z</time></trkpt><trkpt lat="44.7438883" lon="10.5590133"><ele>35.0</ele><time>2026-04-07T16:29:38.976Z</time></trkpt><trkpt lat="44.7438017" lon="10.559075"><ele>35.0</ele><time>2026-04-07T16:29:44.975Z</time></trkpt><trkpt lat="44.74374" lon="10.5591167"><ele>35.0</ele><time>2026-04-07T16:29:45.976Z</time></trkpt><trkpt lat="44.7436583" lon="10.55917"><ele>35.0</ele><time>2026-04-07T16:29:46.976Z</time></trkpt><trkpt lat="44.7435617" lon="10.5592367"><ele>35.0</ele><time>2026-04-07T16:29:47.975Z</time></trkpt><trkpt lat="44.7434617" lon="10.5593083"><ele>35.0</ele><time>2026-04-07T16:29:48.975Z</time></trkpt><trkpt lat="44.743355" lon="10.5593867"><ele>35.0</ele><time>2026-04-07T16:29:49.976Z</time></trkpt><trkpt lat="44.7432367" lon="10.5594767"><ele>35.0</ele><time>2026-04-07T16:29:50.976Z</time></trkpt><trkpt lat="44.7431267" lon="10.5595583"><ele>35.0</ele><time>2026-04-07T16:29:51.975Z</time></trkpt><trkpt lat="44.74302" lon="10.5596233"><ele>35.0</ele><time>2026-04-07T16:29:52.976Z</time></trkpt><trkpt lat="44.7429083" lon="10.5596667"><ele>35.0</ele><time>2026-04-07T16:29:53.976Z</time></trkpt><trkpt lat="44.742785" lon="10.5596983"><ele>35.0</ele><time>2026-04-07T16:29:54.976Z</time></trkpt><trkpt lat="44.7426533" lon="10.5597233"><ele>35.0</ele><time>2026-04-07T16:29:55.976Z</time></trkpt><trkpt lat="44.742525" lon="10.5597533"><ele>35.0</ele><time>2026-04-07T16:29:56.976Z</time></trkpt><trkpt lat="44.7424083" lon="10.5597917"><ele>34.83333333333333</ele><time>2026-04-07T16:29:57.976Z</time></trkpt><trkpt lat="44.742315" lon="10.5598267"><ele>34.666666666666664</ele><time>2026-04-07T16:29:58.976Z</time></trkpt><trkpt lat="44.7422533" lon="10.5598533"><ele>34.5</ele><time>2026-04-07T16:29:59.975Z</time></trkpt><trkpt lat="44.7421767" lon="10.5598867"><ele>34.333333333333336</ele><time>2026-04-07T16:30:01.974Z</time></trkpt><trkpt lat="44.7421" lon="10.559935"><ele>34.16666666666667</ele><time>2026-04-07T16:30:03.976Z</time></trkpt><trkpt lat="44.7420383" lon="10.5599867"><ele>34.0</ele><time>2026-04-07T16:30:04.975Z</time></trkpt><trkpt lat="44.7419583" lon="10.5600467"><ele>34.0</ele><time>2026-04-07T16:30:05.976Z</time></trkpt><trkpt lat="44.7418717" lon="10.5601167"><ele>34.0</ele><time>2026-04-07T16:30:06.975Z</time></trkpt><trkpt lat="44.74178" lon="10.5601917"><ele>34.0</ele><time>2026-04-07T16:30:07.976Z</time></trkpt><trkpt lat="44.74168" lon="10.5602733"><ele>34.0</ele><time>2026-04-07T16:30:08.976Z</time></trkpt><trkpt lat="44.7415733" lon="10.5603617"><ele>34.0</ele><time>2026-04-07T16:30:09.975Z</time></trkpt><trkpt lat="44.74146" lon="10.5604583"><ele>34.25</ele><time>2026-04-07T16:30:10.975Z</time></trkpt><trkpt lat="44.7413433" lon="10.5605567"><ele>34.5</ele><time>2026-04-07T16:30:11.976Z</time></trkpt><trkpt lat="44.7412233" lon="10.56065"><ele>34.75</ele><time>2026-04-07T16:30:12.976Z</time></trkpt><trkpt lat="44.7411067" lon="10.56074"><ele>35.0</ele><time>2026-04-07T16:30:13.976Z</time></trkpt><trkpt lat="44.7410033" lon="10.56082"><ele>35.4</ele><time>2026-04-07T16:30:14.976Z</time></trkpt><trkpt lat="44.7409167" lon="10.5608933"><ele>35.8</ele><time>2026-04-07T16:30:15.976Z</time></trkpt><trkpt lat="44.74083" lon="10.5609683"><ele>36.2</ele><time>2026-04-07T16:30:16.976Z</time></trkpt><trkpt lat="44.7407383" lon="10.5610333"><ele>36.6</ele><time>2026-04-07T16:30:17.975Z</time></trkpt><trkpt lat="44.7406483" lon="10.561095"><ele>37.0</ele><time>2026-04-07T16:30:18.976Z</time></trkpt><trkpt lat="44.74055" lon="10.5611783"><ele>37.0</ele><time>2026-04-07T16:30:19.976Z</time></trkpt><trkpt lat="44.7404483" lon="10.5612617"><ele>37.0</ele><time>2026-04-07T16:30:20.976Z</time></trkpt><trkpt lat="44.74035" lon="10.5613633"><ele>37.0</ele><time>2026-04-07T16:30:21.975Z</time></trkpt><trkpt lat="44.7402483" lon="10.5614583"><ele>37.0</ele><time>2026-04-07T16:30:22.976Z</time></trkpt><trkpt lat="44.7401417" lon="10.56155"><ele>37.0</ele><time>2026-04-07T16:30:23.975Z</time></trkpt><trkpt lat="44.7400417" lon="10.5616333"><ele>37.0</ele><time>2026-04-07T16:30:24.976Z</time></trkpt><trkpt lat="44.73994" lon="10.561715"><ele>37.0</ele><time>2026-04-07T16:30:25.976Z</time></trkpt><trkpt lat="44.7398367" lon="10.561795"><ele>37.0</ele><time>2026-04-07T16:30:26.976Z</time></trkpt><trkpt lat="44.7397317" lon="10.5618817"><ele>37.0</ele><time>2026-04-07T16:30:27.975Z</time></trkpt><trkpt lat="44.7396167" lon="10.56197"><ele>37.0</ele><time>2026-04-07T16:30:28.976Z</time></trkpt><trkpt lat="44.7395" lon="10.5620517"><ele>37.0</ele><time>2026-04-07T16:30:29.976Z</time></trkpt><trkpt lat="44.7393917" lon="10.5621417"><ele>37.0</ele><time>2026-04-07T16:30:30.975Z</time></trkpt><trkpt lat="44.739275" lon="10.5622283"><ele>37.25</ele><time>2026-04-07T16:30:31.976Z</time></trkpt><trkpt lat="44.7391633" lon="10.5623217"><ele>37.5</ele><time>2026-04-07T16:30:32.976Z</time></trkpt><trkpt lat="44.7390567" lon="10.5624167"><ele>37.75</ele><time>2026-04-07T16:30:33.975Z</time></trkpt><trkpt lat="44.73895" lon="10.5625183"><ele>38.0</ele><time>2026-04-07T16:30:34.976Z</time></trkpt><trkpt lat="44.7388517" lon="10.5626317"><ele>38.0</ele><time>2026-04-07T16:30:35.975Z</time></trkpt><trkpt lat="44.73876" lon="10.56277"><ele>38.0</ele><time>2026-04-07T16:30:36.976Z</time></trkpt><trkpt lat="44.7386783" lon="10.5629367"><ele>38.0</ele><time>2026-04-07T16:30:37.975Z</time></trkpt><trkpt lat="44.73861" lon="10.5631183"><ele>38.0</ele><time>2026-04-07T16:30:38.976Z</time></trkpt><trkpt lat="44.7385533" lon="10.563305"><ele>37.75</ele><time>2026-04-07T16:30:39.976Z</time></trkpt><trkpt lat="44.7385233" lon="10.5635"><ele>37.5</ele><time>2026-04-07T16:30:40.976Z</time></trkpt><trkpt lat="44.738485" lon="10.5637117"><ele>37.25</ele><time>2026-04-07T16:30:41.976Z</time></trkpt><trkpt lat="44.73845" lon="10.5639133"><ele>37.0</ele><time>2026-04-07T16:30:42.975Z</time></trkpt><trkpt lat="44.73842" lon="10.5641033"><ele>37.0</ele><time>2026-04-07T16:30:43.976Z</time></trkpt><trkpt lat="44.7383833" lon="10.5642967"><ele>37.0</ele><time>2026-04-07T16:30:44.976Z</time></trkpt><trkpt lat="44.7383483" lon="10.564495"><ele>37.0</ele><time>2026-04-07T16:30:45.976Z</time></trkpt><trkpt lat="44.7383083" lon="10.56469"><ele>37.0</ele><time>2026-04-07T16:30:46.976Z</time></trkpt><trkpt lat="44.738285" lon="10.56488"><ele>37.0</ele><time>2026-04-07T16:30:47.976Z</time></trkpt><trkpt lat="44.7382617" lon="10.5650617"><ele>37.0</ele><time>2026-04-07T16:30:48.976Z</time></trkpt><trkpt lat="44.7382317" lon="10.5652283"><ele>37.0</ele><time>2026-04-07T16:30:49.976Z</time></trkpt><trkpt lat="44.7381967" lon="10.5653883"><ele>37.0</ele><time>2026-04-07T16:30:50.976Z</time></trkpt><trkpt lat="44.7381683" lon="10.5655583"><ele>37.0</ele><time>2026-04-07T16:30:51.976Z</time></trkpt><trkpt lat="44.7381367" lon="10.56573"><ele>37.0</ele><time>2026-04-07T16:30:52.976Z</time></trkpt><trkpt lat="44.7381133" lon="10.5659133"><ele>37.0</ele><time>2026-04-07T16:30:53.976Z</time></trkpt><trkpt lat="44.7381017" lon="10.5661083"><ele>37.0</ele><time>2026-04-07T16:30:54.976Z</time></trkpt><trkpt lat="44.738105" lon="10.566305"><ele>36.75</ele><time>2026-04-07T16:30:55.976Z</time></trkpt><trkpt lat="44.73811" lon="10.566495"><ele>36.5</ele><time>2026-04-07T16:30:56.976Z</time></trkpt><trkpt lat="44.7381217" lon="10.5666883"><ele>36.25</ele><time>2026-04-07T16:30:57.976Z</time></trkpt><trkpt lat="44.738135" lon="10.56687"><ele>36.0</ele><time>2026-04-07T16:30:58.976Z</time></trkpt><trkpt lat="44.738145" lon="10.5670383"><ele>36.0</ele><time>2026-04-07T16:30:59.976Z</time></trkpt><trkpt lat="44.738145" lon="10.5672083"><ele>36.0</ele><time>2026-04-07T16:31:00.976Z</time></trkpt><trkpt lat="44.7381483" lon="10.5673783"><ele>36.0</ele><time>2026-04-07T16:31:01.975Z</time></trkpt><trkpt lat="44.738155" lon="10.5675417"><ele>36.0</ele><time>2026-04-07T16:31:02.976Z</time></trkpt><trkpt lat="44.7381583" lon="10.567695"><ele>36.0</ele><time>2026-04-07T16:31:03.976Z</time></trkpt><trkpt lat="44.7381383" lon="10.5678483"><ele>36.0</ele><time>2026-04-07T16:31:04.975Z</time></trkpt><trkpt lat="44.738095" lon="10.5680033"><ele>36.0</ele><time>2026-04-07T16:31:05.976Z</time></trkpt><trkpt lat="44.738035" lon="10.5681667"><ele>36.0</ele><time>2026-04-07T16:31:06.976Z</time></trkpt><trkpt lat="44.7379683" lon="10.5683417"><ele>35.333333333333336</ele><time>2026-04-07T16:31:07.976Z</time></trkpt><trkpt lat="44.7379033" lon="10.5685267"><ele>34.66666666666667</ele><time>2026-04-07T16:31:08.976Z</time></trkpt><trkpt lat="44.7378433" lon="10.56873"><ele>34.0</ele><time>2026-04-07T16:31:09.976Z</time></trkpt><trkpt lat="44.7377833" lon="10.5689283"><ele>33.75</ele><time>2026-04-07T16:31:10.976Z</time></trkpt><trkpt lat="44.7377283" lon="10.5691217"><ele>33.5</ele><time>2026-04-07T16:31:11.975Z</time></trkpt><trkpt lat="44.7376767" lon="10.569295"><ele>33.25</ele><time>2026-04-07T16:31:12.976Z</time></trkpt><trkpt lat="44.73763" lon="10.5694683"><ele>33.0</ele><time>2026-04-07T16:31:13.976Z</time></trkpt><trkpt lat="44.737585" lon="10.569625"><ele>33.6</ele><time>2026-04-07T16:31:14.975Z</time></trkpt><trkpt lat="44.737545" lon="10.569775"><ele>34.199999999999996</ele><time>2026-04-07T16:31:15.976Z</time></trkpt><trkpt lat="44.737515" lon="10.569915"><ele>34.8</ele><time>2026-04-07T16:31:16.975Z</time></trkpt><trkpt lat="44.7374817" lon="10.5700533"><ele>35.4</ele><time>2026-04-07T16:31:17.976Z</time></trkpt><trkpt lat="44.737465" lon="10.5701983"><ele>36.0</ele><time>2026-04-07T16:31:18.976Z</time></trkpt><trkpt lat="44.7374417" lon="10.5703417"><ele>36.2</ele><time>2026-04-07T16:31:19.975Z</time></trkpt><trkpt lat="44.7374067" lon="10.570485"><ele>36.400000000000006</ele><time>2026-04-07T16:31:20.976Z</time></trkpt><trkpt lat="44.737365" lon="10.5706283"><ele>36.6</ele><time>2026-04-07T16:31:21.975Z</time></trkpt><trkpt lat="44.7373083" lon="10.570765"><ele>36.800000000000004</ele><time>2026-04-07T16:31:22.976Z</time></trkpt><trkpt lat="44.7372367" lon="10.570885"><ele>37.0</ele><time>2026-04-07T16:31:23.976Z</time></trkpt><trkpt lat="44.7371617" lon="10.571"><ele>37.0</ele><time>2026-04-07T16:31:24.976Z</time></trkpt><trkpt lat="44.737095" lon="10.5711"><ele>37.0</ele><time>2026-04-07T16:31:25.975Z</time></trkpt><trkpt lat="44.73703" lon="10.5711983"><ele>37.0</ele><time>2026-04-07T16:31:26.976Z</time></trkpt><trkpt lat="44.7369667" lon="10.5712867"><ele>37.0</ele><time>2026-04-07T16:31:27.976Z</time></trkpt><trkpt lat="44.73691" lon="10.571375"><ele>37.0</ele><time>2026-04-07T16:31:28.976Z</time></trkpt><trkpt lat="44.736855" lon="10.57146"><ele>37.0</ele><time>2026-04-07T16:31:29.976Z</time></trkpt><trkpt lat="44.7367967" lon="10.5715467"><ele>36.800000000000004</ele><time>2026-04-07T16:31:30.976Z</time></trkpt><trkpt lat="44.736745" lon="10.5716383"><ele>36.6</ele><time>2026-04-07T16:31:31.976Z</time></trkpt><trkpt lat="44.736695" lon="10.5717517"><ele>36.400000000000006</ele><time>2026-04-07T16:31:32.975Z</time></trkpt><trkpt lat="44.7366433" lon="10.5718717"><ele>36.2</ele><time>2026-04-07T16:31:33.976Z</time></trkpt><trkpt lat="44.7365967" lon="10.572"><ele>36.0</ele><time>2026-04-07T16:31:34.976Z</time></trkpt><trkpt lat="44.736545" lon="10.572125"><ele>36.0</ele><time>2026-04-07T16:31:35.976Z</time></trkpt><trkpt lat="44.7364967" lon="10.57223"><ele>36.0</ele><time>2026-04-07T16:31:36.976Z</time></trkpt><trkpt lat="44.736455" lon="10.572325"><ele>36.0</ele><time>2026-04-07T16:31:37.976Z</time></trkpt><trkpt lat="44.7364167" lon="10.5724067"><ele>36.0</ele><time>2026-04-07T16:31:38.975Z</time></trkpt><trkpt lat="44.7363817" lon="10.57249"><ele>36.0</ele><time>2026-04-07T16:31:39.976Z</time></trkpt><trkpt lat="44.73635" lon="10.5725783"><ele>36.0</ele><time>2026-04-07T16:31:40.975Z</time></trkpt><trkpt lat="44.7363067" lon="10.5726833"><ele>36.0</ele><time>2026-04-07T16:31:41.976Z</time></trkpt><trkpt lat="44.73626" lon="10.5727967"><ele>36.0</ele><time>2026-04-07T16:31:42.976Z</time></trkpt><trkpt lat="44.7362067" lon="10.5729283"><ele>36.0</ele><time>2026-04-07T16:31:43.975Z</time></trkpt><trkpt lat="44.7361433" lon="10.5730717"><ele>36.0</ele><time>2026-04-07T16:31:44.976Z</time></trkpt><trkpt lat="44.7360733" lon="10.5732383"><ele>36.0</ele><time>2026-04-07T16:31:45.976Z</time></trkpt><trkpt lat="44.7359967" lon="10.57341"><ele>36.0</ele><time>2026-04-07T16:31:46.976Z</time></trkpt><trkpt lat="44.7359167" lon="10.5735833"><ele>36.0</ele><time>2026-04-07T16:31:47.976Z</time></trkpt><trkpt lat="44.7358367" lon="10.5737583"><ele>36.0</ele><time>2026-04-07T16:31:48.976Z</time></trkpt><trkpt lat="44.7357567" lon="10.5739417"><ele>36.0</ele><time>2026-04-07T16:31:49.976Z</time></trkpt><trkpt lat="44.735675" lon="10.5741317"><ele>36.0</ele><time>2026-04-07T16:31:50.976Z</time></trkpt><trkpt lat="44.7356017" lon="10.5743183"><ele>36.0</ele><time>2026-04-07T16:31:51.976Z</time></trkpt><trkpt lat="44.7355317" lon="10.5744883"><ele>36.0</ele><time>2026-04-07T16:31:52.976Z</time></trkpt><trkpt lat="44.7354617" lon="10.5746583"><ele>36.0</ele><time>2026-04-07T16:31:53.976Z</time></trkpt><trkpt lat="44.7353867" lon="10.5748317"><ele>36.0</ele><time>2026-04-07T16:31:54.976Z</time></trkpt><trkpt lat="44.735315" lon="10.5750083"><ele>36.0</ele><time>2026-04-07T16:31:55.976Z</time></trkpt><trkpt lat="44.7352417" lon="10.5751767"><ele>36.0</ele><time>2026-04-07T16:31:56.976Z</time></trkpt><trkpt lat="44.7351733" lon="10.5753533"><ele>36.5</ele><time>2026-04-07T16:31:57.976Z</time></trkpt><trkpt lat="44.7351033" lon="10.5755217"><ele>37.0</ele><time>2026-04-07T16:31:58.976Z</time></trkpt><trkpt lat="44.7350383" lon="10.5756917"><ele>37.5</ele><time>2026-04-07T16:31:59.976Z</time></trkpt><trkpt lat="44.7349833" lon="10.5758617"><ele>38.0</ele><time>2026-04-07T16:32:00.976Z</time></trkpt><trkpt lat="44.7349133" lon="10.5760233"><ele>38.0</ele><time>2026-04-07T16:32:01.976Z</time></trkpt><trkpt lat="44.7348567" lon="10.5761883"><ele>38.0</ele><time>2026-04-07T16:32:02.976Z</time></trkpt><trkpt lat="44.7347933" lon="10.5763467"><ele>38.0</ele><time>2026-04-07T16:32:03.975Z</time></trkpt><trkpt lat="44.73474" lon="10.5765033"><ele>38.0</ele><time>2026-04-07T16:32:04.976Z</time></trkpt><trkpt lat="44.7346833" lon="10.5766483"><ele>38.0</ele><time>2026-04-07T16:32:05.976Z</time></trkpt><trkpt lat="44.7346367" lon="10.5767967"><ele>38.0</ele><time>2026-04-07T16:32:06.975Z</time></trkpt><trkpt lat="44.73459" lon="10.5769417"><ele>38.0</ele><time>2026-04-07T16:32:07.976Z</time></trkpt><trkpt lat="44.7345467" lon="10.5770767"><ele>38.0</ele><time>2026-04-07T16:32:08.976Z</time></trkpt><trkpt lat="44.73451" lon="10.5772083"><ele>38.0</ele><time>2026-04-07T16:32:09.976Z</time></trkpt><trkpt lat="44.7344783" lon="10.5773283"><ele>38.4</ele><time>2026-04-07T16:32:10.976Z</time></trkpt><trkpt lat="44.7344533" lon="10.577435"><ele>38.8</ele><time>2026-04-07T16:32:11.975Z</time></trkpt><trkpt lat="44.7344217" lon="10.5775917"><ele>39.2</ele><time>2026-04-07T16:32:13.976Z</time></trkpt><trkpt lat="44.7343917" lon="10.577715"><ele>39.6</ele><time>2026-04-07T16:32:15.976Z</time></trkpt><trkpt lat="44.734345" lon="10.577785"><ele>40.0</ele><time>2026-04-07T16:32:17.975Z</time></trkpt><trkpt lat="44.73425" lon="10.5777717"><ele>40.0</ele><time>2026-04-07T16:32:19.976Z</time></trkpt><trkpt lat="44.73418" lon="10.5777533"><ele>40.0</ele><time>2026-04-07T16:32:20.976Z</time></trkpt><trkpt lat="44.73411" lon="10.5777333"><ele>40.0</ele><time>2026-04-07T16:32:21.976Z</time></trkpt><trkpt lat="44.7340417" lon="10.5777167"><ele>40.0</ele><time>2026-04-07T16:32:22.975Z</time></trkpt><trkpt lat="44.733975" lon="10.5777083"><ele>40.0</ele><time>2026-04-07T16:32:23.976Z</time></trkpt><trkpt lat="44.7339133" lon="10.57769"><ele>40.0</ele><time>2026-04-07T16:32:24.975Z</time></trkpt><trkpt lat="44.733795" lon="10.577655"><ele>40.0</ele><time>2026-04-07T16:32:26.975Z</time></trkpt><trkpt lat="44.73369" lon="10.5776033"><ele>40.0</ele><time>2026-04-07T16:32:28.976Z</time></trkpt><trkpt lat="44.73362" lon="10.57758"><ele>40.0</ele><time>2026-04-07T16:32:30.975Z</time></trkpt><trkpt lat="44.733555" lon="10.5775967"><ele>40.0</ele><time>2026-04-07T16:32:32.976Z</time></trkpt><trkpt lat="44.7334917" lon="10.5777367"><ele>40.0</ele><time>2026-04-07T16:32:34.975Z</time></trkpt><trkpt lat="44.7334633" lon="10.57785"><ele>39.8</ele><time>2026-04-07T16:32:35.976Z</time></trkpt><trkpt lat="44.7334267" lon="10.5779567"><ele>39.6</ele><time>2026-04-07T16:32:36.976Z</time></trkpt><trkpt lat="44.7333983" lon="10.5780667"><ele>39.4</ele><time>2026-04-07T16:32:37.975Z</time></trkpt><trkpt lat="44.733365" lon="10.57818"><ele>39.2</ele><time>2026-04-07T16:32:38.975Z</time></trkpt><trkpt lat="44.73333" lon="10.578305"><ele>39.0</ele><time>2026-04-07T16:32:39.976Z</time></trkpt><trkpt lat="44.733285" lon="10.5784317"><ele>39.0</ele><time>2026-04-07T16:32:40.976Z</time></trkpt><trkpt lat="44.7332517" lon="10.57855"><ele>39.0</ele><time>2026-04-07T16:32:41.976Z</time></trkpt><trkpt lat="44.7332233" lon="10.57866"><ele>39.0</ele><time>2026-04-07T16:32:42.976Z</time></trkpt><trkpt lat="44.733205" lon="10.5787767"><ele>39.0</ele><time>2026-04-07T16:32:43.975Z</time></trkpt><trkpt lat="44.733185" lon="10.5788867"><ele>39.0</ele><time>2026-04-07T16:32:44.976Z</time></trkpt><trkpt lat="44.733165" lon="10.5790017"><ele>39.0</ele><time>2026-04-07T16:32:45.976Z</time></trkpt><trkpt lat="44.7331617" lon="10.5791133"><ele>39.0</ele><time>2026-04-07T16:32:46.976Z</time></trkpt><trkpt lat="44.7331567" lon="10.5792167"><ele>39.0</ele><time>2026-04-07T16:32:47.976Z</time></trkpt><trkpt lat="44.7331467" lon="10.5793133"><ele>39.0</ele><time>2026-04-07T16:32:48.976Z</time></trkpt><trkpt lat="44.7331233" lon="10.57941"><ele>39.0</ele><time>2026-04-07T16:32:49.976Z</time></trkpt><trkpt lat="44.7330933" lon="10.5795083"><ele>39.0</ele><time>2026-04-07T16:32:50.976Z</time></trkpt><trkpt lat="44.73305" lon="10.5796017"><ele>39.0</ele><time>2026-04-07T16:32:51.975Z</time></trkpt><trkpt lat="44.73302" lon="10.5797017"><ele>39.0</ele><time>2026-04-07T16:32:52.976Z</time></trkpt><trkpt lat="44.7329883" lon="10.5797933"><ele>39.2</ele><time>2026-04-07T16:32:53.976Z</time></trkpt><trkpt lat="44.7329767" lon="10.5799517"><ele>39.4</ele><time>2026-04-07T16:32:55.976Z</time></trkpt><trkpt lat="44.733055" lon="10.580075"><ele>39.6</ele><time>2026-04-07T16:32:57.976Z</time></trkpt><trkpt lat="44.7331183" lon="10.5801067"><ele>39.8</ele><time>2026-04-07T16:32:58.976Z</time></trkpt><trkpt lat="44.73319" lon="10.5801033"><ele>40.0</ele><time>2026-04-07T16:32:59.976Z</time></trkpt><trkpt lat="44.73327" lon="10.580085"><ele>40.0</ele><time>2026-04-07T16:33:00.976Z</time></trkpt><trkpt lat="44.7333617" lon="10.5800717"><ele>40.0</ele><time>2026-04-07T16:33:01.976Z</time></trkpt><trkpt lat="44.7334567" lon="10.5800717"><ele>40.0</ele><time>2026-04-07T16:33:02.976Z</time></trkpt><trkpt lat="44.7335617" lon="10.5800983"><ele>40.0</ele><time>2026-04-07T16:33:03.976Z</time></trkpt><trkpt lat="44.7336733" lon="10.5801483"><ele>40.0</ele><time>2026-04-07T16:33:04.976Z</time></trkpt><trkpt lat="44.7337883" lon="10.5802"><ele>39.75</ele><time>2026-04-07T16:33:05.976Z</time></trkpt><trkpt lat="44.73391" lon="10.5802633"><ele>39.5</ele><time>2026-04-07T16:33:06.976Z</time></trkpt><trkpt lat="44.734045" lon="10.5803233"><ele>39.25</ele><time>2026-04-07T16:33:07.976Z</time></trkpt><trkpt lat="44.7341783" lon="10.5803883"><ele>39.0</ele><time>2026-04-07T16:33:08.976Z</time></trkpt><trkpt lat="44.7343133" lon="10.5804583"><ele>37.666666666666664</ele><time>2026-04-07T16:33:09.975Z</time></trkpt><trkpt lat="44.73446" lon="10.5805283"><ele>36.33333333333333</ele><time>2026-04-07T16:33:10.976Z</time></trkpt><trkpt lat="44.734605" lon="10.5805967"><ele>35.0</ele><time>2026-04-07T16:33:11.975Z</time></trkpt><trkpt lat="44.73475" lon="10.580665"><ele>35.0</ele><time>2026-04-07T16:33:12.976Z</time></trkpt><trkpt lat="44.7348917" lon="10.5807333"><ele>35.0</ele><time>2026-04-07T16:33:13.976Z</time></trkpt><trkpt lat="44.7350283" lon="10.5807933"><ele>35.0</ele><time>2026-04-07T16:33:14.976Z</time></trkpt><trkpt lat="44.7351617" lon="10.5808567"><ele>35.0</ele><time>2026-04-07T16:33:15.975Z</time></trkpt><trkpt lat="44.7353" lon="10.5809167"><ele>34.666666666666664</ele><time>2026-04-07T16:33:16.975Z</time></trkpt><trkpt lat="44.7354483" lon="10.5809883"><ele>34.333333333333336</ele><time>2026-04-07T16:33:17.976Z</time></trkpt><trkpt lat="44.73559" lon="10.581065"><ele>34.0</ele><time>2026-04-07T16:33:18.975Z</time></trkpt><trkpt lat="44.735735" lon="10.5811383"><ele>34.75</ele><time>2026-04-07T16:33:19.975Z</time></trkpt><trkpt lat="44.7358767" lon="10.5812067"><ele>35.5</ele><time>2026-04-07T16:33:20.976Z</time></trkpt><trkpt lat="44.7360167" lon="10.5812767"><ele>36.25</ele><time>2026-04-07T16:33:21.976Z</time></trkpt><trkpt lat="44.7361583" lon="10.5813483"><ele>37.0</ele><time>2026-04-07T16:33:22.976Z</time></trkpt><trkpt lat="44.7363" lon="10.581415"><ele>37.66666666666667</ele><time>2026-04-07T16:33:23.975Z</time></trkpt><trkpt lat="44.7364433" lon="10.581485"><ele>38.333333333333336</ele><time>2026-04-07T16:33:24.976Z</time></trkpt><trkpt lat="44.7365833" lon="10.5815583"><ele>39.0</ele><time>2026-04-07T16:33:25.976Z</time></trkpt><trkpt lat="44.736725" lon="10.5816317"><ele>39.0</ele><time>2026-04-07T16:33:26.976Z</time></trkpt><trkpt lat="44.7368583" lon="10.5816933"><ele>39.0</ele><time>2026-04-07T16:33:27.976Z</time></trkpt><trkpt lat="44.7369817" lon="10.58176"><ele>39.0</ele><time>2026-04-07T16:33:28.976Z</time></trkpt><trkpt lat="44.7370967" lon="10.5818167"><ele>39.0</ele><time>2026-04-07T16:33:29.976Z</time></trkpt><trkpt lat="44.7372033" lon="10.58187"><ele>38.6</ele><time>2026-04-07T16:33:30.976Z</time></trkpt><trkpt lat="44.7373" lon="10.581925"><ele>38.2</ele><time>2026-04-07T16:33:31.975Z</time></trkpt><trkpt lat="44.737395" lon="10.58197"><ele>37.800000000000004</ele><time>2026-04-07T16:33:32.976Z</time></trkpt><trkpt lat="44.7374933" lon="10.5820233"><ele>37.4</ele><time>2026-04-07T16:33:33.976Z</time></trkpt><trkpt lat="44.737585" lon="10.5820917"><ele>37.0</ele><time>2026-04-07T16:33:34.976Z</time></trkpt><trkpt lat="44.7376883" lon="10.582155"><ele>36.75</ele><time>2026-04-07T16:33:35.976Z</time></trkpt><trkpt lat="44.7378017" lon="10.58221"><ele>36.5</ele><time>2026-04-07T16:33:36.975Z</time></trkpt><trkpt lat="44.73793" lon="10.582245"><ele>36.25</ele><time>2026-04-07T16:33:37.975Z</time></trkpt><trkpt lat="44.738075" lon="10.582295"><ele>36.0</ele><time>2026-04-07T16:33:38.976Z</time></trkpt><trkpt lat="44.7382467" lon="10.582375"><ele>36.0</ele><time>2026-04-07T16:33:39.976Z</time></trkpt><trkpt lat="44.7384283" lon="10.5824633"><ele>36.0</ele><time>2026-04-07T16:33:40.976Z</time></trkpt><trkpt lat="44.7386133" lon="10.5825467"><ele>36.0</ele><time>2026-04-07T16:33:41.975Z</time></trkpt><trkpt lat="44.7388" lon="10.58262"><ele>36.333333333333336</ele><time>2026-04-07T16:33:42.976Z</time></trkpt><trkpt lat="44.7389833" lon="10.5827017"><ele>36.66666666666667</ele><time>2026-04-07T16:33:43.976Z</time></trkpt><trkpt lat="44.739155" lon="10.582785"><ele>37.0</ele><time>2026-04-07T16:33:44.976Z</time></trkpt><trkpt lat="44.7393283" lon="10.582855"><ele>37.0</ele><time>2026-04-07T16:33:45.976Z</time></trkpt><trkpt lat="44.7394933" lon="10.5829183"><ele>37.0</ele><time>2026-04-07T16:33:46.976Z</time></trkpt><trkpt lat="44.7396617" lon="10.5829917"><ele>37.0</ele><time>2026-04-07T16:33:47.976Z</time></trkpt><trkpt lat="44.7398317" lon="10.5830717"><ele>37.0</ele><time>2026-04-07T16:33:48.976Z</time></trkpt><trkpt lat="44.7400017" lon="10.58315"><ele>37.0</ele><time>2026-04-07T16:33:49.976Z</time></trkpt><trkpt lat="44.7401717" lon="10.5832317"><ele>37.0</ele><time>2026-04-07T16:33:50.976Z</time></trkpt><trkpt lat="44.7403433" lon="10.5833167"><ele>37.0</ele><time>2026-04-07T16:33:51.976Z</time></trkpt><trkpt lat="44.74052" lon="10.5834017"><ele>37.0</ele><time>2026-04-07T16:33:52.976Z</time></trkpt><trkpt lat="44.7407" lon="10.5834817"><ele>37.0</ele><time>2026-04-07T16:33:53.976Z</time></trkpt><trkpt lat="44.7408817" lon="10.5835483"><ele>37.0</ele><time>2026-04-07T16:33:54.975Z</time></trkpt><trkpt lat="44.7410633" lon="10.5836017"><ele>37.0</ele><time>2026-04-07T16:33:55.976Z</time></trkpt><trkpt lat="44.7412483" lon="10.5836433"><ele>37.0</ele><time>2026-04-07T16:33:56.976Z</time></trkpt><trkpt lat="44.741435" lon="10.58368"><ele>37.0</ele><time>2026-04-07T16:33:57.975Z</time></trkpt><trkpt lat="44.74162" lon="10.58371"><ele>37.0</ele><time>2026-04-07T16:33:58.975Z</time></trkpt><trkpt lat="44.7418" lon="10.5837283"><ele>37.0</ele><time>2026-04-07T16:33:59.976Z</time></trkpt><trkpt lat="44.7419733" lon="10.5837533"><ele>36.66666666666667</ele><time>2026-04-07T16:34:00.976Z</time></trkpt><trkpt lat="44.7421383" lon="10.5837667"><ele>36.333333333333336</ele><time>2026-04-07T16:34:01.976Z</time></trkpt><trkpt lat="44.7423" lon="10.5837733"><ele>36.0</ele><time>2026-04-07T16:34:02.975Z</time></trkpt><trkpt lat="44.7424517" lon="10.583775"><ele>36.0</ele><time>2026-04-07T16:34:03.976Z</time></trkpt><trkpt lat="44.74258" lon="10.5837733"><ele>36.0</ele><time>2026-04-07T16:34:04.976Z</time></trkpt><trkpt lat="44.742695" lon="10.5837717"><ele>36.0</ele><time>2026-04-07T16:34:05.975Z</time></trkpt><trkpt lat="44.74279" lon="10.583795"><ele>36.0</ele><time>2026-04-07T16:34:06.976Z</time></trkpt><trkpt lat="44.74287" lon="10.5838217"><ele>36.0</ele><time>2026-04-07T16:34:07.975Z</time></trkpt><trkpt lat="44.742945" lon="10.5838783"><ele>36.333333333333336</ele><time>2026-04-07T16:34:08.976Z</time></trkpt><trkpt lat="44.74302" lon="10.5839233"><ele>36.666666666666664</ele><time>2026-04-07T16:34:09.975Z</time></trkpt><trkpt lat="44.7431" lon="10.5839417"><ele>37.0</ele><time>2026-04-07T16:34:10.976Z</time></trkpt><trkpt lat="44.7431817" lon="10.58393"><ele>37.33333333333333</ele><time>2026-04-07T16:34:11.976Z</time></trkpt><trkpt lat="44.7432533" lon="10.58388"><ele>37.666666666666664</ele><time>2026-04-07T16:34:12.976Z</time></trkpt><trkpt lat="44.7433117" lon="10.5838133"><ele>38.0</ele><time>2026-04-07T16:34:13.976Z</time></trkpt><trkpt lat="44.7433783" lon="10.5837617"><ele>38.0</ele><time>2026-04-07T16:34:14.975Z</time></trkpt><trkpt lat="44.7434517" lon="10.58376"><ele>38.0</ele><time>2026-04-07T16:34:15.976Z</time></trkpt><trkpt lat="44.7435383" lon="10.5838017"><ele>38.0</ele><time>2026-04-07T16:34:16.976Z</time></trkpt><trkpt lat="44.7436267" lon="10.5838667"><ele>38.0</ele><time>2026-04-07T16:34:17.975Z</time></trkpt><trkpt lat="44.7437133" lon="10.5839567"><ele>38.0</ele><time>2026-04-07T16:34:18.976Z</time></trkpt><trkpt lat="44.7438033" lon="10.58407"><ele>38.0</ele><time>2026-04-07T16:34:19.975Z</time></trkpt><trkpt lat="44.7438867" lon="10.58419"><ele>38.0</ele><time>2026-04-07T16:34:20.975Z</time></trkpt><trkpt lat="44.7439817" lon="10.584305"><ele>38.0</ele><time>2026-04-07T16:34:21.976Z</time></trkpt><trkpt lat="44.7440767" lon="10.584425"><ele>38.0</ele><time>2026-04-07T16:34:22.976Z</time></trkpt><trkpt lat="44.744165" lon="10.58454"><ele>38.0</ele><time>2026-04-07T16:34:23.976Z</time></trkpt><trkpt lat="44.7442533" lon="10.5846567"><ele>38.0</ele><time>2026-04-07T16:34:24.976Z</time></trkpt><trkpt lat="44.7443317" lon="10.58476"><ele>38.0</ele><time>2026-04-07T16:34:25.975Z</time></trkpt><trkpt lat="44.7444083" lon="10.5848583"><ele>38.0</ele><time>2026-04-07T16:34:26.976Z</time></trkpt><trkpt lat="44.7444867" lon="10.5849583"><ele>38.0</ele><time>2026-04-07T16:34:27.976Z</time></trkpt><trkpt lat="44.7445783" lon="10.5850617"><ele>37.5</ele><time>2026-04-07T16:34:28.975Z</time></trkpt><trkpt lat="44.7446783" lon="10.5851867"><ele>37.0</ele><time>2026-04-07T16:34:29.976Z</time></trkpt><trkpt lat="44.744785" lon="10.5853217"><ele>36.5</ele><time>2026-04-07T16:34:30.976Z</time></trkpt><trkpt lat="44.7449" lon="10.5854467"><ele>36.0</ele><time>2026-04-07T16:34:31.976Z</time></trkpt><trkpt lat="44.7450217" lon="10.5855633"><ele>35.666666666666664</ele><time>2026-04-07T16:34:32.975Z</time></trkpt><trkpt lat="44.7451483" lon="10.585685"><ele>35.33333333333333</ele><time>2026-04-07T16:34:33.976Z</time></trkpt><trkpt lat="44.7452867" lon="10.585805"><ele>35.0</ele><time>2026-04-07T16:34:34.975Z</time></trkpt><trkpt lat="44.7454267" lon="10.5859267"><ele>35.666666666666664</ele><time>2026-04-07T16:34:35.976Z</time></trkpt><trkpt lat="44.7455683" lon="10.586045"><ele>36.333333333333336</ele><time>2026-04-07T16:34:36.976Z</time></trkpt><trkpt lat="44.7457083" lon="10.5861583"><ele>37.0</ele><time>2026-04-07T16:34:37.976Z</time></trkpt><trkpt lat="44.74585" lon="10.5862633"><ele>37.0</ele><time>2026-04-07T16:34:38.976Z</time></trkpt><trkpt lat="44.7459917" lon="10.58638"><ele>37.0</ele><time>2026-04-07T16:34:39.976Z</time></trkpt><trkpt lat="44.7461383" lon="10.586495"><ele>37.0</ele><time>2026-04-07T16:34:40.976Z</time></trkpt><trkpt lat="44.7462833" lon="10.5866133"><ele>36.66666666666667</ele><time>2026-04-07T16:34:41.976Z</time></trkpt><trkpt lat="44.7464217" lon="10.5867333"><ele>36.333333333333336</ele><time>2026-04-07T16:34:42.975Z</time></trkpt><trkpt lat="44.746565" lon="10.58685"><ele>36.0</ele><time>2026-04-07T16:34:43.976Z</time></trkpt><trkpt lat="44.7467067" lon="10.586965"><ele>35.666666666666664</ele><time>2026-04-07T16:34:44.976Z</time></trkpt><trkpt lat="44.7468417" lon="10.5870883"><ele>35.33333333333333</ele><time>2026-04-07T16:34:45.976Z</time></trkpt><trkpt lat="44.7469783" lon="10.5872033"><ele>35.0</ele><time>2026-04-07T16:34:46.976Z</time></trkpt><trkpt lat="44.74712" lon="10.5873183"><ele>35.0</ele><time>2026-04-07T16:34:47.976Z</time></trkpt><trkpt lat="44.7472667" lon="10.5874283"><ele>35.0</ele><time>2026-04-07T16:34:48.976Z</time></trkpt><trkpt lat="44.7474167" lon="10.5875267"><ele>35.0</ele><time>2026-04-07T16:34:49.976Z</time></trkpt><trkpt lat="44.74757" lon="10.5876233"><ele>34.666666666666664</ele><time>2026-04-07T16:34:50.976Z</time></trkpt><trkpt lat="44.74772" lon="10.587715"><ele>34.333333333333336</ele><time>2026-04-07T16:34:51.976Z</time></trkpt><trkpt lat="44.7478767" lon="10.5878"><ele>34.0</ele><time>2026-04-07T16:34:52.975Z</time></trkpt><trkpt lat="44.7480283" lon="10.5878733"><ele>34.5</ele><time>2026-04-07T16:34:53.975Z</time></trkpt><trkpt lat="44.7481667" lon="10.5879417"><ele>35.0</ele><time>2026-04-07T16:34:54.976Z</time></trkpt><trkpt lat="44.7483083" lon="10.588015"><ele>35.5</ele><time>2026-04-07T16:34:55.976Z</time></trkpt><trkpt lat="44.7484433" lon="10.588085"><ele>36.0</ele><time>2026-04-07T16:34:56.975Z</time></trkpt><trkpt lat="44.7485667" lon="10.5881733"><ele>36.0</ele><time>2026-04-07T16:34:57.976Z</time></trkpt><trkpt lat="44.7486633" lon="10.5882867"><ele>36.0</ele><time>2026-04-07T16:34:58.975Z</time></trkpt><trkpt lat="44.7487483" lon="10.5884483"><ele>36.0</ele><time>2026-04-07T16:34:59.976Z</time></trkpt><trkpt lat="44.7488183" lon="10.5886267"><ele>36.0</ele><time>2026-04-07T16:35:00.975Z</time></trkpt><trkpt lat="44.74889" lon="10.58882"><ele>35.75</ele><time>2026-04-07T16:35:01.975Z</time></trkpt><trkpt lat="44.74896" lon="10.5890067"><ele>35.5</ele><time>2026-04-07T16:35:02.976Z</time></trkpt><trkpt lat="44.749025" lon="10.5891833"><ele>35.25</ele><time>2026-04-07T16:35:03.976Z</time></trkpt><trkpt lat="44.74909" lon="10.5893483"><ele>35.0</ele><time>2026-04-07T16:35:04.976Z</time></trkpt><trkpt lat="44.7491567" lon="10.5895083"><ele>35.25</ele><time>2026-04-07T16:35:05.976Z</time></trkpt><trkpt lat="44.7492283" lon="10.5896583"><ele>35.5</ele><time>2026-04-07T16:35:06.976Z</time></trkpt><trkpt lat="44.7493067" lon="10.5898117"><ele>35.75</ele><time>2026-04-07T16:35:07.976Z</time></trkpt><trkpt lat="44.74939" lon="10.5899617"><ele>36.0</ele><time>2026-04-07T16:35:08.975Z</time></trkpt><trkpt lat="44.7494867" lon="10.5901183"><ele>35.666666666666664</ele><time>2026-04-07T16:35:09.976Z</time></trkpt><trkpt lat="44.7495933" lon="10.59028"><ele>35.33333333333333</ele><time>2026-04-07T16:35:10.975Z</time></trkpt><trkpt lat="44.7496983" lon="10.5904383"><ele>35.0</ele><time>2026-04-07T16:35:11.975Z</time></trkpt><trkpt lat="44.7498117" lon="10.5906017"><ele>35.0</ele><time>2026-04-07T16:35:12.975Z</time></trkpt><trkpt lat="44.7499367" lon="10.5907717"><ele>35.0</ele><time>2026-04-07T16:35:13.975Z</time></trkpt><trkpt lat="44.7500733" lon="10.5909467"><ele>35.0</ele><time>2026-04-07T16:35:14.975Z</time></trkpt><trkpt lat="44.7502067" lon="10.5911267"><ele>34.666666666666664</ele><time>2026-04-07T16:35:15.975Z</time></trkpt><trkpt lat="44.7503517" lon="10.5913117"><ele>34.333333333333336</ele><time>2026-04-07T16:35:16.975Z</time></trkpt><trkpt lat="44.7505017" lon="10.5914933"><ele>34.0</ele><time>2026-04-07T16:35:17.974Z</time></trkpt><trkpt lat="44.75065" lon="10.5916717"><ele>34.0</ele><time>2026-04-07T16:35:18.975Z</time></trkpt><trkpt lat="44.7507933" lon="10.5918417"><ele>34.0</ele><time>2026-04-07T16:35:19.975Z</time></trkpt><trkpt lat="44.7509367" lon="10.592005"><ele>34.0</ele><time>2026-04-07T16:35:20.975Z</time></trkpt><trkpt lat="44.7510783" lon="10.59217"><ele>34.0</ele><time>2026-04-07T16:35:21.974Z</time></trkpt><trkpt lat="44.7512217" lon="10.59233"><ele>34.0</ele><time>2026-04-07T16:35:22.975Z</time></trkpt><trkpt lat="44.7513717" lon="10.5924883"><ele>34.0</ele><time>2026-04-07T16:35:23.975Z</time></trkpt><trkpt lat="44.7515183" lon="10.5926483"><ele>34.0</ele><time>2026-04-07T16:35:24.975Z</time></trkpt><trkpt lat="44.7516667" lon="10.5927933"><ele>34.0</ele><time>2026-04-07T16:35:25.975Z</time></trkpt><trkpt lat="44.75181" lon="10.5929267"><ele>34.0</ele><time>2026-04-07T16:35:26.975Z</time></trkpt><trkpt lat="44.7519533" lon="10.593045"><ele>34.5</ele><time>2026-04-07T16:35:27.974Z</time></trkpt><trkpt lat="44.75209" lon="10.5931567"><ele>35.0</ele><time>2026-04-07T16:35:28.975Z</time></trkpt><trkpt lat="44.752225" lon="10.59325"><ele>35.5</ele><time>2026-04-07T16:35:29.975Z</time></trkpt><trkpt lat="44.7523533" lon="10.5933317"><ele>36.0</ele><time>2026-04-07T16:35:30.975Z</time></trkpt><trkpt lat="44.7524717" lon="10.59342"><ele>36.0</ele><time>2026-04-07T16:35:31.975Z</time></trkpt><trkpt lat="44.7525983" lon="10.5934867"><ele>36.0</ele><time>2026-04-07T16:35:32.975Z</time></trkpt><trkpt lat="44.75272" lon="10.59356"><ele>36.0</ele><time>2026-04-07T16:35:33.975Z</time></trkpt><trkpt lat="44.752835" lon="10.5936283"><ele>36.0</ele><time>2026-04-07T16:35:34.975Z</time></trkpt><trkpt lat="44.7529333" lon="10.5936833"><ele>36.0</ele><time>2026-04-07T16:35:35.975Z</time></trkpt><trkpt lat="44.753015" lon="10.593745"><ele>36.0</ele><time>2026-04-07T16:35:36.974Z</time></trkpt><trkpt lat="44.7530783" lon="10.5938217"><ele>36.0</ele><time>2026-04-07T16:35:37.975Z</time></trkpt><trkpt lat="44.7531283" lon="10.5938933"><ele>36.0</ele><time>2026-04-07T16:35:38.974Z</time></trkpt><trkpt lat="44.7531717" lon="10.59397"><ele>36.0</ele><time>2026-04-07T16:35:39.974Z</time></trkpt><trkpt lat="44.7532133" lon="10.59405"><ele>36.0</ele><time>2026-04-07T16:35:40.975Z</time></trkpt><trkpt lat="44.75326" lon="10.5941267"><ele>36.0</ele><time>2026-04-07T16:35:41.975Z</time></trkpt><trkpt lat="44.7533233" lon="10.594185"><ele>36.0</ele><time>2026-04-07T16:35:42.975Z</time></trkpt><trkpt lat="44.7534133" lon="10.5942217"><ele>36.0</ele><time>2026-04-07T16:35:43.975Z</time></trkpt><trkpt lat="44.7535067" lon="10.59424"><ele>36.0</ele><time>2026-04-07T16:35:44.975Z</time></trkpt><trkpt lat="44.75361" lon="10.5942467"><ele>36.0</ele><time>2026-04-07T16:35:45.975Z</time></trkpt><trkpt lat="44.753715" lon="10.5942817"><ele>36.0</ele><time>2026-04-07T16:35:46.975Z</time></trkpt><trkpt lat="44.7538267" lon="10.5943383"><ele>36.0</ele><time>2026-04-07T16:35:47.975Z</time></trkpt><trkpt lat="44.7539583" lon="10.59441"><ele>36.0</ele><time>2026-04-07T16:35:48.975Z</time></trkpt><trkpt lat="44.7540767" lon="10.5944967"><ele>36.0</ele><time>2026-04-07T16:35:49.975Z</time></trkpt><trkpt lat="44.7541883" lon="10.5945783"><ele>36.0</ele><time>2026-04-07T16:35:50.975Z</time></trkpt><trkpt lat="44.7543167" lon="10.5946583"><ele>36.0</ele><time>2026-04-07T16:35:51.975Z</time></trkpt><trkpt lat="44.75444" lon="10.5947467"><ele>36.0</ele><time>2026-04-07T16:35:52.975Z</time></trkpt><trkpt lat="44.7545733" lon="10.5948183"><ele>36.0</ele><time>2026-04-07T16:35:53.975Z</time></trkpt><trkpt lat="44.7547017" lon="10.59487"><ele>35.75</ele><time>2026-04-07T16:35:54.975Z</time></trkpt><trkpt lat="44.7548333" lon="10.5949117"><ele>35.5</ele><time>2026-04-07T16:35:55.975Z</time></trkpt><trkpt lat="44.75497" lon="10.5949517"><ele>35.25</ele><time>2026-04-07T16:35:56.975Z</time></trkpt><trkpt lat="44.75511" lon="10.59498"><ele>35.0</ele><time>2026-04-07T16:35:57.975Z</time></trkpt><trkpt lat="44.755255" lon="10.595005"><ele>35.0</ele><time>2026-04-07T16:35:58.975Z</time></trkpt><trkpt lat="44.7554017" lon="10.5950167"><ele>35.0</ele><time>2026-04-07T16:35:59.975Z</time></trkpt><trkpt lat="44.7555517" lon="10.5950233"><ele>35.0</ele><time>2026-04-07T16:36:00.975Z</time></trkpt><trkpt lat="44.7557033" lon="10.5950117"><ele>35.0</ele><time>2026-04-07T16:36:01.975Z</time></trkpt><trkpt lat="44.7558483" lon="10.59501"><ele>35.0</ele><time>2026-04-07T16:36:02.974Z</time></trkpt><trkpt lat="44.7559867" lon="10.5950033"><ele>35.0</ele><time>2026-04-07T16:36:03.975Z</time></trkpt><trkpt lat="44.7561033" lon="10.59499"><ele>35.0</ele><time>2026-04-07T16:36:04.975Z</time></trkpt><trkpt lat="44.75623" lon="10.594995"><ele>35.0</ele><time>2026-04-07T16:36:05.975Z</time></trkpt><trkpt lat="44.75635" lon="10.5950183"><ele>35.0</ele><time>2026-04-07T16:36:06.975Z</time></trkpt><trkpt lat="44.75647" lon="10.5950483"><ele>35.0</ele><time>2026-04-07T16:36:07.974Z</time></trkpt><trkpt lat="44.7565917" lon="10.5950717"><ele>35.0</ele><time>2026-04-07T16:36:08.975Z</time></trkpt><trkpt lat="44.7567117" lon="10.5951033"><ele>35.0</ele><time>2026-04-07T16:36:09.975Z</time></trkpt><trkpt lat="44.756835" lon="10.595135"><ele>34.75</ele><time>2026-04-07T16:36:10.974Z</time></trkpt><trkpt lat="44.7569517" lon="10.5951633"><ele>34.5</ele><time>2026-04-07T16:36:11.974Z</time></trkpt><trkpt lat="44.75707" lon="10.5951917"><ele>34.25</ele><time>2026-04-07T16:36:12.975Z</time></trkpt><trkpt lat="44.7571967" lon="10.59521"><ele>34.0</ele><time>2026-04-07T16:36:13.974Z</time></trkpt><trkpt lat="44.7573333" lon="10.5952267"><ele>34.0</ele><time>2026-04-07T16:36:14.975Z</time></trkpt><trkpt lat="44.7574683" lon="10.5952467"><ele>34.0</ele><time>2026-04-07T16:36:15.975Z</time></trkpt><trkpt lat="44.7576067" lon="10.595275"><ele>34.0</ele><time>2026-04-07T16:36:16.975Z</time></trkpt><trkpt lat="44.7577433" lon="10.5953083"><ele>34.0</ele><time>2026-04-07T16:36:17.975Z</time></trkpt><trkpt lat="44.7578883" lon="10.5953267"><ele>34.0</ele><time>2026-04-07T16:36:18.975Z</time></trkpt><trkpt lat="44.7580267" lon="10.59535"><ele>34.0</ele><time>2026-04-07T16:36:19.975Z</time></trkpt><trkpt lat="44.7581783" lon="10.5953367"><ele>34.0</ele><time>2026-04-07T16:36:20.974Z</time></trkpt><trkpt lat="44.7583267" lon="10.5952917"><ele>34.0</ele><time>2026-04-07T16:36:21.975Z</time></trkpt><trkpt lat="44.7584733" lon="10.595245"><ele>33.333333333333336</ele><time>2026-04-07T16:36:22.974Z</time></trkpt><trkpt lat="44.7586183" lon="10.5951883"><ele>32.666666666666664</ele><time>2026-04-07T16:36:23.975Z</time></trkpt><trkpt lat="44.7587667" lon="10.59513"><ele>32.0</ele><time>2026-04-07T16:36:24.974Z</time></trkpt><trkpt lat="44.7589083" lon="10.5950683"><ele>32.0</ele><time>2026-04-07T16:36:25.975Z</time></trkpt><trkpt lat="44.759035" lon="10.5950017"><ele>32.0</ele><time>2026-04-07T16:36:26.975Z</time></trkpt><trkpt lat="44.75916" lon="10.5949517"><ele>32.0</ele><time>2026-04-07T16:36:27.975Z</time></trkpt><trkpt lat="44.7592733" lon="10.5949117"><ele>32.0</ele><time>2026-04-07T16:36:28.975Z</time></trkpt><trkpt lat="44.75938" lon="10.594875"><ele>32.5</ele><time>2026-04-07T16:36:29.975Z</time></trkpt><trkpt lat="44.7594783" lon="10.5948567"><ele>33.0</ele><time>2026-04-07T16:36:30.975Z</time></trkpt><trkpt lat="44.7595683" lon="10.5948517"><ele>33.5</ele><time>2026-04-07T16:36:31.974Z</time></trkpt><trkpt lat="44.7596567" lon="10.5948633"><ele>34.0</ele><time>2026-04-07T16:36:32.975Z</time></trkpt><trkpt lat="44.7597333" lon="10.594885"><ele>34.5</ele><time>2026-04-07T16:36:33.975Z</time></trkpt><trkpt lat="44.7598033" lon="10.59491"><ele>35.0</ele><time>2026-04-07T16:36:34.974Z</time></trkpt><trkpt lat="44.7598683" lon="10.5949433"><ele>35.0</ele><time>2026-04-07T16:36:35.975Z</time></trkpt><trkpt lat="44.7599783" lon="10.5949933"><ele>35.0</ele><time>2026-04-07T16:36:37.975Z</time></trkpt><trkpt lat="44.7600667" lon="10.5950817"><ele>35.0</ele><time>2026-04-07T16:36:39.975Z</time></trkpt><trkpt lat="44.760125" lon="10.5952317"><ele>35.0</ele><time>2026-04-07T16:36:41.975Z</time></trkpt><trkpt lat="44.7600817" lon="10.5954"><ele>35.0</ele><time>2026-04-07T16:36:43.975Z</time></trkpt><trkpt lat="44.7600433" lon="10.595505"><ele>35.0</ele><time>2026-04-07T16:36:44.975Z</time></trkpt><trkpt lat="44.7600183" lon="10.5956183"><ele>35.0</ele><time>2026-04-07T16:36:45.974Z</time></trkpt><trkpt lat="44.76" lon="10.5957467"><ele>35.0</ele><time>2026-04-07T16:36:46.975Z</time></trkpt><trkpt lat="44.7599917" lon="10.595875"><ele>35.0</ele><time>2026-04-07T16:36:47.974Z</time></trkpt><trkpt lat="44.7599883" lon="10.5959967"><ele>35.0</ele><time>2026-04-07T16:36:48.975Z</time></trkpt><trkpt lat="44.7599733" lon="10.59611"><ele>35.0</ele><time>2026-04-07T16:36:49.974Z</time></trkpt><trkpt lat="44.7599667" lon="10.5962183"><ele>35.0</ele><time>2026-04-07T16:36:50.975Z</time></trkpt><trkpt lat="44.7599583" lon="10.5963317"><ele>35.0</ele><time>2026-04-07T16:36:51.975Z</time></trkpt><trkpt lat="44.7599567" lon="10.5964417"><ele>35.0</ele><time>2026-04-07T16:36:52.975Z</time></trkpt><trkpt lat="44.7599467" lon="10.5965433"><ele>35.0</ele><time>2026-04-07T16:36:53.975Z</time></trkpt><trkpt lat="44.75994" lon="10.5966483"><ele>35.0</ele><time>2026-04-07T16:36:54.974Z</time></trkpt><trkpt lat="44.759935" lon="10.5967583"><ele>35.0</ele><time>2026-04-07T16:36:55.975Z</time></trkpt><trkpt lat="44.7599333" lon="10.5968717"><ele>35.0</ele><time>2026-04-07T16:36:56.975Z</time></trkpt><trkpt lat="44.7599283" lon="10.59699"><ele>35.0</ele><time>2026-04-07T16:36:57.975Z</time></trkpt><trkpt lat="44.75993" lon="10.59711"><ele>35.0</ele><time>2026-04-07T16:36:58.975Z</time></trkpt><trkpt lat="44.7599317" lon="10.5972267"><ele>35.0</ele><time>2026-04-07T16:36:59.975Z</time></trkpt><trkpt lat="44.7599267" lon="10.597335"><ele>35.0</ele><time>2026-04-07T16:37:00.975Z</time></trkpt><trkpt lat="44.7599217" lon="10.5974317"><ele>35.0</ele><time>2026-04-07T16:37:01.975Z</time></trkpt><trkpt lat="44.7599117" lon="10.59752"><ele>35.0</ele><time>2026-04-07T16:37:02.975Z</time></trkpt><trkpt lat="44.7599067" lon="10.5976717"><ele>35.0</ele><time>2026-04-07T16:37:04.974Z</time></trkpt><trkpt lat="44.7599233" lon="10.5977767"><ele>35.0</ele><time>2026-04-07T16:37:06.974Z</time></trkpt><trkpt lat="44.7599683" lon="10.5978533"><ele>35.0</ele><time>2026-04-07T16:37:08.975Z</time></trkpt><trkpt lat="44.7600533" lon="10.5978767"><ele>35.0</ele><time>2026-04-07T16:37:10.975Z</time></trkpt><trkpt lat="44.7601733" lon="10.597875"><ele>35.0</ele><time>2026-04-07T16:37:12.975Z</time></trkpt><trkpt lat="44.7602883" lon="10.59787"><ele>35.0</ele><time>2026-04-07T16:37:14.975Z</time></trkpt><trkpt lat="44.7603617" lon="10.5978733"><ele>35.0</ele><time>2026-04-07T16:37:15.975Z</time></trkpt><trkpt lat="44.7604267" lon="10.5978783"><ele>35.0</ele><time>2026-04-07T16:37:16.975Z</time></trkpt><trkpt lat="44.7605033" lon="10.597875"><ele>35.0</ele><time>2026-04-07T16:37:17.975Z</time></trkpt><trkpt lat="44.7605833" lon="10.5978717"><ele>35.0</ele><time>2026-04-07T16:37:18.975Z</time></trkpt><trkpt lat="44.7606683" lon="10.5978667"><ele>35.0</ele><time>2026-04-07T16:37:19.975Z</time></trkpt><trkpt lat="44.7607483" lon="10.5978583"><ele>35.0</ele><time>2026-04-07T16:37:20.975Z</time></trkpt><trkpt lat="44.76084" lon="10.597855"><ele>35.0</ele><time>2026-04-07T16:37:21.975Z</time></trkpt><trkpt lat="44.760925" lon="10.5978383"><ele>35.0</ele><time>2026-04-07T16:37:22.974Z</time></trkpt><trkpt lat="44.7610033" lon="10.5978367"><ele>35.0</ele><time>2026-04-07T16:37:23.974Z</time></trkpt><trkpt lat="44.7610833" lon="10.5978333"><ele>35.0</ele><time>2026-04-07T16:37:24.975Z</time></trkpt><trkpt lat="44.7611483" lon="10.5978233"><ele>35.0</ele><time>2026-04-07T16:37:25.975Z</time></trkpt><trkpt lat="44.7612233" lon="10.5978183"><ele>35.0</ele><time>2026-04-07T16:37:26.975Z</time></trkpt><trkpt lat="44.7613" lon="10.5978183"><ele>35.0</ele><time>2026-04-07T16:37:27.975Z</time></trkpt><trkpt lat="44.7613767" lon="10.59782"><ele>35.0</ele><time>2026-04-07T16:37:28.975Z</time></trkpt><trkpt lat="44.7614517" lon="10.5978183"><ele>35.0</ele><time>2026-04-07T16:37:29.975Z</time></trkpt><trkpt lat="44.76152" lon="10.5978017"><ele>35.0</ele><time>2026-04-07T16:37:30.975Z</time></trkpt><trkpt lat="44.7616417" lon="10.597795"><ele>35.0</ele><time>2026-04-07T16:37:32.975Z</time></trkpt><trkpt lat="44.7617533" lon="10.5977933"><ele>35.0</ele><time>2026-04-07T16:37:34.975Z</time></trkpt><trkpt lat="44.76182" lon="10.59781"><ele>35.0</ele><time>2026-04-07T16:37:36.975Z</time></trkpt><trkpt lat="44.7618533" lon="10.5978933"><ele>35.0</ele><time>2026-04-07T16:37:48.974Z</time></trkpt><trkpt lat="44.7618383" lon="10.59798"><ele>35.0</ele><time>2026-04-07T16:37:50.975Z</time></trkpt><trkpt lat="44.7618067" lon="10.5981017"><ele>35.0</ele><time>2026-04-07T16:37:52.975Z</time></trkpt><trkpt lat="44.7617633" lon="10.5982517"><ele>35.2</ele><time>2026-04-07T16:37:54.975Z</time></trkpt><trkpt lat="44.7617283" lon="10.5984083"><ele>35.4</ele><time>2026-04-07T16:37:56.975Z</time></trkpt><trkpt lat="44.7616817" lon="10.59857"><ele>35.6</ele><time>2026-04-07T16:37:58.975Z</time></trkpt><trkpt lat="44.7616633" lon="10.5986683"><ele>35.8</ele><time>2026-04-07T16:37:59.975Z</time></trkpt><trkpt lat="44.7616333" lon="10.598775"><ele>36.0</ele><time>2026-04-07T16:38:00.974Z</time></trkpt><trkpt lat="44.7616033" lon="10.5988833"><ele>36.0</ele><time>2026-04-07T16:38:01.974Z</time></trkpt><trkpt lat="44.7615733" lon="10.5989967"><ele>36.0</ele><time>2026-04-07T16:38:02.975Z</time></trkpt><trkpt lat="44.761535" lon="10.5991067"><ele>36.0</ele><time>2026-04-07T16:38:03.975Z</time></trkpt><trkpt lat="44.7615033" lon="10.599215"><ele>36.0</ele><time>2026-04-07T16:38:04.975Z</time></trkpt><trkpt lat="44.76147" lon="10.59932"><ele>36.0</ele><time>2026-04-07T16:38:05.975Z</time></trkpt><trkpt lat="44.7614417" lon="10.5994283"><ele>36.0</ele><time>2026-04-07T16:38:06.974Z</time></trkpt><trkpt lat="44.7614183" lon="10.5995267"><ele>35.8</ele><time>2026-04-07T16:38:07.975Z</time></trkpt><trkpt lat="44.7613967" lon="10.5996167"><ele>35.6</ele><time>2026-04-07T16:38:08.974Z</time></trkpt><trkpt lat="44.761375" lon="10.5997083"><ele>35.4</ele><time>2026-04-07T16:38:09.975Z</time></trkpt><trkpt lat="44.7613367" lon="10.5998783"><ele>35.2</ele><time>2026-04-07T16:38:11.975Z</time></trkpt><trkpt lat="44.76128" lon="10.5999967"><ele>35.0</ele><time>2026-04-07T16:38:13.975Z</time></trkpt><trkpt lat="44.7613133" lon="10.6001217"><ele>35.0</ele><time>2026-04-07T16:38:22.975Z</time></trkpt><trkpt lat="44.7614417" lon="10.6001967"><ele>35.0</ele><time>2026-04-07T16:38:24.975Z</time></trkpt><trkpt lat="44.76153" lon="10.600235"><ele>35.0</ele><time>2026-04-07T16:38:25.974Z</time></trkpt><trkpt lat="44.761625" lon="10.6002717"><ele>35.0</ele><time>2026-04-07T16:38:26.974Z</time></trkpt><trkpt lat="44.7617267" lon="10.6003033"><ele>35.0</ele><time>2026-04-07T16:38:27.975Z</time></trkpt><trkpt lat="44.7618217" lon="10.6003267"><ele>34.83333333333333</ele><time>2026-04-07T16:38:28.975Z</time></trkpt><trkpt lat="44.761915" lon="10.6003567"><ele>34.666666666666664</ele><time>2026-04-07T16:38:29.975Z</time></trkpt><trkpt lat="44.7619967" lon="10.6003917"><ele>34.5</ele><time>2026-04-07T16:38:30.974Z</time></trkpt><trkpt lat="44.7620667" lon="10.60042"><ele>34.333333333333336</ele><time>2026-04-07T16:38:31.975Z</time></trkpt><trkpt lat="44.7621417" lon="10.6004533"><ele>34.16666666666667</ele><time>2026-04-07T16:38:32.975Z</time></trkpt><trkpt lat="44.7622133" lon="10.6004783"><ele>34.0</ele><time>2026-04-07T16:38:33.975Z</time></trkpt><trkpt lat="44.7622933" lon="10.600505"><ele>34.0</ele><time>2026-04-07T16:38:34.975Z</time></trkpt><trkpt lat="44.76238" lon="10.60055"><ele>34.0</ele><time>2026-04-07T16:38:35.975Z</time></trkpt><trkpt lat="44.762475" lon="10.600585"><ele>34.0</ele><time>2026-04-07T16:38:36.975Z</time></trkpt><trkpt lat="44.7625767" lon="10.600605"><ele>34.0</ele><time>2026-04-07T16:38:37.975Z</time></trkpt><trkpt lat="44.7626817" lon="10.6006267"><ele>34.0</ele><time>2026-04-07T16:38:38.974Z</time></trkpt><trkpt lat="44.762785" lon="10.6006567"><ele>34.25</ele><time>2026-04-07T16:38:39.975Z</time></trkpt><trkpt lat="44.7628883" lon="10.6006933"><ele>34.5</ele><time>2026-04-07T16:38:40.975Z</time></trkpt><trkpt lat="44.7629967" lon="10.6007333"><ele>34.75</ele><time>2026-04-07T16:38:41.975Z</time></trkpt><trkpt lat="44.7631083" lon="10.600785"><ele>35.0</ele><time>2026-04-07T16:38:42.975Z</time></trkpt><trkpt lat="44.76323" lon="10.6008333"><ele>35.0</ele><time>2026-04-07T16:38:43.975Z</time></trkpt><trkpt lat="44.76336" lon="10.6008917"><ele>35.0</ele><time>2026-04-07T16:38:44.975Z</time></trkpt><trkpt lat="44.7634833" lon="10.600935"><ele>35.0</ele><time>2026-04-07T16:38:45.975Z</time></trkpt><trkpt lat="44.7636" lon="10.6009767"><ele>35.0</ele><time>2026-04-07T16:38:46.975Z</time></trkpt><trkpt lat="44.7637167" lon="10.601015"><ele>34.75</ele><time>2026-04-07T16:38:47.975Z</time></trkpt><trkpt lat="44.76383" lon="10.60106"><ele>34.5</ele><time>2026-04-07T16:38:48.975Z</time></trkpt><trkpt lat="44.76395" lon="10.6011167"><ele>34.25</ele><time>2026-04-07T16:38:49.975Z</time></trkpt><trkpt lat="44.7640633" lon="10.6011867"><ele>34.0</ele><time>2026-04-07T16:38:50.975Z</time></trkpt><trkpt lat="44.7641833" lon="10.6012333"><ele>34.5</ele><time>2026-04-07T16:38:51.974Z</time></trkpt><trkpt lat="44.76431" lon="10.6012917"><ele>35.0</ele><time>2026-04-07T16:38:52.975Z</time></trkpt><trkpt lat="44.7644333" lon="10.6013517"><ele>35.5</ele><time>2026-04-07T16:38:53.975Z</time></trkpt><trkpt lat="44.7645533" lon="10.6014033"><ele>36.0</ele><time>2026-04-07T16:38:54.974Z</time></trkpt><trkpt lat="44.76467" lon="10.6014633"><ele>36.25</ele><time>2026-04-07T16:38:55.974Z</time></trkpt><trkpt lat="44.7647867" lon="10.6015183"><ele>36.5</ele><time>2026-04-07T16:38:56.975Z</time></trkpt><trkpt lat="44.7649083" lon="10.6015783"><ele>36.75</ele><time>2026-04-07T16:38:57.975Z</time></trkpt><trkpt lat="44.7650233" lon="10.6016483"><ele>37.0</ele><time>2026-04-07T16:38:58.975Z</time></trkpt><trkpt lat="44.7651367" lon="10.601715"><ele>36.5</ele><time>2026-04-07T16:38:59.975Z</time></trkpt><trkpt lat="44.7652517" lon="10.6017883"><ele>36.0</ele><time>2026-04-07T16:39:00.975Z</time></trkpt><trkpt lat="44.7653667" lon="10.60185"><ele>35.5</ele><time>2026-04-07T16:39:01.975Z</time></trkpt><trkpt lat="44.7654917" lon="10.6019267"><ele>35.0</ele><time>2026-04-07T16:39:02.975Z</time></trkpt><trkpt lat="44.7656117" lon="10.601985"><ele>35.25</ele><time>2026-04-07T16:39:03.975Z</time></trkpt><trkpt lat="44.765735" lon="10.6020467"><ele>35.5</ele><time>2026-04-07T16:39:04.975Z</time></trkpt><trkpt lat="44.765855" lon="10.6021117"><ele>35.75</ele><time>2026-04-07T16:39:05.975Z</time></trkpt><trkpt lat="44.7659733" lon="10.602175"><ele>36.0</ele><time>2026-04-07T16:39:06.974Z</time></trkpt><trkpt lat="44.7660933" lon="10.602235"><ele>36.0</ele><time>2026-04-07T16:39:07.975Z</time></trkpt><trkpt lat="44.7662167" lon="10.6023017"><ele>36.0</ele><time>2026-04-07T16:39:08.974Z</time></trkpt><trkpt lat="44.766335" lon="10.6023617"><ele>36.0</ele><time>2026-04-07T16:39:09.975Z</time></trkpt><trkpt lat="44.7664517" lon="10.6024233"><ele>36.0</ele><time>2026-04-07T16:39:10.975Z</time></trkpt><trkpt lat="44.7665783" lon="10.6024817"><ele>36.0</ele><time>2026-04-07T16:39:11.975Z</time></trkpt><trkpt lat="44.7667" lon="10.6025383"><ele>36.0</ele><time>2026-04-07T16:39:12.974Z</time></trkpt><trkpt lat="44.7668233" lon="10.602585"><ele>36.0</ele><time>2026-04-07T16:39:13.975Z</time></trkpt><trkpt lat="44.7669367" lon="10.6026333"><ele>36.0</ele><time>2026-04-07T16:39:14.975Z</time></trkpt><trkpt lat="44.7670417" lon="10.6026683"><ele>35.6</ele><time>2026-04-07T16:39:15.975Z</time></trkpt><trkpt lat="44.767145" lon="10.6027067"><ele>35.2</ele><time>2026-04-07T16:39:16.975Z</time></trkpt><trkpt lat="44.76724" lon="10.6027383"><ele>34.8</ele><time>2026-04-07T16:39:17.975Z</time></trkpt><trkpt lat="44.76734" lon="10.602765"><ele>34.4</ele><time>2026-04-07T16:39:18.975Z</time></trkpt><trkpt lat="44.7674483" lon="10.6028033"><ele>34.0</ele><time>2026-04-07T16:39:19.975Z</time></trkpt><trkpt lat="44.7675433" lon="10.6028233"><ele>34.2</ele><time>2026-04-07T16:39:20.975Z</time></trkpt><trkpt lat="44.7676333" lon="10.6028383"><ele>34.4</ele><time>2026-04-07T16:39:21.974Z</time></trkpt><trkpt lat="44.7677183" lon="10.6028567"><ele>34.6</ele><time>2026-04-07T16:39:22.974Z</time></trkpt><trkpt lat="44.76781" lon="10.60289"><ele>34.8</ele><time>2026-04-07T16:39:23.974Z</time></trkpt><trkpt lat="44.7679033" lon="10.6029167"><ele>35.0</ele><time>2026-04-07T16:39:24.975Z</time></trkpt><trkpt lat="44.7680083" lon="10.6029483"><ele>34.5</ele><time>2026-04-07T16:39:25.974Z</time></trkpt><trkpt lat="44.7681183" lon="10.60298"><ele>34.0</ele><time>2026-04-07T16:39:26.975Z</time></trkpt><trkpt lat="44.7682283" lon="10.6030117"><ele>33.5</ele><time>2026-04-07T16:39:27.975Z</time></trkpt><trkpt lat="44.76834" lon="10.6030433"><ele>33.0</ele><time>2026-04-07T16:39:28.975Z</time></trkpt><trkpt lat="44.7684533" lon="10.6030817"><ele>33.0</ele><time>2026-04-07T16:39:29.975Z</time></trkpt><trkpt lat="44.76858" lon="10.6031167"><ele>33.0</ele><time>2026-04-07T16:39:30.975Z</time></trkpt><trkpt lat="44.7687183" lon="10.6031583"><ele>33.0</ele><time>2026-04-07T16:39:31.975Z</time></trkpt><trkpt lat="44.76887" lon="10.6032133"><ele>33.0</ele><time>2026-04-07T16:39:32.975Z</time></trkpt><trkpt lat="44.7690033" lon="10.603275"><ele>33.0</ele><time>2026-04-07T16:39:33.974Z</time></trkpt><trkpt lat="44.7691467" lon="10.603335"><ele>33.0</ele><time>2026-04-07T16:39:34.975Z</time></trkpt><trkpt lat="44.7692883" lon="10.6033867"><ele>33.0</ele><time>2026-04-07T16:39:35.975Z</time></trkpt><trkpt lat="44.7694283" lon="10.6034433"><ele>33.0</ele><time>2026-04-07T16:39:36.974Z</time></trkpt><trkpt lat="44.769565" lon="10.6034983"><ele>33.0</ele><time>2026-04-07T16:39:37.974Z</time></trkpt><trkpt lat="44.7696817" lon="10.603545"><ele>33.0</ele><time>2026-04-07T16:39:38.975Z</time></trkpt><trkpt lat="44.7697833" lon="10.6035833"><ele>33.0</ele><time>2026-04-07T16:39:39.975Z</time></trkpt><trkpt lat="44.7698783" lon="10.6036167"><ele>33.0</ele><time>2026-04-07T16:39:40.974Z</time></trkpt><trkpt lat="44.7699717" lon="10.6036467"><ele>33.0</ele><time>2026-04-07T16:39:41.975Z</time></trkpt><trkpt lat="44.770055" lon="10.603685"><ele>33.0</ele><time>2026-04-07T16:39:42.975Z</time></trkpt><trkpt lat="44.7701317" lon="10.6037133"><ele>33.0</ele><time>2026-04-07T16:39:43.974Z</time></trkpt><trkpt lat="44.7702117" lon="10.60374"><ele>33.0</ele><time>2026-04-07T16:39:44.975Z</time></trkpt><trkpt lat="44.77029" lon="10.60378"><ele>33.0</ele><time>2026-04-07T16:39:45.974Z</time></trkpt><trkpt lat="44.7703717" lon="10.6038233"><ele>33.0</ele><time>2026-04-07T16:39:46.975Z</time></trkpt><trkpt lat="44.7704617" lon="10.6038567"><ele>33.0</ele><time>2026-04-07T16:39:47.974Z</time></trkpt><trkpt lat="44.7705567" lon="10.6038983"><ele>33.0</ele><time>2026-04-07T16:39:48.975Z</time></trkpt><trkpt lat="44.7706667" lon="10.6039467"><ele>33.0</ele><time>2026-04-07T16:39:49.975Z</time></trkpt><trkpt lat="44.7707733" lon="10.60399"><ele>33.0</ele><time>2026-04-07T16:39:50.975Z</time></trkpt><trkpt lat="44.77089" lon="10.6040317"><ele>33.0</ele><time>2026-04-07T16:39:51.974Z</time></trkpt><trkpt lat="44.771015" lon="10.604085"><ele>32.75</ele><time>2026-04-07T16:39:52.975Z</time></trkpt><trkpt lat="44.7711433" lon="10.604135"><ele>32.5</ele><time>2026-04-07T16:39:53.975Z</time></trkpt><trkpt lat="44.7712733" lon="10.6041783"><ele>32.25</ele><time>2026-04-07T16:39:54.975Z</time></trkpt><trkpt lat="44.7713933" lon="10.604215"><ele>32.0</ele><time>2026-04-07T16:39:55.975Z</time></trkpt><trkpt lat="44.7715167" lon="10.60426"><ele>32.0</ele><time>2026-04-07T16:39:56.974Z</time></trkpt><trkpt lat="44.7716517" lon="10.60431"><ele>32.0</ele><time>2026-04-07T16:39:57.975Z</time></trkpt><trkpt lat="44.77177" lon="10.6043567"><ele>32.0</ele><time>2026-04-07T16:39:58.975Z</time></trkpt><trkpt lat="44.7718817" lon="10.6044033"><ele>32.0</ele><time>2026-04-07T16:39:59.975Z</time></trkpt><trkpt lat="44.771985" lon="10.6044517"><ele>32.0</ele><time>2026-04-07T16:40:00.975Z</time></trkpt><trkpt lat="44.7720883" lon="10.6044983"><ele>32.0</ele><time>2026-04-07T16:40:01.975Z</time></trkpt><trkpt lat="44.772195" lon="10.6045467"><ele>32.0</ele><time>2026-04-07T16:40:02.974Z</time></trkpt><trkpt lat="44.7723" lon="10.6045983"><ele>32.0</ele><time>2026-04-07T16:40:03.974Z</time></trkpt><trkpt lat="44.7724083" lon="10.604645"><ele>32.0</ele><time>2026-04-07T16:40:04.975Z</time></trkpt><trkpt lat="44.7725283" lon="10.6046933"><ele>32.0</ele><time>2026-04-07T16:40:05.975Z</time></trkpt><trkpt lat="44.7726483" lon="10.6047383"><ele>32.0</ele><time>2026-04-07T16:40:06.975Z</time></trkpt><trkpt lat="44.77277" lon="10.6047883"><ele>32.0</ele><time>2026-04-07T16:40:07.974Z</time></trkpt><trkpt lat="44.772895" lon="10.604845"><ele>32.0</ele><time>2026-04-07T16:40:08.974Z</time></trkpt><trkpt lat="44.7730033" lon="10.6048867"><ele>32.0</ele><time>2026-04-07T16:40:09.975Z</time></trkpt><trkpt lat="44.773115" lon="10.6049333"><ele>32.0</ele><time>2026-04-07T16:40:10.975Z</time></trkpt><trkpt lat="44.77323" lon="10.6049817"><ele>32.0</ele><time>2026-04-07T16:40:11.975Z</time></trkpt><trkpt lat="44.77334" lon="10.6050217"><ele>32.0</ele><time>2026-04-07T16:40:12.974Z</time></trkpt><trkpt lat="44.7734483" lon="10.60507"><ele>32.0</ele><time>2026-04-07T16:40:13.975Z</time></trkpt><trkpt lat="44.7735567" lon="10.605125"><ele>32.0</ele><time>2026-04-07T16:40:14.975Z</time></trkpt><trkpt lat="44.773665" lon="10.6051867"><ele>32.0</ele><time>2026-04-07T16:40:15.974Z</time></trkpt><trkpt lat="44.77376" lon="10.6052433"><ele>32.0</ele><time>2026-04-07T16:40:16.975Z</time></trkpt><trkpt lat="44.77386" lon="10.6052967"><ele>32.0</ele><time>2026-04-07T16:40:17.975Z</time></trkpt><trkpt lat="44.7739667" lon="10.6053367"><ele>31.8</ele><time>2026-04-07T16:40:18.975Z</time></trkpt><trkpt lat="44.7740717" lon="10.60538"><ele>31.6</ele><time>2026-04-07T16:40:19.975Z</time></trkpt><trkpt lat="44.774175" lon="10.6054283"><ele>31.400000000000002</ele><time>2026-04-07T16:40:20.975Z</time></trkpt><trkpt lat="44.7742833" lon="10.6054733"><ele>31.200000000000003</ele><time>2026-04-07T16:40:21.975Z</time></trkpt><trkpt lat="44.7743933" lon="10.6055133"><ele>31.0</ele><time>2026-04-07T16:40:22.975Z</time></trkpt><trkpt lat="44.7744917" lon="10.60555"><ele>31.4</ele><time>2026-04-07T16:40:23.975Z</time></trkpt><trkpt lat="44.7745983" lon="10.6056"><ele>31.8</ele><time>2026-04-07T16:40:24.975Z</time></trkpt><trkpt lat="44.7746983" lon="10.6056483"><ele>32.199999999999996</ele><time>2026-04-07T16:40:25.975Z</time></trkpt><trkpt lat="44.7747983" lon="10.6057017"><ele>32.6</ele><time>2026-04-07T16:40:26.974Z</time></trkpt><trkpt lat="44.7748967" lon="10.6057533"><ele>33.0</ele><time>2026-04-07T16:40:27.975Z</time></trkpt><trkpt lat="44.77499" lon="10.6058033"><ele>33.0</ele><time>2026-04-07T16:40:28.975Z</time></trkpt><trkpt lat="44.7750833" lon="10.6058517"><ele>33.0</ele><time>2026-04-07T16:40:29.975Z</time></trkpt><trkpt lat="44.775175" lon="10.6058967"><ele>33.0</ele><time>2026-04-07T16:40:30.975Z</time></trkpt><trkpt lat="44.77527" lon="10.6059417"><ele>33.0</ele><time>2026-04-07T16:40:31.975Z</time></trkpt><trkpt lat="44.7753717" lon="10.6060067"><ele>33.0</ele><time>2026-04-07T16:40:32.975Z</time></trkpt><trkpt lat="44.7754633" lon="10.6060567"><ele>32.8</ele><time>2026-04-07T16:40:33.975Z</time></trkpt><trkpt lat="44.7755567" lon="10.6061167"><ele>32.599999999999994</ele><time>2026-04-07T16:40:34.975Z</time></trkpt><trkpt lat="44.7756517" lon="10.6061767"><ele>32.400000000000006</ele><time>2026-04-07T16:40:35.975Z</time></trkpt><trkpt lat="44.7757517" lon="10.6062367"><ele>32.2</ele><time>2026-04-07T16:40:36.975Z</time></trkpt><trkpt lat="44.77585" lon="10.6063"><ele>32.0</ele><time>2026-04-07T16:40:37.974Z</time></trkpt><trkpt lat="44.7759533" lon="10.6063567"><ele>32.25</ele><time>2026-04-07T16:40:38.975Z</time></trkpt><trkpt lat="44.7760617" lon="10.6064133"><ele>32.5</ele><time>2026-04-07T16:40:39.974Z</time></trkpt><trkpt lat="44.7761733" lon="10.6064583"><ele>32.75</ele><time>2026-04-07T16:40:40.975Z</time></trkpt><trkpt lat="44.776285" lon="10.6065"><ele>33.0</ele><time>2026-04-07T16:40:41.975Z</time></trkpt><trkpt lat="44.7763983" lon="10.60653"><ele>33.0</ele><time>2026-04-07T16:40:42.974Z</time></trkpt><trkpt lat="44.7765033" lon="10.6065617"><ele>33.0</ele><time>2026-04-07T16:40:43.975Z</time></trkpt><trkpt lat="44.7766017" lon="10.6065933"><ele>33.0</ele><time>2026-04-07T16:40:44.974Z</time></trkpt><trkpt lat="44.776695" lon="10.6066333"><ele>33.0</ele><time>2026-04-07T16:40:45.975Z</time></trkpt><trkpt lat="44.776785" lon="10.6066633"><ele>33.0</ele><time>2026-04-07T16:40:46.975Z</time></trkpt><trkpt lat="44.7768683" lon="10.6066983"><ele>32.666666666666664</ele><time>2026-04-07T16:40:47.975Z</time></trkpt><trkpt lat="44.776945" lon="10.60673"><ele>32.333333333333336</ele><time>2026-04-07T16:40:48.975Z</time></trkpt><trkpt lat="44.77702" lon="10.6067683"><ele>32.0</ele><time>2026-04-07T16:40:49.975Z</time></trkpt><trkpt lat="44.7770917" lon="10.6068183"><ele>31.666666666666668</ele><time>2026-04-07T16:40:50.974Z</time></trkpt><trkpt lat="44.7771483" lon="10.6068883"><ele>31.333333333333336</ele><time>2026-04-07T16:40:51.975Z</time></trkpt><trkpt lat="44.777185" lon="10.6069733"><ele>31.0</ele><time>2026-04-07T16:40:52.974Z</time></trkpt><trkpt lat="44.777205" lon="10.6070883"><ele>31.0</ele><time>2026-04-07T16:40:53.974Z</time></trkpt><trkpt lat="44.7771867" lon="10.607225"><ele>31.0</ele><time>2026-04-07T16:40:54.975Z</time></trkpt><trkpt lat="44.7771617" lon="10.6073783"><ele>31.0</ele><time>2026-04-07T16:40:55.975Z</time></trkpt><trkpt lat="44.7771267" lon="10.6075283"><ele>31.0</ele><time>2026-04-07T16:40:56.974Z</time></trkpt><trkpt lat="44.7771033" lon="10.60768"><ele>31.0</ele><time>2026-04-07T16:40:57.975Z</time></trkpt><trkpt lat="44.7770867" lon="10.6078433"><ele>30.75</ele><time>2026-04-07T16:40:58.975Z</time></trkpt><trkpt lat="44.777055" lon="10.608015"><ele>30.5</ele><time>2026-04-07T16:40:59.975Z</time></trkpt><trkpt lat="44.777025" lon="10.608195"><ele>30.25</ele><time>2026-04-07T16:41:00.974Z</time></trkpt><trkpt lat="44.7769933" lon="10.608405"><ele>30.0</ele><time>2026-04-07T16:41:01.975Z</time></trkpt><trkpt lat="44.776955" lon="10.6086267"><ele>29.666666666666664</ele><time>2026-04-07T16:41:02.975Z</time></trkpt><trkpt lat="44.7769167" lon="10.60886"><ele>29.333333333333332</ele><time>2026-04-07T16:41:03.974Z</time></trkpt><trkpt lat="44.776885" lon="10.6091033"><ele>29.0</ele><time>2026-04-07T16:41:04.974Z</time></trkpt><trkpt lat="44.7768467" lon="10.60935"><ele>29.0</ele><time>2026-04-07T16:41:05.975Z</time></trkpt><trkpt lat="44.7768217" lon="10.60959"><ele>29.0</ele><time>2026-04-07T16:41:06.975Z</time></trkpt><trkpt lat="44.77679" lon="10.60983"><ele>29.0</ele><time>2026-04-07T16:41:07.975Z</time></trkpt><trkpt lat="44.776755" lon="10.6100683"><ele>29.0</ele><time>2026-04-07T16:41:08.975Z</time></trkpt><trkpt lat="44.7767233" lon="10.61031"><ele>29.0</ele><time>2026-04-07T16:41:09.975Z</time></trkpt><trkpt lat="44.7766867" lon="10.610555"><ele>29.0</ele><time>2026-04-07T16:41:10.974Z</time></trkpt><trkpt lat="44.7766467" lon="10.6107933"><ele>29.0</ele><time>2026-04-07T16:41:11.974Z</time></trkpt><trkpt lat="44.7766117" lon="10.61103"><ele>29.0</ele><time>2026-04-07T16:41:12.975Z</time></trkpt><trkpt lat="44.7765783" lon="10.6112683"><ele>29.0</ele><time>2026-04-07T16:41:13.975Z</time></trkpt><trkpt lat="44.7765483" lon="10.6114983"><ele>29.0</ele><time>2026-04-07T16:41:14.975Z</time></trkpt><trkpt lat="44.77652" lon="10.6117267"><ele>29.0</ele><time>2026-04-07T16:41:15.975Z</time></trkpt><trkpt lat="44.7764883" lon="10.61196"><ele>29.0</ele><time>2026-04-07T16:41:16.975Z</time></trkpt><trkpt lat="44.776455" lon="10.612195"><ele>28.666666666666664</ele><time>2026-04-07T16:41:17.974Z</time></trkpt><trkpt lat="44.7764167" lon="10.6124267"><ele>28.333333333333336</ele><time>2026-04-07T16:41:18.974Z</time></trkpt><trkpt lat="44.7763917" lon="10.6126667"><ele>28.0</ele><time>2026-04-07T16:41:19.974Z</time></trkpt><trkpt lat="44.7763567" lon="10.6129033"><ele>28.0</ele><time>2026-04-07T16:41:20.975Z</time></trkpt><trkpt lat="44.7763233" lon="10.613135"><ele>28.0</ele><time>2026-04-07T16:41:21.975Z</time></trkpt><trkpt lat="44.7762883" lon="10.6133817"><ele>28.0</ele><time>2026-04-07T16:41:22.974Z</time></trkpt><trkpt lat="44.77625" lon="10.6136217"><ele>27.666666666666668</ele><time>2026-04-07T16:41:23.975Z</time></trkpt><trkpt lat="44.7762133" lon="10.613865"><ele>27.333333333333336</ele><time>2026-04-07T16:41:24.975Z</time></trkpt><trkpt lat="44.7761783" lon="10.6141183"><ele>27.0</ele><time>2026-04-07T16:41:25.975Z</time></trkpt><trkpt lat="44.7761383" lon="10.6143667"><ele>26.666666666666664</ele><time>2026-04-07T16:41:26.975Z</time></trkpt><trkpt lat="44.7761033" lon="10.61463"><ele>26.333333333333332</ele><time>2026-04-07T16:41:27.975Z</time></trkpt><trkpt lat="44.776065" lon="10.6148883"><ele>26.0</ele><time>2026-04-07T16:41:28.974Z</time></trkpt><trkpt lat="44.77603" lon="10.6151517"><ele>26.333333333333332</ele><time>2026-04-07T16:41:29.975Z</time></trkpt><trkpt lat="44.7759917" lon="10.615415"><ele>26.666666666666664</ele><time>2026-04-07T16:41:30.975Z</time></trkpt><trkpt lat="44.7759533" lon="10.6156833"><ele>27.0</ele><time>2026-04-07T16:41:31.974Z</time></trkpt><trkpt lat="44.77592" lon="10.6159417"><ele>27.333333333333336</ele><time>2026-04-07T16:41:32.975Z</time></trkpt><trkpt lat="44.7758817" lon="10.6162"><ele>27.666666666666668</ele><time>2026-04-07T16:41:33.975Z</time></trkpt><trkpt lat="44.7758433" lon="10.61645"><ele>28.0</ele><time>2026-04-07T16:41:34.975Z</time></trkpt><trkpt lat="44.7758033" lon="10.6167033"><ele>28.0</ele><time>2026-04-07T16:41:35.975Z</time></trkpt><trkpt lat="44.7757667" lon="10.61695"><ele>28.0</ele><time>2026-04-07T16:41:36.975Z</time></trkpt><trkpt lat="44.7757333" lon="10.6172"><ele>28.0</ele><time>2026-04-07T16:41:37.975Z</time></trkpt><trkpt lat="44.7756967" lon="10.617445"><ele>27.333333333333336</ele><time>2026-04-07T16:41:38.974Z</time></trkpt><trkpt lat="44.77566" lon="10.617685"><ele>26.666666666666664</ele><time>2026-04-07T16:41:39.974Z</time></trkpt><trkpt lat="44.775625" lon="10.61792"><ele>26.0</ele><time>2026-04-07T16:41:40.974Z</time></trkpt><trkpt lat="44.7755917" lon="10.61816"><ele>25.333333333333332</ele><time>2026-04-07T16:41:41.975Z</time></trkpt><trkpt lat="44.775555" lon="10.618405"><ele>24.666666666666664</ele><time>2026-04-07T16:41:42.975Z</time></trkpt><trkpt lat="44.7755183" lon="10.618655"><ele>24.0</ele><time>2026-04-07T16:41:43.975Z</time></trkpt><trkpt lat="44.7754817" lon="10.61891"><ele>24.0</ele><time>2026-04-07T16:41:44.974Z</time></trkpt><trkpt lat="44.7754467" lon="10.6191683"><ele>24.0</ele><time>2026-04-07T16:41:45.975Z</time></trkpt><trkpt lat="44.7754117" lon="10.6194267"><ele>24.0</ele><time>2026-04-07T16:41:46.975Z</time></trkpt><trkpt lat="44.775375" lon="10.6196783"><ele>24.333333333333336</ele><time>2026-04-07T16:41:47.974Z</time></trkpt><trkpt lat="44.7753367" lon="10.6199217"><ele>24.666666666666668</ele><time>2026-04-07T16:41:48.975Z</time></trkpt><trkpt lat="44.7753033" lon="10.6201567"><ele>25.0</ele><time>2026-04-07T16:41:49.975Z</time></trkpt><trkpt lat="44.7752717" lon="10.6203817"><ele>25.0</ele><time>2026-04-07T16:41:50.975Z</time></trkpt><trkpt lat="44.7752333" lon="10.6205967"><ele>25.0</ele><time>2026-04-07T16:41:51.974Z</time></trkpt><trkpt lat="44.7752" lon="10.6208017"><ele>25.0</ele><time>2026-04-07T16:41:52.975Z</time></trkpt><trkpt lat="44.7751733" lon="10.62099"><ele>25.0</ele><time>2026-04-07T16:41:53.975Z</time></trkpt><trkpt lat="44.7751467" lon="10.62116"><ele>25.2</ele><time>2026-04-07T16:41:54.974Z</time></trkpt><trkpt lat="44.7751233" lon="10.6213217"><ele>25.4</ele><time>2026-04-07T16:41:55.975Z</time></trkpt><trkpt lat="44.77511" lon="10.6214617"><ele>25.6</ele><time>2026-04-07T16:41:56.975Z</time></trkpt><trkpt lat="44.775105" lon="10.621595"><ele>25.8</ele><time>2026-04-07T16:41:57.975Z</time></trkpt><trkpt lat="44.7751217" lon="10.6217083"><ele>26.0</ele><time>2026-04-07T16:41:58.975Z</time></trkpt><trkpt lat="44.7751717" lon="10.6218167"><ele>26.25</ele><time>2026-04-07T16:41:59.975Z</time></trkpt><trkpt lat="44.7752533" lon="10.6219067"><ele>26.5</ele><time>2026-04-07T16:42:00.975Z</time></trkpt><trkpt lat="44.7753583" lon="10.621985"><ele>26.75</ele><time>2026-04-07T16:42:01.975Z</time></trkpt><trkpt lat="44.7754717" lon="10.62206"><ele>27.0</ele><time>2026-04-07T16:42:02.975Z</time></trkpt><trkpt lat="44.7755933" lon="10.62214"><ele>27.0</ele><time>2026-04-07T16:42:03.975Z</time></trkpt><trkpt lat="44.7757133" lon="10.622215"><ele>27.0</ele><time>2026-04-07T16:42:04.975Z</time></trkpt><trkpt lat="44.7758383" lon="10.62229"><ele>27.0</ele><time>2026-04-07T16:42:05.975Z</time></trkpt><trkpt lat="44.7759617" lon="10.6223717"><ele>27.0</ele><time>2026-04-07T16:42:06.975Z</time></trkpt><trkpt lat="44.7760833" lon="10.6224533"><ele>26.75</ele><time>2026-04-07T16:42:07.975Z</time></trkpt><trkpt lat="44.776205" lon="10.6225517"><ele>26.5</ele><time>2026-04-07T16:42:08.975Z</time></trkpt><trkpt lat="44.7763333" lon="10.6226417"><ele>26.25</ele><time>2026-04-07T16:42:09.975Z</time></trkpt><trkpt lat="44.77646" lon="10.6227267"><ele>26.0</ele><time>2026-04-07T16:42:10.974Z</time></trkpt><trkpt lat="44.776585" lon="10.62281"><ele>26.0</ele><time>2026-04-07T16:42:11.974Z</time></trkpt><trkpt lat="44.776705" lon="10.6229"><ele>26.0</ele><time>2026-04-07T16:42:12.974Z</time></trkpt><trkpt lat="44.7768267" lon="10.6229817"><ele>26.0</ele><time>2026-04-07T16:42:13.975Z</time></trkpt><trkpt lat="44.776945" lon="10.623065"><ele>26.0</ele><time>2026-04-07T16:42:14.975Z</time></trkpt><trkpt lat="44.7770567" lon="10.62314"><ele>26.166666666666664</ele><time>2026-04-07T16:42:15.975Z</time></trkpt><trkpt lat="44.7771567" lon="10.6232"><ele>26.333333333333332</ele><time>2026-04-07T16:42:16.975Z</time></trkpt><trkpt lat="44.777235" lon="10.623255"><ele>26.5</ele><time>2026-04-07T16:42:17.975Z</time></trkpt><trkpt lat="44.7773133" lon="10.6233083"><ele>26.666666666666664</ele><time>2026-04-07T16:42:18.975Z</time></trkpt><trkpt lat="44.77738" lon="10.62335"><ele>26.833333333333332</ele><time>2026-04-07T16:42:19.975Z</time></trkpt><trkpt lat="44.7774317" lon="10.6234083"><ele>27.0</ele><time>2026-04-07T16:42:20.974Z</time></trkpt><trkpt lat="44.77747" lon="10.62349"><ele>27.0</ele><time>2026-04-07T16:42:21.974Z</time></trkpt><trkpt lat="44.7774917" lon="10.62359"><ele>27.000000000000004</ele><time>2026-04-07T16:42:22.975Z</time></trkpt><trkpt lat="44.77748" lon="10.6237233"><ele>27.000000000000004</ele><time>2026-04-07T16:42:23.975Z</time></trkpt><trkpt lat="44.77745" lon="10.6238833"><ele>27.0</ele><time>2026-04-07T16:42:24.975Z</time></trkpt><trkpt lat="44.7774167" lon="10.6240517"><ele>27.0</ele><time>2026-04-07T16:42:25.974Z</time></trkpt><trkpt lat="44.7773817" lon="10.624205"><ele>27.0</ele><time>2026-04-07T16:42:26.975Z</time></trkpt><trkpt lat="44.7773517" lon="10.62436"><ele>27.0</ele><time>2026-04-07T16:42:27.975Z</time></trkpt><trkpt lat="44.777325" lon="10.624525"><ele>27.0</ele><time>2026-04-07T16:42:28.974Z</time></trkpt><trkpt lat="44.7772967" lon="10.6247"><ele>27.0</ele><time>2026-04-07T16:42:29.975Z</time></trkpt><trkpt lat="44.777265" lon="10.624875"><ele>27.0</ele><time>2026-04-07T16:42:30.975Z</time></trkpt><trkpt lat="44.777235" lon="10.62505"><ele>27.0</ele><time>2026-04-07T16:42:31.975Z</time></trkpt><trkpt lat="44.7772033" lon="10.62524"><ele>27.0</ele><time>2026-04-07T16:42:32.975Z</time></trkpt><trkpt lat="44.77717" lon="10.6254267"><ele>27.0</ele><time>2026-04-07T16:42:33.974Z</time></trkpt><trkpt lat="44.7771383" lon="10.6256133"><ele>26.75</ele><time>2026-04-07T16:42:34.975Z</time></trkpt><trkpt lat="44.7771067" lon="10.6258117"><ele>26.5</ele><time>2026-04-07T16:42:35.975Z</time></trkpt><trkpt lat="44.7770717" lon="10.6260033"><ele>26.25</ele><time>2026-04-07T16:42:36.975Z</time></trkpt><trkpt lat="44.7770383" lon="10.6262"><ele>26.0</ele><time>2026-04-07T16:42:37.975Z</time></trkpt><trkpt lat="44.7770017" lon="10.626395"><ele>26.0</ele><time>2026-04-07T16:42:38.975Z</time></trkpt><trkpt lat="44.776965" lon="10.6265933"><ele>26.0</ele><time>2026-04-07T16:42:39.974Z</time></trkpt><trkpt lat="44.7769333" lon="10.6267933"><ele>26.0</ele><time>2026-04-07T16:42:40.974Z</time></trkpt><trkpt lat="44.7769033" lon="10.6269967"><ele>26.0</ele><time>2026-04-07T16:42:41.975Z</time></trkpt><trkpt lat="44.7768717" lon="10.627205"><ele>26.25</ele><time>2026-04-07T16:42:42.974Z</time></trkpt><trkpt lat="44.7768367" lon="10.6274183"><ele>26.5</ele><time>2026-04-07T16:42:43.975Z</time></trkpt><trkpt lat="44.7768" lon="10.6276283"><ele>26.75</ele><time>2026-04-07T16:42:44.975Z</time></trkpt><trkpt lat="44.7767567" lon="10.6278133"><ele>27.0</ele><time>2026-04-07T16:42:45.975Z</time></trkpt><trkpt lat="44.7767233" lon="10.628"><ele>27.0</ele><time>2026-04-07T16:42:46.975Z</time></trkpt><trkpt lat="44.77669" lon="10.6281917"><ele>27.0</ele><time>2026-04-07T16:42:47.974Z</time></trkpt><trkpt lat="44.77665" lon="10.62839"><ele>27.0</ele><time>2026-04-07T16:42:48.975Z</time></trkpt><trkpt lat="44.7766133" lon="10.6285883"><ele>27.0</ele><time>2026-04-07T16:42:49.974Z</time></trkpt><trkpt lat="44.7765817" lon="10.62878"><ele>27.0</ele><time>2026-04-07T16:42:50.975Z</time></trkpt><trkpt lat="44.7765517" lon="10.628965"><ele>27.0</ele><time>2026-04-07T16:42:51.974Z</time></trkpt><trkpt lat="44.77652" lon="10.6291433"><ele>27.0</ele><time>2026-04-07T16:42:52.975Z</time></trkpt><trkpt lat="44.7764883" lon="10.629335"><ele>27.0</ele><time>2026-04-07T16:42:53.975Z</time></trkpt><trkpt lat="44.776455" lon="10.62953"><ele>27.0</ele><time>2026-04-07T16:42:54.975Z</time></trkpt><trkpt lat="44.7764317" lon="10.62973"><ele>27.0</ele><time>2026-04-07T16:42:55.975Z</time></trkpt><trkpt lat="44.7763983" lon="10.6299183"><ele>27.0</ele><time>2026-04-07T16:42:56.975Z</time></trkpt><trkpt lat="44.7763717" lon="10.630115"><ele>27.0</ele><time>2026-04-07T16:42:57.974Z</time></trkpt><trkpt lat="44.7763417" lon="10.6303133"><ele>27.0</ele><time>2026-04-07T16:42:58.974Z</time></trkpt><trkpt lat="44.7763117" lon="10.6305"><ele>27.0</ele><time>2026-04-07T16:42:59.975Z</time></trkpt><trkpt lat="44.7762867" lon="10.6306767"><ele>27.0</ele><time>2026-04-07T16:43:00.975Z</time></trkpt><trkpt lat="44.7762567" lon="10.6308533"><ele>27.0</ele><time>2026-04-07T16:43:01.975Z</time></trkpt><trkpt lat="44.7762267" lon="10.6310283"><ele>27.25</ele><time>2026-04-07T16:43:02.975Z</time></trkpt><trkpt lat="44.7761933" lon="10.6312133"><ele>27.5</ele><time>2026-04-07T16:43:03.975Z</time></trkpt><trkpt lat="44.7761633" lon="10.6313983"><ele>27.75</ele><time>2026-04-07T16:43:04.974Z</time></trkpt><trkpt lat="44.776125" lon="10.63159"><ele>28.0</ele><time>2026-04-07T16:43:05.974Z</time></trkpt><trkpt lat="44.7760983" lon="10.63179"><ele>28.0</ele><time>2026-04-07T16:43:06.974Z</time></trkpt><trkpt lat="44.7760717" lon="10.6319883"><ele>28.0</ele><time>2026-04-07T16:43:07.975Z</time></trkpt><trkpt lat="44.7760417" lon="10.6321883"><ele>28.0</ele><time>2026-04-07T16:43:08.974Z</time></trkpt><trkpt lat="44.7760067" lon="10.632385"><ele>28.0</ele><time>2026-04-07T16:43:09.975Z</time></trkpt><trkpt lat="44.7759733" lon="10.6325833"><ele>28.0</ele><time>2026-04-07T16:43:10.975Z</time></trkpt><trkpt lat="44.7759483" lon="10.6327817"><ele>28.0</ele><time>2026-04-07T16:43:11.975Z</time></trkpt><trkpt lat="44.7759183" lon="10.632975"><ele>28.0</ele><time>2026-04-07T16:43:12.975Z</time></trkpt><trkpt lat="44.77589" lon="10.6331617"><ele>28.0</ele><time>2026-04-07T16:43:13.975Z</time></trkpt><trkpt lat="44.77586" lon="10.6333383"><ele>28.0</ele><time>2026-04-07T16:43:14.975Z</time></trkpt><trkpt lat="44.7758317" lon="10.6335133"><ele>28.0</ele><time>2026-04-07T16:43:15.975Z</time></trkpt><trkpt lat="44.7758017" lon="10.6336883"><ele>28.0</ele><time>2026-04-07T16:43:16.975Z</time></trkpt><trkpt lat="44.7757717" lon="10.633865"><ele>28.0</ele><time>2026-04-07T16:43:17.975Z</time></trkpt><trkpt lat="44.775735" lon="10.6340417"><ele>28.25</ele><time>2026-04-07T16:43:18.975Z</time></trkpt><trkpt lat="44.7757033" lon="10.6342167"><ele>28.5</ele><time>2026-04-07T16:43:19.975Z</time></trkpt><trkpt lat="44.7756717" lon="10.6343983"><ele>28.75</ele><time>2026-04-07T16:43:20.975Z</time></trkpt><trkpt lat="44.77563" lon="10.634575"><ele>29.0</ele><time>2026-04-07T16:43:21.974Z</time></trkpt><trkpt lat="44.7755983" lon="10.6347567"><ele>29.25</ele><time>2026-04-07T16:43:22.975Z</time></trkpt><trkpt lat="44.7755717" lon="10.6349233"><ele>29.5</ele><time>2026-04-07T16:43:23.975Z</time></trkpt><trkpt lat="44.775545" lon="10.6350917"><ele>29.75</ele><time>2026-04-07T16:43:24.975Z</time></trkpt><trkpt lat="44.7755217" lon="10.6352533"><ele>30.0</ele><time>2026-04-07T16:43:25.975Z</time></trkpt><trkpt lat="44.7754933" lon="10.635415"><ele>30.0</ele><time>2026-04-07T16:43:26.975Z</time></trkpt><trkpt lat="44.7754583" lon="10.63559"><ele>30.0</ele><time>2026-04-07T16:43:27.975Z</time></trkpt><trkpt lat="44.7754333" lon="10.635755"><ele>30.0</ele><time>2026-04-07T16:43:28.975Z</time></trkpt><trkpt lat="44.7754117" lon="10.635915"><ele>30.0</ele><time>2026-04-07T16:43:29.974Z</time></trkpt><trkpt lat="44.775385" lon="10.6360633"><ele>30.2</ele><time>2026-04-07T16:43:30.975Z</time></trkpt><trkpt lat="44.775355" lon="10.636195"><ele>30.4</ele><time>2026-04-07T16:43:31.975Z</time></trkpt><trkpt lat="44.7753333" lon="10.6363283"><ele>30.6</ele><time>2026-04-07T16:43:32.974Z</time></trkpt><trkpt lat="44.7753133" lon="10.636465"><ele>30.8</ele><time>2026-04-07T16:43:33.974Z</time></trkpt><trkpt lat="44.7752867" lon="10.63659"><ele>31.0</ele><time>2026-04-07T16:43:34.975Z</time></trkpt><trkpt lat="44.7752633" lon="10.6367033"><ele>31.000000000000004</ele><time>2026-04-07T16:43:35.975Z</time></trkpt><trkpt lat="44.775245" lon="10.63681"><ele>31.0</ele><time>2026-04-07T16:43:36.975Z</time></trkpt><trkpt lat="44.775225" lon="10.636905"><ele>31.0</ele><time>2026-04-07T16:43:37.975Z</time></trkpt><trkpt lat="44.775195" lon="10.6370667"><ele>31.0</ele><time>2026-04-07T16:43:39.975Z</time></trkpt><trkpt lat="44.77518" lon="10.637205"><ele>31.000000000000004</ele><time>2026-04-07T16:43:41.974Z</time></trkpt><trkpt lat="44.775165" lon="10.6373033"><ele>31.0</ele><time>2026-04-07T16:43:44.974Z</time></trkpt><trkpt lat="44.7751667" lon="10.6374667"><ele>31.000000000000004</ele><time>2026-04-07T16:43:52.975Z</time></trkpt><trkpt lat="44.77516" lon="10.6375583"><ele>31.0</ele><time>2026-04-07T16:43:53.974Z</time></trkpt><trkpt lat="44.775155" lon="10.6376683"><ele>31.0</ele><time>2026-04-07T16:43:54.975Z</time></trkpt><trkpt lat="44.7751483" lon="10.6377933"><ele>31.0</ele><time>2026-04-07T16:43:55.975Z</time></trkpt><trkpt lat="44.77513" lon="10.6379183"><ele>31.000000000000004</ele><time>2026-04-07T16:43:56.975Z</time></trkpt><trkpt lat="44.7750967" lon="10.6380533"><ele>31.0</ele><time>2026-04-07T16:43:57.975Z</time></trkpt><trkpt lat="44.7750683" lon="10.6382033"><ele>30.75</ele><time>2026-04-07T16:43:58.975Z</time></trkpt><trkpt lat="44.7750333" lon="10.6383633"><ele>30.5</ele><time>2026-04-07T16:43:59.975Z</time></trkpt><trkpt lat="44.774995" lon="10.638535"><ele>30.25</ele><time>2026-04-07T16:44:00.975Z</time></trkpt><trkpt lat="44.7749483" lon="10.6387217"><ele>30.0</ele><time>2026-04-07T16:44:01.975Z</time></trkpt><trkpt lat="44.77491" lon="10.63892"><ele>29.75</ele><time>2026-04-07T16:44:02.974Z</time></trkpt><trkpt lat="44.7748683" lon="10.6391067"><ele>29.5</ele><time>2026-04-07T16:44:03.975Z</time></trkpt><trkpt lat="44.774835" lon="10.63929"><ele>29.25</ele><time>2026-04-07T16:44:04.975Z</time></trkpt><trkpt lat="44.7748117" lon="10.6394883"><ele>29.0</ele><time>2026-04-07T16:44:05.975Z</time></trkpt><trkpt lat="44.7747683" lon="10.6396733"><ele>29.0</ele><time>2026-04-07T16:44:06.975Z</time></trkpt><trkpt lat="44.7747367" lon="10.639865"><ele>29.0</ele><time>2026-04-07T16:44:07.975Z</time></trkpt><trkpt lat="44.7747117" lon="10.6400667"><ele>29.0</ele><time>2026-04-07T16:44:08.974Z</time></trkpt><trkpt lat="44.7746983" lon="10.6402867"><ele>29.0</ele><time>2026-04-07T16:44:09.975Z</time></trkpt><trkpt lat="44.7746917" lon="10.6405333"><ele>28.666666666666664</ele><time>2026-04-07T16:44:10.975Z</time></trkpt><trkpt lat="44.7746817" lon="10.6407983"><ele>28.333333333333336</ele><time>2026-04-07T16:44:11.974Z</time></trkpt><trkpt lat="44.7746617" lon="10.6410733"><ele>28.0</ele><time>2026-04-07T16:44:12.975Z</time></trkpt><trkpt lat="44.77464" lon="10.6413333"><ele>28.0</ele><time>2026-04-07T16:44:13.975Z</time></trkpt><trkpt lat="44.7746217" lon="10.64157"><ele>28.0</ele><time>2026-04-07T16:44:14.975Z</time></trkpt><trkpt lat="44.7745933" lon="10.6417967"><ele>28.0</ele><time>2026-04-07T16:44:15.975Z</time></trkpt><trkpt lat="44.7745633" lon="10.6420267"><ele>28.0</ele><time>2026-04-07T16:44:16.975Z</time></trkpt><trkpt lat="44.77453" lon="10.642265"><ele>28.0</ele><time>2026-04-07T16:44:17.974Z</time></trkpt><trkpt lat="44.7744867" lon="10.6425017"><ele>28.0</ele><time>2026-04-07T16:44:18.974Z</time></trkpt><trkpt lat="44.7744483" lon="10.6427483"><ele>27.666666666666668</ele><time>2026-04-07T16:44:19.975Z</time></trkpt><trkpt lat="44.774405" lon="10.643"><ele>27.333333333333336</ele><time>2026-04-07T16:44:20.975Z</time></trkpt><trkpt lat="44.7743617" lon="10.6432617"><ele>27.0</ele><time>2026-04-07T16:44:21.974Z</time></trkpt><trkpt lat="44.774315" lon="10.64352"><ele>26.666666666666664</ele><time>2026-04-07T16:44:22.975Z</time></trkpt><trkpt lat="44.774265" lon="10.6437833"><ele>26.333333333333332</ele><time>2026-04-07T16:44:23.974Z</time></trkpt><trkpt lat="44.7742083" lon="10.6440417"><ele>26.0</ele><time>2026-04-07T16:44:24.975Z</time></trkpt><trkpt lat="44.7741517" lon="10.6443033"><ele>26.0</ele><time>2026-04-07T16:44:25.975Z</time></trkpt><trkpt lat="44.7740933" lon="10.6445567"><ele>26.0</ele><time>2026-04-07T16:44:26.975Z</time></trkpt><trkpt lat="44.7740283" lon="10.6448117"><ele>26.0</ele><time>2026-04-07T16:44:27.974Z</time></trkpt><trkpt lat="44.77397" lon="10.6450717"><ele>25.666666666666664</ele><time>2026-04-07T16:44:28.974Z</time></trkpt><trkpt lat="44.7739133" lon="10.645325"><ele>25.333333333333336</ele><time>2026-04-07T16:44:29.975Z</time></trkpt><trkpt lat="44.77385" lon="10.6455817"><ele>25.0</ele><time>2026-04-07T16:44:30.975Z</time></trkpt><trkpt lat="44.7737967" lon="10.645835"><ele>25.0</ele><time>2026-04-07T16:44:31.975Z</time></trkpt><trkpt lat="44.7737383" lon="10.6460883"><ele>25.0</ele><time>2026-04-07T16:44:32.975Z</time></trkpt><trkpt lat="44.773675" lon="10.64634"><ele>25.0</ele><time>2026-04-07T16:44:33.975Z</time></trkpt><trkpt lat="44.7736133" lon="10.6465917"><ele>25.333333333333336</ele><time>2026-04-07T16:44:34.974Z</time></trkpt><trkpt lat="44.7735517" lon="10.646845"><ele>25.666666666666664</ele><time>2026-04-07T16:44:35.975Z</time></trkpt><trkpt lat="44.77349" lon="10.647085"><ele>26.0</ele><time>2026-04-07T16:44:36.975Z</time></trkpt><trkpt lat="44.7734317" lon="10.6473233"><ele>26.0</ele><time>2026-04-07T16:44:37.975Z</time></trkpt><trkpt lat="44.7733917" lon="10.64756"><ele>26.0</ele><time>2026-04-07T16:44:38.974Z</time></trkpt><trkpt lat="44.7733367" lon="10.6477867"><ele>26.0</ele><time>2026-04-07T16:44:39.975Z</time></trkpt><trkpt lat="44.773285" lon="10.6480167"><ele>26.0</ele><time>2026-04-07T16:44:40.975Z</time></trkpt><trkpt lat="44.7732317" lon="10.6482433"><ele>26.0</ele><time>2026-04-07T16:44:41.975Z</time></trkpt><trkpt lat="44.773175" lon="10.6484717"><ele>26.0</ele><time>2026-04-07T16:44:42.975Z</time></trkpt><trkpt lat="44.7731167" lon="10.6487083"><ele>26.0</ele><time>2026-04-07T16:44:43.975Z</time></trkpt><trkpt lat="44.7730617" lon="10.648935"><ele>26.0</ele><time>2026-04-07T16:44:44.975Z</time></trkpt><trkpt lat="44.773015" lon="10.6491683"><ele>26.0</ele><time>2026-04-07T16:44:45.975Z</time></trkpt><trkpt lat="44.7729683" lon="10.649395"><ele>26.0</ele><time>2026-04-07T16:44:46.975Z</time></trkpt><trkpt lat="44.77292" lon="10.6496233"><ele>26.0</ele><time>2026-04-07T16:44:47.975Z</time></trkpt><trkpt lat="44.772875" lon="10.6498467"><ele>26.0</ele><time>2026-04-07T16:44:48.975Z</time></trkpt><trkpt lat="44.7728233" lon="10.6500683"><ele>26.0</ele><time>2026-04-07T16:44:49.974Z</time></trkpt><trkpt lat="44.7727767" lon="10.6502917"><ele>26.0</ele><time>2026-04-07T16:44:50.975Z</time></trkpt><trkpt lat="44.7727317" lon="10.6505133"><ele>26.0</ele><time>2026-04-07T16:44:51.974Z</time></trkpt><trkpt lat="44.7726933" lon="10.6507333"><ele>26.0</ele><time>2026-04-07T16:44:52.975Z</time></trkpt><trkpt lat="44.7726517" lon="10.6509517"><ele>26.0</ele><time>2026-04-07T16:44:53.975Z</time></trkpt><trkpt lat="44.7726083" lon="10.6511733"><ele>26.0</ele><time>2026-04-07T16:44:54.975Z</time></trkpt><trkpt lat="44.77256" lon="10.6513933"><ele>26.0</ele><time>2026-04-07T16:44:55.974Z</time></trkpt><trkpt lat="44.772515" lon="10.6516167"><ele>26.0</ele><time>2026-04-07T16:44:56.975Z</time></trkpt><trkpt lat="44.77248" lon="10.6518317"><ele>26.0</ele><time>2026-04-07T16:44:57.975Z</time></trkpt><trkpt lat="44.7724367" lon="10.652045"><ele>26.0</ele><time>2026-04-07T16:44:58.975Z</time></trkpt><trkpt lat="44.772395" lon="10.6522483"><ele>26.0</ele><time>2026-04-07T16:44:59.974Z</time></trkpt><trkpt lat="44.7723567" lon="10.65245"><ele>26.0</ele><time>2026-04-07T16:45:00.973Z</time></trkpt><trkpt lat="44.7723183" lon="10.65266"><ele>26.25</ele><time>2026-04-07T16:45:01.974Z</time></trkpt><trkpt lat="44.7722833" lon="10.6528633"><ele>26.5</ele><time>2026-04-07T16:45:02.974Z</time></trkpt><trkpt lat="44.7722483" lon="10.6530533"><ele>26.75</ele><time>2026-04-07T16:45:03.973Z</time></trkpt><trkpt lat="44.7722133" lon="10.6532383"><ele>27.0</ele><time>2026-04-07T16:45:04.974Z</time></trkpt><trkpt lat="44.77219" lon="10.65342"><ele>27.0</ele><time>2026-04-07T16:45:05.974Z</time></trkpt><trkpt lat="44.7721617" lon="10.653605"><ele>27.0</ele><time>2026-04-07T16:45:06.974Z</time></trkpt><trkpt lat="44.77213" lon="10.653785"><ele>27.0</ele><time>2026-04-07T16:45:07.973Z</time></trkpt><trkpt lat="44.7721033" lon="10.6539633"><ele>27.0</ele><time>2026-04-07T16:45:08.974Z</time></trkpt><trkpt lat="44.7720733" lon="10.6541367"><ele>27.0</ele><time>2026-04-07T16:45:09.974Z</time></trkpt><trkpt lat="44.77205" lon="10.6543167"><ele>27.0</ele><time>2026-04-07T16:45:10.974Z</time></trkpt><trkpt lat="44.7720233" lon="10.6544917"><ele>27.0</ele><time>2026-04-07T16:45:11.973Z</time></trkpt><trkpt lat="44.7719967" lon="10.6546633"><ele>27.0</ele><time>2026-04-07T16:45:12.973Z</time></trkpt><trkpt lat="44.7719767" lon="10.654835"><ele>27.0</ele><time>2026-04-07T16:45:13.973Z</time></trkpt><trkpt lat="44.7719567" lon="10.6550133"><ele>27.0</ele><time>2026-04-07T16:45:14.974Z</time></trkpt><trkpt lat="44.771935" lon="10.655205"><ele>27.0</ele><time>2026-04-07T16:45:15.974Z</time></trkpt><trkpt lat="44.7719117" lon="10.6554"><ele>27.0</ele><time>2026-04-07T16:45:16.973Z</time></trkpt><trkpt lat="44.7718917" lon="10.655605"><ele>27.0</ele><time>2026-04-07T16:45:17.974Z</time></trkpt><trkpt lat="44.77187" lon="10.6558167"><ele>27.0</ele><time>2026-04-07T16:45:18.974Z</time></trkpt><trkpt lat="44.77185" lon="10.6560267"><ele>27.0</ele><time>2026-04-07T16:45:19.973Z</time></trkpt><trkpt lat="44.7718333" lon="10.656235"><ele>28.0</ele><time>2026-04-07T16:45:20.974Z</time></trkpt><trkpt lat="44.77182" lon="10.6564533"><ele>29.0</ele><time>2026-04-07T16:45:21.974Z</time></trkpt><trkpt lat="44.7718017" lon="10.6566667"><ele>30.0</ele><time>2026-04-07T16:45:22.974Z</time></trkpt><trkpt lat="44.7717833" lon="10.65688"><ele>29.666666666666664</ele><time>2026-04-07T16:45:23.974Z</time></trkpt><trkpt lat="44.77177" lon="10.657105"><ele>29.333333333333332</ele><time>2026-04-07T16:45:24.974Z</time></trkpt><trkpt lat="44.77175" lon="10.6573267"><ele>29.0</ele><time>2026-04-07T16:45:25.974Z</time></trkpt><trkpt lat="44.7717283" lon="10.6575483"><ele>29.0</ele><time>2026-04-07T16:45:26.974Z</time></trkpt><trkpt lat="44.7717083" lon="10.6577733"><ele>29.0</ele><time>2026-04-07T16:45:27.974Z</time></trkpt><trkpt lat="44.77169" lon="10.658005"><ele>29.0</ele><time>2026-04-07T16:45:28.974Z</time></trkpt><trkpt lat="44.7716717" lon="10.6582367"><ele>28.333333333333332</ele><time>2026-04-07T16:45:29.974Z</time></trkpt><trkpt lat="44.771655" lon="10.65847"><ele>27.666666666666664</ele><time>2026-04-07T16:45:30.974Z</time></trkpt><trkpt lat="44.7716367" lon="10.6587017"><ele>27.0</ele><time>2026-04-07T16:45:31.973Z</time></trkpt><trkpt lat="44.771615" lon="10.65894"><ele>27.0</ele><time>2026-04-07T16:45:32.974Z</time></trkpt><trkpt lat="44.7715933" lon="10.6591817"><ele>27.0</ele><time>2026-04-07T16:45:33.974Z</time></trkpt><trkpt lat="44.7715733" lon="10.6594283"><ele>27.0</ele><time>2026-04-07T16:45:34.973Z</time></trkpt><trkpt lat="44.7715533" lon="10.6596717"><ele>27.0</ele><time>2026-04-07T16:45:35.974Z</time></trkpt><trkpt lat="44.7715283" lon="10.6599167"><ele>27.0</ele><time>2026-04-07T16:45:36.974Z</time></trkpt><trkpt lat="44.7715117" lon="10.6601667"><ele>27.0</ele><time>2026-04-07T16:45:37.974Z</time></trkpt><trkpt lat="44.77149" lon="10.6603967"><ele>26.666666666666664</ele><time>2026-04-07T16:45:38.974Z</time></trkpt><trkpt lat="44.771475" lon="10.660615"><ele>26.333333333333332</ele><time>2026-04-07T16:45:39.974Z</time></trkpt><trkpt lat="44.7714567" lon="10.6608267"><ele>26.0</ele><time>2026-04-07T16:45:40.974Z</time></trkpt><trkpt lat="44.7714367" lon="10.66104"><ele>26.333333333333332</ele><time>2026-04-07T16:45:41.973Z</time></trkpt><trkpt lat="44.7714233" lon="10.6612567"><ele>26.666666666666664</ele><time>2026-04-07T16:45:42.973Z</time></trkpt><trkpt lat="44.7714167" lon="10.661475"><ele>27.0</ele><time>2026-04-07T16:45:43.974Z</time></trkpt><trkpt lat="44.771405" lon="10.6616867"><ele>27.0</ele><time>2026-04-07T16:45:44.973Z</time></trkpt><trkpt lat="44.77139" lon="10.6618933"><ele>27.0</ele><time>2026-04-07T16:45:45.973Z</time></trkpt><trkpt lat="44.7713733" lon="10.66209"><ele>27.0</ele><time>2026-04-07T16:45:46.974Z</time></trkpt><trkpt lat="44.7713533" lon="10.6622783"><ele>27.0</ele><time>2026-04-07T16:45:47.974Z</time></trkpt><trkpt lat="44.7713167" lon="10.6624717"><ele>26.75</ele><time>2026-04-07T16:45:48.974Z</time></trkpt><trkpt lat="44.7712667" lon="10.6626633"><ele>26.5</ele><time>2026-04-07T16:45:49.974Z</time></trkpt><trkpt lat="44.7711917" lon="10.662835"><ele>26.25</ele><time>2026-04-07T16:45:50.974Z</time></trkpt><trkpt lat="44.77108" lon="10.66298"><ele>26.0</ele><time>2026-04-07T16:45:51.973Z</time></trkpt><trkpt lat="44.7709617" lon="10.663095"><ele>26.0</ele><time>2026-04-07T16:45:52.974Z</time></trkpt><trkpt lat="44.7708233" lon="10.6631783"><ele>26.0</ele><time>2026-04-07T16:45:53.974Z</time></trkpt><trkpt lat="44.7706833" lon="10.6632567"><ele>26.0</ele><time>2026-04-07T16:45:54.974Z</time></trkpt><trkpt lat="44.770555" lon="10.66333"><ele>26.0</ele><time>2026-04-07T16:45:55.974Z</time></trkpt><trkpt lat="44.77043" lon="10.663395"><ele>26.0</ele><time>2026-04-07T16:45:56.974Z</time></trkpt><trkpt lat="44.770305" lon="10.663465"><ele>26.0</ele><time>2026-04-07T16:45:57.974Z</time></trkpt><trkpt lat="44.7701767" lon="10.6635483"><ele>26.0</ele><time>2026-04-07T16:45:58.974Z</time></trkpt><trkpt lat="44.7700317" lon="10.6636383"><ele>26.0</ele><time>2026-04-07T16:45:59.974Z</time></trkpt><trkpt lat="44.7698817" lon="10.6637217"><ele>26.25</ele><time>2026-04-07T16:46:00.974Z</time></trkpt><trkpt lat="44.76974" lon="10.6638067"><ele>26.5</ele><time>2026-04-07T16:46:01.974Z</time></trkpt><trkpt lat="44.7696083" lon="10.6638983"><ele>26.75</ele><time>2026-04-07T16:46:02.974Z</time></trkpt><trkpt lat="44.7694717" lon="10.663975"><ele>27.0</ele><time>2026-04-07T16:46:03.974Z</time></trkpt><trkpt lat="44.7693383" lon="10.664065"><ele>27.25</ele><time>2026-04-07T16:46:04.974Z</time></trkpt><trkpt lat="44.769195" lon="10.6641383"><ele>27.5</ele><time>2026-04-07T16:46:05.973Z</time></trkpt><trkpt lat="44.7690667" lon="10.664185"><ele>27.75</ele><time>2026-04-07T16:46:06.973Z</time></trkpt><trkpt lat="44.7689117" lon="10.6642183"><ele>28.0</ele><time>2026-04-07T16:46:07.974Z</time></trkpt><trkpt lat="44.76874" lon="10.664225"><ele>28.0</ele><time>2026-04-07T16:46:08.973Z</time></trkpt><trkpt lat="44.7685783" lon="10.6642283"><ele>28.0</ele><time>2026-04-07T16:46:09.973Z</time></trkpt><trkpt lat="44.7684283" lon="10.6642333"><ele>28.0</ele><time>2026-04-07T16:46:10.974Z</time></trkpt><trkpt lat="44.76827" lon="10.664245"><ele>27.5</ele><time>2026-04-07T16:46:11.974Z</time></trkpt><trkpt lat="44.768125" lon="10.6642617"><ele>27.0</ele><time>2026-04-07T16:46:12.974Z</time></trkpt><trkpt lat="44.7679933" lon="10.664305"><ele>26.5</ele><time>2026-04-07T16:46:13.974Z</time></trkpt><trkpt lat="44.7678883" lon="10.664355"><ele>26.0</ele><time>2026-04-07T16:46:14.974Z</time></trkpt><trkpt lat="44.7678067" lon="10.6644033"><ele>26.0</ele><time>2026-04-07T16:46:15.974Z</time></trkpt><trkpt lat="44.767745" lon="10.66444"><ele>26.0</ele><time>2026-04-07T16:46:16.974Z</time></trkpt><trkpt lat="44.7676933" lon="10.6644967"><ele>26.0</ele><time>2026-04-07T16:46:18.974Z</time></trkpt><trkpt lat="44.767625" lon="10.6645383"><ele>26.0</ele><time>2026-04-07T16:46:23.973Z</time></trkpt><trkpt lat="44.7675017" lon="10.6646017"><ele>26.0</ele><time>2026-04-07T16:46:25.973Z</time></trkpt><trkpt lat="44.7674133" lon="10.6647167"><ele>26.166666666666664</ele><time>2026-04-07T16:46:27.974Z</time></trkpt><trkpt lat="44.7674" lon="10.6648167"><ele>26.333333333333332</ele><time>2026-04-07T16:46:28.974Z</time></trkpt><trkpt lat="44.767385" lon="10.6649233"><ele>26.5</ele><time>2026-04-07T16:46:29.974Z</time></trkpt><trkpt lat="44.7673533" lon="10.6650283"><ele>26.666666666666664</ele><time>2026-04-07T16:46:30.974Z</time></trkpt><trkpt lat="44.76731" lon="10.6651367"><ele>26.833333333333332</ele><time>2026-04-07T16:46:31.974Z</time></trkpt><trkpt lat="44.7672467" lon="10.665225"><ele>27.0</ele><time>2026-04-07T16:46:32.974Z</time></trkpt><trkpt lat="44.76718" lon="10.6652917"><ele>27.0</ele><time>2026-04-07T16:46:33.973Z</time></trkpt><trkpt lat="44.76711" lon="10.6653483"><ele>27.0</ele><time>2026-04-07T16:46:34.973Z</time></trkpt><trkpt lat="44.76705" lon="10.6654033"><ele>27.0</ele><time>2026-04-07T16:46:35.973Z</time></trkpt><trkpt lat="44.7669867" lon="10.6654633"><ele>27.0</ele><time>2026-04-07T16:46:36.973Z</time></trkpt><trkpt lat="44.7669117" lon="10.665535"><ele>27.0</ele><time>2026-04-07T16:46:37.974Z</time></trkpt><trkpt lat="44.7668283" lon="10.6656033"><ele>27.0</ele><time>2026-04-07T16:46:38.974Z</time></trkpt><trkpt lat="44.7667367" lon="10.6656583"><ele>27.200000000000003</ele><time>2026-04-07T16:46:39.974Z</time></trkpt><trkpt lat="44.7666483" lon="10.665715"><ele>27.400000000000002</ele><time>2026-04-07T16:46:40.974Z</time></trkpt><trkpt lat="44.7665633" lon="10.66577"><ele>27.599999999999998</ele><time>2026-04-07T16:46:41.974Z</time></trkpt><trkpt lat="44.76648" lon="10.6658283"><ele>27.799999999999997</ele><time>2026-04-07T16:46:42.974Z</time></trkpt><trkpt lat="44.7663967" lon="10.6658867"><ele>28.0</ele><time>2026-04-07T16:46:43.973Z</time></trkpt><trkpt lat="44.766315" lon="10.6659433"><ele>28.0</ele><time>2026-04-07T16:46:44.974Z</time></trkpt><trkpt lat="44.7662317" lon="10.6660067"><ele>27.999999999999996</ele><time>2026-04-07T16:46:45.974Z</time></trkpt><trkpt lat="44.7661417" lon="10.6660633"><ele>27.999999999999996</ele><time>2026-04-07T16:46:46.974Z</time></trkpt><trkpt lat="44.76605" lon="10.6661217"><ele>28.0</ele><time>2026-04-07T16:46:47.973Z</time></trkpt><trkpt lat="44.7659583" lon="10.6661767"><ele>28.0</ele><time>2026-04-07T16:46:48.974Z</time></trkpt><trkpt lat="44.7658733" lon="10.666235"><ele>28.2</ele><time>2026-04-07T16:46:49.973Z</time></trkpt><trkpt lat="44.7657833" lon="10.6662983"><ele>28.4</ele><time>2026-04-07T16:46:50.974Z</time></trkpt><trkpt lat="44.7657017" lon="10.6663633"><ele>28.599999999999998</ele><time>2026-04-07T16:46:51.974Z</time></trkpt><trkpt lat="44.7656167" lon="10.66643"><ele>28.799999999999997</ele><time>2026-04-07T16:46:52.974Z</time></trkpt><trkpt lat="44.7655283" lon="10.6665067"><ele>29.0</ele><time>2026-04-07T16:46:53.974Z</time></trkpt><trkpt lat="44.7654333" lon="10.6665733"><ele>29.0</ele><time>2026-04-07T16:46:54.974Z</time></trkpt><trkpt lat="44.7653333" lon="10.6666383"><ele>29.0</ele><time>2026-04-07T16:46:55.974Z</time></trkpt><trkpt lat="44.765235" lon="10.6667033"><ele>29.0</ele><time>2026-04-07T16:46:56.974Z</time></trkpt><trkpt lat="44.76514" lon="10.6667617"><ele>29.0</ele><time>2026-04-07T16:46:57.974Z</time></trkpt><trkpt lat="44.7650467" lon="10.6668167"><ele>29.0</ele><time>2026-04-07T16:46:58.974Z</time></trkpt><trkpt lat="44.7649617" lon="10.66687"><ele>28.833333333333332</ele><time>2026-04-07T16:46:59.974Z</time></trkpt><trkpt lat="44.764885" lon="10.6669167"><ele>28.666666666666664</ele><time>2026-04-07T16:47:00.974Z</time></trkpt><trkpt lat="44.7648167" lon="10.666955"><ele>28.5</ele><time>2026-04-07T16:47:01.974Z</time></trkpt><trkpt lat="44.764755" lon="10.6669833"><ele>28.333333333333336</ele><time>2026-04-07T16:47:02.974Z</time></trkpt><trkpt lat="44.7646433" lon="10.6670183"><ele>28.166666666666668</ele><time>2026-04-07T16:47:04.974Z</time></trkpt><trkpt lat="44.7645567" lon="10.667075"><ele>28.0</ele><time>2026-04-07T16:47:06.974Z</time></trkpt><trkpt lat="44.764515" lon="10.6671967"><ele>28.2</ele><time>2026-04-07T16:47:08.974Z</time></trkpt><trkpt lat="44.764515" lon="10.6673633"><ele>28.4</ele><time>2026-04-07T16:47:10.973Z</time></trkpt><trkpt lat="44.764505" lon="10.6674683"><ele>28.599999999999998</ele><time>2026-04-07T16:47:11.973Z</time></trkpt><trkpt lat="44.76449" lon="10.6675867"><ele>28.799999999999997</ele><time>2026-04-07T16:47:12.974Z</time></trkpt><trkpt lat="44.7644667" lon="10.6677083"><ele>29.0</ele><time>2026-04-07T16:47:13.973Z</time></trkpt><trkpt lat="44.7644367" lon="10.6678317"><ele>29.0</ele><time>2026-04-07T16:47:14.974Z</time></trkpt><trkpt lat="44.7644017" lon="10.66796"><ele>29.0</ele><time>2026-04-07T16:47:15.974Z</time></trkpt><trkpt lat="44.7643583" lon="10.668095"><ele>29.0</ele><time>2026-04-07T16:47:16.974Z</time></trkpt><trkpt lat="44.7643233" lon="10.66823"><ele>29.0</ele><time>2026-04-07T16:47:17.974Z</time></trkpt><trkpt lat="44.764285" lon="10.6683617"><ele>29.0</ele><time>2026-04-07T16:47:18.973Z</time></trkpt><trkpt lat="44.764245" lon="10.6684783"><ele>28.833333333333332</ele><time>2026-04-07T16:47:19.974Z</time></trkpt><trkpt lat="44.764205" lon="10.6685917"><ele>28.666666666666664</ele><time>2026-04-07T16:47:20.974Z</time></trkpt><trkpt lat="44.7641717" lon="10.6686933"><ele>28.5</ele><time>2026-04-07T16:47:21.974Z</time></trkpt><trkpt lat="44.7641433" lon="10.6687867"><ele>28.333333333333336</ele><time>2026-04-07T16:47:22.974Z</time></trkpt><trkpt lat="44.7641183" lon="10.6688783"><ele>28.166666666666668</ele><time>2026-04-07T16:47:23.974Z</time></trkpt><trkpt lat="44.7640917" lon="10.668975"><ele>28.0</ele><time>2026-04-07T16:47:24.974Z</time></trkpt><trkpt lat="44.7640617" lon="10.6690833"><ele>28.4</ele><time>2026-04-07T16:47:25.974Z</time></trkpt><trkpt lat="44.7640267" lon="10.6692"><ele>28.799999999999997</ele><time>2026-04-07T16:47:26.974Z</time></trkpt><trkpt lat="44.7639883" lon="10.669325"><ele>29.2</ele><time>2026-04-07T16:47:27.974Z</time></trkpt><trkpt lat="44.7639467" lon="10.6694417"><ele>29.6</ele><time>2026-04-07T16:47:28.974Z</time></trkpt><trkpt lat="44.7639117" lon="10.6695617"><ele>30.0</ele><time>2026-04-07T16:47:29.974Z</time></trkpt><trkpt lat="44.763875" lon="10.6696783"><ele>30.0</ele><time>2026-04-07T16:47:30.974Z</time></trkpt><trkpt lat="44.7638383" lon="10.66979"><ele>30.0</ele><time>2026-04-07T16:47:31.974Z</time></trkpt><trkpt lat="44.763815" lon="10.6698883"><ele>30.0</ele><time>2026-04-07T16:47:32.974Z</time></trkpt><trkpt lat="44.7637983" lon="10.6699767"><ele>30.0</ele><time>2026-04-07T16:47:33.974Z</time></trkpt><trkpt lat="44.7637733" lon="10.67006"><ele>30.0</ele><time>2026-04-07T16:47:34.974Z</time></trkpt><trkpt lat="44.7637383" lon="10.6702383"><ele>30.0</ele><time>2026-04-07T16:47:36.974Z</time></trkpt><trkpt lat="44.7637217" lon="10.67034"><ele>29.833333333333332</ele><time>2026-04-07T16:47:37.974Z</time></trkpt><trkpt lat="44.7637017" lon="10.6704433"><ele>29.666666666666664</ele><time>2026-04-07T16:47:38.974Z</time></trkpt><trkpt lat="44.7636783" lon="10.6705517"><ele>29.5</ele><time>2026-04-07T16:47:39.974Z</time></trkpt><trkpt lat="44.763665" lon="10.6706783"><ele>29.333333333333332</ele><time>2026-04-07T16:47:40.974Z</time></trkpt><trkpt lat="44.7636583" lon="10.6707983"><ele>29.166666666666664</ele><time>2026-04-07T16:47:41.974Z</time></trkpt><trkpt lat="44.7636583" lon="10.670915"><ele>29.0</ele><time>2026-04-07T16:47:42.974Z</time></trkpt><trkpt lat="44.7636533" lon="10.671025"><ele>28.999999999999996</ele><time>2026-04-07T16:47:43.974Z</time></trkpt><trkpt lat="44.7636633" lon="10.6711317"><ele>29.0</ele><time>2026-04-07T16:47:44.973Z</time></trkpt><trkpt lat="44.7636633" lon="10.6712367"><ele>29.0</ele><time>2026-04-07T16:47:45.974Z</time></trkpt><trkpt lat="44.76366" lon="10.6713417"><ele>29.0</ele><time>2026-04-07T16:47:46.974Z</time></trkpt><trkpt lat="44.7636583" lon="10.6714467"><ele>28.999999999999996</ele><time>2026-04-07T16:47:47.973Z</time></trkpt><trkpt lat="44.76366" lon="10.6715617"><ele>29.0</ele><time>2026-04-07T16:47:48.974Z</time></trkpt><trkpt lat="44.7636683" lon="10.67166"><ele>29.0</ele><time>2026-04-07T16:47:49.974Z</time></trkpt><trkpt lat="44.7636733" lon="10.671755"><ele>29.0</ele><time>2026-04-07T16:47:50.974Z</time></trkpt><trkpt lat="44.76369" lon="10.6719217"><ele>29.0</ele><time>2026-04-07T16:47:52.974Z</time></trkpt><trkpt lat="44.7636867" lon="10.6720867"><ele>29.0</ele><time>2026-04-07T16:47:54.973Z</time></trkpt><trkpt lat="44.763695" lon="10.6721883"><ele>29.0</ele><time>2026-04-07T16:47:55.974Z</time></trkpt><trkpt lat="44.763695" lon="10.6722917"><ele>28.999999999999996</ele><time>2026-04-07T16:47:56.974Z</time></trkpt><trkpt lat="44.7637033" lon="10.6724017"><ele>29.0</ele><time>2026-04-07T16:47:57.974Z</time></trkpt><trkpt lat="44.76371" lon="10.6725"><ele>29.0</ele><time>2026-04-07T16:47:58.974Z</time></trkpt><trkpt lat="44.763715" lon="10.672595"><ele>29.0</ele><time>2026-04-07T16:47:59.974Z</time></trkpt><trkpt lat="44.76372" lon="10.6727383"><ele>28.999999999999996</ele><time>2026-04-07T16:48:01.974Z</time></trkpt><trkpt lat="44.76372" lon="10.672845"><ele>29.0</ele><time>2026-04-07T16:48:03.973Z</time></trkpt><trkpt lat="44.7637267" lon="10.6729433"><ele>29.333333333333332</ele><time>2026-04-07T16:48:05.973Z</time></trkpt><trkpt lat="44.7637133" lon="10.673075"><ele>29.666666666666664</ele><time>2026-04-07T16:48:23.974Z</time></trkpt><trkpt lat="44.763725" lon="10.673165"><ele>30.0</ele><time>2026-04-07T16:48:26.974Z</time></trkpt><trkpt lat="44.7637367" lon="10.6732767"><ele>30.333333333333336</ele><time>2026-04-07T16:48:29.974Z</time></trkpt><trkpt lat="44.7637183" lon="10.673385"><ele>30.666666666666668</ele><time>2026-04-07T16:48:40.974Z</time></trkpt><trkpt lat="44.7636433" lon="10.6734417"><ele>31.0</ele><time>2026-04-07T16:48:42.974Z</time></trkpt><trkpt lat="44.7635583" lon="10.67348"><ele>31.000000000000004</ele><time>2026-04-07T16:48:44.973Z</time></trkpt><trkpt lat="44.763475" lon="10.6734967"><ele>31.0</ele><time>2026-04-07T16:48:46.973Z</time></trkpt><trkpt lat="44.7633717" lon="10.6735117"><ele>31.0</ele><time>2026-04-07T16:48:48.974Z</time></trkpt><trkpt lat="44.7632867" lon="10.67357"><ele>31.0</ele><time>2026-04-07T16:48:50.973Z</time></trkpt><trkpt lat="44.7632533" lon="10.6736917"><ele>31.000000000000004</ele><time>2026-04-07T16:48:52.973Z</time></trkpt><trkpt lat="44.7632533" lon="10.6737817"><ele>31.0</ele><time>2026-04-07T16:48:53.974Z</time></trkpt><trkpt lat="44.7632517" lon="10.6738717"><ele>31.000000000000004</ele><time>2026-04-07T16:48:54.974Z</time></trkpt><trkpt lat="44.7632467" lon="10.6739667"><ele>31.0</ele><time>2026-04-07T16:48:55.974Z</time></trkpt><trkpt lat="44.76324" lon="10.67406"><ele>31.0</ele><time>2026-04-07T16:48:56.974Z</time></trkpt><trkpt lat="44.7632467" lon="10.6742333"><ele>31.0</ele><time>2026-04-07T16:48:58.974Z</time></trkpt><trkpt lat="44.76324" lon="10.67433"><ele>31.000000000000004</ele><time>2026-04-07T16:48:59.973Z</time></trkpt><trkpt lat="44.7632417" lon="10.67444"><ele>31.0</ele><time>2026-04-07T16:49:00.974Z</time></trkpt><trkpt lat="44.7632417" lon="10.67455"><ele>31.0</ele><time>2026-04-07T16:49:01.974Z</time></trkpt><trkpt lat="44.7632333" lon="10.6746683"><ele>31.0</ele><time>2026-04-07T16:49:02.974Z</time></trkpt><trkpt lat="44.7632217" lon="10.6747933"><ele>31.0</ele><time>2026-04-07T16:49:03.974Z</time></trkpt><trkpt lat="44.76321" lon="10.67493"><ele>31.0</ele><time>2026-04-07T16:49:04.974Z</time></trkpt><trkpt lat="44.7632033" lon="10.6750667"><ele>31.0</ele><time>2026-04-07T16:49:05.974Z</time></trkpt><trkpt lat="44.7631983" lon="10.6752067"><ele>31.166666666666668</ele><time>2026-04-07T16:49:06.974Z</time></trkpt><trkpt lat="44.7631967" lon="10.67535"><ele>31.333333333333336</ele><time>2026-04-07T16:49:07.974Z</time></trkpt><trkpt lat="44.7631917" lon="10.675485"><ele>31.5</ele><time>2026-04-07T16:49:08.973Z</time></trkpt><trkpt lat="44.7631867" lon="10.6756133"><ele>31.666666666666664</ele><time>2026-04-07T16:49:09.974Z</time></trkpt><trkpt lat="44.7631817" lon="10.675735"><ele>31.833333333333332</ele><time>2026-04-07T16:49:10.973Z</time></trkpt><trkpt lat="44.7631717" lon="10.675835"><ele>32.0</ele><time>2026-04-07T16:49:11.974Z</time></trkpt><trkpt lat="44.7631667" lon="10.6759417"><ele>31.999999999999996</ele><time>2026-04-07T16:49:12.974Z</time></trkpt><trkpt lat="44.76316" lon="10.6760483"><ele>32.0</ele><time>2026-04-07T16:49:13.974Z</time></trkpt><trkpt lat="44.7631567" lon="10.6761633"><ele>32.0</ele><time>2026-04-07T16:49:14.974Z</time></trkpt><trkpt lat="44.7631467" lon="10.676275"><ele>32.0</ele><time>2026-04-07T16:49:15.974Z</time></trkpt><trkpt lat="44.76314" lon="10.6763883"><ele>31.999999999999996</ele><time>2026-04-07T16:49:16.974Z</time></trkpt><trkpt lat="44.7631383" lon="10.676495"><ele>32.0</ele><time>2026-04-07T16:49:17.973Z</time></trkpt><trkpt lat="44.7631333" lon="10.67661"><ele>32.0</ele><time>2026-04-07T16:49:18.974Z</time></trkpt><trkpt lat="44.763135" lon="10.6767367"><ele>32.0</ele><time>2026-04-07T16:49:19.974Z</time></trkpt><trkpt lat="44.7631383" lon="10.67688"><ele>32.0</ele><time>2026-04-07T16:49:20.973Z</time></trkpt><trkpt lat="44.7631267" lon="10.6770417"><ele>32.0</ele><time>2026-04-07T16:49:21.973Z</time></trkpt><trkpt lat="44.7631217" lon="10.6771967"><ele>32.0</ele><time>2026-04-07T16:49:22.974Z</time></trkpt><trkpt lat="44.7631183" lon="10.6773583"><ele>31.75</ele><time>2026-04-07T16:49:23.973Z</time></trkpt><trkpt lat="44.7631133" lon="10.6775217"><ele>31.5</ele><time>2026-04-07T16:49:24.974Z</time></trkpt><trkpt lat="44.76311" lon="10.6776883"><ele>31.25</ele><time>2026-04-07T16:49:25.974Z</time></trkpt><trkpt lat="44.7631083" lon="10.6778583"><ele>31.0</ele><time>2026-04-07T16:49:26.974Z</time></trkpt><trkpt lat="44.763105" lon="10.6780067"><ele>31.0</ele><time>2026-04-07T16:49:27.973Z</time></trkpt><trkpt lat="44.763105" lon="10.6781533"><ele>31.0</ele><time>2026-04-07T16:49:28.973Z</time></trkpt><trkpt lat="44.7631167" lon="10.678305"><ele>31.0</ele><time>2026-04-07T16:49:29.974Z</time></trkpt><trkpt lat="44.7631283" lon="10.6784467"><ele>31.0</ele><time>2026-04-07T16:49:30.974Z</time></trkpt><trkpt lat="44.7631417" lon="10.67857"><ele>31.0</ele><time>2026-04-07T16:49:31.973Z</time></trkpt><trkpt lat="44.7631433" lon="10.67869"><ele>31.4</ele><time>2026-04-07T16:49:32.974Z</time></trkpt><trkpt lat="44.763145" lon="10.67879"><ele>31.8</ele><time>2026-04-07T16:49:33.974Z</time></trkpt><trkpt lat="44.7631333" lon="10.6789217"><ele>32.199999999999996</ele><time>2026-04-07T16:49:35.973Z</time></trkpt><trkpt lat="44.7631767" lon="10.6790433"><ele>32.6</ele><time>2026-04-07T16:49:38.974Z</time></trkpt><trkpt lat="44.7633017" lon="10.679105"><ele>33.0</ele><time>2026-04-07T16:49:40.974Z</time></trkpt><trkpt lat="44.7633833" lon="10.6791083"><ele>33.0</ele><time>2026-04-07T16:49:41.973Z</time></trkpt><trkpt lat="44.7634817" lon="10.67911"><ele>33.0</ele><time>2026-04-07T16:49:42.974Z</time></trkpt><trkpt lat="44.763595" lon="10.6791267"><ele>33.0</ele><time>2026-04-07T16:49:43.974Z</time></trkpt><trkpt lat="44.7637167" lon="10.679155"><ele>33.0</ele><time>2026-04-07T16:49:44.974Z</time></trkpt><trkpt lat="44.76384" lon="10.6791883"><ele>32.75</ele><time>2026-04-07T16:49:45.974Z</time></trkpt><trkpt lat="44.763965" lon="10.6792383"><ele>32.5</ele><time>2026-04-07T16:49:46.974Z</time></trkpt><trkpt lat="44.764095" lon="10.6793167"><ele>32.25</ele><time>2026-04-07T16:49:47.974Z</time></trkpt><trkpt lat="44.7642167" lon="10.67941"><ele>32.0</ele><time>2026-04-07T16:49:48.974Z</time></trkpt><trkpt lat="44.76433" lon="10.679515"><ele>31.75</ele><time>2026-04-07T16:49:49.974Z</time></trkpt><trkpt lat="44.76444" lon="10.6796217"><ele>31.5</ele><time>2026-04-07T16:49:50.974Z</time></trkpt><trkpt lat="44.7645417" lon="10.679725"><ele>31.25</ele><time>2026-04-07T16:49:51.973Z</time></trkpt><trkpt lat="44.7646367" lon="10.679815"><ele>31.0</ele><time>2026-04-07T16:49:52.974Z</time></trkpt><trkpt lat="44.7647183" lon="10.679895"><ele>31.0</ele><time>2026-04-07T16:49:53.974Z</time></trkpt><trkpt lat="44.764805" lon="10.6799667"><ele>31.0</ele><time>2026-04-07T16:49:54.974Z</time></trkpt><trkpt lat="44.7648783" lon="10.6800367"><ele>31.0</ele><time>2026-04-07T16:49:55.974Z</time></trkpt><trkpt lat="44.76494" lon="10.6801267"><ele>31.0</ele><time>2026-04-07T16:49:56.974Z</time></trkpt><trkpt lat="44.764985" lon="10.680245"><ele>31.0</ele><time>2026-04-07T16:49:57.974Z</time></trkpt><trkpt lat="44.765035" lon="10.6803717"><ele>31.0</ele><time>2026-04-07T16:49:58.973Z</time></trkpt><trkpt lat="44.7650833" lon="10.6805067"><ele>31.0</ele><time>2026-04-07T16:49:59.974Z</time></trkpt><trkpt lat="44.7651433" lon="10.68065"><ele>31.0</ele><time>2026-04-07T16:50:00.974Z</time></trkpt><trkpt lat="44.7651983" lon="10.6808117"><ele>31.0</ele><time>2026-04-07T16:50:01.974Z</time></trkpt><trkpt lat="44.76525" lon="10.6809867"><ele>31.0</ele><time>2026-04-07T16:50:02.974Z</time></trkpt><trkpt lat="44.7653033" lon="10.681175"><ele>31.0</ele><time>2026-04-07T16:50:03.973Z</time></trkpt><trkpt lat="44.765365" lon="10.6813583"><ele>31.0</ele><time>2026-04-07T16:50:04.974Z</time></trkpt><trkpt lat="44.7654167" lon="10.681545"><ele>31.0</ele><time>2026-04-07T16:50:05.974Z</time></trkpt><trkpt lat="44.7654683" lon="10.6817383"><ele>31.0</ele><time>2026-04-07T16:50:06.974Z</time></trkpt><trkpt lat="44.765525" lon="10.6819267"><ele>31.0</ele><time>2026-04-07T16:50:07.974Z</time></trkpt><trkpt lat="44.7655867" lon="10.682115"><ele>31.0</ele><time>2026-04-07T16:50:08.973Z</time></trkpt><trkpt lat="44.7656467" lon="10.6823067"><ele>31.0</ele><time>2026-04-07T16:50:09.974Z</time></trkpt><trkpt lat="44.7657067" lon="10.6824983"><ele>30.75</ele><time>2026-04-07T16:50:10.974Z</time></trkpt><trkpt lat="44.7657583" lon="10.6826933"><ele>30.5</ele><time>2026-04-07T16:50:11.974Z</time></trkpt><trkpt lat="44.7658167" lon="10.6828833"><ele>30.25</ele><time>2026-04-07T16:50:12.974Z</time></trkpt><trkpt lat="44.7658733" lon="10.6830733"><ele>30.0</ele><time>2026-04-07T16:50:13.974Z</time></trkpt><trkpt lat="44.7659333" lon="10.6832633"><ele>30.0</ele><time>2026-04-07T16:50:14.973Z</time></trkpt><trkpt lat="44.7659917" lon="10.683465"><ele>30.0</ele><time>2026-04-07T16:50:15.974Z</time></trkpt><trkpt lat="44.76605" lon="10.68367"><ele>30.0</ele><time>2026-04-07T16:50:16.974Z</time></trkpt><trkpt lat="44.7661033" lon="10.68388"><ele>30.333333333333336</ele><time>2026-04-07T16:50:17.974Z</time></trkpt><trkpt lat="44.7661567" lon="10.6840917"><ele>30.666666666666668</ele><time>2026-04-07T16:50:18.974Z</time></trkpt><trkpt lat="44.7662117" lon="10.6843033"><ele>31.0</ele><time>2026-04-07T16:50:19.974Z</time></trkpt><trkpt lat="44.7662683" lon="10.6845"><ele>31.0</ele><time>2026-04-07T16:50:20.974Z</time></trkpt><trkpt lat="44.7663283" lon="10.68469"><ele>31.0</ele><time>2026-04-07T16:50:21.973Z</time></trkpt><trkpt lat="44.7664033" lon="10.684875"><ele>31.0</ele><time>2026-04-07T16:50:22.974Z</time></trkpt><trkpt lat="44.76648" lon="10.6850617"><ele>31.0</ele><time>2026-04-07T16:50:23.974Z</time></trkpt><trkpt lat="44.7665583" lon="10.6852433"><ele>31.0</ele><time>2026-04-07T16:50:24.974Z</time></trkpt><trkpt lat="44.766645" lon="10.6854167"><ele>31.0</ele><time>2026-04-07T16:50:25.974Z</time></trkpt><trkpt lat="44.766735" lon="10.685595"><ele>31.0</ele><time>2026-04-07T16:50:26.974Z</time></trkpt><trkpt lat="44.766835" lon="10.6857617"><ele>31.0</ele><time>2026-04-07T16:50:27.974Z</time></trkpt><trkpt lat="44.7669317" lon="10.685935"><ele>31.0</ele><time>2026-04-07T16:50:28.974Z</time></trkpt><trkpt lat="44.767025" lon="10.68611"><ele>30.666666666666668</ele><time>2026-04-07T16:50:29.974Z</time></trkpt><trkpt lat="44.76712" lon="10.68629"><ele>30.333333333333336</ele><time>2026-04-07T16:50:30.974Z</time></trkpt><trkpt lat="44.7672117" lon="10.6864817"><ele>30.0</ele><time>2026-04-07T16:50:31.974Z</time></trkpt><trkpt lat="44.7673067" lon="10.68668"><ele>30.0</ele><time>2026-04-07T16:50:32.974Z</time></trkpt><trkpt lat="44.767395" lon="10.6868817"><ele>30.0</ele><time>2026-04-07T16:50:33.974Z</time></trkpt><trkpt lat="44.7674817" lon="10.6870883"><ele>30.0</ele><time>2026-04-07T16:50:34.974Z</time></trkpt><trkpt lat="44.7675567" lon="10.6873017"><ele>30.0</ele><time>2026-04-07T16:50:35.974Z</time></trkpt><trkpt lat="44.7676367" lon="10.6875117"><ele>30.0</ele><time>2026-04-07T16:50:36.974Z</time></trkpt><trkpt lat="44.7677167" lon="10.68772"><ele>30.0</ele><time>2026-04-07T16:50:37.974Z</time></trkpt><trkpt lat="44.7678033" lon="10.6879283"><ele>30.0</ele><time>2026-04-07T16:50:38.974Z</time></trkpt><trkpt lat="44.767895" lon="10.6881417"><ele>30.0</ele><time>2026-04-07T16:50:39.974Z</time></trkpt><trkpt lat="44.76799" lon="10.68835"><ele>30.0</ele><time>2026-04-07T16:50:40.974Z</time></trkpt><trkpt lat="44.76808" lon="10.6885617"><ele>30.0</ele><time>2026-04-07T16:50:41.974Z</time></trkpt><trkpt lat="44.7681667" lon="10.6887683"><ele>30.0</ele><time>2026-04-07T16:50:42.973Z</time></trkpt><trkpt lat="44.7682533" lon="10.688975"><ele>30.0</ele><time>2026-04-07T16:50:43.974Z</time></trkpt><trkpt lat="44.7683333" lon="10.689175"><ele>30.0</ele><time>2026-04-07T16:50:44.974Z</time></trkpt><trkpt lat="44.7684317" lon="10.6893817"><ele>30.0</ele><time>2026-04-07T16:50:45.974Z</time></trkpt><trkpt lat="44.7685217" lon="10.68959"><ele>30.0</ele><time>2026-04-07T16:50:46.974Z</time></trkpt><trkpt lat="44.7686117" lon="10.6897967"><ele>29.666666666666664</ele><time>2026-04-07T16:50:47.974Z</time></trkpt><trkpt lat="44.7687117" lon="10.6900067"><ele>29.333333333333332</ele><time>2026-04-07T16:50:48.974Z</time></trkpt><trkpt lat="44.76881" lon="10.6902167"><ele>29.0</ele><time>2026-04-07T16:50:49.974Z</time></trkpt><trkpt lat="44.76891" lon="10.6904067"><ele>29.0</ele><time>2026-04-07T16:50:50.973Z</time></trkpt><trkpt lat="44.7690067" lon="10.6905917"><ele>29.0</ele><time>2026-04-07T16:50:51.973Z</time></trkpt><trkpt lat="44.7690983" lon="10.6907833"><ele>29.0</ele><time>2026-04-07T16:50:52.974Z</time></trkpt><trkpt lat="44.769195" lon="10.690965"><ele>29.0</ele><time>2026-04-07T16:50:53.974Z</time></trkpt><trkpt lat="44.76929" lon="10.69115"><ele>29.0</ele><time>2026-04-07T16:50:54.974Z</time></trkpt><trkpt lat="44.76939" lon="10.6913367"><ele>29.0</ele><time>2026-04-07T16:50:55.974Z</time></trkpt><trkpt lat="44.76949" lon="10.6915167"><ele>29.0</ele><time>2026-04-07T16:50:56.974Z</time></trkpt><trkpt lat="44.7695933" lon="10.6917017"><ele>29.0</ele><time>2026-04-07T16:50:57.974Z</time></trkpt><trkpt lat="44.7697" lon="10.691885"><ele>29.0</ele><time>2026-04-07T16:50:58.973Z</time></trkpt><trkpt lat="44.76981" lon="10.6920717"><ele>28.666666666666664</ele><time>2026-04-07T16:50:59.971Z</time></trkpt><trkpt lat="44.7699167" lon="10.6922667"><ele>28.333333333333336</ele><time>2026-04-07T16:51:00.974Z</time></trkpt><trkpt lat="44.7700267" lon="10.6924583"><ele>28.0</ele><time>2026-04-07T16:51:01.974Z</time></trkpt><trkpt lat="44.770135" lon="10.6926517"><ele>28.666666666666668</ele><time>2026-04-07T16:51:02.974Z</time></trkpt><trkpt lat="44.770245" lon="10.6928533"><ele>29.333333333333336</ele><time>2026-04-07T16:51:03.973Z</time></trkpt><trkpt lat="44.770355" lon="10.6930533"><ele>30.0</ele><time>2026-04-07T16:51:04.974Z</time></trkpt><trkpt lat="44.7704667" lon="10.6932633"><ele>30.0</ele><time>2026-04-07T16:51:05.974Z</time></trkpt><trkpt lat="44.770575" lon="10.6934717"><ele>30.0</ele><time>2026-04-07T16:51:06.973Z</time></trkpt><trkpt lat="44.7706833" lon="10.6936817"><ele>30.0</ele><time>2026-04-07T16:51:07.974Z</time></trkpt><trkpt lat="44.7708017" lon="10.693895"><ele>30.0</ele><time>2026-04-07T16:51:08.974Z</time></trkpt><trkpt lat="44.7709133" lon="10.6941083"><ele>30.0</ele><time>2026-04-07T16:51:09.974Z</time></trkpt><trkpt lat="44.7710267" lon="10.6943267"><ele>30.0</ele><time>2026-04-07T16:51:10.974Z</time></trkpt><trkpt lat="44.7711417" lon="10.6945417"><ele>30.0</ele><time>2026-04-07T16:51:11.973Z</time></trkpt><trkpt lat="44.77126" lon="10.694755"><ele>30.0</ele><time>2026-04-07T16:51:12.974Z</time></trkpt><trkpt lat="44.771375" lon="10.69498"><ele>30.0</ele><time>2026-04-07T16:51:13.974Z</time></trkpt><trkpt lat="44.77149" lon="10.6952017"><ele>29.666666666666664</ele><time>2026-04-07T16:51:14.974Z</time></trkpt><trkpt lat="44.7716117" lon="10.69542"><ele>29.333333333333332</ele><time>2026-04-07T16:51:15.974Z</time></trkpt><trkpt lat="44.771735" lon="10.695635"><ele>29.0</ele><time>2026-04-07T16:51:16.974Z</time></trkpt><trkpt lat="44.7718533" lon="10.695855"><ele>29.333333333333332</ele><time>2026-04-07T16:51:17.974Z</time></trkpt><trkpt lat="44.7719733" lon="10.69607"><ele>29.666666666666664</ele><time>2026-04-07T16:51:18.974Z</time></trkpt><trkpt lat="44.77209" lon="10.6962833"><ele>30.0</ele><time>2026-04-07T16:51:19.973Z</time></trkpt><trkpt lat="44.7722067" lon="10.6965"><ele>30.333333333333336</ele><time>2026-04-07T16:51:20.974Z</time></trkpt><trkpt lat="44.772325" lon="10.6967133"><ele>30.666666666666668</ele><time>2026-04-07T16:51:21.973Z</time></trkpt><trkpt lat="44.7724483" lon="10.6969267"><ele>31.0</ele><time>2026-04-07T16:51:22.974Z</time></trkpt><trkpt lat="44.77256" lon="10.6971367"><ele>31.0</ele><time>2026-04-07T16:51:23.974Z</time></trkpt><trkpt lat="44.77268" lon="10.6973467"><ele>31.0</ele><time>2026-04-07T16:51:24.973Z</time></trkpt><trkpt lat="44.7727967" lon="10.69756"><ele>31.0</ele><time>2026-04-07T16:51:25.973Z</time></trkpt><trkpt lat="44.7729133" lon="10.6977717"><ele>30.333333333333336</ele><time>2026-04-07T16:51:26.974Z</time></trkpt><trkpt lat="44.77303" lon="10.6979817"><ele>29.666666666666664</ele><time>2026-04-07T16:51:27.974Z</time></trkpt><trkpt lat="44.7731467" lon="10.6981867"><ele>29.0</ele><time>2026-04-07T16:51:28.974Z</time></trkpt><trkpt lat="44.7732583" lon="10.6983917"><ele>29.0</ele><time>2026-04-07T16:51:29.974Z</time></trkpt><trkpt lat="44.7733767" lon="10.6985933"><ele>29.0</ele><time>2026-04-07T16:51:30.974Z</time></trkpt><trkpt lat="44.7734917" lon="10.698805"><ele>29.0</ele><time>2026-04-07T16:51:31.974Z</time></trkpt><trkpt lat="44.7736067" lon="10.6990117"><ele>29.0</ele><time>2026-04-07T16:51:32.973Z</time></trkpt><trkpt lat="44.7737367" lon="10.6992067"><ele>29.0</ele><time>2026-04-07T16:51:33.974Z</time></trkpt><trkpt lat="44.7738683" lon="10.6994"><ele>29.0</ele><time>2026-04-07T16:51:34.974Z</time></trkpt><trkpt lat="44.773995" lon="10.699595"><ele>29.333333333333332</ele><time>2026-04-07T16:51:35.974Z</time></trkpt><trkpt lat="44.774125" lon="10.6997833"><ele>29.666666666666664</ele><time>2026-04-07T16:51:36.974Z</time></trkpt><trkpt lat="44.774245" lon="10.6999683"><ele>30.0</ele><time>2026-04-07T16:51:37.974Z</time></trkpt><trkpt lat="44.7743633" lon="10.7001517"><ele>30.0</ele><time>2026-04-07T16:51:38.974Z</time></trkpt><trkpt lat="44.7744833" lon="10.7003483"><ele>30.0</ele><time>2026-04-07T16:51:39.974Z</time></trkpt><trkpt lat="44.7745983" lon="10.7005417"><ele>30.0</ele><time>2026-04-07T16:51:40.974Z</time></trkpt><trkpt lat="44.7747133" lon="10.7007333"><ele>30.0</ele><time>2026-04-07T16:51:41.974Z</time></trkpt><trkpt lat="44.7748217" lon="10.70091"><ele>30.0</ele><time>2026-04-07T16:51:42.974Z</time></trkpt><trkpt lat="44.774925" lon="10.7010867"><ele>30.0</ele><time>2026-04-07T16:51:43.974Z</time></trkpt><trkpt lat="44.7750317" lon="10.7012517"><ele>29.666666666666664</ele><time>2026-04-07T16:51:44.973Z</time></trkpt><trkpt lat="44.775145" lon="10.7014117"><ele>29.333333333333332</ele><time>2026-04-07T16:51:45.974Z</time></trkpt><trkpt lat="44.775275" lon="10.70156"><ele>29.0</ele><time>2026-04-07T16:51:46.974Z</time></trkpt><trkpt lat="44.7754117" lon="10.701695"><ele>28.666666666666664</ele><time>2026-04-07T16:51:47.974Z</time></trkpt><trkpt lat="44.77556" lon="10.70182"><ele>28.333333333333336</ele><time>2026-04-07T16:51:48.974Z</time></trkpt><trkpt lat="44.7757133" lon="10.7019467"><ele>28.0</ele><time>2026-04-07T16:51:49.974Z</time></trkpt><trkpt lat="44.7758667" lon="10.7020733"><ele>27.666666666666668</ele><time>2026-04-07T16:51:50.974Z</time></trkpt><trkpt lat="44.776025" lon="10.7022"><ele>27.333333333333336</ele><time>2026-04-07T16:51:51.974Z</time></trkpt><trkpt lat="44.7761733" lon="10.702325"><ele>27.0</ele><time>2026-04-07T16:51:52.974Z</time></trkpt><trkpt lat="44.77632" lon="10.70244"><ele>27.0</ele><time>2026-04-07T16:51:53.974Z</time></trkpt><trkpt lat="44.7764567" lon="10.7025467"><ele>27.0</ele><time>2026-04-07T16:51:54.974Z</time></trkpt><trkpt lat="44.77659" lon="10.702655"><ele>27.0</ele><time>2026-04-07T16:51:55.973Z</time></trkpt><trkpt lat="44.7767183" lon="10.702765"><ele>27.333333333333336</ele><time>2026-04-07T16:51:56.974Z</time></trkpt><trkpt lat="44.77684" lon="10.7028917"><ele>27.666666666666668</ele><time>2026-04-07T16:51:57.974Z</time></trkpt><trkpt lat="44.7769567" lon="10.70303"><ele>28.0</ele><time>2026-04-07T16:51:58.974Z</time></trkpt><trkpt lat="44.7770683" lon="10.7031817"><ele>28.666666666666668</ele><time>2026-04-07T16:51:59.974Z</time></trkpt><trkpt lat="44.7771783" lon="10.7033383"><ele>29.333333333333336</ele><time>2026-04-07T16:52:00.973Z</time></trkpt><trkpt lat="44.777285" lon="10.70351"><ele>30.0</ele><time>2026-04-07T16:52:01.974Z</time></trkpt><trkpt lat="44.77739" lon="10.703675"><ele>30.25</ele><time>2026-04-07T16:52:02.974Z</time></trkpt><trkpt lat="44.7774967" lon="10.70383"><ele>30.5</ele><time>2026-04-07T16:52:03.974Z</time></trkpt><trkpt lat="44.7775933" lon="10.703975"><ele>30.75</ele><time>2026-04-07T16:52:04.974Z</time></trkpt><trkpt lat="44.7776917" lon="10.7041267"><ele>31.0</ele><time>2026-04-07T16:52:05.973Z</time></trkpt><trkpt lat="44.777795" lon="10.70427"><ele>30.25</ele><time>2026-04-07T16:52:06.974Z</time></trkpt><trkpt lat="44.7779" lon="10.7044133"><ele>29.5</ele><time>2026-04-07T16:52:07.973Z</time></trkpt><trkpt lat="44.7779883" lon="10.7045717"><ele>28.75</ele><time>2026-04-07T16:52:08.974Z</time></trkpt><trkpt lat="44.7780867" lon="10.7047167"><ele>28.0</ele><time>2026-04-07T16:52:09.973Z</time></trkpt><trkpt lat="44.778185" lon="10.7048733"><ele>28.0</ele><time>2026-04-07T16:52:10.974Z</time></trkpt><trkpt lat="44.7782767" lon="10.7050433"><ele>28.0</ele><time>2026-04-07T16:52:11.974Z</time></trkpt><trkpt lat="44.778375" lon="10.70521"><ele>28.0</ele><time>2026-04-07T16:52:12.974Z</time></trkpt><trkpt lat="44.778465" lon="10.705385"><ele>28.0</ele><time>2026-04-07T16:52:13.974Z</time></trkpt><trkpt lat="44.7785433" lon="10.705575"><ele>28.0</ele><time>2026-04-07T16:52:14.974Z</time></trkpt><trkpt lat="44.7786183" lon="10.7057683"><ele>28.0</ele><time>2026-04-07T16:52:15.974Z</time></trkpt><trkpt lat="44.7786867" lon="10.7059717"><ele>28.666666666666668</ele><time>2026-04-07T16:52:16.974Z</time></trkpt><trkpt lat="44.7787533" lon="10.7061767"><ele>29.333333333333336</ele><time>2026-04-07T16:52:17.974Z</time></trkpt><trkpt lat="44.7788183" lon="10.7063883"><ele>30.0</ele><time>2026-04-07T16:52:18.974Z</time></trkpt><trkpt lat="44.77888" lon="10.7066117"><ele>30.0</ele><time>2026-04-07T16:52:19.974Z</time></trkpt><trkpt lat="44.7789583" lon="10.70683"><ele>30.0</ele><time>2026-04-07T16:52:20.974Z</time></trkpt><trkpt lat="44.7790333" lon="10.7070417"><ele>30.0</ele><time>2026-04-07T16:52:21.973Z</time></trkpt><trkpt lat="44.7791067" lon="10.7072633"><ele>30.666666666666664</ele><time>2026-04-07T16:52:22.974Z</time></trkpt><trkpt lat="44.7791833" lon="10.707485"><ele>31.333333333333332</ele><time>2026-04-07T16:52:23.974Z</time></trkpt><trkpt lat="44.7792683" lon="10.7076967"><ele>32.0</ele><time>2026-04-07T16:52:24.974Z</time></trkpt><trkpt lat="44.7793583" lon="10.707905"><ele>32.33333333333333</ele><time>2026-04-07T16:52:25.974Z</time></trkpt><trkpt lat="44.779455" lon="10.7081183"><ele>32.666666666666664</ele><time>2026-04-07T16:52:26.974Z</time></trkpt><trkpt lat="44.77956" lon="10.7083233"><ele>33.0</ele><time>2026-04-07T16:52:27.974Z</time></trkpt><trkpt lat="44.77966" lon="10.7085183"><ele>31.666666666666664</ele><time>2026-04-07T16:52:28.974Z</time></trkpt><trkpt lat="44.7797567" lon="10.7087283"><ele>30.333333333333332</ele><time>2026-04-07T16:52:29.974Z</time></trkpt><trkpt lat="44.7798567" lon="10.7089267"><ele>29.0</ele><time>2026-04-07T16:52:30.973Z</time></trkpt><trkpt lat="44.77996" lon="10.7091217"><ele>29.0</ele><time>2026-04-07T16:52:31.973Z</time></trkpt><trkpt lat="44.7800617" lon="10.70932"><ele>29.0</ele><time>2026-04-07T16:52:32.974Z</time></trkpt><trkpt lat="44.7801617" lon="10.7095067"><ele>29.0</ele><time>2026-04-07T16:52:33.973Z</time></trkpt><trkpt lat="44.780265" lon="10.7096967"><ele>29.333333333333332</ele><time>2026-04-07T16:52:34.974Z</time></trkpt><trkpt lat="44.7803683" lon="10.7098833"><ele>29.666666666666664</ele><time>2026-04-07T16:52:35.974Z</time></trkpt><trkpt lat="44.780475" lon="10.710065"><ele>30.0</ele><time>2026-04-07T16:52:36.974Z</time></trkpt><trkpt lat="44.780575" lon="10.7102533"><ele>29.333333333333336</ele><time>2026-04-07T16:52:37.974Z</time></trkpt><trkpt lat="44.7806767" lon="10.710445"><ele>28.666666666666668</ele><time>2026-04-07T16:52:38.974Z</time></trkpt><trkpt lat="44.7807783" lon="10.710625"><ele>28.0</ele><time>2026-04-07T16:52:39.974Z</time></trkpt><trkpt lat="44.7808783" lon="10.71081"><ele>28.0</ele><time>2026-04-07T16:52:40.974Z</time></trkpt><trkpt lat="44.7809817" lon="10.7109933"><ele>28.0</ele><time>2026-04-07T16:52:41.974Z</time></trkpt><trkpt lat="44.78108" lon="10.7111767"><ele>28.0</ele><time>2026-04-07T16:52:42.973Z</time></trkpt><trkpt lat="44.781175" lon="10.71136"><ele>28.25</ele><time>2026-04-07T16:52:43.974Z</time></trkpt><trkpt lat="44.7812633" lon="10.71153"><ele>28.5</ele><time>2026-04-07T16:52:44.974Z</time></trkpt><trkpt lat="44.7813517" lon="10.71169"><ele>28.75</ele><time>2026-04-07T16:52:45.974Z</time></trkpt><trkpt lat="44.7814383" lon="10.7118533"><ele>29.0</ele><time>2026-04-07T16:52:46.974Z</time></trkpt><trkpt lat="44.781525" lon="10.7120133"><ele>29.25</ele><time>2026-04-07T16:52:47.973Z</time></trkpt><trkpt lat="44.781615" lon="10.712175"><ele>29.5</ele><time>2026-04-07T16:52:48.973Z</time></trkpt><trkpt lat="44.7817" lon="10.7123333"><ele>29.75</ele><time>2026-04-07T16:52:49.974Z</time></trkpt><trkpt lat="44.7817833" lon="10.7124933"><ele>30.0</ele><time>2026-04-07T16:52:50.974Z</time></trkpt><trkpt lat="44.7818717" lon="10.7126383"><ele>30.25</ele><time>2026-04-07T16:52:51.974Z</time></trkpt><trkpt lat="44.7819533" lon="10.7127767"><ele>30.5</ele><time>2026-04-07T16:52:52.974Z</time></trkpt><trkpt lat="44.782035" lon="10.7129233"><ele>30.75</ele><time>2026-04-07T16:52:53.974Z</time></trkpt><trkpt lat="44.782115" lon="10.7130717"><ele>31.0</ele><time>2026-04-07T16:52:54.973Z</time></trkpt><trkpt lat="44.782195" lon="10.7132117"><ele>31.0</ele><time>2026-04-07T16:52:55.974Z</time></trkpt><trkpt lat="44.7822767" lon="10.7133583"><ele>31.0</ele><time>2026-04-07T16:52:56.974Z</time></trkpt><trkpt lat="44.7823533" lon="10.7135033"><ele>31.0</ele><time>2026-04-07T16:52:57.974Z</time></trkpt><trkpt lat="44.78243" lon="10.7136467"><ele>31.0</ele><time>2026-04-07T16:52:58.973Z</time></trkpt><trkpt lat="44.782515" lon="10.71379"><ele>31.0</ele><time>2026-04-07T16:52:59.974Z</time></trkpt><trkpt lat="44.7825983" lon="10.71394"><ele>31.0</ele><time>2026-04-07T16:53:00.974Z</time></trkpt><trkpt lat="44.7826817" lon="10.71409"><ele>31.0</ele><time>2026-04-07T16:53:01.974Z</time></trkpt><trkpt lat="44.7827533" lon="10.7142317"><ele>31.0</ele><time>2026-04-07T16:53:02.973Z</time></trkpt><trkpt lat="44.782825" lon="10.7143633"><ele>30.6</ele><time>2026-04-07T16:53:03.973Z</time></trkpt><trkpt lat="44.7828933" lon="10.7144867"><ele>30.200000000000003</ele><time>2026-04-07T16:53:04.973Z</time></trkpt><trkpt lat="44.7829567" lon="10.7146017"><ele>29.799999999999997</ele><time>2026-04-07T16:53:05.974Z</time></trkpt><trkpt lat="44.783015" lon="10.7147083"><ele>29.4</ele><time>2026-04-07T16:53:06.974Z</time></trkpt><trkpt lat="44.78307" lon="10.714815"><ele>29.0</ele><time>2026-04-07T16:53:07.974Z</time></trkpt><trkpt lat="44.783125" lon="10.7149117"><ele>28.999999999999996</ele><time>2026-04-07T16:53:08.974Z</time></trkpt><trkpt lat="44.7831767" lon="10.7150067"><ele>29.0</ele><time>2026-04-07T16:53:09.974Z</time></trkpt><trkpt lat="44.7832283" lon="10.7150833"><ele>29.0</ele><time>2026-04-07T16:53:10.974Z</time></trkpt><trkpt lat="44.7832633" lon="10.715175"><ele>29.0</ele><time>2026-04-07T16:53:11.973Z</time></trkpt><trkpt lat="44.7832367" lon="10.7153283"><ele>28.999999999999996</ele><time>2026-04-07T16:53:13.973Z</time></trkpt><trkpt lat="44.7831817" lon="10.7153717"><ele>29.0</ele><time>2026-04-07T16:53:14.974Z</time></trkpt><trkpt lat="44.7831017" lon="10.7154"><ele>29.0</ele><time>2026-04-07T16:53:15.974Z</time></trkpt><trkpt lat="44.7830033" lon="10.715425"><ele>29.0</ele><time>2026-04-07T16:53:16.974Z</time></trkpt><trkpt lat="44.7829" lon="10.7154617"><ele>29.0</ele><time>2026-04-07T16:53:17.973Z</time></trkpt><trkpt lat="44.7827833" lon="10.7154983"><ele>29.0</ele><time>2026-04-07T16:53:18.974Z</time></trkpt><trkpt lat="44.7826583" lon="10.71554"><ele>29.25</ele><time>2026-04-07T16:53:19.974Z</time></trkpt><trkpt lat="44.78253" lon="10.7155917"><ele>29.5</ele><time>2026-04-07T16:53:20.974Z</time></trkpt><trkpt lat="44.7824017" lon="10.715665"><ele>29.75</ele><time>2026-04-07T16:53:21.974Z</time></trkpt><trkpt lat="44.7822667" lon="10.7157633"><ele>30.0</ele><time>2026-04-07T16:53:22.974Z</time></trkpt><trkpt lat="44.782135" lon="10.7158817"><ele>30.0</ele><time>2026-04-07T16:53:23.974Z</time></trkpt><trkpt lat="44.7819917" lon="10.7160167"><ele>30.0</ele><time>2026-04-07T16:53:24.974Z</time></trkpt><trkpt lat="44.78186" lon="10.7161533"><ele>30.0</ele><time>2026-04-07T16:53:25.974Z</time></trkpt><trkpt lat="44.7817233" lon="10.7162917"><ele>30.0</ele><time>2026-04-07T16:53:26.974Z</time></trkpt><trkpt lat="44.7815867" lon="10.716445"><ele>30.0</ele><time>2026-04-07T16:53:27.974Z</time></trkpt><trkpt lat="44.7814783" lon="10.7166383"><ele>30.0</ele><time>2026-04-07T16:53:28.974Z</time></trkpt><trkpt lat="44.7813567" lon="10.716805"><ele>30.0</ele><time>2026-04-07T16:53:29.974Z</time></trkpt><trkpt lat="44.7812333" lon="10.7169567"><ele>30.0</ele><time>2026-04-07T16:53:30.974Z</time></trkpt><trkpt lat="44.7811117" lon="10.7171033"><ele>30.0</ele><time>2026-04-07T16:53:31.974Z</time></trkpt><trkpt lat="44.7809833" lon="10.7172333"><ele>30.25</ele><time>2026-04-07T16:53:32.973Z</time></trkpt><trkpt lat="44.78085" lon="10.7173417"><ele>30.5</ele><time>2026-04-07T16:53:33.974Z</time></trkpt><trkpt lat="44.7807283" lon="10.7174483"><ele>30.75</ele><time>2026-04-07T16:53:34.974Z</time></trkpt><trkpt lat="44.7806183" lon="10.7175767"><ele>31.0</ele><time>2026-04-07T16:53:35.974Z</time></trkpt><trkpt lat="44.78052" lon="10.7177167"><ele>30.666666666666668</ele><time>2026-04-07T16:53:36.974Z</time></trkpt><trkpt lat="44.780425" lon="10.7178833"><ele>30.333333333333336</ele><time>2026-04-07T16:53:37.974Z</time></trkpt><trkpt lat="44.7803267" lon="10.7180533"><ele>30.0</ele><time>2026-04-07T16:53:38.974Z</time></trkpt><trkpt lat="44.7802333" lon="10.7182283"><ele>30.333333333333336</ele><time>2026-04-07T16:53:39.974Z</time></trkpt><trkpt lat="44.780125" lon="10.7184117"><ele>30.666666666666668</ele><time>2026-04-07T16:53:40.974Z</time></trkpt><trkpt lat="44.7800117" lon="10.7185717"><ele>31.0</ele><time>2026-04-07T16:53:41.973Z</time></trkpt><trkpt lat="44.77989" lon="10.71874"><ele>31.0</ele><time>2026-04-07T16:53:42.974Z</time></trkpt><trkpt lat="44.77977" lon="10.718915"><ele>31.0</ele><time>2026-04-07T16:53:43.974Z</time></trkpt><trkpt lat="44.779655" lon="10.719105"><ele>31.0</ele><time>2026-04-07T16:53:44.973Z</time></trkpt><trkpt lat="44.7795483" lon="10.7193067"><ele>31.333333333333336</ele><time>2026-04-07T16:53:45.974Z</time></trkpt><trkpt lat="44.7794467" lon="10.71951"><ele>31.666666666666664</ele><time>2026-04-07T16:53:46.973Z</time></trkpt><trkpt lat="44.7793467" lon="10.7197183"><ele>32.0</ele><time>2026-04-07T16:53:47.973Z</time></trkpt><trkpt lat="44.7792467" lon="10.7199117"><ele>32.0</ele><time>2026-04-07T16:53:48.974Z</time></trkpt><trkpt lat="44.7791467" lon="10.7200917"><ele>32.0</ele><time>2026-04-07T16:53:49.974Z</time></trkpt><trkpt lat="44.779055" lon="10.7202667"><ele>32.0</ele><time>2026-04-07T16:53:50.974Z</time></trkpt><trkpt lat="44.7789667" lon="10.72045"><ele>32.0</ele><time>2026-04-07T16:53:51.974Z</time></trkpt><trkpt lat="44.778875" lon="10.7206333"><ele>32.0</ele><time>2026-04-07T16:53:52.974Z</time></trkpt><trkpt lat="44.7787817" lon="10.7208167"><ele>32.0</ele><time>2026-04-07T16:53:53.974Z</time></trkpt><trkpt lat="44.7786917" lon="10.7210083"><ele>31.666666666666664</ele><time>2026-04-07T16:53:54.974Z</time></trkpt><trkpt lat="44.7785933" lon="10.7211883"><ele>31.333333333333336</ele><time>2026-04-07T16:53:55.973Z</time></trkpt><trkpt lat="44.77849" lon="10.7213733"><ele>31.0</ele><time>2026-04-07T16:53:56.974Z</time></trkpt><trkpt lat="44.7783967" lon="10.721555"><ele>30.666666666666668</ele><time>2026-04-07T16:53:57.974Z</time></trkpt><trkpt lat="44.7783017" lon="10.721735"><ele>30.333333333333336</ele><time>2026-04-07T16:53:58.974Z</time></trkpt><trkpt lat="44.778205" lon="10.7219267"><ele>30.0</ele><time>2026-04-07T16:53:59.973Z</time></trkpt><trkpt lat="44.7781117" lon="10.7221167"><ele>30.0</ele><time>2026-04-07T16:54:00.974Z</time></trkpt><trkpt lat="44.778025" lon="10.7223083"><ele>30.0</ele><time>2026-04-07T16:54:01.974Z</time></trkpt><trkpt lat="44.7779433" lon="10.7224967"><ele>30.0</ele><time>2026-04-07T16:54:02.973Z</time></trkpt><trkpt lat="44.7778633" lon="10.7226817"><ele>30.333333333333336</ele><time>2026-04-07T16:54:03.974Z</time></trkpt><trkpt lat="44.7777883" lon="10.72288"><ele>30.666666666666668</ele><time>2026-04-07T16:54:04.973Z</time></trkpt><trkpt lat="44.7777117" lon="10.7230783"><ele>31.0</ele><time>2026-04-07T16:54:05.974Z</time></trkpt><trkpt lat="44.777635" lon="10.7232833"><ele>30.333333333333336</ele><time>2026-04-07T16:54:06.974Z</time></trkpt><trkpt lat="44.7775583" lon="10.7234917"><ele>29.666666666666664</ele><time>2026-04-07T16:54:07.974Z</time></trkpt><trkpt lat="44.77748" lon="10.7237"><ele>29.0</ele><time>2026-04-07T16:54:08.974Z</time></trkpt><trkpt lat="44.7773933" lon="10.72391"><ele>29.0</ele><time>2026-04-07T16:54:09.974Z</time></trkpt><trkpt lat="44.777305" lon="10.7241083"><ele>29.0</ele><time>2026-04-07T16:54:10.974Z</time></trkpt><trkpt lat="44.7771967" lon="10.7242917"><ele>29.0</ele><time>2026-04-07T16:54:11.974Z</time></trkpt><trkpt lat="44.777085" lon="10.7244483"><ele>29.25</ele><time>2026-04-07T16:54:12.974Z</time></trkpt><trkpt lat="44.7769733" lon="10.72458"><ele>29.5</ele><time>2026-04-07T16:54:13.974Z</time></trkpt><trkpt lat="44.7768733" lon="10.7247283"><ele>29.75</ele><time>2026-04-07T16:54:14.974Z</time></trkpt><trkpt lat="44.7767833" lon="10.7249067"><ele>30.0</ele><time>2026-04-07T16:54:15.973Z</time></trkpt><trkpt lat="44.7767083" lon="10.725095"><ele>30.0</ele><time>2026-04-07T16:54:16.974Z</time></trkpt><trkpt lat="44.7766467" lon="10.7252983"><ele>30.0</ele><time>2026-04-07T16:54:17.974Z</time></trkpt><trkpt lat="44.7765883" lon="10.725505"><ele>30.0</ele><time>2026-04-07T16:54:18.973Z</time></trkpt><trkpt lat="44.7765283" lon="10.7256983"><ele>30.0</ele><time>2026-04-07T16:54:19.974Z</time></trkpt><trkpt lat="44.776475" lon="10.72589"><ele>30.0</ele><time>2026-04-07T16:54:20.974Z</time></trkpt><trkpt lat="44.77642" lon="10.7260783"><ele>30.0</ele><time>2026-04-07T16:54:21.973Z</time></trkpt><trkpt lat="44.7763717" lon="10.7262633"><ele>30.0</ele><time>2026-04-07T16:54:22.973Z</time></trkpt><trkpt lat="44.776315" lon="10.7264467"><ele>30.0</ele><time>2026-04-07T16:54:23.974Z</time></trkpt><trkpt lat="44.776255" lon="10.72662"><ele>30.0</ele><time>2026-04-07T16:54:24.974Z</time></trkpt><trkpt lat="44.7761817" lon="10.7267767"><ele>30.0</ele><time>2026-04-07T16:54:25.974Z</time></trkpt><trkpt lat="44.7760883" lon="10.726915"><ele>30.0</ele><time>2026-04-07T16:54:26.974Z</time></trkpt><trkpt lat="44.7759983" lon="10.7270567"><ele>30.25</ele><time>2026-04-07T16:54:27.974Z</time></trkpt><trkpt lat="44.77592" lon="10.7272167"><ele>30.5</ele><time>2026-04-07T16:54:28.973Z</time></trkpt><trkpt lat="44.7758583" lon="10.7273867"><ele>30.75</ele><time>2026-04-07T16:54:29.973Z</time></trkpt><trkpt lat="44.7758067" lon="10.7275733"><ele>31.0</ele><time>2026-04-07T16:54:30.974Z</time></trkpt><trkpt lat="44.77576" lon="10.7277683"><ele>31.25</ele><time>2026-04-07T16:54:31.974Z</time></trkpt><trkpt lat="44.77571" lon="10.7279533"><ele>31.5</ele><time>2026-04-07T16:54:32.974Z</time></trkpt><trkpt lat="44.775665" lon="10.728145"><ele>31.75</ele><time>2026-04-07T16:54:33.974Z</time></trkpt><trkpt lat="44.7756183" lon="10.7283133"><ele>32.0</ele><time>2026-04-07T16:54:34.974Z</time></trkpt><trkpt lat="44.7755833" lon="10.7284767"><ele>31.75</ele><time>2026-04-07T16:54:35.974Z</time></trkpt><trkpt lat="44.7755483" lon="10.7286383"><ele>31.5</ele><time>2026-04-07T16:54:36.974Z</time></trkpt><trkpt lat="44.7755083" lon="10.7287967"><ele>31.25</ele><time>2026-04-07T16:54:37.973Z</time></trkpt><trkpt lat="44.7754783" lon="10.7289517"><ele>31.0</ele><time>2026-04-07T16:54:38.974Z</time></trkpt><trkpt lat="44.7754433" lon="10.7291033"><ele>31.0</ele><time>2026-04-07T16:54:39.974Z</time></trkpt><trkpt lat="44.775405" lon="10.72925"><ele>31.0</ele><time>2026-04-07T16:54:40.973Z</time></trkpt><trkpt lat="44.7753767" lon="10.7294"><ele>31.0</ele><time>2026-04-07T16:54:41.973Z</time></trkpt><trkpt lat="44.7753433" lon="10.7295417"><ele>31.0</ele><time>2026-04-07T16:54:42.974Z</time></trkpt><trkpt lat="44.7753133" lon="10.72968"><ele>31.0</ele><time>2026-04-07T16:54:43.973Z</time></trkpt><trkpt lat="44.77529" lon="10.7298133"><ele>30.833333333333336</ele><time>2026-04-07T16:54:44.974Z</time></trkpt><trkpt lat="44.7752683" lon="10.7299467"><ele>30.666666666666668</ele><time>2026-04-07T16:54:45.974Z</time></trkpt><trkpt lat="44.7752417" lon="10.7300667"><ele>30.5</ele><time>2026-04-07T16:54:46.974Z</time></trkpt><trkpt lat="44.7752167" lon="10.730175"><ele>30.333333333333336</ele><time>2026-04-07T16:54:47.974Z</time></trkpt><trkpt lat="44.77518" lon="10.7302733"><ele>30.166666666666668</ele><time>2026-04-07T16:54:48.974Z</time></trkpt><trkpt lat="44.7751483" lon="10.7303733"><ele>30.0</ele><time>2026-04-07T16:54:49.974Z</time></trkpt><trkpt lat="44.775125" lon="10.7304867"><ele>30.0</ele><time>2026-04-07T16:54:50.974Z</time></trkpt><trkpt lat="44.7751" lon="10.730595"><ele>30.0</ele><time>2026-04-07T16:54:51.973Z</time></trkpt><trkpt lat="44.775075" lon="10.7307167"><ele>30.0</ele><time>2026-04-07T16:54:52.974Z</time></trkpt><trkpt lat="44.7750417" lon="10.73086"><ele>30.0</ele><time>2026-04-07T16:54:53.973Z</time></trkpt><trkpt lat="44.775005" lon="10.731015"><ele>30.0</ele><time>2026-04-07T16:54:54.974Z</time></trkpt><trkpt lat="44.7749717" lon="10.7311567"><ele>30.4</ele><time>2026-04-07T16:54:55.974Z</time></trkpt><trkpt lat="44.7749283" lon="10.7312883"><ele>30.8</ele><time>2026-04-07T16:54:56.973Z</time></trkpt><trkpt lat="44.7748867" lon="10.7314217"><ele>31.200000000000003</ele><time>2026-04-07T16:54:57.974Z</time></trkpt><trkpt lat="44.7748433" lon="10.7315617"><ele>31.6</ele><time>2026-04-07T16:54:58.974Z</time></trkpt><trkpt lat="44.7747833" lon="10.7316917"><ele>32.0</ele><time>2026-04-07T16:54:59.974Z</time></trkpt><trkpt lat="44.7747167" lon="10.7317983"><ele>32.0</ele><time>2026-04-07T16:55:00.973Z</time></trkpt><trkpt lat="44.774645" lon="10.7318917"><ele>32.0</ele><time>2026-04-07T16:55:01.974Z</time></trkpt><trkpt lat="44.7745717" lon="10.7319883"><ele>32.0</ele><time>2026-04-07T16:55:02.973Z</time></trkpt><trkpt lat="44.7744967" lon="10.7320833"><ele>32.0</ele><time>2026-04-07T16:55:03.974Z</time></trkpt><trkpt lat="44.7744133" lon="10.732165"><ele>32.0</ele><time>2026-04-07T16:55:04.974Z</time></trkpt><trkpt lat="44.7743433" lon="10.73225"><ele>32.4</ele><time>2026-04-07T16:55:05.973Z</time></trkpt><trkpt lat="44.7742717" lon="10.7323367"><ele>32.800000000000004</ele><time>2026-04-07T16:55:06.974Z</time></trkpt><trkpt lat="44.7741967" lon="10.73242"><ele>33.2</ele><time>2026-04-07T16:55:07.973Z</time></trkpt><trkpt lat="44.7741333" lon="10.732505"><ele>33.6</ele><time>2026-04-07T16:55:08.973Z</time></trkpt><trkpt lat="44.7740783" lon="10.732605"><ele>34.0</ele><time>2026-04-07T16:55:09.973Z</time></trkpt><trkpt lat="44.7740483" lon="10.7327167"><ele>33.8</ele><time>2026-04-07T16:55:10.974Z</time></trkpt><trkpt lat="44.7740383" lon="10.7328317"><ele>33.599999999999994</ele><time>2026-04-07T16:55:11.974Z</time></trkpt><trkpt lat="44.7740633" lon="10.7329483"><ele>33.4</ele><time>2026-04-07T16:55:12.973Z</time></trkpt><trkpt lat="44.7741167" lon="10.7330717"><ele>33.199999999999996</ele><time>2026-04-07T16:55:13.973Z</time></trkpt><trkpt lat="44.7742017" lon="10.7331967"><ele>33.0</ele><time>2026-04-07T16:55:14.974Z</time></trkpt><trkpt lat="44.7742967" lon="10.7333517"><ele>33.0</ele><time>2026-04-07T16:55:15.973Z</time></trkpt><trkpt lat="44.7743883" lon="10.7335067"><ele>33.0</ele><time>2026-04-07T16:55:16.974Z</time></trkpt><trkpt lat="44.7744783" lon="10.7336733"><ele>33.0</ele><time>2026-04-07T16:55:17.974Z</time></trkpt><trkpt lat="44.77457" lon="10.7338483"><ele>33.0</ele><time>2026-04-07T16:55:18.973Z</time></trkpt><trkpt lat="44.774655" lon="10.73404"><ele>33.0</ele><time>2026-04-07T16:55:19.974Z</time></trkpt><trkpt lat="44.77473" lon="10.7342183"><ele>33.0</ele><time>2026-04-07T16:55:20.974Z</time></trkpt><trkpt lat="44.774795" lon="10.7343867"><ele>33.0</ele><time>2026-04-07T16:55:21.974Z</time></trkpt><trkpt lat="44.7748517" lon="10.73456"><ele>33.0</ele><time>2026-04-07T16:55:22.974Z</time></trkpt><trkpt lat="44.7749" lon="10.734735"><ele>33.0</ele><time>2026-04-07T16:55:23.973Z</time></trkpt><trkpt lat="44.7749433" lon="10.7349083"><ele>33.0</ele><time>2026-04-07T16:55:24.974Z</time></trkpt><trkpt lat="44.7749767" lon="10.7350783"><ele>33.0</ele><time>2026-04-07T16:55:25.974Z</time></trkpt><trkpt lat="44.7750017" lon="10.7352533"><ele>33.0</ele><time>2026-04-07T16:55:26.973Z</time></trkpt><trkpt lat="44.7750333" lon="10.73543"><ele>33.0</ele><time>2026-04-07T16:55:27.973Z</time></trkpt><trkpt lat="44.7750617" lon="10.7356083"><ele>33.0</ele><time>2026-04-07T16:55:28.973Z</time></trkpt><trkpt lat="44.7750933" lon="10.7357933"><ele>33.0</ele><time>2026-04-07T16:55:29.974Z</time></trkpt><trkpt lat="44.7751033" lon="10.7359867"><ele>33.0</ele><time>2026-04-07T16:55:30.974Z</time></trkpt><trkpt lat="44.7750917" lon="10.736175"><ele>32.5</ele><time>2026-04-07T16:55:31.973Z</time></trkpt><trkpt lat="44.7750733" lon="10.7363633"><ele>32.0</ele><time>2026-04-07T16:55:32.973Z</time></trkpt><trkpt lat="44.775055" lon="10.736565"><ele>31.5</ele><time>2026-04-07T16:55:33.974Z</time></trkpt><trkpt lat="44.7750283" lon="10.73676"><ele>31.0</ele><time>2026-04-07T16:55:34.974Z</time></trkpt><trkpt lat="44.7750133" lon="10.7369467"><ele>31.0</ele><time>2026-04-07T16:55:35.973Z</time></trkpt><trkpt lat="44.775" lon="10.7371133"><ele>31.0</ele><time>2026-04-07T16:55:36.974Z</time></trkpt><trkpt lat="44.7749983" lon="10.73728"><ele>31.0</ele><time>2026-04-07T16:55:37.974Z</time></trkpt><trkpt lat="44.7749767" lon="10.73745"><ele>31.0</ele><time>2026-04-07T16:55:38.974Z</time></trkpt><trkpt lat="44.7749483" lon="10.7376083"><ele>31.200000000000003</ele><time>2026-04-07T16:55:39.974Z</time></trkpt><trkpt lat="44.7749183" lon="10.7377633"><ele>31.400000000000002</ele><time>2026-04-07T16:55:40.974Z</time></trkpt><trkpt lat="44.7749017" lon="10.7379133"><ele>31.6</ele><time>2026-04-07T16:55:41.974Z</time></trkpt><trkpt lat="44.7748917" lon="10.738075"><ele>31.8</ele><time>2026-04-07T16:55:42.973Z</time></trkpt><trkpt lat="44.7748767" lon="10.7382283"><ele>32.0</ele><time>2026-04-07T16:55:43.974Z</time></trkpt><trkpt lat="44.7748583" lon="10.7383783"><ele>32.0</ele><time>2026-04-07T16:55:44.973Z</time></trkpt><trkpt lat="44.7748533" lon="10.7385317"><ele>32.0</ele><time>2026-04-07T16:55:45.973Z</time></trkpt><trkpt lat="44.7748333" lon="10.73867"><ele>32.0</ele><time>2026-04-07T16:55:46.973Z</time></trkpt><trkpt lat="44.7748217" lon="10.7388033"><ele>32.0</ele><time>2026-04-07T16:55:47.973Z</time></trkpt><trkpt lat="44.7748017" lon="10.7389417"><ele>32.0</ele><time>2026-04-07T16:55:48.973Z</time></trkpt><trkpt lat="44.77478" lon="10.73909"><ele>32.0</ele><time>2026-04-07T16:55:49.974Z</time></trkpt><trkpt lat="44.7747433" lon="10.7392533"><ele>32.0</ele><time>2026-04-07T16:55:50.974Z</time></trkpt><trkpt lat="44.7747017" lon="10.7394217"><ele>32.0</ele><time>2026-04-07T16:55:51.974Z</time></trkpt><trkpt lat="44.77466" lon="10.7396"><ele>32.0</ele><time>2026-04-07T16:55:52.974Z</time></trkpt><trkpt lat="44.77462" lon="10.7397883"><ele>32.0</ele><time>2026-04-07T16:55:53.974Z</time></trkpt><trkpt lat="44.7745783" lon="10.739985"><ele>32.0</ele><time>2026-04-07T16:55:54.973Z</time></trkpt><trkpt lat="44.77453" lon="10.740195"><ele>32.0</ele><time>2026-04-07T16:55:55.974Z</time></trkpt><trkpt lat="44.7744883" lon="10.7404083"><ele>31.333333333333332</ele><time>2026-04-07T16:55:56.974Z</time></trkpt><trkpt lat="44.7744483" lon="10.7406233"><ele>30.666666666666664</ele><time>2026-04-07T16:55:57.974Z</time></trkpt><trkpt lat="44.7744083" lon="10.7408483"><ele>30.0</ele><time>2026-04-07T16:55:58.974Z</time></trkpt><trkpt lat="44.7743917" lon="10.741075"><ele>29.666666666666664</ele><time>2026-04-07T16:55:59.974Z</time></trkpt><trkpt lat="44.7743817" lon="10.74131"><ele>29.333333333333332</ele><time>2026-04-07T16:56:00.973Z</time></trkpt><trkpt lat="44.7743783" lon="10.7415517"><ele>29.0</ele><time>2026-04-07T16:56:01.974Z</time></trkpt><trkpt lat="44.7743867" lon="10.7418067"><ele>29.0</ele><time>2026-04-07T16:56:02.973Z</time></trkpt><trkpt lat="44.7743817" lon="10.742065"><ele>29.0</ele><time>2026-04-07T16:56:03.974Z</time></trkpt><trkpt lat="44.7743817" lon="10.742335"><ele>29.0</ele><time>2026-04-07T16:56:04.974Z</time></trkpt><trkpt lat="44.7743883" lon="10.74261"><ele>29.0</ele><time>2026-04-07T16:56:05.974Z</time></trkpt><trkpt lat="44.7744" lon="10.742885"><ele>29.0</ele><time>2026-04-07T16:56:06.974Z</time></trkpt><trkpt lat="44.774415" lon="10.7431683"><ele>29.0</ele><time>2026-04-07T16:56:07.974Z</time></trkpt><trkpt lat="44.7744367" lon="10.7434533"><ele>29.666666666666664</ele><time>2026-04-07T16:56:08.974Z</time></trkpt><trkpt lat="44.7744533" lon="10.743745"><ele>30.333333333333336</ele><time>2026-04-07T16:56:09.974Z</time></trkpt><trkpt lat="44.7744733" lon="10.7440317"><ele>31.0</ele><time>2026-04-07T16:56:10.974Z</time></trkpt><trkpt lat="44.774485" lon="10.7442933"><ele>30.666666666666668</ele><time>2026-04-07T16:56:11.974Z</time></trkpt><trkpt lat="44.7745117" lon="10.7445383"><ele>30.333333333333336</ele><time>2026-04-07T16:56:12.974Z</time></trkpt><trkpt lat="44.7745333" lon="10.7447667"><ele>30.0</ele><time>2026-04-07T16:56:13.973Z</time></trkpt><trkpt lat="44.7745433" lon="10.7449767"><ele>30.0</ele><time>2026-04-07T16:56:14.974Z</time></trkpt><trkpt lat="44.7745517" lon="10.745175"><ele>30.0</ele><time>2026-04-07T16:56:15.973Z</time></trkpt><trkpt lat="44.7745517" lon="10.7453583"><ele>30.0</ele><time>2026-04-07T16:56:16.974Z</time></trkpt><trkpt lat="44.7745617" lon="10.745535"><ele>30.0</ele><time>2026-04-07T16:56:17.974Z</time></trkpt><trkpt lat="44.7745717" lon="10.7457133"><ele>30.0</ele><time>2026-04-07T16:56:18.974Z</time></trkpt><trkpt lat="44.7745883" lon="10.745905"><ele>30.0</ele><time>2026-04-07T16:56:19.973Z</time></trkpt><trkpt lat="44.7745983" lon="10.7460917"><ele>30.0</ele><time>2026-04-07T16:56:20.973Z</time></trkpt><trkpt lat="44.7746133" lon="10.7462867"><ele>30.0</ele><time>2026-04-07T16:56:21.974Z</time></trkpt><trkpt lat="44.7746217" lon="10.746525"><ele>30.0</ele><time>2026-04-07T16:56:22.974Z</time></trkpt><trkpt lat="44.7746217" lon="10.746795"><ele>30.0</ele><time>2026-04-07T16:56:23.973Z</time></trkpt><trkpt lat="44.774615" lon="10.747075"><ele>30.0</ele><time>2026-04-07T16:56:24.974Z</time></trkpt><trkpt lat="44.7746267" lon="10.7473383"><ele>30.666666666666664</ele><time>2026-04-07T16:56:25.974Z</time></trkpt><trkpt lat="44.7746383" lon="10.7475817"><ele>31.333333333333332</ele><time>2026-04-07T16:56:26.973Z</time></trkpt><trkpt lat="44.7746583" lon="10.74784"><ele>32.0</ele><time>2026-04-07T16:56:27.973Z</time></trkpt><trkpt lat="44.7746683" lon="10.7480983"><ele>32.0</ele><time>2026-04-07T16:56:28.974Z</time></trkpt><trkpt lat="44.774675" lon="10.7483483"><ele>32.0</ele><time>2026-04-07T16:56:29.974Z</time></trkpt><trkpt lat="44.7746767" lon="10.748585"><ele>32.0</ele><time>2026-04-07T16:56:30.974Z</time></trkpt><trkpt lat="44.7746883" lon="10.7488033"><ele>31.75</ele><time>2026-04-07T16:56:31.974Z</time></trkpt><trkpt lat="44.7747033" lon="10.7489967"><ele>31.5</ele><time>2026-04-07T16:56:32.974Z</time></trkpt><trkpt lat="44.7747383" lon="10.7491617"><ele>31.25</ele><time>2026-04-07T16:56:33.974Z</time></trkpt><trkpt lat="44.7748033" lon="10.7493083"><ele>31.0</ele><time>2026-04-07T16:56:34.974Z</time></trkpt><trkpt lat="44.7748967" lon="10.7494267"><ele>31.0</ele><time>2026-04-07T16:56:35.974Z</time></trkpt><trkpt lat="44.7750117" lon="10.7495"><ele>31.0</ele><time>2026-04-07T16:56:36.973Z</time></trkpt><trkpt lat="44.7751433" lon="10.7495567"><ele>31.0</ele><time>2026-04-07T16:56:37.974Z</time></trkpt><trkpt lat="44.7752667" lon="10.749615"><ele>31.0</ele><time>2026-04-07T16:56:38.974Z</time></trkpt><trkpt lat="44.7753783" lon="10.7496767"><ele>31.200000000000003</ele><time>2026-04-07T16:56:39.974Z</time></trkpt><trkpt lat="44.7754733" lon="10.7497467"><ele>31.400000000000002</ele><time>2026-04-07T16:56:40.974Z</time></trkpt><trkpt lat="44.7755417" lon="10.74983"><ele>31.6</ele><time>2026-04-07T16:56:41.973Z</time></trkpt><trkpt lat="44.7755633" lon="10.74993"><ele>31.8</ele><time>2026-04-07T16:56:42.974Z</time></trkpt><trkpt lat="44.775555" lon="10.7500533"><ele>32.0</ele><time>2026-04-07T16:56:43.974Z</time></trkpt><trkpt lat="44.7755183" lon="10.7502017"><ele>31.333333333333332</ele><time>2026-04-07T16:56:44.973Z</time></trkpt><trkpt lat="44.7754533" lon="10.7503767"><ele>30.666666666666664</ele><time>2026-04-07T16:56:45.974Z</time></trkpt><trkpt lat="44.7753683" lon="10.7505933"><ele>30.0</ele><time>2026-04-07T16:56:46.974Z</time></trkpt><trkpt lat="44.7752933" lon="10.7508383"><ele>30.0</ele><time>2026-04-07T16:56:47.974Z</time></trkpt><trkpt lat="44.7752217" lon="10.7510867"><ele>30.0</ele><time>2026-04-07T16:56:48.973Z</time></trkpt><trkpt lat="44.775155" lon="10.7513267"><ele>30.0</ele><time>2026-04-07T16:56:49.974Z</time></trkpt><trkpt lat="44.77511" lon="10.75159"><ele>30.0</ele><time>2026-04-07T16:56:50.973Z</time></trkpt><trkpt lat="44.7750917" lon="10.75186"><ele>30.0</ele><time>2026-04-07T16:56:51.973Z</time></trkpt><trkpt lat="44.7751117" lon="10.75214"><ele>30.0</ele><time>2026-04-07T16:56:52.974Z</time></trkpt><trkpt lat="44.7751483" lon="10.75244"><ele>30.0</ele><time>2026-04-07T16:56:53.974Z</time></trkpt><trkpt lat="44.775195" lon="10.75273"><ele>30.0</ele><time>2026-04-07T16:56:54.974Z</time></trkpt><trkpt lat="44.7752317" lon="10.7529983"><ele>30.0</ele><time>2026-04-07T16:56:55.974Z</time></trkpt><trkpt lat="44.7752583" lon="10.753225"><ele>30.0</ele><time>2026-04-07T16:56:56.973Z</time></trkpt><trkpt lat="44.7752867" lon="10.753415"><ele>30.0</ele><time>2026-04-07T16:56:57.974Z</time></trkpt><trkpt lat="44.775295" lon="10.75358"><ele>30.0</ele><time>2026-04-07T16:56:58.973Z</time></trkpt><trkpt lat="44.775305" lon="10.75374"><ele>30.0</ele><time>2026-04-07T16:56:59.974Z</time></trkpt><trkpt lat="44.7753" lon="10.753895"><ele>29.75</ele><time>2026-04-07T16:57:00.974Z</time></trkpt><trkpt lat="44.7752967" lon="10.75408"><ele>29.5</ele><time>2026-04-07T16:57:01.973Z</time></trkpt><trkpt lat="44.7752867" lon="10.754285"><ele>29.25</ele><time>2026-04-07T16:57:02.972Z</time></trkpt><trkpt lat="44.7752733" lon="10.7545033"><ele>29.0</ele><time>2026-04-07T16:57:03.973Z</time></trkpt><trkpt lat="44.77526" lon="10.754735"><ele>29.0</ele><time>2026-04-07T16:57:04.972Z</time></trkpt><trkpt lat="44.775255" lon="10.754975"><ele>29.0</ele><time>2026-04-07T16:57:05.973Z</time></trkpt><trkpt lat="44.7752667" lon="10.75521"><ele>29.0</ele><time>2026-04-07T16:57:06.973Z</time></trkpt><trkpt lat="44.7752933" lon="10.7554367"><ele>29.0</ele><time>2026-04-07T16:57:07.973Z</time></trkpt><trkpt lat="44.7752983" lon="10.7556417"><ele>29.0</ele><time>2026-04-07T16:57:08.973Z</time></trkpt><trkpt lat="44.77532" lon="10.7558217"><ele>29.0</ele><time>2026-04-07T16:57:09.973Z</time></trkpt><trkpt lat="44.7753383" lon="10.7559833"><ele>29.0</ele><time>2026-04-07T16:57:10.973Z</time></trkpt><trkpt lat="44.775355" lon="10.756115"><ele>29.0</ele><time>2026-04-07T16:57:11.973Z</time></trkpt><trkpt lat="44.7753867" lon="10.7562333"><ele>29.0</ele><time>2026-04-07T16:57:12.972Z</time></trkpt><trkpt lat="44.7754433" lon="10.7563183"><ele>29.0</ele><time>2026-04-07T16:57:13.973Z</time></trkpt><trkpt lat="44.775525" lon="10.75636"><ele>29.0</ele><time>2026-04-07T16:57:14.973Z</time></trkpt><trkpt lat="44.7756217" lon="10.7563633"><ele>29.0</ele><time>2026-04-07T16:57:15.972Z</time></trkpt><trkpt lat="44.7757133" lon="10.7563333"><ele>28.999999999999996</ele><time>2026-04-07T16:57:16.973Z</time></trkpt><trkpt lat="44.7757733" lon="10.756295"><ele>29.0</ele><time>2026-04-07T16:57:17.973Z</time></trkpt><trkpt lat="44.775845" lon="10.7562617"><ele>29.0</ele><time>2026-04-07T16:57:19.972Z</time></trkpt><trkpt lat="44.775915" lon="10.7562567"><ele>29.0</ele><time>2026-04-07T16:57:21.973Z</time></trkpt><trkpt lat="44.7759783" lon="10.756185"><ele>28.999999999999996</ele><time>2026-04-07T16:57:23.973Z</time></trkpt><trkpt lat="44.7759783" lon="10.756065"><ele>29.0</ele><time>2026-04-07T16:57:25.973Z</time></trkpt><trkpt lat="44.7759067" lon="10.756025"><ele>28.999999999999996</ele><time>2026-04-07T16:57:27.972Z</time></trkpt><trkpt lat="44.7758183" lon="10.756095"><ele>29.0</ele><time>2026-04-07T16:57:29.973Z</time></trkpt><trkpt lat="44.7757483" lon="10.7561683"><ele>29.0</ele><time>2026-04-07T16:57:30.972Z</time></trkpt><trkpt lat="44.77567" lon="10.7562333"><ele>29.0</ele><time>2026-04-07T16:57:31.973Z</time></trkpt><trkpt lat="44.7755917" lon="10.7562717"><ele>28.999999999999996</ele><time>2026-04-07T16:57:32.973Z</time></trkpt><trkpt lat="44.775505" lon="10.7562733"><ele>29.0</ele><time>2026-04-07T16:57:33.973Z</time></trkpt><trkpt lat="44.7754267" lon="10.7562367"><ele>29.0</ele><time>2026-04-07T16:57:34.973Z</time></trkpt><trkpt lat="44.775365" lon="10.7561417"><ele>29.0</ele><time>2026-04-07T16:57:35.973Z</time></trkpt><trkpt lat="44.77533" lon="10.756"><ele>29.0</ele><time>2026-04-07T16:57:36.973Z</time></trkpt><trkpt lat="44.7753217" lon="10.7557983"><ele>29.0</ele><time>2026-04-07T16:57:37.973Z</time></trkpt><trkpt lat="44.7753117" lon="10.7555967"><ele>29.0</ele><time>2026-04-07T16:57:38.972Z</time></trkpt><trkpt lat="44.7753067" lon="10.7554"><ele>29.0</ele><time>2026-04-07T16:57:39.973Z</time></trkpt><trkpt lat="44.775295" lon="10.75521"><ele>29.0</ele><time>2026-04-07T16:57:40.973Z</time></trkpt><trkpt lat="44.775285" lon="10.7550283"><ele>29.0</ele><time>2026-04-07T16:57:41.972Z</time></trkpt><trkpt lat="44.7752767" lon="10.7548383"><ele>29.0</ele><time>2026-04-07T16:57:42.973Z</time></trkpt><trkpt lat="44.775275" lon="10.7546767"><ele>29.0</ele><time>2026-04-07T16:57:43.973Z</time></trkpt><trkpt lat="44.7752783" lon="10.7545217"><ele>29.0</ele><time>2026-04-07T16:57:44.973Z</time></trkpt><trkpt lat="44.775285" lon="10.7543867"><ele>29.0</ele><time>2026-04-07T16:57:45.973Z</time></trkpt><trkpt lat="44.7752883" lon="10.7542567"><ele>29.0</ele><time>2026-04-07T16:57:46.972Z</time></trkpt><trkpt lat="44.7752983" lon="10.7541283"><ele>28.999999999999996</ele><time>2026-04-07T16:57:47.973Z</time></trkpt><trkpt lat="44.7752983" lon="10.7540033"><ele>29.0</ele><time>2026-04-07T16:57:48.973Z</time></trkpt><trkpt lat="44.7753" lon="10.753895"><ele>29.0</ele><time>2026-04-07T16:57:49.973Z</time></trkpt><trkpt lat="44.7753017" lon="10.7538017"><ele>29.0</ele><time>2026-04-07T16:57:50.973Z</time></trkpt><trkpt lat="44.7752917" lon="10.7536533"><ele>28.999999999999996</ele><time>2026-04-07T16:57:52.973Z</time></trkpt><trkpt lat="44.7752233" lon="10.7535883"><ele>29.0</ele><time>2026-04-07T16:57:54.973Z</time></trkpt><trkpt lat="44.7751583" lon="10.7535817"><ele>29.000000000000004</ele><time>2026-04-07T16:57:56.973Z</time></trkpt><trkpt lat="44.775095" lon="10.7535783"><ele>29.0</ele><time>2026-04-07T16:57:58.973Z</time></trkpt><trkpt lat="44.7750233" lon="10.7535867"><ele>29.000000000000004</ele><time>2026-04-07T16:58:01.972Z</time></trkpt><trkpt lat="44.77509" lon="10.75357"><ele>29.000000000000004</ele><time>2026-04-07T17:27:03.97Z</time></trkpt><trkpt lat="44.775155" lon="10.7535717"><ele>29.0</ele><time>2026-04-07T17:27:05.971Z</time></trkpt><trkpt lat="44.7752233" lon="10.753605"><ele>29.000000000000004</ele><time>2026-04-07T17:27:07.97Z</time></trkpt><trkpt lat="44.775285" lon="10.7536767"><ele>29.000000000000004</ele><time>2026-04-07T17:27:10.971Z</time></trkpt><trkpt lat="44.7753067" lon="10.7538383"><ele>29.0</ele><time>2026-04-07T17:27:12.971Z</time></trkpt><trkpt lat="44.775295" lon="10.75397"><ele>29.0</ele><time>2026-04-07T17:27:13.97Z</time></trkpt><trkpt lat="44.775285" lon="10.75415"><ele>29.0</ele><time>2026-04-07T17:27:14.97Z</time></trkpt><trkpt lat="44.7752683" lon="10.7543483"><ele>29.0</ele><time>2026-04-07T17:27:15.971Z</time></trkpt><trkpt lat="44.7752617" lon="10.7545283"><ele>29.0</ele><time>2026-04-07T17:27:16.971Z</time></trkpt><trkpt lat="44.77525" lon="10.75469"><ele>29.0</ele><time>2026-04-07T17:27:17.971Z</time></trkpt><trkpt lat="44.7752483" lon="10.75484"><ele>29.0</ele><time>2026-04-07T17:27:18.971Z</time></trkpt><trkpt lat="44.7752533" lon="10.7549783"><ele>29.0</ele><time>2026-04-07T17:27:19.97Z</time></trkpt><trkpt lat="44.7752583" lon="10.7551167"><ele>29.0</ele><time>2026-04-07T17:27:20.97Z</time></trkpt><trkpt lat="44.7752617" lon="10.755245"><ele>28.999999999999996</ele><time>2026-04-07T17:27:21.969Z</time></trkpt><trkpt lat="44.7752617" lon="10.7553617"><ele>29.0</ele><time>2026-04-07T17:27:22.97Z</time></trkpt><trkpt lat="44.7752683" lon="10.7554717"><ele>29.0</ele><time>2026-04-07T17:27:23.97Z</time></trkpt><trkpt lat="44.77528" lon="10.7555867"><ele>29.0</ele><time>2026-04-07T17:27:24.97Z</time></trkpt><trkpt lat="44.7752917" lon="10.7557167"><ele>28.999999999999996</ele><time>2026-04-07T17:27:25.97Z</time></trkpt><trkpt lat="44.77531" lon="10.7558733"><ele>29.0</ele><time>2026-04-07T17:27:26.97Z</time></trkpt><trkpt lat="44.77532" lon="10.75603"><ele>29.0</ele><time>2026-04-07T17:27:27.97Z</time></trkpt><trkpt lat="44.7753417" lon="10.7561583"><ele>29.0</ele><time>2026-04-07T17:27:28.97Z</time></trkpt><trkpt lat="44.7753933" lon="10.7562733"><ele>29.0</ele><time>2026-04-07T17:27:29.97Z</time></trkpt><trkpt lat="44.7754683" lon="10.7563517"><ele>29.0</ele><time>2026-04-07T17:27:30.969Z</time></trkpt><trkpt lat="44.77556" lon="10.7563633"><ele>29.0</ele><time>2026-04-07T17:27:31.97Z</time></trkpt><trkpt lat="44.77565" lon="10.75634"><ele>29.0</ele><time>2026-04-07T17:27:32.969Z</time></trkpt><trkpt lat="44.775745" lon="10.7562983"><ele>29.0</ele><time>2026-04-07T17:27:33.97Z</time></trkpt><trkpt lat="44.7758183" lon="10.7562783"><ele>29.0</ele><time>2026-04-07T17:27:34.97Z</time></trkpt><trkpt lat="44.7758817" lon="10.7562667"><ele>29.0</ele><time>2026-04-07T17:27:35.97Z</time></trkpt><trkpt lat="44.7759667" lon="10.75642"><ele>29.0</ele><time>2026-04-07T17:27:37.97Z</time></trkpt><trkpt lat="44.775995" lon="10.7565433"><ele>29.0</ele><time>2026-04-07T17:27:38.97Z</time></trkpt><trkpt lat="44.7759933" lon="10.7567067"><ele>29.0</ele><time>2026-04-07T17:27:39.97Z</time></trkpt><trkpt lat="44.7759817" lon="10.7568967"><ele>29.0</ele><time>2026-04-07T17:27:40.969Z</time></trkpt><trkpt lat="44.7759767" lon="10.757085"><ele>29.0</ele><time>2026-04-07T17:27:41.97Z</time></trkpt><trkpt lat="44.7759733" lon="10.7572817"><ele>29.333333333333332</ele><time>2026-04-07T17:27:42.97Z</time></trkpt><trkpt lat="44.7759617" lon="10.7575"><ele>29.666666666666664</ele><time>2026-04-07T17:27:43.969Z</time></trkpt><trkpt lat="44.7759433" lon="10.7577333"><ele>30.0</ele><time>2026-04-07T17:27:44.97Z</time></trkpt><trkpt lat="44.7759217" lon="10.7579817"><ele>30.0</ele><time>2026-04-07T17:27:45.97Z</time></trkpt><trkpt lat="44.7759083" lon="10.7582383"><ele>30.0</ele><time>2026-04-07T17:27:46.969Z</time></trkpt><trkpt lat="44.7759017" lon="10.7584933"><ele>30.0</ele><time>2026-04-07T17:27:47.969Z</time></trkpt><trkpt lat="44.7758867" lon="10.7587467"><ele>30.0</ele><time>2026-04-07T17:27:48.97Z</time></trkpt><trkpt lat="44.7758733" lon="10.7590017"><ele>30.0</ele><time>2026-04-07T17:27:49.97Z</time></trkpt><trkpt lat="44.775865" lon="10.7592667"><ele>30.0</ele><time>2026-04-07T17:27:50.969Z</time></trkpt><trkpt lat="44.77585" lon="10.75953"><ele>30.0</ele><time>2026-04-07T17:27:51.969Z</time></trkpt><trkpt lat="44.7758367" lon="10.7598083"><ele>30.0</ele><time>2026-04-07T17:27:52.969Z</time></trkpt><trkpt lat="44.77582" lon="10.7600833"><ele>30.0</ele><time>2026-04-07T17:27:53.97Z</time></trkpt><trkpt lat="44.775795" lon="10.76037"><ele>30.0</ele><time>2026-04-07T17:27:54.97Z</time></trkpt><trkpt lat="44.7757567" lon="10.7606417"><ele>30.0</ele><time>2026-04-07T17:27:55.97Z</time></trkpt><trkpt lat="44.77569" lon="10.760895"><ele>30.0</ele><time>2026-04-07T17:27:56.97Z</time></trkpt><trkpt lat="44.7756217" lon="10.76116"><ele>30.0</ele><time>2026-04-07T17:27:57.97Z</time></trkpt><trkpt lat="44.7755517" lon="10.76141"><ele>30.0</ele><time>2026-04-07T17:27:58.97Z</time></trkpt><trkpt lat="44.7754967" lon="10.76165"><ele>30.0</ele><time>2026-04-07T17:27:59.97Z</time></trkpt><trkpt lat="44.77542" lon="10.7618717"><ele>29.666666666666664</ele><time>2026-04-07T17:28:00.97Z</time></trkpt><trkpt lat="44.7753233" lon="10.7621033"><ele>29.333333333333332</ele><time>2026-04-07T17:28:01.97Z</time></trkpt><trkpt lat="44.7752233" lon="10.7623233"><ele>29.0</ele><time>2026-04-07T17:28:02.969Z</time></trkpt><trkpt lat="44.7751233" lon="10.7625317"><ele>29.333333333333332</ele><time>2026-04-07T17:28:03.97Z</time></trkpt><trkpt lat="44.7750233" lon="10.7627333"><ele>29.666666666666664</ele><time>2026-04-07T17:28:04.97Z</time></trkpt><trkpt lat="44.77493" lon="10.7629333"><ele>30.0</ele><time>2026-04-07T17:28:05.97Z</time></trkpt><trkpt lat="44.77483" lon="10.7631383"><ele>30.0</ele><time>2026-04-07T17:28:06.969Z</time></trkpt><trkpt lat="44.7747283" lon="10.7633433"><ele>30.0</ele><time>2026-04-07T17:28:07.97Z</time></trkpt><trkpt lat="44.77463" lon="10.7635533"><ele>30.0</ele><time>2026-04-07T17:28:08.97Z</time></trkpt><trkpt lat="44.7745267" lon="10.7637683"><ele>30.0</ele><time>2026-04-07T17:28:09.97Z</time></trkpt><trkpt lat="44.7744183" lon="10.7639917"><ele>30.0</ele><time>2026-04-07T17:28:10.97Z</time></trkpt><trkpt lat="44.7743117" lon="10.7642183"><ele>30.0</ele><time>2026-04-07T17:28:11.969Z</time></trkpt><trkpt lat="44.774205" lon="10.7644483"><ele>29.333333333333336</ele><time>2026-04-07T17:28:12.97Z</time></trkpt><trkpt lat="44.7740933" lon="10.7646717"><ele>28.666666666666668</ele><time>2026-04-07T17:28:13.969Z</time></trkpt><trkpt lat="44.7739867" lon="10.7648917"><ele>28.0</ele><time>2026-04-07T17:28:14.97Z</time></trkpt><trkpt lat="44.7738883" lon="10.7650967"><ele>29.0</ele><time>2026-04-07T17:28:15.97Z</time></trkpt><trkpt lat="44.7737867" lon="10.7653"><ele>30.0</ele><time>2026-04-07T17:28:16.97Z</time></trkpt><trkpt lat="44.773685" lon="10.7654967"><ele>31.0</ele><time>2026-04-07T17:28:17.97Z</time></trkpt><trkpt lat="44.7735767" lon="10.7656917"><ele>31.0</ele><time>2026-04-07T17:28:18.97Z</time></trkpt><trkpt lat="44.77347" lon="10.7658867"><ele>31.0</ele><time>2026-04-07T17:28:19.97Z</time></trkpt><trkpt lat="44.7733683" lon="10.76608"><ele>31.0</ele><time>2026-04-07T17:28:20.97Z</time></trkpt><trkpt lat="44.7732733" lon="10.7662783"><ele>30.666666666666668</ele><time>2026-04-07T17:28:21.969Z</time></trkpt><trkpt lat="44.77318" lon="10.7664583"><ele>30.333333333333336</ele><time>2026-04-07T17:28:22.97Z</time></trkpt><trkpt lat="44.773095" lon="10.76663"><ele>30.0</ele><time>2026-04-07T17:28:23.97Z</time></trkpt><trkpt lat="44.7730117" lon="10.7667967"><ele>30.0</ele><time>2026-04-07T17:28:24.97Z</time></trkpt><trkpt lat="44.77293" lon="10.766955"><ele>30.0</ele><time>2026-04-07T17:28:25.97Z</time></trkpt><trkpt lat="44.77285" lon="10.7671117"><ele>30.0</ele><time>2026-04-07T17:28:26.97Z</time></trkpt><trkpt lat="44.7727683" lon="10.7672717"><ele>30.0</ele><time>2026-04-07T17:28:27.969Z</time></trkpt><trkpt lat="44.772695" lon="10.7674283"><ele>30.0</ele><time>2026-04-07T17:28:28.97Z</time></trkpt><trkpt lat="44.7726133" lon="10.7675633"><ele>30.0</ele><time>2026-04-07T17:28:29.969Z</time></trkpt><trkpt lat="44.772545" lon="10.7677017"><ele>30.0</ele><time>2026-04-07T17:28:30.969Z</time></trkpt><trkpt lat="44.7724833" lon="10.7678267"><ele>30.0</ele><time>2026-04-07T17:28:31.97Z</time></trkpt><trkpt lat="44.7724217" lon="10.7679383"><ele>30.4</ele><time>2026-04-07T17:28:32.969Z</time></trkpt><trkpt lat="44.7723667" lon="10.7680433"><ele>30.8</ele><time>2026-04-07T17:28:33.97Z</time></trkpt><trkpt lat="44.7723033" lon="10.76814"><ele>31.200000000000003</ele><time>2026-04-07T17:28:34.97Z</time></trkpt><trkpt lat="44.77225" lon="10.768245"><ele>31.6</ele><time>2026-04-07T17:28:35.969Z</time></trkpt><trkpt lat="44.7722" lon="10.7683267"><ele>32.0</ele><time>2026-04-07T17:28:36.97Z</time></trkpt><trkpt lat="44.7721517" lon="10.768445"><ele>31.999999999999996</ele><time>2026-04-07T17:28:38.97Z</time></trkpt><trkpt lat="44.7721" lon="10.768525"><ele>32.0</ele><time>2026-04-07T17:28:41.97Z</time></trkpt><trkpt lat="44.77201" lon="10.7685567"><ele>32.0</ele><time>2026-04-07T17:28:44.97Z</time></trkpt><trkpt lat="44.7719167" lon="10.7684483"><ele>32.0</ele><time>2026-04-07T17:28:46.97Z</time></trkpt><trkpt lat="44.7718667" lon="10.768375"><ele>31.999999999999996</ele><time>2026-04-07T17:28:47.97Z</time></trkpt><trkpt lat="44.7718033" lon="10.7683"><ele>32.0</ele><time>2026-04-07T17:28:48.97Z</time></trkpt><trkpt lat="44.7717433" lon="10.768225"><ele>31.999999999999996</ele><time>2026-04-07T17:28:49.97Z</time></trkpt><trkpt lat="44.7716883" lon="10.7681583"><ele>32.0</ele><time>2026-04-07T17:28:50.97Z</time></trkpt><trkpt lat="44.7716383" lon="10.7681"><ele>32.0</ele><time>2026-04-07T17:28:51.97Z</time></trkpt><trkpt lat="44.7715667" lon="10.76804"><ele>32.0</ele><time>2026-04-07T17:28:53.97Z</time></trkpt><trkpt lat="44.7714783" lon="10.76799"><ele>31.999999999999996</ele><time>2026-04-07T17:28:56.97Z</time></trkpt><trkpt lat="44.7713817" lon="10.7679217"><ele>32.0</ele><time>2026-04-07T17:28:58.969Z</time></trkpt><trkpt lat="44.7713083" lon="10.767855"><ele>32.0</ele><time>2026-04-07T17:28:59.969Z</time></trkpt><trkpt lat="44.7712267" lon="10.7677717"><ele>32.0</ele><time>2026-04-07T17:29:00.97Z</time></trkpt><trkpt lat="44.7711433" lon="10.7676667"><ele>32.0</ele><time>2026-04-07T17:29:01.97Z</time></trkpt><trkpt lat="44.7710433" lon="10.767555"><ele>32.0</ele><time>2026-04-07T17:29:02.969Z</time></trkpt><trkpt lat="44.7709467" lon="10.76741"><ele>32.33333333333333</ele><time>2026-04-07T17:29:03.97Z</time></trkpt><trkpt lat="44.7708383" lon="10.7672417"><ele>32.666666666666664</ele><time>2026-04-07T17:29:04.97Z</time></trkpt><trkpt lat="44.7707233" lon="10.7670833"><ele>33.0</ele><time>2026-04-07T17:29:05.969Z</time></trkpt><trkpt lat="44.770615" lon="10.76694"><ele>33.0</ele><time>2026-04-07T17:29:06.97Z</time></trkpt><trkpt lat="44.7705167" lon="10.7668067"><ele>33.0</ele><time>2026-04-07T17:29:07.97Z</time></trkpt><trkpt lat="44.77043" lon="10.7666967"><ele>33.0</ele><time>2026-04-07T17:29:08.97Z</time></trkpt><trkpt lat="44.7703567" lon="10.766605"><ele>33.0</ele><time>2026-04-07T17:29:09.97Z</time></trkpt><trkpt lat="44.7703" lon="10.7665467"><ele>33.0</ele><time>2026-04-07T17:29:10.97Z</time></trkpt><trkpt lat="44.770195" lon="10.766525"><ele>32.8</ele><time>2026-04-07T17:29:12.97Z</time></trkpt><trkpt lat="44.7701233" lon="10.76663"><ele>32.599999999999994</ele><time>2026-04-07T17:29:14.97Z</time></trkpt><trkpt lat="44.7700867" lon="10.7668033"><ele>32.400000000000006</ele><time>2026-04-07T17:29:16.969Z</time></trkpt><trkpt lat="44.770075" lon="10.7668967"><ele>32.2</ele><time>2026-04-07T17:29:17.97Z</time></trkpt><trkpt lat="44.7700583" lon="10.7669867"><ele>32.0</ele><time>2026-04-07T17:29:18.969Z</time></trkpt><trkpt lat="44.7699833" lon="10.7671017"><ele>31.999999999999996</ele><time>2026-04-07T17:29:20.97Z</time></trkpt><trkpt lat="44.7699083" lon="10.76709"><ele>32.0</ele><time>2026-04-07T17:29:21.97Z</time></trkpt><trkpt lat="44.7698267" lon="10.7670433"><ele>32.0</ele><time>2026-04-07T17:29:22.97Z</time></trkpt><trkpt lat="44.76974" lon="10.7669883"><ele>32.0</ele><time>2026-04-07T17:29:23.97Z</time></trkpt><trkpt lat="44.7696617" lon="10.766945"><ele>31.999999999999996</ele><time>2026-04-07T17:29:24.97Z</time></trkpt><trkpt lat="44.7695817" lon="10.7669267"><ele>32.0</ele><time>2026-04-07T17:29:25.969Z</time></trkpt><trkpt lat="44.7695183" lon="10.766955"><ele>32.0</ele><time>2026-04-07T17:29:26.97Z</time></trkpt><trkpt lat="44.7694333" lon="10.767075"><ele>32.0</ele><time>2026-04-07T17:29:28.97Z</time></trkpt><trkpt lat="44.7694" lon="10.7671717"><ele>32.0</ele><time>2026-04-07T17:29:29.969Z</time></trkpt><trkpt lat="44.769375" lon="10.7672733"><ele>32.0</ele><time>2026-04-07T17:29:30.97Z</time></trkpt><trkpt lat="44.7693467" lon="10.767365"><ele>32.0</ele><time>2026-04-07T17:29:31.97Z</time></trkpt><trkpt lat="44.7692533" lon="10.7674583"><ele>31.999999999999996</ele><time>2026-04-07T17:29:33.97Z</time></trkpt><trkpt lat="44.769175" lon="10.7674283"><ele>32.0</ele><time>2026-04-07T17:29:34.97Z</time></trkpt><trkpt lat="44.7690983" lon="10.76738"><ele>32.0</ele><time>2026-04-07T17:29:35.969Z</time></trkpt><trkpt lat="44.7690133" lon="10.7673233"><ele>32.0</ele><time>2026-04-07T17:29:36.97Z</time></trkpt><trkpt lat="44.768945" lon="10.76731"><ele>31.999999999999996</ele><time>2026-04-07T17:29:37.969Z</time></trkpt><trkpt lat="44.7688667" lon="10.7672867"><ele>32.0</ele><time>2026-04-07T17:29:39.969Z</time></trkpt><trkpt lat="44.7688083" lon="10.7673333"><ele>31.999999999999996</ele><time>2026-04-07T17:29:45.97Z</time></trkpt><trkpt lat="44.7687717" lon="10.7674717"><ele>32.0</ele><time>2026-04-07T17:29:47.969Z</time></trkpt><trkpt lat="44.76875" lon="10.7675617"><ele>32.0</ele><time>2026-04-07T17:29:48.97Z</time></trkpt><trkpt lat="44.7687317" lon="10.7676567"><ele>32.0</ele><time>2026-04-07T17:29:49.97Z</time></trkpt><trkpt lat="44.7687083" lon="10.767765"><ele>31.999999999999996</ele><time>2026-04-07T17:29:50.97Z</time></trkpt><trkpt lat="44.7686817" lon="10.7679033"><ele>32.0</ele><time>2026-04-07T17:29:51.97Z</time></trkpt><trkpt lat="44.7686533" lon="10.76805"><ele>32.0</ele><time>2026-04-07T17:29:52.97Z</time></trkpt><trkpt lat="44.768625" lon="10.768205"><ele>32.0</ele><time>2026-04-07T17:29:53.97Z</time></trkpt><trkpt lat="44.7685917" lon="10.7683333"><ele>32.0</ele><time>2026-04-07T17:29:54.97Z</time></trkpt><trkpt lat="44.7685767" lon="10.7684617"><ele>32.0</ele><time>2026-04-07T17:29:55.97Z</time></trkpt><trkpt lat="44.7685633" lon="10.768565"><ele>32.0</ele><time>2026-04-07T17:29:56.97Z</time></trkpt><trkpt lat="44.7685733" lon="10.768715"><ele>31.833333333333332</ele><time>2026-04-07T17:29:58.97Z</time></trkpt><trkpt lat="44.7686517" lon="10.7688133"><ele>31.666666666666664</ele><time>2026-04-07T17:30:00.97Z</time></trkpt><trkpt lat="44.768715" lon="10.768855"><ele>31.5</ele><time>2026-04-07T17:30:01.969Z</time></trkpt><trkpt lat="44.76879" lon="10.7689033"><ele>31.333333333333336</ele><time>2026-04-07T17:30:02.97Z</time></trkpt><trkpt lat="44.768865" lon="10.768935"><ele>31.166666666666668</ele><time>2026-04-07T17:30:03.969Z</time></trkpt><trkpt lat="44.76893" lon="10.76897"><ele>31.0</ele><time>2026-04-07T17:30:04.969Z</time></trkpt><trkpt lat="44.768995" lon="10.769"><ele>31.000000000000004</ele><time>2026-04-07T17:30:05.97Z</time></trkpt><trkpt lat="44.7690617" lon="10.76903"><ele>31.0</ele><time>2026-04-07T17:30:06.97Z</time></trkpt><trkpt lat="44.7691333" lon="10.7690667"><ele>31.0</ele><time>2026-04-07T17:30:07.97Z</time></trkpt><trkpt lat="44.76921" lon="10.7691033"><ele>31.0</ele><time>2026-04-07T17:30:08.969Z</time></trkpt><trkpt lat="44.76929" lon="10.7691467"><ele>31.000000000000004</ele><time>2026-04-07T17:30:09.969Z</time></trkpt><trkpt lat="44.76937" lon="10.7691833"><ele>31.0</ele><time>2026-04-07T17:30:10.97Z</time></trkpt><trkpt lat="44.7694483" lon="10.76923"><ele>30.8</ele><time>2026-04-07T17:30:11.97Z</time></trkpt><trkpt lat="44.7695283" lon="10.7692767"><ele>30.6</ele><time>2026-04-07T17:30:12.97Z</time></trkpt><trkpt lat="44.7696083" lon="10.7693317"><ele>30.4</ele><time>2026-04-07T17:30:13.97Z</time></trkpt><trkpt lat="44.7696717" lon="10.7693683"><ele>30.2</ele><time>2026-04-07T17:30:14.97Z</time></trkpt><trkpt lat="44.7697717" lon="10.7694367"><ele>30.0</ele><time>2026-04-07T17:30:16.97Z</time></trkpt><trkpt lat="44.7698717" lon="10.769495"><ele>30.0</ele><time>2026-04-07T17:30:18.97Z</time></trkpt><trkpt lat="44.76995" lon="10.7695517"><ele>30.0</ele><time>2026-04-07T17:30:20.969Z</time></trkpt><trkpt lat="44.7700183" lon="10.7696017"><ele>30.0</ele><time>2026-04-07T17:33:00.97Z</time></trkpt><trkpt lat="44.7700467" lon="10.76952"><ele>30.0</ele><time>2026-04-07T17:33:03.97Z</time></trkpt></trkseg></trk></gpx>